# Wetter Temperatur Luftdruck Luftfeuchtigkeit Sichtweite Windgeschwindigkeit Windrichtung Zeit
1 Clouds 7 1023 95 10000 1.92 294 08:30 02.10.2022
2 Rain 7 1023 96 6422 2.96 319 05:23 02.10.2022
3 Rain 7 1022 96 4026 2.99 318 01:29 02.10.2022
4 Rain 7 1022 96 4026 2.99 318 00:38 02.10.2022
5 Rain 7 1021 96 1421 3.15 314 23:29 01.10.2022
6 Rain 7 1020 96 4153 2.9 314 21:58 01.10.2022
7 Rain 7 1017 95 2873 2.66 289 19:21 01.10.2022
8 Rain 7 1017 93 2158 2 293 17:46 01.10.2022
9 Rain 9 1016 95 5065 2.24 266 15:32 01.10.2022
10 Rain 9 1017 89 8029 1.93 238 14:18 01.10.2022
11 Rain 9 1017 76 5801 1.78 232 12:35 01.10.2022
12 Clouds 5 1016 82 10000 2.06 247 11:23 01.10.2022
13 Rain 5 1016 82 10000 2.06 247 10:53 01.10.2022
14 Rain 6 1016 95 10000 2.06 247 10:30 01.10.2022
15 Rain 6 1016 95 10000 2.06 247 10:30 01.10.2022
16 Rain 5 1016 95 10000 1.91 210 09:26 01.10.2022
17 Clouds 4 1016 96 10000 1.91 210 08:39 01.10.2022
18 Clouds 3 1018 91 10000 1.77 233 03:50 01.10.2022
19 Clouds 3 1018 91 10000 1.89 205 03:22 01.10.2022
20 Clouds 4 1016 95 10000 1.32 241 23:22 30.09.2022
21 Clouds 4 1016 95 10000 1.47 222 22:19 30.09.2022
22 Clouds 4 1014 94 9984 0.99 189 21:22 30.09.2022
23 Clouds 5 1014 94 9984 0.99 189 20:30 30.09.2022
24 Clouds 6 1013 92 2535 0.74 159 18:45 30.09.2022
25 Clouds 6 1012 88 82 0.55 71 16:58 30.09.2022
26 Rain 5 1012 93 53 0.87 48 14:49 30.09.2022
27 Rain 4 1010 93 3157 1.43 90 13:24 30.09.2022
28 Rain 4 1010 93 10000 1.06 53 11:56 30.09.2022
29 Rain 3 1009 95 10000 1.32 40 09:45 30.09.2022
30 Rain 3 1010 93 10000 1.31 15 08:19 30.09.2022
31 Clouds 3 1008 95 551 1.38 22 04:21 30.09.2022
32 Clouds 4 1007 95 1777 1.93 354 02:22 30.09.2022
33 Clouds 3 1006 94 104 2.33 355 22:23 29.09.2022
34 Clouds 3 1005 94 119 2.25 354 21:25 29.09.2022
35 Clouds 3 1004 93 35 2.24 340 19:58 29.09.2022
36 Rain 4 1003 94 35 2.14 341 18:30 29.09.2022
37 Rain 4 1003 94 35 2.14 341 18:30 29.09.2022
38 Clouds 6 1001 93 252 1.02 333 16:29 29.09.2022
39 Clouds 6 1001 91 252 1.02 333 15:37 29.09.2022
40 Clouds 7 1000 86 1182 0.65 12 14:59 29.09.2022
41 Clouds 6 999 90 2636 0.85 132 12:54 29.09.2022
42 Clouds 4 1001 96 9936 0.85 346 08:51 29.09.2022
43 Rain 4 1001 95 10000 0.37 282 05:35 29.09.2022
44 Rain 4 1001 95 4138 0.68 265 02:37 29.09.2022
45 Rain 5 1002 94 1652 1.07 306 23:29 28.09.2022
46 Rain 5 1002 91 93 0.77 274 22:22 28.09.2022
47 Rain 6 1002 93 1666 0.96 287 21:25 28.09.2022
48 Rain 6 1001 100 170 0.97 292 19:58 28.09.2022
49 Rain 6 1000 100 58 1.34 212 17:19 28.09.2022
50 Rain 7 1000 100 54 1.22 217 14:45 28.09.2022
51 Rain 4 1001 98 44 2.53 192 12:31 28.09.2022
52 Rain 3 1002 97 1476 2.73 181 10:22 28.09.2022
53 Rain 4 1003 93 2069 2.65 184 07:53 28.09.2022
54 Rain 3 1003 91 1959 2.65 188 06:42 28.09.2022
55 Clouds 3 1005 93 10000 1.88 243 01:50 28.09.2022
56 Clouds 3 1006 92 10000 1.77 267 01:25 28.09.2022
57 Rain 4 1007 91 10000 2.22 301 22:49 27.09.2022
58 Clouds 5 1006 89 6391 2.12 319 21:24 27.09.2022
59 Rain 5 1006 86 6391 2.12 319 20:36 27.09.2022
60 Rain 5 1006 81 7145 2.44 320 19:47 27.09.2022
61 Clouds 7 1004 85 9353 2.73 323 17:54 27.09.2022
62 Clouds 8 1004 85 9353 2.73 323 17:32 27.09.2022
63 Clouds 6 1004 79 10000 3.17 318 15:24 27.09.2022
64 Clouds 6 1004 84 10000 2.93 317 14:24 27.09.2022
65 Clouds 3 1005 90 4828 3.22 324 12:39 27.09.2022
66 Clouds 3 1005 90 4828 3.22 324 12:39 27.09.2022
67 Rain 4 1006 93 3504 3.71 330 10:49 27.09.2022
68 Rain 4 1005 93 7384 3.43 323 08:42 27.09.2022
69 Rain 4 1003 85 76 3.15 323 05:48 27.09.2022
70 Rain 5 1004 93 2879 1.74 250 01:40 27.09.2022
71 Clouds 5 1004 92 10000 1.97 190 00:28 27.09.2022
72 Clouds 6 1005 92 6570 1.87 202 23:24 26.09.2022
73 Clouds 6 1006 87 6363 1.21 225 21:37 26.09.2022
74 Clouds 6 1006 86 4163 1.03 312 20:26 26.09.2022
75 Clouds 7 1006 95 6379 1.42 308 19:21 26.09.2022
76 Clouds 8 1006 84 4602 1.37 301 17:27 26.09.2022
77 Clouds 10 1006 74 10000 1.24 309 15:44 26.09.2022
78 Clouds 10 1007 77 10000 0.63 288 13:25 26.09.2022
79 Clouds 8 1010 80 10000 0.66 328 11:28 26.09.2022
80 Clouds 7 1010 89 10000 0.66 328 10:36 26.09.2022
81 Clouds 7 1011 92 10000 1.13 328 10:18 26.09.2022
82 Clouds 6 1011 93 10000 1.13 328 09:52 26.09.2022
83 Clouds 5 1011 95 10000 1.81 331 09:22 26.09.2022
84 Clouds 5 1013 94 10000 2.01 327 05:49 26.09.2022
85 Clouds 5 1013 95 10000 2.22 321 02:35 26.09.2022
86 Clouds 6 1014 95 2706 2.01 327 23:25 25.09.2022
87 Clouds 6 1014 95 6932 2.08 331 21:48 25.09.2022
88 Clouds 6 1014 94 6611 2.01 334 21:25 25.09.2022
89 Clouds 6 1014 94 6611 2.01 334 20:36 25.09.2022
90 Rain 6 1014 93 313 1.98 336 18:57 25.09.2022
91 Rain 7 1013 93 119 2.34 319 18:26 25.09.2022
92 Rain 7 1012 90 365 1.78 311 17:24 25.09.2022
93 Rain 8 1011 82 1386 1.38 320 16:21 25.09.2022
94 Rain 9 1011 94 999 0.81 317 14:54 25.09.2022
95 Clouds 10 1011 97 133 0.3 10 14:19 25.09.2022
96 Clouds 10 1012 88 9439 0.23 133 11:34 25.09.2022
97 Clouds 9 1012 77 7636 0.32 164 09:48 25.09.2022
98 Clouds 6 1012 90 10000 0.72 121 07:43 25.09.2022
99 Clouds 6 1013 91 9751 1 167 05:25 25.09.2022
100 Rain 7 1015 91 490 1.86 172 23:37 24.09.2022
101 Rain 8 1015 88 2637 1.41 154 21:25 24.09.2022
102 Clouds 8 1015 87 2637 1.41 154 20:32 24.09.2022
103 Clouds 8 1015 98 213 1.16 155 19:20 24.09.2022
104 Clouds 9 1015 97 141 1 168 16:56 24.09.2022
105 Clouds 9 1015 94 1034 1.77 161 15:29 24.09.2022
106 Clouds 9 1015 94 1034 1.77 161 14:47 24.09.2022
107 Rain 8 1016 92 354 2.59 163 13:22 24.09.2022
108 Rain 9 1016 83 3227 2.74 167 12:25 24.09.2022
109 Clouds 9 1016 84 4616 2.63 164 09:59 24.09.2022
110 Clouds 8 1016 87 6022 2.56 162 08:58 24.09.2022
111 Clouds 8 1016 86 7870 2.14 161 07:41 24.09.2022
112 Clouds 7 1016 86 10000 2 166 04:55 24.09.2022
113 Clouds 7 1016 85 10000 2.16 173 04:21 24.09.2022
114 Clouds 8 1018 79 10000 1.88 177 22:58 23.09.2022
115 Clouds 9 1018 75 10000 1.4 181 21:37 23.09.2022
116 Clouds 9 1018 75 10000 1.2 194 21:19 23.09.2022
117 Clouds 9 1018 87 10000 1.2 194 20:43 23.09.2022
118 Clouds 12 1017 82 10000 0.46 244 19:20 23.09.2022
119 Clouds 12 1017 82 10000 0.46 244 19:20 23.09.2022
120 Clouds 16 1016 58 10000 0.36 308 16:48 23.09.2022
121 Clouds 14 1017 56 10000 0.36 309 12:52 23.09.2022
122 Clouds 10 1019 74 10000 0.5 252 10:18 23.09.2022
123 Clouds 3 1019 87 10000 0.81 220 07:29 23.09.2022
124 Clear 6 1020 84 10000 1.56 195 01:21 23.09.2022
125 Clear 6 1021 84 10000 1.21 209 23:29 22.09.2022
126 Clear 7 1020 82 10000 0.9 212 22:27 22.09.2022
127 Clear 7 1020 79 10000 0.7 223 21:24 22.09.2022
128 Clear 6 1020 88 10000 0.41 280 20:18 22.09.2022
129 Clear 14 1019 55 10000 0.9 344 18:30 22.09.2022
130 Clear 16 1018 53 10000 1.63 339 14:49 22.09.2022
131 Clear 9 1020 72 10000 0.57 323 10:38 22.09.2022
132 Clear 9 1020 72 10000 0.57 323 10:38 22.09.2022
133 Clear 9 1020 76 10000 0.51 306 10:18 22.09.2022
134 Clouds 2 1021 88 10000 0.96 198 07:48 22.09.2022
135 Clouds 4 1022 87 10000 1.67 194 04:37 22.09.2022
136 Clouds 6 1023 82 10000 2.26 182 23:46 21.09.2022
137 Clouds 6 1022 84 10000 1.8 165 22:28 21.09.2022
138 Clouds 7 1022 81 10000 1.23 158 20:55 21.09.2022
139 Clouds 12 1021 59 10000 0.33 328 18:34 21.09.2022
140 Clouds 14 1019 67 10000 0.52 351 17:39 21.09.2022
141 Clouds 14 1018 56 10000 0.53 128 15:29 21.09.2022
142 Clear 13 1019 61 10000 0.78 135 13:39 21.09.2022
143 Clear 10 1019 70 10000 1.02 144 11:34 21.09.2022
144 Clear 9 1020 71 10000 1.26 152 10:52 21.09.2022
145 Clear 5 1021 84 10000 1.41 146 09:38 21.09.2022
146 Clouds 2 1023 89 10000 0.67 78 08:24 21.09.2022
147 Clouds 4 1024 91 10000 1.87 16 02:54 21.09.2022
148 Clouds 5 1024 87 10000 1.87 16 02:34 21.09.2022
149 Clouds 5 1024 81 10000 2.08 4 01:50 21.09.2022
150 Clouds 5 1024 83 10000 2.66 351 23:58 20.09.2022
151 Clouds 6 1024 93 10000 2.79 346 21:40 20.09.2022
152 Clear 6 1022 90 10000 2.96 341 20:26 20.09.2022
153 Clear 11 1019 62 10000 3.55 341 17:53 20.09.2022
154 Clear 13 1018 49 10000 3.38 342 15:18 20.09.2022
155 Clear 12 1018 64 10000 3.11 343 13:59 20.09.2022
156 Clear 9 1019 71 10000 2.39 347 11:28 20.09.2022
157 Clear 1 1020 89 10000 2.12 349 08:30 20.09.2022
158 Clear 2 1021 88 10000 1.82 343 07:32 20.09.2022
159 Clear 4 1022 88 10000 1.8 348 04:33 20.09.2022
160 Clouds 4 1023 90 10000 1.62 341 01:29 20.09.2022
161 Clouds 5 1024 92 10000 2.06 349 22:33 19.09.2022
162 Clouds 6 1023 90 10000 2.72 342 21:28 19.09.2022
163 Clouds 6 1023 90 10000 2.72 342 20:39 19.09.2022
164 Clouds 9 1020 80 10000 2.98 347 18:43 19.09.2022
165 Clouds 9 1020 80 10000 2.98 347 18:43 19.09.2022
166 Clouds 11 1018 51 10000 3.33 349 16:37 19.09.2022
167 Clouds 11 1018 64 10000 3.31 349 13:45 19.09.2022
168 Clouds 8 1019 70 10000 3.53 350 11:43 19.09.2022
169 Clouds 6 1020 72 10000 3.76 348 09:38 19.09.2022
170 Clouds 3 1021 88 10000 4.01 339 08:20 19.09.2022
171 Clouds 5 1019 94 5941 4.07 334 03:28 19.09.2022
172 Clouds 6 1019 87 10000 3.37 323 23:39 18.09.2022
173 Clouds 6 1019 86 10000 3.2 321 22:29 18.09.2022
174 Clouds 7 1019 86 10000 3.21 322 20:41 18.09.2022
175 Clouds 9 1016 70 10000 3.27 325 19:26 18.09.2022
176 Clouds 11 1016 58 10000 3.73 330 17:49 18.09.2022
177 Clouds 13 1016 51 10000 3.9 328 16:46 18.09.2022
178 Clouds 12 1015 72 10000 3.51 327 14:40 18.09.2022
179 Clouds 10 1016 76 10000 3.08 331 12:58 18.09.2022
180 Clouds 8 1016 82 10000 2.93 333 11:53 18.09.2022
181 Clouds 2 1023 89 10000 1.69 332 06:57 18.09.2022
182 Clouds 3 1021 91 10000 3.5 335 01:37 18.09.2022
183 Clouds 4 1021 79 10000 3.55 332 01:18 18.09.2022
184 Clouds 4 1021 86 8617 3.61 331 22:55 17.09.2022
185 Clouds 5 1020 74 9060 3.71 331 20:51 17.09.2022
186 Clouds 5 1018 76 6419 3.87 329 19:30 17.09.2022
187 Clouds 8 1016 87 6280 4.12 329 17:36 17.09.2022
188 Clouds 7 1016 74 7076 4.73 336 14:22 17.09.2022
189 Clouds 5 1015 85 7052 4.91 333 12:44 17.09.2022
190 Clouds 4 1016 81 8063 5.1 330 10:48 17.09.2022
191 Rain 4 1015 85 2371 4.74 337 06:35 17.09.2022
192 Rain 4 1014 85 2653 4.55 340 04:35 17.09.2022
193 Rain 7 1012 94 1675 4.17 341 23:37 16.09.2022
194 Clouds 8 1011 92 5662 4.23 341 21:47 16.09.2022
195 Clouds 7 1011 95 4435 4.06 342 20:42 16.09.2022
196 Clouds 10 1009 88 8583 3.61 330 18:29 16.09.2022
197 Clouds 13 1009 78 10000 3.45 329 16:21 16.09.2022
198 Clouds 11 1010 81 10000 3.1 329 14:44 16.09.2022
199 Clouds 11 1010 88 7225 3.03 333 12:51 16.09.2022
200 Rain 11 1010 92 8672 2.91 334 09:39 16.09.2022
201 Clouds 8 1010 94 10000 2.73 332 07:22 16.09.2022
202 Clouds 9 1010 94 10000 2.73 332 06:48 16.09.2022
203 Clouds 9 1011 93 10000 2.95 330 05:43 16.09.2022
204 Clouds 11 1011 95 7021 2.89 331 01:30 16.09.2022
205 Clouds 13 1012 91 10000 2.43 336 21:31 15.09.2022
206 Clouds 13 1011 89 10000 2.33 333 20:29 15.09.2022
207 Clouds 14 1010 84 10000 2.48 335 18:57 15.09.2022
208 Clouds 15 1010 81 10000 2.78 338 17:38 15.09.2022
209 Clouds 16 1010 76 10000 3.03 339 17:18 15.09.2022
210 Clouds 16 1009 76 10000 2.74 330 15:22 15.09.2022
211 Clouds 17 1010 81 10000 2.55 319 12:49 15.09.2022
212 Rain 16 1010 86 10000 2.36 319 11:47 15.09.2022
213 Clouds 12 1011 96 10000 1.34 307 09:43 15.09.2022
214 Clouds 12 1011 95 10000 1.33 296 05:22 15.09.2022
215 Clouds 12 1012 94 10000 1.15 316 02:57 15.09.2022
216 Clouds 12 1012 93 6756 1.51 179 22:51 14.09.2022
217 Clouds 13 1011 92 10000 2.05 169 20:24 14.09.2022
218 Clouds 14 1011 91 10000 2.05 169 19:32 14.09.2022
219 Rain 16 1011 92 5175 1.51 191 17:28 14.09.2022
220 Rain 17 1011 92 5175 1.51 191 16:36 14.09.2022
221 Clouds 18 1011 88 5892 2.03 183 14:47 14.09.2022
222 Clouds 18 1012 69 7155 2.65 161 12:33 14.09.2022
223 Clouds 17 1013 75 10000 2.5 169 09:50 14.09.2022
224 Clouds 14 1014 79 10000 2.43 177 07:47 14.09.2022
225 Clouds 15 1013 76 10000 2.18 176 06:48 14.09.2022
226 Rain 15 1015 69 10000 1.52 213 05:22 14.09.2022
227 Clouds 11 1015 87 10000 2.85 180 01:53 14.09.2022
228 Clouds 15 1015 64 10000 2.85 180 01:30 14.09.2022
229 Clouds 15 1015 64 10000 3.06 171 00:52 14.09.2022
230 Clouds 11 1016 86 10000 3.16 180 23:54 13.09.2022
231 Clouds 12 1016 86 10000 3.16 180 23:36 13.09.2022
232 Clouds 16 1016 62 10000 3.15 170 23:18 13.09.2022
233 Clouds 16 1016 70 10000 3.01 173 22:22 13.09.2022
234 Clouds 13 1015 81 10000 2.68 170 20:29 13.09.2022
235 Clouds 21 1013 60 10000 1.94 163 18:21 13.09.2022
236 Clouds 24 1013 52 10000 1.09 139 15:56 13.09.2022
237 Clouds 24 1013 46 10000 0.62 173 14:47 13.09.2022
238 Clouds 23 1014 38 10000 0.07 184 13:20 13.09.2022
239 Clouds 17 1015 47 10000 0.87 319 09:23 13.09.2022
240 Clouds 9 1016 78 10000 0.9 297 07:21 13.09.2022
241 Clouds 11 1017 73 10000 1.02 289 00:30 13.09.2022
242 Clouds 11 1018 70 10000 0.99 294 22:51 12.09.2022
243 Clouds 11 1018 71 10000 1.04 292 22:22 12.09.2022
244 Clouds 13 1017 64 10000 1.03 296 20:42 12.09.2022
245 Clouds 20 1016 64 10000 1.08 319 18:52 12.09.2022
246 Clear 23 1015 38 10000 1.31 319 17:25 12.09.2022
247 Clouds 22 1015 58 10000 1.09 328 14:54 12.09.2022
248 Clouds 17 1016 63 10000 0.7 303 11:51 12.09.2022
249 Clouds 14 1017 31 10000 0.62 266 09:57 12.09.2022
250 Clear 7 1018 87 10000 1.73 207 04:57 12.09.2022
251 Clear 8 1018 87 10000 1.73 207 04:30 12.09.2022
252 Clear 9 1020 86 10000 0.38 288 23:58 11.09.2022
253 Clear 9 1020 84 10000 0.5 327 22:43 11.09.2022
254 Clear 11 1020 80 10000 1.06 343 20:53 11.09.2022
255 Clear 12 1019 76 10000 1.8 354 20:21 11.09.2022
256 Clear 14 1018 70 10000 2.27 353 19:26 11.09.2022
257 Clear 16 1018 61 10000 2.27 353 18:37 11.09.2022
258 Clear 18 1017 61 10000 2.7 349 16:56 11.09.2022
259 Clear 18 1018 58 10000 2.47 352 15:22 11.09.2022
260 Clear 16 1019 72 10000 2.71 353 12:54 11.09.2022
261 Clear 9 1020 91 10000 2.81 353 09:45 11.09.2022
262 Clouds 8 1021 95 10000 1.71 338 07:43 11.09.2022
263 Clouds 9 1020 94 10000 2.49 329 02:55 11.09.2022
264 Rain 9 1020 90 10000 2.52 336 23:27 10.09.2022
265 Clouds 10 1020 86 10000 2.33 337 21:35 10.09.2022
266 Clouds 11 1018 82 10000 2.6 335 19:56 10.09.2022
267 Clouds 11 1018 79 10000 2.6 335 19:37 10.09.2022
268 Clouds 11 1018 79 10000 2.86 335 19:19 10.09.2022
269 Clouds 13 1017 73 10000 2.94 339 16:58 10.09.2022
270 Clouds 14 1016 64 10000 2.19 341 15:28 10.09.2022
271 Clouds 14 1017 64 10000 1.59 334 12:55 10.09.2022
272 Clouds 14 1017 64 10000 1.59 334 12:55 10.09.2022
273 Clouds 12 1017 90 10000 1.62 342 11:36 10.09.2022
274 Clouds 10 1018 93 10000 1.93 346 10:25 10.09.2022
275 Clouds 9 1018 94 10000 1.93 342 08:37 10.09.2022
276 Clouds 9 1019 94 10000 1.48 331 08:18 10.09.2022
277 Clouds 9 1019 89 10000 1.8 328 02:54 10.09.2022
278 Clouds 10 1019 91 10000 2.01 338 23:35 09.09.2022
279 Clouds 10 1019 94 10000 2.19 326 22:21 09.09.2022
280 Clouds 12 1018 77 10000 2.61 331 20:49 09.09.2022
281 Clouds 12 1016 86 10000 2.89 338 19:26 09.09.2022
282 Clouds 12 1016 86 10000 2.89 338 18:55 09.09.2022
283 Clouds 12 1016 86 10000 2.89 338 18:55 09.09.2022
284 Clouds 16 1015 84 10000 2.68 342 16:34 09.09.2022
285 Clouds 12 1015 75 10000 1.15 325 14:28 09.09.2022
286 Clouds 15 1014 73 10000 0.94 323 12:59 09.09.2022
287 Clouds 13 1015 85 10000 1.21 328 10:23 09.09.2022
288 Clouds 10 1015 89 10000 1.31 357 07:24 09.09.2022
289 Clouds 10 1015 89 10000 1.31 357 07:24 09.09.2022
290 Clouds 10 1015 89 10000 1.31 357 07:24 09.09.2022
291 Clouds 10 1016 91 10000 1.3 358 03:30 09.09.2022
292 Clouds 12 1017 92 10000 1.24 334 22:19 08.09.2022
293 Clouds 12 1017 92 10000 1.24 334 21:47 08.09.2022
294 Clouds 13 1017 91 10000 1.56 343 20:46 08.09.2022
295 Clouds 13 1016 88 10000 2.05 342 20:24 08.09.2022
296 Clouds 15 1015 81 10000 2.13 334 18:34 08.09.2022
297 Clouds 15 1015 73 10000 2.38 345 16:47 08.09.2022
298 Clouds 17 1014 76 10000 2.04 344 14:42 08.09.2022
299 Clouds 17 1014 66 10000 1.93 354 13:27 08.09.2022
300 Clouds 15 1014 66 10000 1.93 354 12:35 08.09.2022
301 Clouds 12 1016 88 10000 1.64 354 10:58 08.09.2022
302 Clouds 10 1017 96 2388 1.62 354 09:20 08.09.2022
303 Rain 11 1014 95 967 2.79 344 06:43 08.09.2022
304 Clouds 12 1012 95 1151 2.61 137 02:37 08.09.2022
305 Clouds 12 1013 95 1422 2.85 149 02:19 08.09.2022
306 Clouds 12 1014 95 1756 2.9 163 01:58 08.09.2022
307 Clouds 13 1015 93 2486 3.07 173 22:55 07.09.2022
308 Clouds 14 1016 91 4305 2.98 164 21:43 07.09.2022
309 Clouds 13 1016 91 7440 3.05 160 21:18 07.09.2022
310 Clouds 14 1015 91 3804 2.5 157 20:19 07.09.2022
311 Clouds 16 1015 86 10000 2.52 153 18:40 07.09.2022
312 Clouds 20 1017 71 10000 1.62 158 15:21 07.09.2022
313 Clouds 17 1018 74 10000 1.08 103 10:50 07.09.2022
314 Clouds 16 1019 77 10000 0.68 103 10:24 07.09.2022
315 Clouds 13 1019 80 10000 0.28 215 07:43 07.09.2022
316 Clouds 12 1019 80 10000 0.9 209 04:39 07.09.2022
317 Clouds 12 1020 91 10000 1.99 183 00:26 07.09.2022
318 Clouds 13 1020 91 10000 2.63 169 21:47 06.09.2022
319 Rain 14 1020 89 10000 2.62 163 21:27 06.09.2022
320 Clouds 19 1018 77 10000 2.14 157 18:55 06.09.2022
321 Clouds 20 1019 64 10000 1.65 156 18:27 06.09.2022
322 Clouds 22 1019 58 10000 1.71 160 17:23 06.09.2022
323 Clouds 23 1019 58 10000 1.71 160 16:40 06.09.2022
324 Clouds 23 1019 50 10000 1.99 154 15:23 06.09.2022
325 Clouds 22 1020 57 10000 1.63 141 13:46 06.09.2022
326 Clouds 21 1020 63 10000 1.43 140 13:25 06.09.2022
327 Clouds 20 1020 66 10000 1.43 140 12:37 06.09.2022
328 Clouds 19 1022 64 10000 1.34 155 10:46 06.09.2022
329 Clouds 14 1022 84 10000 0.93 145 08:54 06.09.2022
330 Clouds 12 1023 84 10000 0.3 176 07:51 06.09.2022
331 Clouds 12 1023 82 10000 1.44 188 04:48 06.09.2022
332 Clear 13 1024 79 10000 2 188 23:42 05.09.2022
333 Clear 14 1024 78 10000 1.9 188 22:31 05.09.2022
334 Clear 13 1024 86 10000 1.64 161 20:58 05.09.2022
335 Clouds 16 1023 85 10000 0.44 140 19:50 05.09.2022
336 Clouds 19 1023 79 10000 0.08 101 18:49 05.09.2022
337 Clouds 20 1023 70 10000 0.1 307 18:22 05.09.2022
338 Clouds 21 1023 60 10000 0.1 307 17:30 05.09.2022
339 Clouds 20 1023 65 10000 0.31 281 15:52 05.09.2022
340 Clouds 19 1023 58 10000 0.91 170 13:27 05.09.2022
341 Clouds 20 1024 59 10000 1.13 170 12:28 05.09.2022
342 Clouds 18 1024 74 10000 1.07 162 10:24 05.09.2022
343 Clouds 11 1025 85 10000 1.36 191 06:46 05.09.2022
344 Clouds 11 1025 86 10000 2.07 188 02:49 05.09.2022
345 Clear 12 1025 86 10000 1.63 165 23:28 04.09.2022
346 Clear 13 1025 84 10000 1.72 175 22:28 04.09.2022
347 Clear 14 1025 82 10000 1.72 175 21:34 04.09.2022
348 Clouds 17 1022 89 10000 0.26 112 19:38 04.09.2022
349 Clouds 18 1022 74 10000 0.17 20 18:20 04.09.2022
350 Clouds 19 1021 69 10000 0.35 305 16:56 04.09.2022
351 Clouds 20 1020 64 10000 0.44 8 14:36 04.09.2022
352 Clear 20 1020 62 10000 0.41 72 13:52 04.09.2022
353 Clear 19 1021 64 10000 0.69 83 12:18 04.09.2022
354 Clear 16 1021 71 10000 0.83 69 10:47 04.09.2022
355 Clear 9 1021 94 10000 0.42 340 08:21 04.09.2022
356 Clear 8 1020 94 10000 0.43 328 05:36 04.09.2022
357 Clouds 11 1020 94 10000 0.97 184 00:53 04.09.2022
358 Clouds 11 1019 94 10000 1.09 190 22:26 03.09.2022
359 Clouds 12 1018 94 10000 0.64 182 21:23 03.09.2022
360 Clouds 13 1017 93 10000 0.46 247 19:56 03.09.2022
361 Clouds 16 1016 84 10000 0.46 260 17:29 03.09.2022
362 Clouds 16 1016 80 10000 0.46 260 16:33 03.09.2022
363 Clouds 14 1016 90 10000 1.01 204 14:46 03.09.2022
364 Rain 14 1016 90 9715 1.63 186 14:26 03.09.2022
365 Rain 15 1016 84 9976 1.51 183 13:21 03.09.2022
366 Clouds 12 1016 89 10000 2.01 175 10:55 03.09.2022
367 Clouds 11 1016 96 10000 2.44 171 08:41 03.09.2022
368 Clouds 10 1017 95 10000 3.05 169 06:58 03.09.2022
369 Clouds 10 1017 95 10000 2.71 171 04:38 03.09.2022
370 Clouds 12 1017 95 7645 2.47 168 00:32 03.09.2022
371 Clouds 12 1017 95 9186 2 175 23:20 02.09.2022
372 Clouds 12 1016 94 10000 1.84 125 21:19 02.09.2022
373 Rain 12 1016 91 10000 1.84 125 20:39 02.09.2022
374 Rain 13 1016 89 8357 0.49 281 19:30 02.09.2022
375 Rain 15 1014 72 6558 0.57 197 18:43 02.09.2022
376 Rain 16 1014 65 10000 1.19 142 18:24 02.09.2022
377 Clouds 18 1014 65 10000 0.4 73 16:49 02.09.2022
378 Clouds 18 1015 63 10000 0.29 308 15:35 02.09.2022
379 Clouds 19 1015 56 10000 0.09 192 12:43 02.09.2022
380 Clouds 14 1016 78 10000 1.62 189 10:22 02.09.2022
381 Clouds 14 1016 78 10000 1.62 189 09:41 02.09.2022
382 Clouds 10 1017 90 10000 2.22 188 07:54 02.09.2022
383 Clouds 9 1017 88 10000 2.43 189 06:41 02.09.2022
384 Clear 9 1018 88 10000 2.35 191 03:52 02.09.2022
385 Clouds 12 1018 85 10000 0.6 199 22:45 01.09.2022
386 Clouds 13 1018 91 10000 0.19 278 21:44 01.09.2022
387 Clouds 14 1018 91 10000 0.8 354 21:25 01.09.2022
388 Clouds 14 1018 91 10000 0.8 354 20:46 01.09.2022
389 Clouds 17 1016 80 10000 1.68 346 18:57 01.09.2022
390 Clouds 18 1016 74 10000 1.89 346 17:33 01.09.2022
391 Clouds 19 1016 63 10000 2.27 348 15:59 01.09.2022
392 Clouds 20 1015 55 10000 1.74 343 14:33 01.09.2022
393 Clouds 19 1015 65 10000 1.34 351 12:58 01.09.2022
394 Clouds 17 1016 72 10000 1.25 348 11:53 01.09.2022
395 Clouds 17 1016 78 10000 1.25 348 11:32 01.09.2022
396 Clouds 15 1016 80 10000 1.23 349 10:38 01.09.2022
397 Clouds 10 1017 91 10000 1.41 350 08:30 01.09.2022
398 Clouds 11 1017 88 10000 1.24 345 06:23 01.09.2022
399 Clouds 12 1019 93 10000 1.89 353 01:33 01.09.2022
400 Clouds 12 1019 91 10000 2.24 346 00:18 01.09.2022
401 Clouds 12 1019 89 10000 2.39 348 21:33 31.08.2022
402 Clouds 13 1018 88 10000 2.4 343 19:50 31.08.2022
403 Clouds 14 1017 84 10000 2.42 352 18:18 31.08.2022
404 Clouds 16 1017 81 10000 2.68 355 16:23 31.08.2022
405 Clouds 17 1017 67 10000 2.94 349 14:32 31.08.2022
406 Clouds 16 1018 79 10000 2.45 338 12:22 31.08.2022
407 Clouds 13 1019 91 10000 2.29 336 11:26 31.08.2022
408 Clouds 12 1019 95 10000 2.08 335 08:37 31.08.2022
409 Clouds 12 1019 88 10000 2.02 335 05:26 31.08.2022
410 Clouds 14 1020 77 10000 0.38 324 23:20 30.08.2022
411 Clouds 15 1020 90 10000 0.73 54 21:41 30.08.2022
412 Clouds 16 1020 89 10000 1.26 2 20:57 30.08.2022
413 Rain 17 1019 83 10000 1.1 29 18:32 30.08.2022
414 Clouds 21 1019 54 10000 0.06 186 15:23 30.08.2022
415 Clouds 22 1019 59 10000 0.3 191 13:24 30.08.2022
416 Clouds 20 1020 66 10000 0.47 160 11:21 30.08.2022
417 Clouds 19 1020 70 10000 0.47 160 10:49 30.08.2022
418 Clouds 12 1021 88 10000 0.34 273 07:42 30.08.2022
419 Clear 14 1021 85 10000 0.42 292 02:32 30.08.2022
420 Clouds 15 1021 90 10000 0.73 347 22:58 29.08.2022
421 Clouds 13 1022 90 10000 0.93 318 22:24 29.08.2022
422 Clouds 15 1021 90 10000 1.04 324 21:25 29.08.2022
423 Clouds 18 1020 88 10000 1.16 336 19:52 29.08.2022
424 Clouds 20 1019 72 10000 1.38 328 17:52 29.08.2022
425 Clouds 20 1019 67 10000 1.17 330 17:24 29.08.2022
426 Clouds 20 1019 70 10000 1.17 328 16:37 29.08.2022
427 Clouds 19 1019 64 10000 0.47 332 14:45 29.08.2022
428 Clear 22 1019 53 10000 0.31 318 12:53 29.08.2022
429 Clear 20 1019 70 10000 0.45 165 11:19 29.08.2022
430 Clear 16 1019 75 10000 0.57 164 09:45 29.08.2022
431 Clear 12 1020 89 10000 0.68 232 08:28 29.08.2022
432 Clear 13 1019 83 10000 0.54 247 04:57 29.08.2022
433 Clouds 12 1020 92 10000 0.66 352 00:20 29.08.2022
434 Clouds 14 1020 84 10000 1.12 353 22:37 28.08.2022
435 Clouds 15 1020 80 10000 1.43 352 21:43 28.08.2022
436 Clouds 16 1019 73 10000 1.98 344 20:54 28.08.2022
437 Clouds 19 1017 82 10000 1.76 352 19:23 28.08.2022
438 Clouds 17 1017 74 10000 1.81 354 18:20 28.08.2022
439 Clouds 16 1016 69 10000 1.95 348 16:57 28.08.2022
440 Clouds 16 1016 62 10000 1.6 339 15:55 28.08.2022
441 Clouds 21 1015 54 10000 1 341 14:21 28.08.2022
442 Clouds 20 1015 69 10000 0.92 339 12:32 28.08.2022
443 Clouds 16 1016 80 10000 0.44 7 10:42 28.08.2022
444 Clouds 15 1016 84 10000 0.31 360 09:41 28.08.2022
445 Clouds 13 1016 86 10000 0.3 319 08:36 28.08.2022
446 Clear 12 1017 87 10000 0.23 238 07:41 28.08.2022
447 Clouds 13 1017 92 10000 0.92 21 01:31 28.08.2022
448 Clouds 14 1017 91 10000 1.2 15 00:25 28.08.2022
449 Clouds 14 1017 91 10000 1.2 355 22:32 27.08.2022
450 Clouds 15 1016 89 10000 2.02 340 21:24 27.08.2022
451 Clouds 16 1016 84 10000 1.95 340 19:39 27.08.2022
452 Clouds 18 1014 73 10000 0.89 314 16:48 27.08.2022
453 Clouds 19 1014 70 10000 0.73 301 15:52 27.08.2022
454 Clouds 19 1014 73 10000 0.57 310 15:23 27.08.2022
455 Clouds 18 1014 80 10000 0.26 20 12:23 27.08.2022
456 Clouds 16 1014 86 10000 0.6 4 11:24 27.08.2022
457 Clouds 14 1014 89 10000 1.2 4 09:40 27.08.2022
458 Clouds 12 1015 91 10000 1.26 2 07:31 27.08.2022
459 Clouds 11 1015 91 10000 1.22 356 02:33 27.08.2022
460 Clouds 12 1016 88 10000 2.01 345 23:55 26.08.2022
461 Clouds 14 1016 86 10000 2.01 339 22:31 26.08.2022
462 Rain 15 1016 71 10000 1.38 340 20:39 26.08.2022
463 Rain 15 1015 80 10000 2.03 348 19:20 26.08.2022
464 Clouds 20 1016 60 10000 2 333 16:46 26.08.2022
465 Clouds 21 1016 59 10000 2.21 341 15:27 26.08.2022
466 Clouds 19 1016 65 10000 2.31 346 13:46 26.08.2022
467 Clouds 21 1016 63 10000 1.97 342 12:35 26.08.2022
468 Clouds 20 1016 67 10000 1.92 353 11:22 26.08.2022
469 Clouds 18 1016 73 10000 1.99 351 10:25 26.08.2022
470 Clouds 13 1017 87 10000 1.73 329 06:50 26.08.2022
471 Clear 15 1018 80 10000 1.13 312 01:22 26.08.2022
472 Clear 14 1018 81 10000 1.2 318 23:30 25.08.2022
473 Clear 17 1018 80 10000 1.55 333 21:26 25.08.2022
474 Clouds 19 1017 66 10000 1.87 339 20:21 25.08.2022
475 Clouds 21 1016 67 10000 1.79 339 18:48 25.08.2022
476 Clouds 24 1016 52 10000 1.95 334 17:32 25.08.2022
477 Clouds 24 1016 47 10000 2.07 338 16:50 25.08.2022
478 Clouds 24 1016 47 10000 2.07 338 16:50 25.08.2022
479 Clear 24 1016 49 10000 2.16 340 15:39 25.08.2022
480 Clear 25 1015 46 10000 1.7 338 14:31 25.08.2022
481 Clear 22 1016 59 10000 0.82 317 11:49 25.08.2022
482 Clear 19 1017 62 10000 0.5 311 10:46 25.08.2022
483 Clear 14 1018 83 10000 0.52 215 08:52 25.08.2022
484 Clouds 11 1020 82 10000 1.38 219 04:59 25.08.2022
485 Clouds 12 1020 79 10000 1.85 192 00:30 25.08.2022
486 Clouds 13 1020 78 10000 1.32 169 23:25 24.08.2022
487 Clouds 14 1021 74 10000 1 169 22:21 24.08.2022
488 Clouds 15 1021 72 10000 1 169 21:33 24.08.2022
489 Clouds 17 1019 65 10000 0.12 347 20:24 24.08.2022
490 Clouds 22 1018 69 10000 0.46 348 18:39 24.08.2022
491 Clouds 24 1017 38 10000 1.16 10 16:23 24.08.2022
492 Clouds 24 1017 44 10000 1.16 10 15:48 24.08.2022
493 Clouds 22 1017 42 10000 1.2 13 12:53 24.08.2022
494 Clouds 19 1018 58 10000 0.94 30 11:22 24.08.2022
495 Clouds 16 1019 69 10000 0.51 55 09:19 24.08.2022
496 Clouds 10 1020 84 10000 0.18 98 07:33 24.08.2022
497 Clouds 11 1020 80 10000 0.3 61 01:43 24.08.2022
498 Clouds 12 1021 77 10000 1.04 17 22:53 23.08.2022
499 Clouds 14 1021 76 10000 1.35 6 22:24 23.08.2022
500 Clouds 16 1020 79 10000 1.73 356 21:22 23.08.2022
501 Clear 19 1019 73 10000 2.14 356 19:43 23.08.2022
502 Clear 21 1017 50 10000 2.37 360 18:30 23.08.2022
503 Clear 21 1017 51 10000 2.5 0 17:46 23.08.2022
504 Clear 19 1017 48 10000 2.57 359 16:33 23.08.2022
505 Clear 19 1017 47 10000 2.67 2 14:55 23.08.2022
506 Clear 20 1017 46 10000 2.7 360 13:25 23.08.2022
507 Clear 18 1018 66 10000 2.91 3 11:21 23.08.2022
508 Clear 16 1018 71 10000 2.91 3 10:35 23.08.2022
509 Clear 15 1018 74 10000 2.83 3 09:46 23.08.2022
510 Clear 12 1018 65 10000 2.68 353 08:48 23.08.2022
511 Clear 10 1018 88 10000 2.01 348 08:20 23.08.2022
512 Clear 10 1018 86 10000 2.01 348 07:34 23.08.2022
513 Clear 9 1018 86 10000 1.99 346 06:26 23.08.2022
514 Clear 11 1018 84 10000 2.16 343 01:55 23.08.2022
515 Clear 11 1018 82 10000 2.11 339 00:27 23.08.2022
516 Clear 12 1018 80 10000 2.11 339 23:33 22.08.2022
517 Clear 14 1018 88 10000 2.13 332 22:32 22.08.2022
518 Clouds 14 1017 83 10000 3.02 339 21:22 22.08.2022
519 Clouds 15 1016 72 10000 2.8 347 19:47 22.08.2022
520 Clouds 19 1015 57 10000 3.18 347 18:44 22.08.2022
521 Clouds 20 1014 54 10000 3.43 346 16:31 22.08.2022
522 Clouds 21 1014 49 10000 3.29 345 15:38 22.08.2022
523 Clear 19 1014 51 10000 2.96 349 13:44 22.08.2022
524 Clear 16 1016 71 10000 2.72 352 10:26 22.08.2022
525 Clouds 10 1016 90 10000 2.23 340 07:41 22.08.2022
526 Clouds 12 1017 89 10000 2.16 344 03:49 22.08.2022
527 Clouds 11 1018 87 10000 1.91 342 00:38 22.08.2022
528 Clouds 12 1017 94 10000 1.92 343 00:18 22.08.2022
529 Clouds 14 1018 92 10000 2.1 352 22:18 21.08.2022
530 Clouds 14 1018 88 10000 2.67 343 21:23 21.08.2022
531 Clouds 15 1016 81 10000 2.79 344 20:27 21.08.2022
532 Clouds 18 1015 66 10000 3.17 351 19:23 21.08.2022
533 Clouds 21 1015 53 10000 3.33 350 16:55 21.08.2022
534 Clouds 21 1015 49 10000 3.12 348 15:53 21.08.2022
535 Clouds 22 1015 48 10000 2.79 349 15:20 21.08.2022
536 Clouds 21 1016 47 10000 2.76 349 13:51 21.08.2022
537 Clouds 19 1016 46 10000 2.72 355 13:24 21.08.2022
538 Clouds 17 1017 72 10000 2.84 353 11:29 21.08.2022
539 Clouds 13 1017 86 10000 2.81 352 09:31 21.08.2022
540 Clouds 12 1018 88 10000 2.37 349 08:56 21.08.2022
541 Clouds 12 1018 89 10000 2.61 346 08:38 21.08.2022
542 Clouds 10 1019 78 10000 2.31 337 07:26 21.08.2022
543 Clouds 9 1020 93 10000 1.55 345 03:39 21.08.2022
544 Clouds 10 1021 92 10000 2.88 341 23:49 20.08.2022
545 Clouds 13 1021 92 10000 2.59 345 22:24 20.08.2022
546 Clouds 13 1021 92 10000 2.97 341 21:26 20.08.2022
547 Clouds 14 1020 89 10000 2.99 339 19:58 20.08.2022
548 Clouds 15 1020 89 10000 3.05 341 19:40 20.08.2022
549 Rain 15 1019 86 10000 3.15 342 18:27 20.08.2022
550 Rain 16 1019 82 10000 3.15 342 17:40 20.08.2022
551 Clouds 17 1019 80 10000 3.44 339 16:40 20.08.2022
552 Clouds 18 1018 76 10000 3.36 338 15:26 20.08.2022
553 Clouds 15 1018 83 10000 3.28 343 12:52 20.08.2022
554 Clouds 14 1018 86 10000 3.03 341 11:47 20.08.2022
555 Clouds 11 1019 95 10000 3.19 336 09:33 20.08.2022
556 Clouds 10 1020 96 10000 2.86 337 08:29 20.08.2022
557 Clouds 10 1020 95 10000 2.54 328 05:49 20.08.2022
558 Clouds 11 1020 95 3908 2.68 332 00:58 20.08.2022
559 Clouds 11 1020 96 3908 2.68 332 00:30 20.08.2022
560 Clouds 11 1020 95 4767 3.32 332 22:53 19.08.2022
561 Clouds 11 1020 95 6409 3.36 330 21:38 19.08.2022
562 Clouds 12 1019 90 10000 3.09 322 19:43 19.08.2022
563 Clouds 12 1018 86 10000 3 325 16:40 19.08.2022
564 Rain 13 1018 89 10000 2.77 318 14:51 19.08.2022
565 Rain 12 1017 93 3925 2.32 334 12:47 19.08.2022
566 Rain 12 1015 94 10000 3.21 312 10:43 19.08.2022
567 Rain 11 1015 96 10000 2.9 320 09:59 19.08.2022
568 Clouds 11 1014 95 5060 3.35 339 05:30 19.08.2022
569 Clouds 12 1014 95 10000 0.41 70 00:46 19.08.2022
570 Clouds 12 1015 95 10000 0.36 242 00:22 19.08.2022
571 Rain 12 1015 95 10000 0.66 123 22:59 18.08.2022
572 Clouds 12 1015 95 10000 0.66 123 22:30 18.08.2022
573 Clouds 12 1014 95 10000 0.83 211 21:53 18.08.2022
574 Clouds 12 1015 95 10000 0.67 216 21:23 18.08.2022
575 Clouds 13 1015 94 10000 0.75 177 19:54 18.08.2022
576 Rain 13 1013 94 10000 0.8 117 19:24 18.08.2022
577 Rain 14 1013 94 10000 1 110 17:46 18.08.2022
578 Rain 14 1014 94 10000 1.93 121 16:25 18.08.2022
579 Clouds 16 1014 86 4155 2.42 134 14:22 18.08.2022
580 Clouds 16 1014 86 10000 2.28 118 13:45 18.08.2022
581 Clouds 17 1014 80 10000 1.82 122 12:31 18.08.2022
582 Clouds 15 1014 90 10000 1.49 113 11:21 18.08.2022
583 Clouds 13 1014 93 10000 1.84 98 09:43 18.08.2022
584 Clouds 13 1014 96 10000 1.36 136 08:31 18.08.2022
585 Clouds 12 1015 95 5790 2.33 147 07:18 18.08.2022
586 Clouds 12 1016 94 10000 1.82 150 02:59 18.08.2022
587 Clouds 13 1017 93 10000 2.46 156 22:51 17.08.2022
588 Rain 13 1016 92 10000 3.47 151 21:26 17.08.2022
589 Rain 14 1015 83 10000 2.72 141 19:59 17.08.2022
590 Rain 17 1014 79 10000 3.02 143 18:39 17.08.2022
591 Rain 20 1015 57 10000 3.26 146 17:27 17.08.2022
592 Rain 18 1015 69 10000 3.09 143 16:21 17.08.2022
593 Clouds 21 1015 52 10000 2.56 146 14:48 17.08.2022
594 Clouds 21 1015 50 10000 3.11 154 12:50 17.08.2022
595 Clouds 19 1015 74 10000 3.5 158 11:36 17.08.2022
596 Clouds 16 1015 84 10000 3.07 161 09:30 17.08.2022
597 Clouds 14 1016 80 10000 2.43 154 07:28 17.08.2022
598 Clouds 11 1016 87 10000 2.79 167 02:21 17.08.2022
599 Clouds 14 1016 87 10000 2.68 170 23:45 16.08.2022
600 Clouds 15 1016 85 10000 2.7 164 21:52 16.08.2022
601 Clouds 19 1014 75 10000 2.1 154 20:26 16.08.2022
602 Clouds 21 1014 50 10000 2.1 154 19:40 16.08.2022
603 Clouds 22 1013 58 10000 1.4 142 18:18 16.08.2022
604 Clouds 23 1012 46 10000 1.32 138 17:28 16.08.2022
605 Clear 23 1012 46 10000 1.4 143 15:46 16.08.2022
606 Clear 23 1012 49 10000 1.37 142 14:55 16.08.2022
607 Clear 23 1012 47 10000 1.37 142 14:37 16.08.2022
608 Clear 21 1012 48 10000 1.17 157 12:41 16.08.2022
609 Clear 17 1013 68 10000 1.34 170 10:35 16.08.2022
610 Clear 16 1013 82 10000 1.52 176 09:31 16.08.2022
611 Clouds 11 1013 93 10000 1.43 177 08:26 16.08.2022
612 Clouds 8 1013 92 10000 1.65 170 07:23 16.08.2022
613 Clouds 10 1013 93 10000 0.56 318 01:35 16.08.2022
614 Clouds 11 1013 92 10000 0.5 24 22:29 15.08.2022
615 Clouds 11 1013 91 10000 0.5 24 21:53 15.08.2022
616 Rain 14 1012 79 10000 0.62 27 20:47 15.08.2022
617 Clouds 14 1011 79 10000 0.69 29 20:18 15.08.2022
618 Clouds 17 1011 63 10000 1.11 352 18:31 15.08.2022
619 Clouds 19 1010 79 9878 0.33 44 16:47 15.08.2022
620 Clouds 15 1010 78 5632 0.38 216 16:21 15.08.2022
621 Clouds 18 1010 74 10000 0.36 235 13:55 15.08.2022
622 Clouds 19 1010 71 10000 0.38 172 12:29 15.08.2022
623 Clouds 15 1010 88 10000 0.08 214 09:59 15.08.2022
624 Clouds 13 1011 92 10000 0.56 122 08:22 15.08.2022
625 Clouds 12 1011 89 10000 0.35 137 06:20 15.08.2022
626 Clouds 14 1012 84 10000 1.04 289 02:19 15.08.2022
627 Clouds 15 1012 88 10000 0.81 181 22:39 14.08.2022
628 Clouds 16 1012 87 10000 1.07 135 21:39 14.08.2022
629 Clouds 17 1011 76 10000 0.88 153 20:21 14.08.2022
630 Clouds 19 1011 57 10000 0.88 153 19:30 14.08.2022
631 Clouds 19 1011 60 10000 0.95 155 18:19 14.08.2022
632 Clouds 20 1010 52 10000 1.03 150 16:54 14.08.2022
633 Clouds 22 1010 49 10000 1.15 125 15:51 14.08.2022
634 Clouds 21 1011 48 10000 0.67 140 14:36 14.08.2022
635 Clouds 22 1011 46 10000 0.64 131 13:50 14.08.2022
636 Clouds 22 1011 44 10000 0.65 132 13:22 14.08.2022
637 Clouds 23 1011 50 10000 0.65 132 12:34 14.08.2022
638 Clouds 20 1012 51 10000 0.85 186 10:55 14.08.2022
639 Clouds 15 1013 73 10000 1.76 193 08:53 14.08.2022
640 Clouds 10 1014 78 10000 0.7 187 06:22 14.08.2022
641 Clouds 11 1015 78 10000 1.26 196 03:36 14.08.2022
642 Clear 13 1017 73 10000 1.8 193 00:39 14.08.2022
643 Clear 13 1017 70 10000 1.14 196 22:56 13.08.2022
644 Clear 17 1017 75 10000 0.77 204 21:47 13.08.2022
645 Clear 18 1016 75 10000 0.28 63 20:47 13.08.2022
646 Clear 19 1016 65 10000 1.67 356 19:46 13.08.2022
647 Clear 23 1015 40 10000 2.46 348 18:19 13.08.2022
648 Clear 20 1015 36 10000 2.67 344 15:40 13.08.2022
649 Clear 23 1014 32 10000 2.54 344 14:40 13.08.2022
650 Clear 23 1014 36 10000 2.09 348 13:46 13.08.2022
651 Clear 21 1015 46 10000 1.5 351 11:59 13.08.2022
652 Clear 17 1015 58 10000 1.14 342 10:33 13.08.2022
653 Clear 14 1016 67 10000 0.75 181 09:22 13.08.2022
654 Clouds 9 1017 81 10000 0.86 199 05:59 13.08.2022
655 Clear 11 1018 71 10000 0.17 205 00:36 13.08.2022
656 Clear 16 1018 80 10000 1.08 334 22:26 12.08.2022
657 Clear 18 1018 79 10000 1.54 347 21:20 12.08.2022
658 Clear 18 1017 49 10000 1.81 341 19:44 12.08.2022
659 Clear 19 1016 49 10000 2.17 335 19:21 12.08.2022
660 Clear 20 1016 55 10000 2.23 337 17:58 12.08.2022
661 Clear 21 1015 55 10000 2.25 332 16:25 12.08.2022
662 Clear 21 1015 57 10000 2.31 333 14:50 12.08.2022
663 Clear 23 1015 49 10000 1.85 327 12:59 12.08.2022
664 Clear 21 1016 63 10000 1.76 329 11:39 12.08.2022
665 Clear 14 1017 88 10000 1.32 341 08:49 12.08.2022
666 Clouds 13 1018 90 10000 1.47 332 07:45 12.08.2022
667 Clouds 13 1019 84 10000 0.95 314 03:56 12.08.2022
668 Clouds 14 1020 78 10000 0.72 284 00:31 12.08.2022
669 Clouds 15 1020 89 10000 0.76 286 23:42 11.08.2022
670 Clouds 16 1020 90 10000 0.74 301 22:37 11.08.2022
671 Clouds 18 1021 89 10000 1.15 333 21:47 11.08.2022
672 Clouds 19 1020 87 10000 1.41 331 21:23 11.08.2022
673 Clouds 18 1020 87 10000 1.41 331 20:30 11.08.2022
674 Clouds 20 1019 81 10000 1.47 336 19:33 11.08.2022
675 Clouds 20 1018 67 10000 1.47 346 18:41 11.08.2022
676 Clouds 21 1018 55 10000 1.48 344 16:42 11.08.2022
677 Clouds 24 1018 44 10000 1.61 334 15:42 11.08.2022
678 Clouds 19 1019 45 10000 1.34 333 14:20 11.08.2022
679 Clouds 22 1019 47 10000 0.77 317 11:51 11.08.2022
680 Clouds 15 1021 80 10000 1.61 202 08:34 11.08.2022
681 Clear 13 1023 85 10000 2.77 190 04:53 11.08.2022
682 Clear 13 1023 84 10000 2.4 191 02:26 11.08.2022
683 Clouds 15 1023 80 10000 1.53 185 22:55 10.08.2022
684 Clouds 18 1022 89 10000 0.81 182 21:45 10.08.2022
685 Clouds 18 1022 89 10000 0.14 327 20:56 10.08.2022
686 Clouds 20 1021 83 10000 0.4 311 19:58 10.08.2022
687 Clouds 21 1021 69 10000 0.6 5 18:45 10.08.2022
688 Clouds 24 1020 52 10000 1.38 336 17:20 10.08.2022
689 Clouds 20 1021 59 10000 1.07 349 14:25 10.08.2022
690 Clouds 17 1021 62 10000 0.3 327 12:54 10.08.2022
691 Clouds 19 1022 68 10000 0.8 186 10:31 10.08.2022
692 Clouds 14 1023 89 10000 1.75 176 08:37 10.08.2022
693 Clouds 12 1023 87 10000 2.14 180 07:22 10.08.2022
694 Clouds 13 1024 85 10000 2.4 181 04:50 10.08.2022
695 Clear 14 1024 82 10000 1.8 169 00:50 10.08.2022
696 Clear 14 1024 80 10000 0.56 89 23:27 09.08.2022
697 Clear 18 1024 87 10000 0.92 21 21:41 09.08.2022
698 Clear 17 1024 85 10000 1.55 2 21:22 09.08.2022
699 Clouds 22 1022 55 10000 1.88 350 18:56 09.08.2022
700 Clouds 24 1021 47 10000 1.9 352 17:31 09.08.2022
701 Clear 24 1021 45 10000 1.77 357 16:46 09.08.2022
702 Clear 24 1021 40 10000 2 4 15:59 09.08.2022
703 Clear 24 1021 44 10000 2.12 5 14:50 09.08.2022
704 Clear 21 1022 59 10000 0.85 26 11:29 09.08.2022
705 Clear 16 1022 78 10000 0.42 157 08:52 09.08.2022
706 Clear 14 1023 75 10000 0.69 174 07:57 09.08.2022
707 Clear 11 1023 89 10000 0.83 188 05:24 09.08.2022
708 Clear 13 1024 86 10000 0.49 144 00:36 09.08.2022
709 Clear 13 1024 84 10000 0.83 50 23:24 08.08.2022
710 Clear 14 1024 81 10000 0.83 50 22:40 08.08.2022
711 Clear 16 1023 89 10000 1.27 31 21:44 08.08.2022
712 Clear 17 1023 87 10000 1.67 12 20:39 08.08.2022
713 Clouds 19 1021 65 10000 2.45 358 19:35 08.08.2022
714 Clouds 22 1020 58 10000 2.89 353 18:18 08.08.2022
715 Clouds 23 1019 47 10000 2.44 360 15:54 08.08.2022
716 Clouds 23 1019 50 10000 2.44 360 15:36 08.08.2022
717 Clear 21 1020 65 10000 1.62 23 12:30 08.08.2022
718 Clear 18 1020 75 10000 1.44 39 10:33 08.08.2022
719 Clouds 14 1021 96 10000 0.82 32 07:59 08.08.2022
720 Clouds 13 1020 78 10000 0.83 15 04:31 08.08.2022
721 Clouds 13 1021 93 10000 0.81 123 00:33 08.08.2022
722 Clouds 14 1021 92 10000 0.96 2 21:42 07.08.2022
723 Clouds 15 1021 92 10000 0.93 330 21:19 07.08.2022
724 Clouds 15 1021 90 10000 0.52 282 20:23 07.08.2022
725 Clouds 16 1021 89 10000 0.52 282 19:52 07.08.2022
726 Clouds 16 1021 89 10000 0.39 247 19:22 07.08.2022
727 Rain 16 1021 90 10000 1.42 271 17:31 07.08.2022
728 Rain 17 1020 91 10000 0.81 293 16:52 07.08.2022
729 Rain 18 1019 80 9067 1.43 315 15:39 07.08.2022
730 Rain 21 1018 72 10000 0.81 33 13:58 07.08.2022
731 Clouds 18 1018 69 10000 0.47 108 12:40 07.08.2022
732 Clouds 18 1019 83 10000 1.02 129 10:51 07.08.2022
733 Clouds 17 1019 84 10000 1.21 137 10:20 07.08.2022
734 Clouds 14 1020 95 10000 1.27 189 04:37 07.08.2022
735 Clouds 14 1021 92 10000 1.45 169 02:18 07.08.2022
736 Clouds 15 1022 92 10000 1.18 31 22:39 06.08.2022
737 Clouds 15 1022 88 10000 1.63 25 22:18 06.08.2022
738 Clouds 17 1020 78 10000 2.55 358 19:46 06.08.2022
739 Clouds 19 1020 73 10000 2.37 10 18:49 06.08.2022
740 Clouds 19 1020 76 10000 2.36 7 17:45 06.08.2022
741 Clouds 19 1020 75 10000 2.78 8 16:24 06.08.2022
742 Clouds 20 1021 71 10000 2.12 22 13:51 06.08.2022
743 Clouds 18 1021 73 10000 1.96 24 12:27 06.08.2022
744 Clouds 19 1021 85 10000 2.16 27 11:21 06.08.2022
745 Clouds 16 1021 92 10000 2.18 24 09:41 06.08.2022
746 Clouds 14 1021 94 10000 2.08 350 04:43 06.08.2022
747 Clouds 14 1022 93 10000 1.52 353 00:49 06.08.2022
748 Clouds 15 1022 93 10000 0.39 36 22:35 05.08.2022
749 Clouds 15 1023 94 10000 0.22 258 21:18 05.08.2022
750 Clouds 17 1022 89 10000 1.29 109 19:18 05.08.2022
751 Clouds 17 1022 92 10000 1.29 109 18:41 05.08.2022
752 Rain 19 1020 65 8163 2.08 330 16:53 05.08.2022
753 Rain 24 1018 63 9312 1.73 9 15:25 05.08.2022
754 Rain 23 1018 59 9312 1.73 9 14:38 05.08.2022
755 Clouds 24 1018 58 10000 1.45 328 13:38 05.08.2022
756 Clouds 25 1018 50 10000 1.4 329 13:18 05.08.2022
757 Clouds 24 1018 54 10000 1.15 336 11:55 05.08.2022
758 Clouds 21 1019 76 10000 0.53 291 10:24 05.08.2022
759 Clouds 16 1019 71 10000 0.92 207 07:57 05.08.2022
760 Clouds 15 1020 93 10000 1.69 185 04:48 05.08.2022
761 Clouds 19 1021 74 10000 1.56 218 23:49 04.08.2022
762 Clouds 21 1021 82 10000 1.16 229 21:37 04.08.2022
763 Clouds 21 1021 84 10000 0.81 272 21:18 04.08.2022
764 Clouds 23 1021 84 10000 0.81 272 20:38 04.08.2022
765 Clouds 26 1020 85 10000 0.65 223 19:00 04.08.2022
766 Clouds 26 1020 85 10000 0.65 223 18:34 04.08.2022
767 Clouds 26 1019 66 8732 0.26 126 15:59 04.08.2022
768 Clouds 24 1019 57 10000 0.45 43 13:32 04.08.2022
769 Clouds 22 1019 57 10000 0.58 12 11:42 04.08.2022
770 Clouds 23 1020 67 10000 0.24 294 10:24 04.08.2022
771 Clouds 17 1020 84 10000 0.87 181 07:49 04.08.2022
772 Clouds 16 1021 83 10000 1.89 187 03:29 04.08.2022
773 Clouds 17 1021 80 10000 1.91 183 00:52 04.08.2022
774 Clouds 18 1021 79 10000 1.73 183 23:41 03.08.2022
775 Clouds 18 1021 88 10000 1.28 178 21:34 03.08.2022
776 Clouds 22 1020 83 10000 0.43 178 20:22 03.08.2022
777 Clouds 22 1020 83 10000 0.43 178 20:21 03.08.2022
778 Clouds 24 1019 75 8782 0.39 280 19:27 03.08.2022
779 Clouds 25 1019 68 10000 0.19 222 16:53 03.08.2022
780 Clouds 25 1019 67 10000 0.35 172 16:23 03.08.2022
781 Clouds 24 1018 55 10000 0.54 151 14:23 03.08.2022
782 Clouds 24 1019 58 10000 0.68 177 11:46 03.08.2022
783 Clouds 15 1021 86 10000 1.77 189 07:45 03.08.2022
784 Clouds 14 1021 86 10000 2.1 186 04:22 03.08.2022
785 Clouds 14 1021 85 10000 2.18 183 03:24 03.08.2022
786 Clouds 15 1021 84 10000 2.03 174 00:58 03.08.2022
787 Clouds 16 1021 81 10000 0.94 147 22:49 02.08.2022
788 Clouds 17 1021 78 10000 0.39 65 21:52 02.08.2022
789 Clouds 20 1020 88 10000 0.75 11 20:37 02.08.2022
790 Clouds 23 1019 68 10000 1.39 347 18:42 02.08.2022
791 Clouds 24 1018 57 10000 1.23 357 15:36 02.08.2022
792 Clouds 19 1020 75 10000 0.91 359 11:32 02.08.2022
793 Clouds 15 1021 86 10000 0.77 7 09:18 02.08.2022
794 Clouds 13 1021 73 10000 0.67 4 07:53 02.08.2022
795 Clouds 12 1021 94 10000 1.15 346 06:43 02.08.2022
796 Clouds 13 1021 94 10000 1.83 331 04:54 02.08.2022
797 Clouds 17 1022 83 10000 2.27 323 23:38 01.08.2022
798 Clouds 19 1022 83 10000 2.14 320 22:24 01.08.2022
799 Clouds 18 1021 79 10000 2.7 334 20:52 01.08.2022
800 Clouds 21 1019 58 10000 2.63 340 19:25 01.08.2022
801 Clouds 22 1019 56 10000 2.63 340 18:31 01.08.2022
802 Clouds 23 1018 54 10000 2.81 336 16:53 01.08.2022
803 Clouds 24 1017 47 10000 2.56 336 15:52 01.08.2022
804 Clouds 24 1017 48 10000 2.56 336 15:30 01.08.2022
805 Clouds 24 1017 43 10000 2.12 340 14:43 01.08.2022
806 Clear 22 1019 58 10000 1.31 337 11:59 01.08.2022
807 Clear 19 1020 69 10000 1.56 345 09:43 01.08.2022
808 Clear 15 1020 80 10000 1.65 341 08:30 01.08.2022
809 Clear 12 1021 83 10000 1.57 326 04:54 01.08.2022
810 Clear 13 1022 83 10000 1.53 323 03:49 01.08.2022
811 Clear 12 1022 85 10000 1.45 323 00:36 01.08.2022
812 Clear 14 1022 85 10000 1.77 325 22:40 31.07.2022
813 Clouds 16 1021 81 10000 2.24 341 21:29 31.07.2022
814 Clouds 20 1021 59 10000 2.43 346 19:53 31.07.2022
815 Clouds 22 1020 51 10000 3.19 343 17:57 31.07.2022
816 Clouds 23 1020 54 10000 3.01 342 15:39 31.07.2022
817 Clouds 22 1020 56 10000 2.73 341 13:43 31.07.2022
818 Clear 20 1021 66 10000 2.74 345 11:59 31.07.2022
819 Clouds 18 1022 61 10000 2.82 351 09:55 31.07.2022
820 Clouds 12 1022 87 10000 2.01 342 07:59 31.07.2022
821 Clear 10 1023 81 10000 1.89 335 02:58 31.07.2022
822 Clear 11 1024 84 10000 1.72 336 23:46 30.07.2022
823 Clear 12 1024 84 10000 2.26 340 22:19 30.07.2022
824 Clear 12 1024 84 10000 2.26 340 21:49 30.07.2022
825 Clear 15 1023 81 10000 2.79 341 20:57 30.07.2022
826 Clear 15 1023 81 10000 2.79 341 20:57 30.07.2022
827 Clouds 16 1022 70 10000 3.01 340 19:59 30.07.2022
828 Clouds 17 1022 54 10000 3.58 341 18:53 30.07.2022
829 Clouds 18 1021 53 10000 3.91 339 17:44 30.07.2022
830 Clouds 19 1020 63 10000 3.97 337 15:54 30.07.2022
831 Clouds 17 1020 54 10000 3.79 340 15:24 30.07.2022
832 Clouds 18 1021 56 10000 3.39 340 13:18 30.07.2022
833 Clouds 15 1021 67 10000 3.33 343 12:19 30.07.2022
834 Clouds 13 1021 70 10000 3.42 344 10:31 30.07.2022
835 Clouds 13 1021 70 10000 3.42 344 10:31 30.07.2022
836 Clouds 13 1021 70 10000 3.42 344 10:31 30.07.2022
837 Clouds 14 1021 70 10000 3.44 343 09:56 30.07.2022
838 Clouds 12 1021 94 10000 3.25 340 07:55 30.07.2022
839 Clouds 11 1021 95 10000 2.93 334 03:55 30.07.2022
840 Clouds 11 1021 95 10000 2.88 331 02:25 30.07.2022
841 Clouds 12 1021 95 10000 3.02 328 22:44 29.07.2022
842 Clouds 12 1021 91 10000 2.38 342 21:24 29.07.2022
843 Clouds 12 1021 91 10000 2.38 342 20:41 29.07.2022
844 Rain 13 1019 94 5550 2.32 313 18:26 29.07.2022
845 Rain 14 1018 94 5838 0.89 314 15:38 29.07.2022
846 Rain 18 1017 69 7884 0.59 10 13:37 29.07.2022
847 Clouds 19 1017 71 10000 0.17 212 11:30 29.07.2022
848 Clouds 17 1018 69 10000 0.8 163 08:50 29.07.2022
849 Clouds 10 1018 71 10000 0.52 161 08:20 29.07.2022
850 Clouds 10 1019 95 10000 0.69 200 02:29 29.07.2022
851 Clouds 12 1019 95 10000 0.66 175 23:18 28.07.2022
852 Rain 13 1018 94 10000 1.06 283 21:29 28.07.2022
853 Rain 13 1018 93 10000 1.06 283 20:34 28.07.2022
854 Rain 13 1018 88 8980 1.07 274 19:44 28.07.2022
855 Rain 14 1017 82 5379 1.85 258 19:25 28.07.2022
856 Clouds 16 1016 81 8254 0.99 229 17:44 28.07.2022
857 Clouds 21 1015 74 10000 1.43 176 16:59 28.07.2022
858 Clouds 21 1015 74 10000 1.43 176 16:36 28.07.2022
859 Clouds 20 1015 73 10000 1.73 183 13:35 28.07.2022
860 Clouds 18 1015 71 10000 2.25 170 11:43 28.07.2022
861 Clouds 12 1016 88 10000 2.66 174 06:59 28.07.2022
862 Clouds 12 1016 87 10000 2.69 176 05:33 28.07.2022
863 Clouds 12 1017 87 10000 2.42 175 03:53 28.07.2022
864 Clouds 15 1018 93 10000 0.96 125 22:56 27.07.2022
865 Clouds 16 1017 92 10000 1.51 15 21:29 27.07.2022
866 Clouds 18 1016 83 10000 2.04 2 19:45 27.07.2022
867 Clouds 18 1016 65 10000 2.36 354 18:41 27.07.2022
868 Clouds 20 1015 64 10000 2.34 350 16:31 27.07.2022
869 Clouds 19 1015 65 10000 2.09 352 15:40 27.07.2022
870 Clouds 16 1016 77 10000 2.08 357 14:41 27.07.2022
871 Clouds 15 1016 82 10000 1.66 4 12:52 27.07.2022
872 Clouds 16 1016 85 10000 1.34 18 09:27 27.07.2022
873 Clouds 14 1016 93 10000 1.04 19 07:33 27.07.2022
874 Clouds 14 1017 90 10000 1.17 11 02:52 27.07.2022
875 Clouds 15 1018 85 10000 2.24 353 22:47 26.07.2022
876 Clouds 16 1017 80 10000 2.37 1 21:25 26.07.2022
877 Clouds 15 1017 91 10000 2.37 1 20:49 26.07.2022
878 Clouds 19 1017 84 10000 3.13 355 18:46 26.07.2022
879 Clouds 19 1017 73 10000 3.24 354 18:28 26.07.2022
880 Clouds 20 1016 76 10000 3.06 354 16:54 26.07.2022
881 Clouds 20 1016 73 10000 2.86 351 15:43 26.07.2022
882 Clouds 19 1017 74 10000 2.64 358 14:00 26.07.2022
883 Clouds 17 1017 80 10000 2.69 356 11:47 26.07.2022
884 Clouds 15 1017 92 10000 2.73 352 09:35 26.07.2022
885 Clouds 14 1018 95 9864 2.59 349 07:56 26.07.2022
886 Clouds 15 1019 95 10000 2.33 334 01:44 26.07.2022
887 Clouds 16 1020 93 10000 1.13 27 23:37 25.07.2022
888 Rain 16 1020 92 8334 1.36 345 22:33 25.07.2022
889 Clouds 17 1019 89 10000 2.45 328 21:43 25.07.2022
890 Clouds 18 1018 88 10000 1.83 348 20:42 25.07.2022
891 Clouds 20 1018 83 10000 2.18 5 19:51 25.07.2022
892 Rain 23 1017 75 9157 1.54 289 18:23 25.07.2022
893 Rain 24 1017 69 10000 0.14 118 17:34 25.07.2022
894 Clouds 27 1017 70 10000 1.4 221 15:37 25.07.2022
895 Clouds 25 1017 58 10000 0.89 201 12:47 25.07.2022
896 Clear 25 1018 59 10000 1.56 191 10:42 25.07.2022
897 Clear 16 1020 85 10000 2.04 184 06:52 25.07.2022
898 Clear 18 1022 82 10000 2.26 184 23:57 24.07.2022
899 Clear 18 1021 82 10000 2.07 185 23:22 24.07.2022
900 Clear 18 1021 80 10000 2.07 185 22:41 24.07.2022
901 Clear 20 1021 75 10000 1.97 180 21:30 24.07.2022
902 Clear 21 1020 84 10000 1.81 168 20:56 24.07.2022
903 Clear 23 1020 66 10000 1.62 163 20:32 24.07.2022
904 Clouds 24 1019 66 10000 0.47 156 18:59 24.07.2022
905 Clouds 23 1019 62 10000 0.4 282 16:53 24.07.2022
906 Clouds 27 1019 57 10000 0.19 319 15:53 24.07.2022
907 Clouds 26 1019 62 10000 0.26 45 14:40 24.07.2022
908 Clouds 25 1019 61 10000 0.27 87 13:43 24.07.2022
909 Clouds 24 1021 65 10000 0.46 76 12:19 24.07.2022
910 Clouds 22 1021 68 10000 0.42 47 11:28 24.07.2022
911 Clouds 18 1021 78 10000 0.44 79 09:33 24.07.2022
912 Clouds 14 1022 94 10000 0.96 33 07:53 24.07.2022
913 Clouds 12 1023 93 10000 1.2 17 06:38 24.07.2022
914 Clouds 13 1023 93 10000 1.69 355 02:33 24.07.2022
915 Clouds 15 1024 93 10000 1.99 352 22:31 23.07.2022
916 Clouds 17 1022 92 10000 2.41 343 20:47 23.07.2022
917 Clouds 18 1020 86 10000 2.74 342 18:55 23.07.2022
918 Clouds 20 1020 77 10000 1.77 338 17:48 23.07.2022
919 Clouds 21 1020 75 10000 1.52 329 17:24 23.07.2022
920 Clouds 22 1020 74 10000 1.32 325 15:55 23.07.2022
921 Clouds 22 1020 69 10000 1.25 316 15:21 23.07.2022
922 Clouds 22 1020 73 10000 1.25 316 14:47 23.07.2022
923 Clouds 22 1020 72 9566 0.84 302 13:54 23.07.2022
924 Clouds 20 1020 81 10000 0.29 172 11:47 23.07.2022
925 Clouds 18 1020 89 10000 0.63 257 10:28 23.07.2022
926 Clouds 17 1020 91 10000 0.68 248 09:26 23.07.2022
927 Rain 14 1020 95 10000 1.77 198 05:58 23.07.2022
928 Clouds 15 1021 94 10000 1.87 191 03:37 23.07.2022
929 Clouds 17 1022 85 10000 1.8 167 23:59 22.07.2022
930 Rain 19 1023 78 10000 0.94 98 21:28 22.07.2022
931 Rain 24 1021 84 9971 2.04 247 19:58 22.07.2022
932 Rain 22 1020 75 9220 1.71 244 18:41 22.07.2022
933 Clouds 23 1019 65 10000 1.99 185 17:38 22.07.2022
934 Clouds 28 1018 43 10000 1.49 156 15:30 22.07.2022
935 Clear 25 1019 50 10000 2.26 168 12:33 22.07.2022
936 Clear 21 1020 73 10000 2.41 169 09:45 22.07.2022
937 Clear 20 1021 77 10000 2.18 170 09:19 22.07.2022
938 Clear 15 1022 90 10000 1.78 184 07:23 22.07.2022
939 Clear 15 1022 89 10000 1.54 185 04:19 22.07.2022
940 Clouds 18 1023 83 10000 0.73 32 23:27 21.07.2022
941 Clouds 19 1023 82 10000 1.06 16 21:37 21.07.2022
942 Clouds 21 1022 73 10000 1.17 355 19:35 21.07.2022
943 Clouds 22 1022 73 10000 1.24 328 18:29 21.07.2022
944 Clouds 23 1022 70 10000 0.98 338 17:20 21.07.2022
945 Clouds 23 1022 68 10000 0.63 1 15:39 21.07.2022
946 Clouds 24 1022 71 10000 0.32 347 14:44 21.07.2022
947 Clouds 21 1022 75 10000 0.15 208 12:54 21.07.2022
948 Clouds 20 1022 83 10000 0.19 138 11:42 21.07.2022
949 Clouds 16 1023 93 10000 0.28 88 09:44 21.07.2022
950 Clouds 15 1023 91 10000 0.5 24 08:53 21.07.2022
951 Clouds 14 1023 93 10000 0.52 19 07:50 21.07.2022
952 Clouds 14 1023 91 10000 0.63 341 06:25 21.07.2022
953 Clouds 15 1023 91 10000 1.19 213 01:54 21.07.2022
954 Rain 15 1023 86 10000 1.53 188 22:23 20.07.2022
955 Rain 16 1023 86 10000 1.53 188 21:42 20.07.2022
956 Clouds 20 1023 85 10000 1.2 174 20:39 20.07.2022
957 Clouds 15 1022 77 10000 0.57 192 19:43 20.07.2022
958 Clouds 21 1021 61 10000 1.04 183 18:53 20.07.2022
959 Clouds 22 1021 61 10000 1.04 183 18:30 20.07.2022
960 Clear 26 1020 48 10000 1.72 167 16:49 20.07.2022
961 Clear 26 1020 46 10000 2.48 155 15:32 20.07.2022
962 Clear 24 1021 50 10000 1.6 152 14:32 20.07.2022
963 Clouds 25 1022 60 10000 1.45 172 12:41 20.07.2022
964 Clouds 20 1023 72 10000 2.06 160 10:28 20.07.2022
965 Clouds 17 1023 78 10000 1.97 172 05:44 20.07.2022
966 Clouds 18 1024 78 10000 2.46 181 00:54 20.07.2022
967 Clouds 18 1024 77 10000 2.46 181 00:36 20.07.2022
968 Clouds 19 1024 85 10000 2.35 175 22:35 19.07.2022
969 Clouds 20 1024 84 10000 2.08 175 21:53 19.07.2022
970 Clouds 23 1023 80 10000 2.12 174 20:49 19.07.2022
971 Clouds 25 1021 66 10000 1.51 163 19:22 19.07.2022
972 Clouds 25 1021 66 10000 1.51 163 18:35 19.07.2022
973 Clouds 26 1021 59 10000 1.13 163 17:51 19.07.2022
974 Clear 27 1021 44 10000 1.19 145 15:26 19.07.2022
975 Clear 26 1022 44 10000 0.83 159 12:44 19.07.2022
976 Clear 24 1022 47 10000 0.97 177 11:32 19.07.2022
977 Clear 22 1023 62 10000 1.91 182 09:51 19.07.2022
978 Clear 19 1024 68 10000 2.3 181 08:42 19.07.2022
979 Clear 15 1025 74 10000 2.22 182 07:19 19.07.2022
980 Clear 13 1025 73 10000 2.44 183 05:50 19.07.2022
981 Clear 14 1025 72 10000 2.41 183 05:18 19.07.2022
982 Clear 15 1025 70 10000 2.28 179 02:37 19.07.2022
983 Clear 16 1025 66 10000 2.12 180 23:52 18.07.2022
984 Clear 17 1025 65 10000 1.89 169 23:19 18.07.2022
985 Clear 17 1025 77 10000 1.17 136 22:26 18.07.2022
986 Clear 21 1024 75 10000 0.84 46 21:20 18.07.2022
987 Clear 24 1023 63 10000 1.13 15 19:54 18.07.2022
988 Clear 26 1023 36 10000 2.06 357 18:29 18.07.2022
989 Clear 24 1023 34 10000 2.25 355 16:30 18.07.2022
990 Clear 27 1023 32 10000 2.36 357 15:26 18.07.2022
991 Clear 26 1024 42 10000 2.01 3 13:31 18.07.2022
992 Clear 24 1024 59 10000 1.54 3 11:34 18.07.2022
993 Clear 20 1025 69 10000 1.02 8 09:55 18.07.2022
994 Clouds 16 1026 41 10000 0.75 328 07:54 18.07.2022
995 Clouds 13 1026 82 10000 0.41 299 03:32 18.07.2022
996 Clouds 16 1027 74 10000 0.25 271 22:57 17.07.2022
997 Clouds 17 1027 83 10000 0.25 271 22:31 17.07.2022
998 Clouds 19 1027 83 10000 0.61 340 21:39 17.07.2022
999 Clear 20 1026 82 10000 1.35 346 20:46 17.07.2022
1000 Clouds 22 1025 54 10000 1.67 343 19:50 17.07.2022
1001 Clouds 23 1024 54 10000 1.68 340 19:21 17.07.2022
1002 Clouds 22 1024 57 10000 1.86 334 17:43 17.07.2022
1003 Clouds 26 1024 42 10000 1.79 328 17:25 17.07.2022
1004 Clouds 26 1024 42 10000 1.79 328 16:32 17.07.2022
1005 Clouds 26 1023 47 10000 1.42 331 15:49 17.07.2022
1006 Clear 25 1023 60 10000 0.56 32 13:51 17.07.2022
1007 Clear 24 1024 59 10000 0.34 56 12:43 17.07.2022
1008 Clear 20 1024 67 10000 1.22 166 10:20 17.07.2022
1009 Clear 11 1024 86 10000 0.69 161 06:59 17.07.2022
1010 Clear 12 1025 83 10000 0.97 9 02:35 17.07.2022
1011 Clear 15 1025 84 10000 1.95 343 23:26 16.07.2022
1012 Clear 16 1025 84 10000 1.95 343 22:33 16.07.2022
1013 Clear 18 1024 78 10000 2.49 345 20:40 16.07.2022
1014 Clouds 21 1022 60 10000 3.3 346 18:58 16.07.2022
1015 Clouds 22 1021 56 10000 3.54 344 17:47 16.07.2022
1016 Clouds 24 1020 47 10000 3.34 345 15:54 16.07.2022
1017 Clear 22 1020 70 10000 2.27 345 12:37 16.07.2022
1018 Clear 19 1021 71 10000 1.71 344 10:28 16.07.2022
1019 Clear 17 1021 75 10000 1.72 341 09:25 16.07.2022
1020 Clear 16 1021 80 10000 1.72 341 08:41 16.07.2022
1021 Clear 11 1022 89 10000 1.69 327 06:59 16.07.2022
1022 Clear 13 1022 86 10000 1.68 319 03:33 16.07.2022
1023 Clouds 14 1023 82 10000 1.88 319 00:45 16.07.2022
1024 Clouds 16 1023 78 10000 2.43 326 22:56 15.07.2022
1025 Clouds 17 1022 74 10000 2.81 336 22:24 15.07.2022
1026 Clouds 18 1021 87 10000 2.97 342 20:40 15.07.2022
1027 Clouds 20 1020 64 10000 3.2 339 19:34 15.07.2022
1028 Clouds 22 1019 58 10000 3.29 341 18:23 15.07.2022
1029 Clouds 22 1018 61 10000 3.11 345 16:53 15.07.2022
1030 Clear 24 1018 52 10000 2.62 334 14:19 15.07.2022
1031 Clear 23 1019 52 10000 2.68 330 12:28 15.07.2022
1032 Clear 21 1019 69 10000 2.4 329 10:52 15.07.2022
1033 Clear 15 1020 75 10000 2.07 319 07:48 15.07.2022
1034 Clear 15 1021 76 10000 2.03 312 02:51 15.07.2022
1035 Clear 14 1022 74 10000 1.82 310 00:40 15.07.2022
1036 Clear 17 1022 74 10000 2.12 312 22:56 14.07.2022
1037 Clear 17 1022 72 10000 2.02 312 22:19 14.07.2022
1038 Clear 19 1022 72 10000 2.02 312 21:39 14.07.2022
1039 Clear 21 1022 71 10000 2.08 315 21:19 14.07.2022
1040 Clear 22 1022 71 10000 2.08 315 20:42 14.07.2022
1041 Clouds 23 1021 67 10000 1.78 310 20:18 14.07.2022
1042 Clouds 26 1020 45 10000 1.61 327 17:59 14.07.2022
1043 Clouds 25 1020 37 10000 0.98 309 16:19 14.07.2022
1044 Clouds 24 1020 36 10000 0.72 298 14:55 14.07.2022
1045 Clouds 25 1021 36 10000 0.51 296 13:51 14.07.2022
1046 Clouds 25 1021 52 10000 0.69 295 12:34 14.07.2022
1047 Clouds 24 1022 57 10000 0.25 278 11:26 14.07.2022
1048 Clouds 23 1022 56 10000 0.25 278 10:51 14.07.2022
1049 Rain 17 1023 82 10000 0.31 313 08:52 14.07.2022
1050 Clouds 15 1024 76 10000 0.7 283 04:44 14.07.2022
1051 Clouds 15 1026 67 10000 0.88 309 01:19 14.07.2022
1052 Clouds 15 1026 67 10000 0.88 309 00:50 14.07.2022
1053 Clouds 17 1026 73 10000 0.73 306 22:30 13.07.2022
1054 Clouds 17 1026 74 10000 0.94 313 21:38 13.07.2022
1055 Clouds 19 1025 73 10000 0.88 315 20:38 13.07.2022
1056 Clouds 24 1023 41 10000 1.18 321 18:36 13.07.2022
1057 Clouds 25 1023 34 10000 1.07 319 17:31 13.07.2022
1058 Clouds 25 1023 34 10000 1.07 319 17:31 13.07.2022
1059 Clouds 25 1023 31 10000 0.66 342 16:19 13.07.2022
1060 Clear 25 1023 33 10000 0.33 36 13:57 13.07.2022
1061 Clear 21 1024 45 10000 0.24 155 11:36 13.07.2022
1062 Clear 21 1024 43 10000 0.96 184 10:44 13.07.2022
1063 Clear 19 1025 51 10000 1.75 175 09:49 13.07.2022
1064 Clear 17 1025 54 10000 2.1 178 09:20 13.07.2022
1065 Clear 9 1026 79 10000 1.39 174 05:21 13.07.2022
1066 Clouds 11 1027 75 10000 0.62 114 00:49 13.07.2022
1067 Clouds 13 1027 68 10000 1.12 14 22:48 12.07.2022
1068 Clouds 17 1027 82 10000 1.61 12 21:49 12.07.2022
1069 Clouds 16 1025 77 10000 2.27 356 20:54 12.07.2022
1070 Clouds 18 1025 51 10000 2.9 354 20:21 12.07.2022
1071 Clouds 20 1024 55 10000 3.43 350 18:51 12.07.2022
1072 Clouds 21 1023 55 10000 3.63 346 17:29 12.07.2022
1073 Clouds 22 1022 52 10000 3.39 346 15:35 12.07.2022
1074 Clouds 21 1022 50 10000 3.07 347 13:43 12.07.2022
1075 Clouds 20 1022 68 10000 2.25 345 11:55 12.07.2022
1076 Clouds 18 1023 71 10000 1.88 346 10:45 12.07.2022
1077 Clouds 16 1023 75 10000 1.24 355 09:18 12.07.2022
1078 Clouds 12 1024 91 10000 1.51 346 07:55 12.07.2022
1079 Clouds 10 1023 90 10000 1.05 331 05:53 12.07.2022
1080 Clouds 10 1023 90 10000 1.05 331 05:34 12.07.2022
1081 Clouds 12 1024 84 10000 1.1 348 01:32 12.07.2022
1082 Clear 14 1024 91 10000 1.36 336 22:48 11.07.2022
1083 Clear 15 1024 90 10000 1.59 344 21:34 11.07.2022
1084 Clear 18 1023 66 10000 2.24 352 20:33 11.07.2022
1085 Clouds 20 1021 62 10000 2.3 345 19:27 11.07.2022
1086 Clouds 21 1021 63 10000 2.3 345 18:30 11.07.2022
1087 Clouds 22 1020 55 10000 2.4 340 16:34 11.07.2022
1088 Clouds 23 1020 58 10000 2.47 333 15:33 11.07.2022
1089 Clear 21 1019 64 10000 1.41 8 13:27 11.07.2022
1090 Clear 18 1019 70 10000 1.18 23 11:24 11.07.2022
1091 Clear 16 1020 74 10000 0.93 28 10:18 11.07.2022
1092 Clouds 16 1020 53 10000 1.32 18 09:40 11.07.2022
1093 Clear 13 1020 88 10000 1.3 18 08:32 11.07.2022
1094 Clouds 11 1022 89 10000 1.5 351 02:59 11.07.2022
1095 Clouds 12 1024 85 10000 2.29 356 00:18 11.07.2022
1096 Clouds 13 1023 94 10000 2.5 353 22:52 10.07.2022
1097 Clouds 15 1022 85 10000 3.1 345 21:20 10.07.2022
1098 Clouds 16 1022 85 10000 3.1 345 20:37 10.07.2022
1099 Clouds 18 1021 63 10000 3.46 348 19:40 10.07.2022
1100 Clouds 19 1021 65 10000 3.77 344 18:43 10.07.2022
1101 Clouds 19 1021 51 10000 4.04 341 17:36 10.07.2022
1102 Clouds 21 1020 50 10000 4.21 339 16:41 10.07.2022
1103 Clouds 20 1020 52 10000 4.33 341 15:24 10.07.2022
1104 Clear 19 1020 60 10000 4.13 341 13:48 10.07.2022
1105 Clear 18 1021 52 10000 3.66 342 12:26 10.07.2022
1106 Clear 16 1021 69 10000 3.23 345 09:57 10.07.2022
1107 Clear 14 1022 75 10000 2.92 346 08:44 10.07.2022
1108 Clouds 12 1023 77 10000 2.78 344 07:30 10.07.2022
1109 Clouds 11 1025 79 10000 2.39 334 01:31 10.07.2022
1110 Clouds 13 1026 88 10000 2.37 331 22:43 09.07.2022
1111 Clouds 14 1026 86 10000 2.51 336 22:19 09.07.2022
1112 Clouds 16 1025 79 10000 2.87 340 20:45 09.07.2022
1113 Clouds 19 1024 53 10000 3.67 343 18:37 09.07.2022
1114 Clouds 20 1024 47 10000 3.93 345 17:45 09.07.2022
1115 Clouds 21 1023 48 10000 3.87 344 16:44 09.07.2022
1116 Clouds 21 1024 43 10000 3.78 344 15:40 09.07.2022
1117 Clouds 20 1024 43 10000 3.75 343 14:28 09.07.2022
1118 Clouds 20 1024 35 10000 3.75 343 13:49 09.07.2022
1119 Clouds 19 1024 48 10000 3.35 345 12:45 09.07.2022
1120 Clear 17 1025 64 10000 2.89 346 11:22 09.07.2022
1121 Clear 16 1025 70 10000 2.68 346 10:22 09.07.2022
1122 Clear 14 1026 49 10000 2.13 340 07:45 09.07.2022
1123 Clear 8 1027 86 10000 1.36 341 04:58 09.07.2022
1124 Clear 9 1028 84 10000 1.53 350 01:50 09.07.2022
1125 Clear 13 1029 83 10000 1.97 355 22:54 08.07.2022
1126 Clear 14 1029 83 10000 2.16 356 21:43 08.07.2022
1127 Clear 14 1028 77 10000 2.76 356 20:40 08.07.2022
1128 Clear 16 1027 60 10000 3.21 356 19:52 08.07.2022
1129 Clear 19 1026 55 10000 3.74 355 18:24 08.07.2022
1130 Clear 19 1026 57 10000 3.88 352 16:40 08.07.2022
1131 Clear 19 1026 61 10000 4.09 351 14:51 08.07.2022
1132 Clouds 18 1025 59 10000 3.97 352 13:29 08.07.2022
1133 Clouds 17 1025 67 10000 3.95 353 11:42 08.07.2022
1134 Clouds 14 1026 64 10000 3.33 358 10:28 08.07.2022
1135 Clouds 11 1027 85 10000 3.41 359 08:33 08.07.2022
1136 Clouds 10 1027 87 10000 3.46 351 06:50 08.07.2022
1137 Clouds 12 1027 73 10000 3.58 343 01:31 08.07.2022
1138 Clouds 13 1026 90 10000 3.84 342 22:59 07.07.2022
1139 Clouds 13 1026 90 10000 3.84 342 22:34 07.07.2022
1140 Clouds 14 1025 89 10000 4.05 342 20:35 07.07.2022
1141 Clouds 16 1023 67 10000 4.6 337 18:20 07.07.2022
1142 Clouds 17 1023 70 10000 4.66 337 16:51 07.07.2022
1143 Clouds 17 1022 69 10000 4.7 337 14:35 07.07.2022
1144 Clouds 17 1021 62 10000 4.35 334 13:18 07.07.2022
1145 Clouds 18 1021 59 10000 4.06 336 12:24 07.07.2022
1146 Clouds 18 1021 59 10000 4.06 336 12:24 07.07.2022
1147 Clouds 18 1021 74 10000 4.06 336 11:45 07.07.2022
1148 Clear 18 1021 73 10000 3.34 333 11:24 07.07.2022
1149 Clear 16 1021 76 10000 3.34 333 10:41 07.07.2022
1150 Clear 16 1021 78 10000 2.77 333 10:23 07.07.2022
1151 Clear 10 1023 90 10000 1.8 320 06:58 07.07.2022
1152 Clouds 11 1024 85 10000 1.35 345 01:51 07.07.2022
1153 Clouds 13 1024 91 10000 1.52 343 23:36 06.07.2022
1154 Clouds 13 1025 91 10000 2.45 341 23:18 06.07.2022
1155 Clouds 14 1025 91 10000 2.45 341 22:52 06.07.2022
1156 Clouds 14 1025 91 10000 2.45 341 22:34 06.07.2022
1157 Clouds 15 1023 87 10000 2.68 346 20:36 06.07.2022
1158 Clouds 17 1023 67 10000 2.86 349 19:35 06.07.2022
1159 Clouds 20 1022 62 10000 3.48 346 17:32 06.07.2022
1160 Clouds 20 1021 58 10000 3.12 345 15:59 06.07.2022
1161 Clear 20 1021 55 10000 2.55 349 13:56 06.07.2022
1162 Clear 20 1022 56 10000 1.98 355 12:31 06.07.2022
1163 Clear 19 1022 60 10000 1.94 358 11:45 06.07.2022
1164 Clear 17 1023 70 10000 1.99 357 10:18 06.07.2022
1165 Clear 12 1023 85 10000 2.2 342 07:44 06.07.2022
1166 Clear 11 1024 87 10000 1.76 333 07:19 06.07.2022
1167 Clouds 12 1025 87 10000 2.46 344 01:20 06.07.2022
1168 Clouds 14 1024 79 10000 2.51 349 22:44 05.07.2022
1169 Clouds 14 1024 83 10000 2.75 347 21:32 05.07.2022
1170 Clouds 14 1024 83 10000 2.75 347 21:32 05.07.2022
1171 Clouds 15 1023 80 10000 2.91 347 20:38 05.07.2022
1172 Clouds 17 1022 67 10000 3.14 343 19:41 05.07.2022
1173 Clouds 19 1021 70 10000 3.35 346 18:26 05.07.2022
1174 Clouds 19 1021 64 10000 3.35 346 17:41 05.07.2022
1175 Clouds 19 1021 63 10000 3.45 348 16:39 05.07.2022
1176 Clouds 20 1021 69 10000 3.25 343 15:23 05.07.2022
1177 Clouds 19 1021 81 10000 3.06 340 13:36 05.07.2022
1178 Clouds 18 1021 84 10000 2.94 339 12:41 05.07.2022
1179 Clouds 14 1021 95 10000 2.77 340 10:46 05.07.2022
1180 Clouds 14 1021 95 10000 2.61 343 10:25 05.07.2022
1181 Rain 12 1021 96 10000 2.65 336 08:24 05.07.2022
1182 Rain 12 1022 96 10000 2.52 331 07:21 05.07.2022
1183 Rain 12 1021 96 10000 2.47 333 04:40 05.07.2022
1184 Clouds 12 1021 94 10000 1.44 342 01:54 05.07.2022
1185 Clouds 13 1021 94 10000 1.97 338 23:40 04.07.2022
1186 Clouds 13 1021 94 10000 0.79 328 22:59 04.07.2022
1187 Clouds 14 1021 93 10000 1.59 5 22:20 04.07.2022
1188 Rain 14 1020 92 10000 1.58 338 20:58 04.07.2022
1189 Rain 14 1020 91 10000 1.58 338 20:38 04.07.2022
1190 Rain 15 1020 90 10000 1.23 353 20:18 04.07.2022
1191 Rain 15 1020 89 10000 1.07 352 19:43 04.07.2022
1192 Rain 16 1019 89 10000 2.29 17 19:24 04.07.2022
1193 Clouds 16 1020 94 9099 0.75 1 17:23 04.07.2022
1194 Rain 17 1020 81 8621 0.13 22 15:41 04.07.2022
1195 Rain 21 1019 68 9175 0.85 295 14:21 04.07.2022
1196 Clouds 18 1020 78 9338 0.52 129 12:56 04.07.2022
1197 Clouds 17 1020 85 10000 1.07 103 11:32 04.07.2022
1198 Clouds 14 1020 69 10000 0.51 147 10:33 04.07.2022
1199 Clouds 12 1021 73 10000 0.67 26 09:23 04.07.2022
1200 Rain 13 1021 94 10000 0.59 177 06:42 04.07.2022
1201 Clouds 11 1022 94 10000 1.35 254 02:59 04.07.2022
1202 Rain 13 1022 88 10000 1.69 182 23:53 03.07.2022
1203 Rain 15 1022 81 10000 1.85 181 22:48 03.07.2022
1204 Clear 19 1021 83 10000 0.36 158 20:46 03.07.2022
1205 Clouds 21 1021 73 10000 0.3 15 19:59 03.07.2022
1206 Rain 23 1021 65 10000 0.77 348 19:25 03.07.2022
1207 Clouds 24 1021 65 10000 0.77 348 18:30 03.07.2022
1208 Clouds 23 1020 61 10000 0.91 325 17:41 03.07.2022
1209 Clouds 26 1020 41 10000 0.66 314 15:28 03.07.2022
1210 Clouds 26 1020 41 10000 0.66 314 14:53 03.07.2022
1211 Clouds 26 1020 55 10000 0.73 345 13:50 03.07.2022
1212 Clouds 24 1021 62 10000 0.76 2 12:49 03.07.2022
1213 Clouds 24 1021 65 10000 0.57 354 12:19 03.07.2022
1214 Clouds 21 1021 62 10000 0.87 351 10:54 03.07.2022
1215 Clouds 21 1021 66 10000 0.87 351 10:35 03.07.2022
1216 Clear 15 1022 64 10000 0.67 332 07:38 03.07.2022
1217 Clear 13 1023 85 10000 0.6 326 06:52 03.07.2022
1218 Clouds 14 1024 81 10000 1.73 188 00:39 03.07.2022
1219 Clouds 15 1024 81 10000 1.97 184 23:37 02.07.2022
1220 Clouds 16 1023 77 10000 2.15 174 22:31 02.07.2022
1221 Clouds 19 1022 82 10000 2.16 166 20:31 02.07.2022
1222 Clouds 20 1022 78 10000 1.49 173 19:49 02.07.2022
1223 Clouds 22 1021 73 10000 1.4 165 18:36 02.07.2022
1224 Clouds 23 1021 54 10000 1.74 163 17:39 02.07.2022
1225 Clouds 24 1020 57 10000 1.77 150 16:30 02.07.2022
1226 Clear 22 1020 68 10000 2.13 159 13:40 02.07.2022
1227 Clear 19 1021 75 10000 2.39 155 11:49 02.07.2022
1228 Clear 17 1021 74 10000 2.41 158 10:51 02.07.2022
1229 Clear 17 1022 77 10000 2.27 159 10:25 02.07.2022
1230 Clear 12 1022 82 10000 2.44 162 08:38 02.07.2022
1231 Clear 12 1022 63 10000 1.88 157 08:19 02.07.2022
1232 Clear 9 1023 95 10000 0.35 75 04:19 02.07.2022
1233 Clouds 10 1023 95 10000 0.93 23 00:28 02.07.2022
1234 Clouds 10 1023 95 10000 1.36 28 23:26 01.07.2022
1235 Clouds 10 1023 94 10000 1.36 28 22:35 01.07.2022
1236 Clouds 11 1023 93 10000 1.71 22 21:38 01.07.2022
1237 Clouds 11 1022 90 10000 2.23 359 20:59 01.07.2022
1238 Clouds 11 1022 90 10000 2.23 359 20:34 01.07.2022
1239 Clouds 11 1022 90 10000 2.62 357 19:38 01.07.2022
1240 Clouds 13 1021 89 10000 2.35 8 17:18 01.07.2022
1241 Clouds 11 1021 92 10000 2.08 12 14:34 01.07.2022
1242 Clouds 11 1021 95 7092 1.99 347 13:51 01.07.2022
1243 Rain 9 1018 91 1977 1.15 326 11:22 01.07.2022
1244 Rain 10 1018 94 1979 0.35 26 10:19 01.07.2022
1245 Rain 11 1016 96 3034 0.04 342 07:38 01.07.2022
1246 Clouds 11 1016 93 6616 1.67 144 02:43 01.07.2022
1247 Rain 14 1017 85 10000 0.59 46 00:21 01.07.2022
1248 Clouds 15 1017 86 10000 0.56 166 22:52 30.06.2022
1249 Clouds 16 1017 92 10000 0.56 166 22:32 30.06.2022
1250 Clouds 16 1017 92 10000 0.56 166 22:32 30.06.2022
1251 Clouds 16 1017 92 10000 0.56 166 22:32 30.06.2022
1252 Clouds 13 1017 90 10000 2.34 148 21:54 30.06.2022
1253 Clouds 17 1015 81 10000 1.97 153 20:53 30.06.2022
1254 Clouds 18 1014 81 10000 2.52 158 20:21 30.06.2022
1255 Clouds 18 1014 76 10000 2.26 146 19:48 30.06.2022
1256 Clouds 20 1014 55 10000 2.58 161 18:56 30.06.2022
1257 Clouds 19 1014 62 10000 2.37 163 18:22 30.06.2022
1258 Clouds 21 1014 57 10000 2.37 163 17:36 30.06.2022
1259 Clouds 20 1014 79 10000 1.94 165 16:22 30.06.2022
1260 Rain 19 1014 78 10000 2.33 169 14:20 30.06.2022
1261 Clouds 20 1014 73 10000 2.81 166 13:29 30.06.2022
1262 Rain 20 1014 83 10000 2.81 166 12:34 30.06.2022
1263 Rain 20 1014 74 10000 2.68 163 11:21 30.06.2022
1264 Clear 19 1014 82 10000 2.54 160 09:52 30.06.2022
1265 Clear 18 1015 77 10000 2.43 160 09:26 30.06.2022
1266 Clouds 14 1015 95 10000 2.16 160 07:41 30.06.2022
1267 Clouds 14 1016 95 10000 1.88 163 05:46 30.06.2022
1268 Clouds 15 1016 92 10000 0.5 130 00:26 30.06.2022
1269 Clouds 15 1016 92 10000 0.66 106 22:54 29.06.2022
1270 Clouds 16 1016 92 10000 0.66 106 22:33 29.06.2022
1271 Clouds 17 1016 92 10000 0.9 78 21:31 29.06.2022
1272 Clouds 19 1015 75 10000 0.79 52 20:33 29.06.2022
1273 Clouds 19 1015 75 10000 0.79 52 20:33 29.06.2022
1274 Clouds 20 1015 71 10000 0.92 34 19:34 29.06.2022
1275 Clouds 19 1015 78 10000 1.1 21 17:40 29.06.2022
1276 Clouds 19 1015 75 10000 1.38 22 16:33 29.06.2022
1277 Clouds 21 1015 69 10000 1.33 352 14:50 29.06.2022
1278 Clouds 20 1015 73 10000 0.68 327 12:39 29.06.2022
1279 Clouds 16 1016 84 10000 1.61 357 10:25 29.06.2022
1280 Clouds 15 1016 92 10000 1.61 357 09:31 29.06.2022
1281 Clouds 10 1016 94 10000 1.41 335 07:30 29.06.2022
1282 Clouds 10 1016 96 7085 1.3 337 04:49 29.06.2022
1283 Clouds 11 1018 95 10000 1.61 181 00:55 29.06.2022
1284 Clouds 11 1018 95 10000 1.61 181 00:35 29.06.2022
1285 Clouds 11 1018 95 10000 1.24 208 22:53 28.06.2022
1286 Clouds 11 1018 94 10000 1.76 151 22:21 28.06.2022
1287 Clouds 12 1018 94 10000 1.76 151 21:50 28.06.2022
1288 Clouds 12 1018 94 10000 1.76 151 21:30 28.06.2022
1289 Clouds 12 1018 79 10000 1.69 218 20:20 28.06.2022
1290 Rain 14 1019 92 10000 1.19 205 19:32 28.06.2022
1291 Rain 14 1019 92 10000 1.19 205 19:32 28.06.2022
1292 Rain 14 1019 94 10000 1.61 112 18:44 28.06.2022
1293 Rain 14 1019 92 10000 1.51 214 17:38 28.06.2022
1294 Rain 12 1016 75 10000 1.69 114 15:56 28.06.2022
1295 Rain 12 1016 75 10000 1.69 114 15:56 28.06.2022
1296 Rain 11 1017 75 10000 2.12 134 14:59 28.06.2022
1297 Rain 14 1018 96 10000 2.96 130 14:20 28.06.2022
1298 Rain 16 1018 77 10000 3.32 141 13:49 28.06.2022
1299 Rain 17 1018 75 9807 3.06 145 12:48 28.06.2022
1300 Rain 10 1018 74 10000 2.45 154 10:46 28.06.2022
1301 Clouds 12 1019 97 10000 1.53 124 09:25 28.06.2022
1302 Clouds 12 1019 97 10000 1.53 124 08:43 28.06.2022
1303 Clouds 12 1020 97 2375 1.35 45 07:26 28.06.2022
1304 Clouds 12 1021 96 3632 1.81 27 04:59 28.06.2022
1305 Clouds 12 1022 95 2922 0.92 17 23:59 27.06.2022
1306 Clouds 12 1023 95 4426 1.09 332 23:36 27.06.2022
1307 Clouds 13 1022 95 8532 0.53 49 22:50 27.06.2022
1308 Clouds 13 1022 90 10000 1.38 15 21:30 27.06.2022
1309 Rain 14 1021 86 9859 0.8 7 20:44 27.06.2022
1310 Rain 17 1019 81 7695 0.83 200 18:58 27.06.2022
1311 Clouds 19 1019 78 10000 1.24 150 17:46 27.06.2022
1312 Clouds 19 1019 77 9567 1.31 172 16:18 27.06.2022
1313 Clouds 22 1018 52 10000 1.33 173 14:44 27.06.2022
1314 Clouds 21 1018 55 10000 2.15 160 13:24 27.06.2022
1315 Clouds 21 1018 58 10000 2.15 160 12:49 27.06.2022
1316 Clouds 20 1018 59 10000 2.9 163 10:22 27.06.2022
1317 Clouds 19 1018 78 10000 3.37 161 08:47 27.06.2022
1318 Clouds 17 1017 80 10000 3.42 158 07:59 27.06.2022
1319 Clouds 15 1018 82 10000 2.92 155 06:38 27.06.2022
1320 Clouds 16 1019 76 10000 3.47 159 01:54 27.06.2022
1321 Clouds 16 1019 94 10000 3.72 168 23:39 26.06.2022
1322 Clouds 16 1018 90 10000 3.75 170 21:51 26.06.2022
1323 Clouds 19 1017 87 10000 4.51 163 20:34 26.06.2022
1324 Clouds 20 1016 56 10000 4.28 153 19:23 26.06.2022
1325 Clouds 21 1016 60 10000 3.96 156 18:24 26.06.2022
1326 Clouds 21 1016 54 10000 3.84 155 15:53 26.06.2022
1327 Clouds 20 1017 59 10000 3.3 147 14:34 26.06.2022
1328 Clouds 19 1016 63 10000 3.31 150 13:30 26.06.2022
1329 Clouds 19 1017 66 10000 3.33 154 12:44 26.06.2022
1330 Clouds 19 1017 54 10000 3.24 159 11:21 26.06.2022
1331 Clouds 17 1017 68 10000 3.42 161 10:23 26.06.2022
1332 Clouds 15 1017 77 10000 3.22 159 08:45 26.06.2022
1333 Clouds 13 1018 86 10000 2.52 162 07:23 26.06.2022
1334 Clouds 12 1018 83 10000 1.9 172 00:48 26.06.2022
1335 Clouds 13 1018 77 10000 2.1 174 00:20 26.06.2022
1336 Clouds 14 1018 83 10000 2.1 174 23:33 25.06.2022
1337 Clouds 14 1017 83 10000 2.27 172 22:51 25.06.2022
1338 Clouds 14 1017 71 10000 2.46 163 22:26 25.06.2022
1339 Clouds 16 1015 69 10000 2.42 155 21:23 25.06.2022
1340 Clouds 16 1015 76 10000 2.42 155 20:59 25.06.2022
1341 Clouds 17 1014 59 10000 2.02 148 20:25 25.06.2022
1342 Clouds 19 1014 53 10000 1.74 146 18:45 25.06.2022
1343 Clouds 20 1013 46 10000 2.1 150 17:28 25.06.2022
1344 Clouds 20 1013 45 10000 2.1 150 16:44 25.06.2022
1345 Clouds 20 1013 49 10000 2.23 157 14:50 25.06.2022
1346 Clear 19 1013 65 10000 2.15 153 12:56 25.06.2022
1347 Clear 19 1013 65 10000 2.15 153 12:37 25.06.2022
1348 Clear 16 1014 75 10000 1.45 128 10:30 25.06.2022
1349 Clear 13 1016 85 10000 1.27 59 08:56 25.06.2022
1350 Clear 11 1016 92 10000 1.26 31 08:29 25.06.2022
1351 Clear 8 1017 95 10000 1.03 14 06:53 25.06.2022
1352 Clear 9 1017 83 10000 1.34 351 03:26 25.06.2022
1353 Clouds 10 1017 95 10000 1.82 333 00:21 25.06.2022
1354 Clouds 10 1017 94 10000 1.87 337 22:31 24.06.2022
1355 Clouds 11 1016 94 10000 0.58 8 21:29 24.06.2022
1356 Clouds 10 1015 90 10000 0.65 17 20:25 24.06.2022
1357 Clouds 11 1015 91 10000 0.71 39 19:43 24.06.2022
1358 Clouds 11 1015 94 10000 1.03 6 19:18 24.06.2022
1359 Rain 11 1015 91 10000 1.03 6 18:47 24.06.2022
1360 Rain 11 1015 89 5961 2.1 323 18:29 24.06.2022
1361 Clouds 12 1014 92 2197 2.65 311 16:52 24.06.2022
1362 Clouds 14 1011 89 10000 2.61 167 15:27 24.06.2022
1363 Rain 14 1012 90 3997 1.91 152 14:25 24.06.2022
1364 Rain 14 1012 91 3997 1.91 152 13:46 24.06.2022
1365 Rain 13 1011 93 3227 1.92 164 11:42 24.06.2022
1366 Clouds 14 1012 93 9880 1.97 153 10:42 24.06.2022
1367 Clouds 14 1013 92 5740 1.86 146 09:42 24.06.2022
1368 Rain 14 1013 89 10000 1.34 131 08:58 24.06.2022
1369 Rain 14 1013 90 10000 1.34 131 08:40 24.06.2022
1370 Clouds 13 1014 91 10000 0.46 82 06:45 24.06.2022
1371 Clouds 13 1014 93 10000 0.12 84 06:26 24.06.2022
1372 Clouds 13 1014 90 10000 0.2 143 04:50 24.06.2022
1373 Clouds 13 1016 87 10000 0.96 183 23:43 23.06.2022
1374 Clouds 15 1015 80 10000 1.84 178 22:43 23.06.2022
1375 Clouds 16 1015 74 10000 1.49 175 21:40 23.06.2022
1376 Clouds 17 1015 72 10000 1.35 200 20:42 23.06.2022
1377 Clouds 17 1013 66 10000 2.15 179 19:55 23.06.2022
1378 Clouds 19 1013 77 10000 2.97 172 18:38 23.06.2022
1379 Clouds 20 1014 60 10000 2.28 161 17:35 23.06.2022
1380 Rain 21 1014 44 10000 3.52 158 16:32 23.06.2022
1381 Clouds 22 1013 44 10000 3.32 153 15:26 23.06.2022
1382 Clouds 23 1013 50 10000 3.32 153 14:36 23.06.2022
1383 Clouds 20 1014 69 10000 2.21 145 11:42 23.06.2022
1384 Clear 18 1015 81 10000 2.03 141 10:41 23.06.2022
1385 Clear 16 1016 81 10000 1.28 96 09:19 23.06.2022
1386 Clear 16 1016 81 10000 1.28 96 09:19 23.06.2022
1387 Clouds 10 1016 95 10000 1.21 18 05:37 23.06.2022
1388 Rain 12 1016 94 10000 0.65 98 00:28 23.06.2022
1389 Rain 12 1016 94 10000 0.65 98 23:59 22.06.2022
1390 Clouds 13 1017 94 10000 0.73 25 23:18 22.06.2022
1391 Rain 13 1016 84 10000 0.96 344 21:44 22.06.2022
1392 Rain 15 1015 89 10000 1.1 192 20:52 22.06.2022
1393 Rain 16 1014 87 10000 1.91 177 20:19 22.06.2022
1394 Clouds 17 1013 83 10000 2.1 169 19:30 22.06.2022
1395 Clouds 20 1013 75 10000 1.54 160 17:40 22.06.2022
1396 Clouds 19 1013 82 10000 2.3 154 16:41 22.06.2022
1397 Clouds 17 1015 92 9077 2.16 159 15:29 22.06.2022
1398 Rain 17 1015 92 9077 2.16 159 14:47 22.06.2022
1399 Clouds 16 1015 88 5857 1.66 145 13:47 22.06.2022
1400 Clouds 16 1015 86 6200 1.51 154 13:24 22.06.2022
1401 Clouds 15 1015 93 4923 1.69 158 11:54 22.06.2022
1402 Clouds 15 1015 94 8883 2.26 141 11:29 22.06.2022
1403 Clouds 14 1015 95 8883 2.26 141 10:43 22.06.2022
1404 Rain 15 1015 91 10000 1.93 155 09:18 22.06.2022
1405 Rain 13 1015 93 10000 1.34 139 06:55 22.06.2022
1406 Clouds 12 1017 93 10000 0.93 175 01:59 22.06.2022
1407 Clouds 13 1017 93 10000 1.61 184 00:57 22.06.2022
1408 Clouds 15 1018 93 10000 1.29 177 22:49 21.06.2022
1409 Clouds 16 1017 90 10000 2.27 158 20:47 21.06.2022
1410 Rain 19 1014 83 5371 2.3 172 19:23 21.06.2022
1411 Clouds 21 1014 75 8706 1.86 154 17:54 21.06.2022
1412 Rain 23 1015 80 10000 2.16 130 16:38 21.06.2022
1413 Rain 22 1014 72 10000 0.89 166 11:57 21.06.2022
1414 Clouds 20 1014 66 10000 1.09 171 10:38 21.06.2022
1415 Clouds 18 1015 73 10000 2.07 212 09:20 21.06.2022
1416 Clouds 15 1015 82 10000 1.86 186 07:44 21.06.2022
1417 Clouds 13 1015 84 10000 0.95 189 04:43 21.06.2022
1418 Clear 16 1017 75 10000 0.9 314 00:21 21.06.2022
1419 Clear 20 1017 83 10000 1.67 339 22:21 20.06.2022
1420 Clear 21 1017 83 10000 1.67 339 21:36 20.06.2022
1421 Clouds 22 1016 76 10000 2.14 326 20:28 20.06.2022
1422 Clouds 23 1016 74 10000 1.92 323 19:35 20.06.2022
1423 Clouds 23 1016 67 10000 2.11 332 18:25 20.06.2022
1424 Clouds 24 1016 67 10000 2.11 332 17:49 20.06.2022
1425 Clouds 24 1015 68 10000 1.24 323 16:26 20.06.2022
1426 Clouds 23 1016 69 10000 1.07 314 15:20 20.06.2022
1427 Clouds 22 1016 67 10000 0.78 329 12:18 20.06.2022
1428 Clouds 19 1016 72 10000 0.59 235 10:21 20.06.2022
1429 Clouds 19 1016 72 10000 0.59 235 10:21 20.06.2022
1430 Clear 20 1016 68 10000 1.34 203 08:54 20.06.2022
1431 Clouds 17 1016 77 10000 2.36 190 07:51 20.06.2022
1432 Clear 15 1017 80 10000 2.88 176 05:18 20.06.2022
1433 Clouds 17 1018 75 10000 3.29 172 01:33 20.06.2022
1434 Clouds 18 1018 72 10000 3.15 173 23:57 19.06.2022
1435 Clouds 19 1018 81 10000 2.99 174 22:40 19.06.2022
1436 Clouds 19 1019 81 10000 2.53 207 21:45 19.06.2022
1437 Clouds 20 1017 72 10000 2.8 166 21:26 19.06.2022
1438 Clouds 22 1016 56 10000 3.01 162 20:25 19.06.2022
1439 Clouds 21 1016 64 10000 3.01 162 19:46 19.06.2022
1440 Clouds 23 1015 55 10000 3.31 149 18:41 19.06.2022
1441 Clouds 24 1015 49 10000 3.33 158 17:48 19.06.2022
1442 Clear 25 1015 45 10000 3.39 155 17:21 19.06.2022
1443 Clear 25 1015 44 10000 3.4 155 16:34 19.06.2022
1444 Clear 24 1016 44 10000 3.4 156 15:37 19.06.2022
1445 Clear 25 1016 44 10000 3.19 164 14:51 19.06.2022
1446 Clouds 23 1016 46 10000 3.3 166 13:54 19.06.2022
1447 Clouds 24 1016 49 10000 3.51 165 12:39 19.06.2022
1448 Clouds 22 1017 58 10000 3.6 169 10:54 19.06.2022
1449 Clouds 18 1018 68 10000 3.64 170 09:40 19.06.2022
1450 Clouds 20 1019 63 10000 3.69 171 08:43 19.06.2022
1451 Clouds 16 1019 73 10000 3.73 171 07:36 19.06.2022
1452 Clouds 15 1020 74 10000 3.28 175 04:41 19.06.2022
1453 Clouds 16 1022 73 10000 3.16 170 01:28 19.06.2022
1454 Clouds 17 1022 72 10000 2.88 177 00:24 19.06.2022
1455 Clouds 16 1022 93 10000 2.88 177 23:35 18.06.2022
1456 Clouds 17 1022 93 10000 3.03 171 22:36 18.06.2022
1457 Clouds 22 1021 85 10000 3.11 171 20:55 18.06.2022
1458 Clear 23 1020 73 10000 3.08 174 20:27 18.06.2022
1459 Clear 24 1020 73 10000 3.08 174 19:31 18.06.2022
1460 Clear 25 1019 60 10000 2.63 164 18:44 18.06.2022
1461 Clear 26 1019 51 10000 2.51 162 17:30 18.06.2022
1462 Clear 27 1019 44 10000 2.26 152 16:37 18.06.2022
1463 Clear 27 1020 35 10000 1.61 125 15:22 18.06.2022
1464 Clear 27 1020 36 10000 1.61 125 14:42 18.06.2022
1465 Clouds 27 1022 39 10000 1.38 115 13:22 18.06.2022
1466 Clouds 24 1022 46 10000 1.43 105 11:38 18.06.2022
1467 Clouds 23 1023 53 10000 1.44 89 10:46 18.06.2022
1468 Clouds 19 1024 63 10000 1.07 68 09:20 18.06.2022
1469 Clouds 19 1024 63 10000 1.07 68 09:20 18.06.2022
1470 Clouds 18 1024 47 10000 1.11 37 08:19 18.06.2022
1471 Clouds 18 1024 47 10000 1.11 37 08:19 18.06.2022
1472 Clouds 10 1025 58 10000 0.72 44 06:43 18.06.2022
1473 Clear 13 1026 77 10000 1.24 342 03:24 18.06.2022
1474 Clouds 13 1027 76 10000 1.01 343 01:24 18.06.2022
1475 Clouds 14 1027 75 10000 1.01 343 00:45 18.06.2022
1476 Clouds 15 1028 71 10000 1.11 337 23:52 17.06.2022
1477 Clouds 15 1028 71 10000 1.11 337 23:52 17.06.2022
1478 Clouds 15 1028 69 10000 1.5 337 23:19 17.06.2022
1479 Clouds 20 1026 66 10000 2.47 347 20:42 17.06.2022
1480 Clouds 23 1025 41 10000 2.65 344 19:30 17.06.2022
1481 Clouds 24 1025 46 10000 2.97 343 18:37 17.06.2022
1482 Clouds 24 1024 41 10000 3.04 345 17:43 17.06.2022
1483 Clouds 24 1024 40 10000 3.11 346 16:43 17.06.2022
1484 Clouds 24 1024 38 10000 3.41 343 15:43 17.06.2022
1485 Clouds 24 1024 33 10000 3.29 342 14:58 17.06.2022
1486 Clouds 24 1024 37 10000 3.27 342 14:20 17.06.2022
1487 Clouds 23 1024 40 10000 3.34 342 13:45 17.06.2022
1488 Clouds 23 1024 44 10000 3.25 344 12:53 17.06.2022
1489 Clouds 22 1024 46 10000 3.12 345 11:57 17.06.2022
1490 Clouds 22 1024 51 10000 3.12 345 11:36 17.06.2022
1491 Clouds 20 1024 61 10000 2.97 349 10:48 17.06.2022
1492 Clouds 20 1024 61 10000 2.97 349 10:48 17.06.2022
1493 Clouds 15 1025 82 10000 2.68 340 08:30 17.06.2022
1494 Clouds 14 1025 87 10000 2.8 335 07:30 17.06.2022
1495 Clear 12 1025 84 10000 2.15 323 05:51 17.06.2022
1496 Clear 13 1025 86 10000 1.48 325 02:47 17.06.2022
1497 Clear 14 1026 87 10000 1.75 328 00:42 17.06.2022
1498 Clear 16 1026 87 10000 2.37 325 22:45 16.06.2022
1499 Clear 17 1025 86 10000 2.94 334 21:58 16.06.2022
1500 Clear 18 1024 84 10000 3.35 339 21:18 16.06.2022
1501 Clear 19 1024 84 10000 3.35 339 20:49 16.06.2022
1502 Clouds 20 1023 74 10000 3.45 347 19:56 16.06.2022
1503 Clouds 21 1022 62 10000 3.73 344 18:34 16.06.2022
1504 Clouds 22 1022 60 10000 3.87 345 17:44 16.06.2022
1505 Clouds 23 1022 58 10000 4.13 342 16:46 16.06.2022
1506 Rain 23 1022 60 10000 3.93 336 15:24 16.06.2022
1507 Clouds 22 1022 64 10000 3.93 336 14:56 16.06.2022
1508 Clouds 20 1022 75 10000 3.56 329 13:46 16.06.2022
1509 Clouds 19 1021 80 10000 3.2 335 12:38 16.06.2022
1510 Clouds 19 1021 65 10000 3.06 334 11:54 16.06.2022
1511 Clouds 20 1021 70 10000 2.53 325 11:18 16.06.2022
1512 Clouds 19 1021 51 10000 2.53 325 10:33 16.06.2022
1513 Clouds 17 1021 74 10000 2.08 326 09:26 16.06.2022
1514 Clouds 16 1021 80 10000 2.08 326 08:46 16.06.2022
1515 Clouds 13 1021 85 10000 1.54 291 07:29 16.06.2022
1516 Clouds 13 1021 83 10000 1.1 303 05:42 16.06.2022
1517 Clouds 12 1022 86 10000 1.09 295 02:54 16.06.2022
1518 Clouds 13 1022 86 10000 0.77 305 01:51 16.06.2022
1519 Rain 14 1022 79 10000 0.78 297 01:21 16.06.2022
1520 Rain 14 1022 79 10000 0.78 297 01:21 16.06.2022
1521 Rain 14 1022 71 10000 1.6 257 23:56 15.06.2022
1522 Rain 14 1022 71 10000 1.6 257 23:56 15.06.2022
1523 Clouds 15 1022 59 10000 1.24 276 22:45 15.06.2022
1524 Rain 16 1021 72 10000 0.82 275 21:28 15.06.2022
1525 Rain 17 1021 72 10000 0.82 275 20:57 15.06.2022
1526 Rain 17 1021 72 10000 0.82 275 20:35 15.06.2022
1527 Rain 16 1019 72 10000 0.64 137 19:49 15.06.2022
1528 Rain 21 1020 68 10000 1.48 338 18:30 15.06.2022
1529 Rain 21 1019 63 10000 1.96 324 17:42 15.06.2022
1530 Clouds 24 1020 50 10000 2.48 312 16:20 15.06.2022
1531 Clouds 25 1019 41 10000 1.82 315 14:33 15.06.2022
1532 Clouds 22 1020 47 10000 1.03 280 13:20 15.06.2022
1533 Clouds 22 1020 47 10000 1.03 280 12:39 15.06.2022
1534 Clouds 21 1020 51 10000 0.52 236 11:22 15.06.2022
1535 Rain 20 1020 56 10000 0.79 222 10:21 15.06.2022
1536 Clear 18 1020 66 10000 1.06 223 08:58 15.06.2022
1537 Rain 14 1020 82 10000 0.84 198 07:32 15.06.2022
1538 Clouds 12 1021 80 10000 1.78 199 05:36 15.06.2022
1539 Clouds 13 1022 80 10000 2.77 196 02:40 15.06.2022
1540 Clouds 13 1022 77 10000 2.85 189 01:36 15.06.2022
1541 Clouds 13 1021 74 10000 2.66 188 00:18 15.06.2022
1542 Clouds 14 1021 72 10000 2.66 188 23:38 14.06.2022
1543 Clouds 15 1021 68 10000 2.27 183 22:45 14.06.2022
1544 Clouds 14 1021 82 10000 1.96 172 21:43 14.06.2022
1545 Clouds 17 1020 81 10000 1.02 195 20:58 14.06.2022
1546 Clouds 18 1020 81 10000 1.02 195 20:38 14.06.2022
1547 Clouds 19 1019 73 10000 0.62 216 19:47 14.06.2022
1548 Clouds 22 1019 57 10000 0.39 247 18:33 14.06.2022
1549 Clouds 24 1018 47 10000 0.47 322 16:50 14.06.2022
1550 Clouds 24 1018 42 10000 0.39 2 16:25 14.06.2022
1551 Clouds 24 1018 42 10000 0.39 2 15:36 14.06.2022
1552 Clear 24 1018 39 10000 0.4 24 14:53 14.06.2022
1553 Clear 23 1019 37 10000 0.41 43 13:57 14.06.2022
1554 Clear 23 1019 48 10000 0.31 78 12:59 14.06.2022
1555 Clear 21 1019 56 10000 0.59 112 11:56 14.06.2022
1556 Clear 19 1020 58 10000 0.34 129 10:51 14.06.2022
1557 Clear 18 1020 59 10000 0.24 142 10:28 14.06.2022
1558 Clear 16 1020 62 10000 0.24 57 09:18 14.06.2022
1559 Clear 13 1020 76 10000 0.2 20 08:24 14.06.2022
1560 Clear 7 1021 85 10000 0.92 332 06:20 14.06.2022
1561 Clear 8 1022 86 10000 1.32 337 03:45 14.06.2022
1562 Clouds 9 1022 85 10000 1.5 328 01:37 14.06.2022
1563 Clouds 11 1023 84 10000 2.04 342 00:21 14.06.2022
1564 Clouds 12 1023 82 10000 2.46 348 22:45 13.06.2022
1565 Clouds 13 1023 81 10000 2.42 345 22:22 13.06.2022
1566 Clouds 14 1022 74 10000 2.46 342 21:26 13.06.2022
1567 Clouds 16 1022 79 10000 3.03 341 19:59 13.06.2022
1568 Clouds 17 1021 62 10000 3.39 341 18:54 13.06.2022
1569 Clouds 18 1021 77 10000 3.59 339 17:55 13.06.2022
1570 Clouds 19 1021 78 10000 3.58 339 17:24 13.06.2022
1571 Clouds 18 1021 78 10000 3.58 339 16:30 13.06.2022
1572 Clouds 18 1021 66 10000 3.66 342 14:49 13.06.2022
1573 Clouds 17 1021 65 10000 3.66 342 14:31 13.06.2022
1574 Clouds 17 1021 75 10000 3.56 340 13:31 13.06.2022
1575 Rain 17 1020 74 10000 3.13 335 12:22 13.06.2022
1576 Clear 17 1020 79 10000 2.85 332 10:37 13.06.2022
1577 Clear 16 1020 85 10000 2.74 331 09:54 13.06.2022
1578 Clouds 14 1021 87 10000 2.67 333 08:52 13.06.2022
1579 Clouds 12 1021 93 10000 1.37 312 06:37 13.06.2022
1580 Clouds 12 1021 93 10000 2.13 294 05:35 13.06.2022
1581 Clouds 15 1021 78 10000 1.45 260 01:55 13.06.2022
1582 Rain 15 1021 73 10000 1.45 260 01:34 13.06.2022
1583 Clouds 14 1022 75 10000 1.24 251 23:48 12.06.2022
1584 Clouds 12 1022 75 10000 0.91 269 22:44 12.06.2022
1585 Clouds 15 1022 75 10000 0.69 270 21:53 12.06.2022
1586 Clouds 17 1022 72 10000 0.72 302 20:53 12.06.2022
1587 Clouds 21 1022 68 10000 1.21 304 19:59 12.06.2022
1588 Clouds 22 1022 68 10000 1.21 304 19:30 12.06.2022
1589 Clouds 23 1020 41 10000 1.9 341 17:40 12.06.2022
1590 Clouds 21 1021 34 10000 2.02 342 15:54 12.06.2022
1591 Clouds 24 1021 36 10000 2 343 14:51 12.06.2022
1592 Clouds 23 1022 31 10000 1.67 346 14:19 12.06.2022
1593 Clouds 23 1022 31 10000 1.67 346 13:46 12.06.2022
1594 Clear 24 1022 30 10000 1.44 347 12:31 12.06.2022
1595 Clouds 21 1023 31 10000 1.27 350 11:22 12.06.2022
1596 Clouds 20 1023 48 10000 1.3 352 10:21 12.06.2022
1597 Clouds 16 1024 61 10000 1.21 343 08:52 12.06.2022
1598 Clouds 15 1024 68 10000 1.21 343 08:34 12.06.2022
1599 Clear 13 1024 46 10000 1.08 327 06:49 12.06.2022
1600 Clear 11 1025 82 10000 1.43 326 04:35 12.06.2022
1601 Clear 11 1025 82 10000 1.15 328 02:32 12.06.2022
1602 Clear 11 1026 79 10000 1.01 329 01:36 12.06.2022
1603 Clear 11 1026 78 10000 1.04 329 00:58 12.06.2022
1604 Clear 12 1026 76 10000 1.34 330 00:19 12.06.2022
1605 Clear 12 1026 73 10000 1.41 328 23:21 11.06.2022
1606 Clear 12 1026 78 10000 1.41 328 22:38 11.06.2022
1607 Clear 16 1026 78 10000 1.63 333 21:36 11.06.2022
1608 Clear 18 1024 51 10000 2.68 344 20:27 11.06.2022
1609 Clear 20 1024 46 10000 2.62 345 19:37 11.06.2022
1610 Clear 19 1023 49 10000 3.04 345 18:50 11.06.2022
1611 Clear 22 1023 49 10000 3.04 345 18:31 11.06.2022
1612 Clear 22 1023 43 10000 3.25 345 17:49 11.06.2022
1613 Clear 22 1022 37 10000 3.28 345 17:26 11.06.2022
1614 Clear 22 1022 31 10000 3.28 345 16:44 11.06.2022
1615 Clear 23 1022 28 10000 3.25 346 16:25 11.06.2022
1616 Clear 22 1022 36 10000 3.06 347 15:18 11.06.2022
1617 Clear 21 1022 36 10000 2.91 348 13:52 11.06.2022
1618 Clear 20 1023 50 10000 2.54 350 12:19 11.06.2022
1619 Clear 17 1023 66 10000 2.36 352 10:40 11.06.2022
1620 Clear 15 1023 69 10000 2.24 351 09:42 11.06.2022
1621 Clear 12 1023 74 10000 2.16 349 08:45 11.06.2022
1622 Clear 7 1024 88 10000 1.65 332 06:34 11.06.2022
1623 Clear 7 1024 88 10000 1.49 332 05:58 11.06.2022
1624 Clear 8 1024 88 10000 1.45 330 03:45 11.06.2022
1625 Clear 8 1024 87 10000 1.16 332 01:52 11.06.2022
1626 Clear 8 1025 86 10000 1.14 340 01:26 11.06.2022
1627 Clear 9 1025 83 10000 1.57 340 23:28 10.06.2022
1628 Clear 10 1024 80 10000 2.02 340 22:27 10.06.2022
1629 Clear 12 1024 87 10000 2.02 340 21:46 10.06.2022
1630 Clear 13 1023 81 10000 2.45 345 20:39 10.06.2022
1631 Clear 14 1022 65 10000 2.78 345 20:20 10.06.2022
1632 Clear 16 1022 58 10000 3.04 347 19:19 10.06.2022
1633 Clear 17 1022 55 10000 3.04 347 18:44 10.06.2022
1634 Clear 18 1021 53 10000 3.23 347 17:54 10.06.2022
1635 Clear 18 1021 54 10000 3.33 346 17:23 10.06.2022
1636 Clear 18 1021 56 10000 3.33 348 16:28 10.06.2022
1637 Clear 18 1021 51 10000 3.33 348 15:40 10.06.2022
1638 Clouds 17 1021 58 10000 3.11 355 14:28 10.06.2022
1639 Clear 16 1021 61 10000 3.21 357 12:58 10.06.2022
1640 Clouds 15 1021 60 10000 3.25 356 11:59 10.06.2022
1641 Clouds 12 1021 74 10000 3.27 358 10:46 10.06.2022
1642 Clouds 12 1022 76 10000 3.08 5 09:57 10.06.2022
1643 Clouds 9 1022 82 10000 3.01 6 08:48 10.06.2022
1644 Clouds 7 1023 91 10000 3.05 0 07:41 10.06.2022
1645 Clouds 6 1024 94 10000 3.07 356 06:46 10.06.2022
1646 Clouds 6 1024 94 10000 3.17 354 06:27 10.06.2022
1647 Clouds 5 1024 93 10000 3.18 355 04:47 10.06.2022
1648 Clouds 6 1023 91 10000 3.29 352 01:59 10.06.2022
1649 Clouds 7 1023 90 10000 3.13 351 01:36 10.06.2022
1650 Clouds 7 1023 74 3225 3.7 345 23:57 09.06.2022
1651 Clouds 7 1022 77 7521 3.8 343 22:24 09.06.2022
1652 Clouds 7 1022 92 7521 3.8 343 21:38 09.06.2022
1653 Clouds 8 1021 72 5207 4.08 343 21:18 09.06.2022
1654 Clouds 8 1021 76 5207 4.08 343 20:36 09.06.2022
1655 Clouds 9 1020 77 2660 4.05 341 19:41 09.06.2022
1656 Rain 8 1019 77 287 4.1 341 18:36 09.06.2022
1657 Clouds 10 1017 78 7296 4.72 340 17:28 09.06.2022
1658 Clouds 11 1016 74 9742 4.6 340 16:28 09.06.2022
1659 Clouds 10 1015 75 9426 4.63 341 14:45 09.06.2022
1660 Clouds 10 1015 78 10000 4.37 340 14:24 09.06.2022
1661 Clouds 12 1015 61 10000 4.44 342 13:30 09.06.2022
1662 Clouds 11 1015 60 10000 4.03 341 12:51 09.06.2022
1663 Clouds 10 1015 68 6365 3.82 337 11:20 09.06.2022
1664 Clouds 8 1015 73 7274 4.01 335 09:55 09.06.2022
1665 Clouds 7 1015 87 7274 4.01 335 09:37 09.06.2022
1666 Clouds 8 1015 83 9176 4.12 335 08:33 09.06.2022
1667 Rain 7 1015 95 5639 3.33 333 07:24 09.06.2022
1668 Clouds 8 1013 95 6706 3.88 332 03:29 09.06.2022
1669 Clouds 8 1013 94 10000 3.12 333 00:32 09.06.2022
1670 Rain 9 1013 95 10000 2.18 316 22:59 08.06.2022
1671 Clouds 9 1013 95 10000 2.18 316 22:30 08.06.2022
1672 Clouds 9 1013 95 5722 2.69 328 21:59 08.06.2022
1673 Clouds 10 1013 94 5722 2.69 328 21:32 08.06.2022
1674 Rain 10 1012 93 10000 2.68 335 20:25 08.06.2022
1675 Clouds 11 1012 94 7231 2.64 330 19:40 08.06.2022
1676 Clouds 11 1011 91 7216 1.95 330 18:48 08.06.2022
1677 Clouds 12 1011 90 4919 1.76 305 17:38 08.06.2022
1678 Rain 15 1010 61 10000 0.32 265 15:53 08.06.2022
1679 Clouds 19 1009 54 10000 0.35 78 14:31 08.06.2022
1680 Clouds 18 1009 66 10000 0.74 155 12:55 08.06.2022
1681 Clouds 16 1010 61 10000 1.51 164 11:36 08.06.2022
1682 Clouds 14 1010 68 10000 1.6 179 10:46 08.06.2022
1683 Clouds 13 1012 74 10000 1.59 173 09:28 08.06.2022
1684 Clouds 12 1012 78 10000 1.59 173 08:52 08.06.2022
1685 Clouds 8 1013 94 10000 0.47 171 06:56 08.06.2022
1686 Clouds 7 1014 94 10000 0.52 352 04:41 08.06.2022
1687 Clouds 8 1017 93 10000 2.16 340 00:58 08.06.2022
1688 Clouds 9 1017 94 10000 2.39 341 23:32 07.06.2022
1689 Clouds 9 1018 93 10000 2.44 340 22:51 07.06.2022
1690 Clouds 10 1018 92 10000 2.44 340 22:33 07.06.2022
1691 Clouds 10 1018 90 10000 2.54 337 21:37 07.06.2022
1692 Rain 10 1017 88 10000 3.01 332 21:18 07.06.2022
1693 Clouds 11 1017 85 10000 3.01 332 20:37 07.06.2022
1694 Clouds 12 1016 80 10000 3.2 334 19:51 07.06.2022
1695 Clouds 14 1015 70 10000 3.48 340 18:25 07.06.2022
1696 Clouds 14 1015 73 10000 3.48 340 17:31 07.06.2022
1697 Rain 14 1015 64 10000 3.26 342 16:44 07.06.2022
1698 Clouds 13 1015 86 10000 3.21 342 15:58 07.06.2022
1699 Clouds 14 1015 72 10000 3.21 342 15:36 07.06.2022
1700 Clouds 14 1015 76 10000 3.32 342 15:18 07.06.2022
1701 Rain 14 1015 79 10000 3.32 342 14:42 07.06.2022
1702 Clouds 13 1015 87 9644 3.15 345 13:34 07.06.2022
1703 Clouds 13 1015 85 10000 3.03 345 12:54 07.06.2022
1704 Clouds 12 1015 91 10000 2.9 345 11:51 07.06.2022
1705 Clouds 12 1016 81 10000 2.81 343 10:48 07.06.2022
1706 Rain 11 1017 91 5561 2.82 337 08:53 07.06.2022
1707 Rain 10 1017 95 5060 2.75 335 07:54 07.06.2022
1708 Rain 11 1016 94 5293 2.72 332 06:41 07.06.2022
1709 Clouds 11 1016 95 7986 2.16 324 04:41 07.06.2022
1710 Clouds 12 1018 94 10000 0.84 344 01:27 07.06.2022
1711 Rain 13 1018 90 10000 0.88 4 23:58 06.06.2022
1712 Clouds 14 1019 88 7014 1.35 358 22:54 06.06.2022
1713 Clouds 14 1019 87 7014 1.35 358 22:30 06.06.2022
1714 Clouds 15 1018 93 7532 1.59 336 20:54 06.06.2022
1715 Clouds 17 1018 83 8828 1.01 299 19:29 06.06.2022
1716 Clouds 17 1018 83 8828 1.01 299 18:49 06.06.2022
1717 Clouds 18 1018 78 10000 0.96 293 18:21 06.06.2022
1718 Clouds 19 1017 71 10000 0.55 295 17:26 06.06.2022
1719 Clouds 16 1017 67 10000 0.34 317 16:18 06.06.2022
1720 Clouds 16 1017 60 10000 0.06 175 15:28 06.06.2022
1721 Clouds 20 1017 68 10000 0.3 352 14:30 06.06.2022
1722 Clouds 20 1017 60 10000 0.3 159 13:25 06.06.2022
1723 Clouds 19 1017 62 10000 0.3 159 12:36 06.06.2022
1724 Clouds 19 1018 62 10000 0.41 125 11:53 06.06.2022
1725 Clouds 17 1018 66 10000 0.36 102 10:40 06.06.2022
1726 Clouds 15 1019 75 10000 0.66 11 09:33 06.06.2022
1727 Clouds 12 1019 88 10000 1.54 354 08:32 06.06.2022
1728 Clouds 9 1020 95 10000 1.29 342 07:28 06.06.2022
1729 Clear 10 1020 94 10000 0.93 356 05:18 06.06.2022
1730 Clear 10 1021 92 10000 1.79 339 02:55 06.06.2022
1731 Clouds 11 1022 95 10000 2.37 339 01:18 06.06.2022
1732 Clouds 11 1022 96 10000 2.37 339 00:38 06.06.2022
1733 Clouds 11 1021 95 10000 2.6 333 23:33 05.06.2022
1734 Clouds 11 1021 95 10000 2.58 333 22:45 05.06.2022
1735 Clouds 11 1021 95 10000 2.58 333 22:45 05.06.2022
1736 Clouds 12 1020 93 10000 2.92 334 20:46 05.06.2022
1737 Clouds 13 1019 93 5981 3.49 334 19:38 05.06.2022
1738 Clouds 14 1016 91 6541 1.93 303 18:29 05.06.2022
1739 Clouds 13 1016 94 6541 1.93 303 17:51 05.06.2022
1740 Clouds 12 1016 79 5733 1.21 294 17:25 05.06.2022
1741 Clouds 12 1016 79 5733 1.21 294 16:49 05.06.2022
1742 Clouds 12 1016 79 5733 1.21 294 16:30 05.06.2022
1743 Rain 15 1016 85 8072 1.65 185 14:24 05.06.2022
1744 Clouds 17 1017 73 8937 2.12 169 12:49 05.06.2022
1745 Clouds 17 1017 72 8012 2.26 166 11:43 05.06.2022
1746 Clouds 16 1017 71 10000 2.25 158 10:33 05.06.2022
1747 Clear 16 1017 72 10000 2.44 159 09:59 05.06.2022
1748 Clouds 14 1018 85 10000 2.58 167 08:28 05.06.2022
1749 Clouds 15 1018 81 10000 2.98 166 07:41 05.06.2022
1750 Clouds 13 1019 86 10000 2.99 155 05:21 05.06.2022
1751 Clouds 13 1020 84 10000 3.04 150 03:43 05.06.2022
1752 Clouds 14 1021 86 10000 2.59 158 01:32 05.06.2022
1753 Clouds 14 1021 87 10000 1.73 152 00:29 05.06.2022
1754 Clouds 16 1020 79 10000 3.02 170 21:58 04.06.2022
1755 Clouds 19 1020 73 10000 2.5 162 20:31 04.06.2022
1756 Rain 20 1019 72 10000 1.33 186 18:19 04.06.2022
1757 Clouds 21 1019 64 10000 1.48 179 16:44 04.06.2022
1758 Clouds 22 1019 61 10000 1.17 179 16:18 04.06.2022
1759 Clouds 22 1019 60 10000 1.16 178 14:53 04.06.2022
1760 Clouds 22 1019 57 10000 1.09 157 12:35 04.06.2022
1761 Clouds 20 1019 69 10000 1.46 164 11:18 04.06.2022
1762 Clouds 19 1019 71 10000 1.42 164 10:43 04.06.2022
1763 Clouds 17 1020 80 10000 1.61 161 09:42 04.06.2022
1764 Clouds 15 1020 88 10000 1.26 156 08:41 04.06.2022
1765 Clouds 14 1020 74 10000 1.54 161 07:41 04.06.2022
1766 Clouds 9 1020 94 10000 1.35 158 05:29 04.06.2022
1767 Clouds 9 1022 94 10000 1.64 166 01:27 04.06.2022
1768 Clouds 10 1022 94 10000 1.63 171 23:59 03.06.2022
1769 Clouds 11 1021 93 10000 2.2 172 22:40 03.06.2022
1770 Clouds 13 1021 92 10000 2.39 167 21:30 03.06.2022
1771 Clouds 14 1021 93 10000 1.83 167 20:37 03.06.2022
1772 Clouds 14 1021 93 10000 1.83 167 20:37 03.06.2022
1773 Clouds 14 1020 93 10000 1.03 168 18:28 03.06.2022
1774 Clouds 14 1020 92 10000 0.95 152 16:49 03.06.2022
1775 Rain 14 1020 94 10000 1.16 186 15:37 03.06.2022
1776 Rain 17 1019 76 7954 3.04 159 13:28 03.06.2022
1777 Clouds 18 1019 80 7708 3.23 165 11:40 03.06.2022
1778 Clouds 17 1019 71 10000 3.32 162 09:50 03.06.2022
1779 Clouds 15 1020 88 10000 3.31 170 09:24 03.06.2022
1780 Clouds 11 1020 85 8708 2.88 170 07:27 03.06.2022
1781 Rain 12 1020 82 8708 2.88 170 06:39 03.06.2022
1782 Clouds 11 1020 82 10000 2.84 169 06:20 03.06.2022
1783 Clouds 12 1020 85 10000 1.94 167 01:23 03.06.2022
1784 Clouds 13 1020 86 10000 1.52 190 23:31 02.06.2022
1785 Clouds 14 1020 83 10000 1.67 180 21:57 02.06.2022
1786 Clouds 16 1019 73 10000 1.38 196 20:25 02.06.2022
1787 Clouds 18 1019 58 10000 1.38 196 19:52 02.06.2022
1788 Clouds 18 1018 81 10000 1.04 145 19:33 02.06.2022
1789 Clouds 19 1018 63 7063 0.46 234 17:58 02.06.2022
1790 Clouds 19 1018 70 10000 0.38 216 16:28 02.06.2022
1791 Clouds 19 1018 66 10000 0.05 224 14:34 02.06.2022
1792 Clouds 18 1019 67 10000 0.4 335 13:30 02.06.2022
1793 Clouds 17 1018 68 7564 1.17 263 12:42 02.06.2022
1794 Clouds 16 1018 81 10000 1.31 197 10:31 02.06.2022
1795 Clouds 13 1018 92 10000 1.52 197 09:28 02.06.2022
1796 Clouds 11 1018 95 10000 1.27 229 08:29 02.06.2022
1797 Clouds 10 1018 96 10000 1.27 229 07:48 02.06.2022
1798 Clouds 9 1019 95 10000 1.97 239 05:33 02.06.2022
1799 Rain 9 1019 96 10000 1.89 221 03:48 02.06.2022
1800 Rain 10 1019 95 10000 1.12 256 00:31 02.06.2022
1801 Clouds 10 1019 94 10000 1.34 190 22:55 01.06.2022
1802 Clouds 10 1018 89 10000 1.39 198 21:45 01.06.2022
1803 Rain 10 1018 87 10000 1.53 182 21:20 01.06.2022
1804 Rain 11 1018 94 10000 1.53 182 20:38 01.06.2022
1805 Rain 11 1018 93 10000 1.57 187 19:48 01.06.2022
1806 Rain 12 1018 88 5497 2.73 260 18:19 01.06.2022
1807 Rain 12 1018 75 10000 1.73 240 16:46 01.06.2022
1808 Rain 14 1017 69 10000 2.43 252 15:39 01.06.2022
1809 Clouds 16 1016 75 10000 1.83 236 14:31 01.06.2022
1810 Clouds 17 1015 49 10000 0.62 221 12:42 01.06.2022
1811 Clear 14 1016 71 10000 0.88 210 10:37 01.06.2022
1812 Clear 12 1016 79 10000 0.32 266 09:26 01.06.2022
1813 Clouds 8 1017 92 10000 0.91 306 07:56 01.06.2022
1814 Clouds 7 1017 92 10000 0.76 293 06:41 01.06.2022
1815 Clouds 8 1018 95 10000 1.5 317 01:44 01.06.2022
1816 Clouds 8 1018 95 10000 0.97 285 23:47 31.05.2022
1817 Rain 9 1018 94 10000 0.73 279 22:38 31.05.2022
1818 Rain 9 1018 94 10000 0.73 279 22:38 31.05.2022
1819 Rain 9 1018 93 8916 0.98 277 21:46 31.05.2022
1820 Rain 9 1017 92 6620 1.85 311 20:57 31.05.2022
1821 Rain 9 1017 92 6620 1.85 311 20:33 31.05.2022
1822 Rain 10 1015 84 4636 1.46 277 18:57 31.05.2022
1823 Rain 10 1014 90 6848 0.4 198 17:51 31.05.2022
1824 Rain 12 1014 67 6848 0.4 198 17:31 31.05.2022
1825 Clouds 14 1013 60 10000 1.11 198 15:42 31.05.2022
1826 Clouds 14 1013 53 10000 1.43 178 14:36 31.05.2022
1827 Clouds 14 1014 55 10000 1.62 198 12:39 31.05.2022
1828 Rain 13 1014 78 8494 1.65 198 12:18 31.05.2022
1829 Clouds 10 1014 84 4999 2 175 09:50 31.05.2022
1830 Clouds 7 1015 84 10000 2.28 169 07:41 31.05.2022
1831 Clouds 7 1015 84 10000 2.28 169 07:41 31.05.2022
1832 Clouds 6 1016 86 10000 2.51 180 05:25 31.05.2022
1833 Clouds 6 1016 90 10000 2.59 177 02:51 31.05.2022
1834 Clouds 6 1015 91 10000 2.04 185 23:29 30.05.2022
1835 Clouds 7 1015 91 10000 2.04 185 23:00 30.05.2022
1836 Clouds 7 1015 87 10000 2.04 185 22:31 30.05.2022
1837 Clouds 8 1015 86 10000 1.6 175 21:35 30.05.2022
1838 Clouds 9 1013 83 10000 1.2 148 20:41 30.05.2022
1839 Clouds 11 1013 93 10000 1.17 124 19:38 30.05.2022
1840 Clouds 9 1013 97 2164 0.97 40 17:44 30.05.2022
1841 Clouds 12 1012 99 46 1.37 17 17:18 30.05.2022
1842 Clouds 8 1012 99 64 1.58 360 15:44 30.05.2022
1843 Clouds 10 1011 98 43 0.19 181 12:58 30.05.2022
1844 Clouds 7 1009 95 54 0.35 156 11:26 30.05.2022
1845 Clouds 8 1009 73 881 0.43 186 09:39 30.05.2022
1846 Clouds 5 1010 86 10000 0.69 196 07:29 30.05.2022
1847 Clouds 4 1010 89 10000 0.77 183 05:52 30.05.2022
1848 Clouds 5 1009 88 10000 1.39 166 03:18 30.05.2022
1849 Clouds 5 1011 86 10000 0.62 120 23:32 29.05.2022
1850 Clouds 5 1011 85 10000 0.82 50 22:40 29.05.2022
1851 Clouds 6 1011 82 10000 1.4 20 21:44 29.05.2022
1852 Clouds 8 1010 74 9234 2.55 349 20:18 29.05.2022
1853 Clouds 8 1009 72 9309 2.99 347 19:28 29.05.2022
1854 Clouds 8 1009 70 9305 3.32 344 17:56 29.05.2022
1855 Rain 9 1008 69 8506 3.52 341 15:59 29.05.2022
1856 Rain 9 1008 66 8506 3.52 341 15:40 29.05.2022
1857 Clouds 10 1008 61 9533 3.47 339 14:44 29.05.2022
1858 Clouds 8 1009 92 860 2.79 340 12:21 29.05.2022
1859 Clouds 6 1009 86 2771 2.59 342 10:56 29.05.2022
1860 Clouds 5 1009 88 3392 2.44 345 09:54 29.05.2022
1861 Clouds 5 1010 90 10000 2.35 339 07:42 29.05.2022
1862 Clouds 6 1012 93 10000 1.6 334 04:51 29.05.2022
1863 Clouds 6 1012 85 10000 1.6 334 04:31 29.05.2022
1864 Clouds 7 1013 89 10000 2 357 00:48 29.05.2022
1865 Clouds 7 1014 78 10000 2.48 352 23:42 28.05.2022
1866 Clouds 8 1014 76 10000 2.57 352 23:18 28.05.2022
1867 Clouds 9 1014 74 10000 2.86 351 21:46 28.05.2022
1868 Clouds 8 1014 89 10000 3.31 348 20:40 28.05.2022
1869 Clouds 11 1013 68 10000 3.9 345 19:19 28.05.2022
1870 Clouds 12 1013 61 10000 3.93 348 18:19 28.05.2022
1871 Clouds 12 1013 76 10000 3.69 352 16:57 28.05.2022
1872 Clouds 12 1014 74 10000 3.5 350 15:45 28.05.2022
1873 Clouds 13 1014 62 10000 3.37 348 15:19 28.05.2022
1874 Clouds 13 1015 62 10000 3.53 341 13:27 28.05.2022
1875 Clouds 13 1015 62 10000 3.53 341 13:27 28.05.2022
1876 Clouds 13 1015 62 10000 3.53 341 12:42 28.05.2022
1877 Clouds 11 1017 90 3113 3.65 342 11:28 28.05.2022
1878 Clouds 11 1017 90 3113 3.65 342 10:32 28.05.2022
1879 Clouds 10 1017 92 3071 3.8 342 09:39 28.05.2022
1880 Clouds 9 1017 89 10000 3.75 340 07:53 28.05.2022
1881 Clouds 9 1018 90 10000 3.65 340 06:32 28.05.2022
1882 Clouds 10 1018 88 10000 3.45 337 04:39 28.05.2022
1883 Clouds 11 1020 83 10000 2.92 340 01:30 28.05.2022
1884 Clouds 12 1021 77 10000 2.88 335 23:53 27.05.2022
1885 Clouds 13 1022 72 10000 3.2 336 22:32 27.05.2022
1886 Clouds 13 1021 89 10000 3.29 338 20:59 27.05.2022
1887 Clouds 14 1021 89 10000 3.29 338 20:40 27.05.2022
1888 Clouds 17 1020 80 10000 3.44 337 19:56 27.05.2022
1889 Clouds 17 1020 59 10000 3.39 338 19:34 27.05.2022
1890 Clouds 18 1019 73 10000 3.6 339 18:41 27.05.2022
1891 Clouds 19 1019 64 10000 3.77 335 16:42 27.05.2022
1892 Clouds 19 1020 60 10000 3.62 337 15:46 27.05.2022
1893 Clouds 20 1020 52 10000 3.2 338 14:45 27.05.2022
1894 Clouds 20 1020 58 10000 2.76 336 13:35 27.05.2022
1895 Clouds 18 1021 75 10000 2.53 332 11:48 27.05.2022
1896 Clouds 17 1022 76 10000 2.27 330 11:26 27.05.2022
1897 Clouds 15 1022 82 10000 2.27 330 10:35 27.05.2022
1898 Clouds 13 1022 87 10000 1.95 330 09:42 27.05.2022
1899 Clouds 11 1023 91 10000 1.7 328 08:48 27.05.2022
1900 Clouds 9 1023 88 10000 1.73 324 06:50 27.05.2022
1901 Clouds 11 1023 91 10000 0.84 221 02:56 27.05.2022
1902 Clouds 12 1024 90 10000 0.23 331 00:54 27.05.2022
1903 Clouds 13 1025 86 10000 0.35 145 22:50 26.05.2022
1904 Clouds 13 1025 81 10000 0.55 79 21:45 26.05.2022
1905 Clouds 14 1024 78 10000 0.96 27 20:59 26.05.2022
1906 Clouds 16 1023 69 10000 1.63 348 19:29 26.05.2022
1907 Clouds 15 1023 78 10000 1.47 346 18:24 26.05.2022
1908 Clouds 15 1022 70 10000 1.19 345 16:58 26.05.2022
1909 Clouds 17 1022 66 10000 1.08 345 15:52 26.05.2022
1910 Clouds 16 1022 65 10000 0.77 349 15:18 26.05.2022
1911 Clouds 18 1022 64 10000 0.83 341 13:45 26.05.2022
1912 Clouds 16 1023 73 10000 0.62 334 11:38 26.05.2022
1913 Clouds 14 1023 75 10000 0.51 0 10:37 26.05.2022
1914 Clouds 11 1023 77 10000 1.11 358 09:37 26.05.2022
1915 Clouds 9 1023 89 10000 1.54 353 08:38 26.05.2022
1916 Clouds 7 1023 92 10000 1.77 345 05:24 26.05.2022
1917 Clouds 9 1023 92 10000 1.58 340 01:24 26.05.2022
1918 Clouds 9 1023 90 10000 1.57 350 23:41 25.05.2022
1919 Clouds 10 1022 89 10000 1.82 352 22:48 25.05.2022
1920 Clouds 11 1021 86 10000 2 354 21:37 25.05.2022
1921 Clouds 11 1020 81 10000 1.86 359 20:39 25.05.2022
1922 Clouds 12 1019 79 10000 2.02 356 19:31 25.05.2022
1923 Clouds 13 1018 75 10000 2.13 359 18:20 25.05.2022
1924 Clouds 13 1017 75 10000 2.16 357 16:41 25.05.2022
1925 Clouds 13 1017 73 10000 2.3 355 15:58 25.05.2022
1926 Clouds 14 1016 77 10000 2.31 358 14:56 25.05.2022
1927 Clouds 12 1016 69 10000 2.3 359 14:33 25.05.2022
1928 Clouds 15 1016 69 10000 1.9 11 13:58 25.05.2022
1929 Clouds 13 1017 74 10000 1.89 14 12:48 25.05.2022
1930 Clouds 10 1017 89 10000 1.97 16 10:58 25.05.2022
1931 Clouds 9 1017 94 10000 1.83 18 10:22 25.05.2022
1932 Clouds 8 1017 96 3779 1.88 5 08:45 25.05.2022
1933 Clouds 7 1016 97 42 2.47 344 07:23 25.05.2022
1934 Clouds 7 1014 96 62 2.68 346 05:23 25.05.2022
1935 Clouds 8 1014 95 471 2.11 354 00:31 25.05.2022
1936 Rain 8 1013 96 1340 2.55 346 23:47 24.05.2022
1937 Rain 8 1013 95 1060 2.73 7 22:52 24.05.2022
1938 Rain 8 1012 95 1079 1.66 4 21:46 24.05.2022
1939 Clouds 9 1011 94 2079 2.73 353 21:21 24.05.2022
1940 Clouds 8 1011 94 2079 2.73 353 20:38 24.05.2022
1941 Rain 9 1011 98 1031 2.58 358 18:57 24.05.2022
1942 Clouds 9 1009 92 1083 1.74 358 17:19 24.05.2022
1943 Clouds 10 1010 91 1696 0.77 339 16:28 24.05.2022
1944 Clouds 12 1009 91 2079 1.03 303 15:20 24.05.2022
1945 Clouds 12 1009 91 2079 1.03 303 14:34 24.05.2022
1946 Clouds 11 1010 97 2198 0.65 343 13:34 24.05.2022
1947 Clouds 11 1009 94 252 0.37 31 11:53 24.05.2022
1948 Clouds 10 1008 95 98 0.41 209 09:49 24.05.2022
1949 Clouds 10 1008 96 132 0.46 245 08:51 24.05.2022
1950 Clouds 10 1008 96 2619 1.16 198 07:30 24.05.2022
1951 Clouds 10 1007 96 1041 1.57 194 05:59 24.05.2022
1952 Clouds 11 1007 96 3686 1.22 161 02:58 24.05.2022
1953 Clouds 11 1007 96 5464 1.33 162 01:44 24.05.2022
1954 Clouds 11 1008 96 421 0.93 148 23:59 23.05.2022
1955 Rain 12 1008 95 2449 1.16 200 22:22 23.05.2022
1956 Rain 12 1008 94 2449 1.16 200 21:42 23.05.2022
1957 Clouds 12 1007 94 7341 1.29 198 20:45 23.05.2022
1958 Rain 12 1007 93 4749 1.35 194 19:47 23.05.2022
1959 Rain 13 1006 92 8569 1.79 191 19:18 23.05.2022
1960 Clouds 13 1006 91 8569 1.79 191 18:40 23.05.2022
1961 Rain 15 1005 87 10000 3.19 176 17:56 23.05.2022
1962 Clouds 16 1006 81 8431 3.51 171 15:55 23.05.2022
1963 Clouds 21 1006 66 10000 3.72 157 13:56 23.05.2022
1964 Clouds 19 1007 59 10000 2.51 158 11:41 23.05.2022
1965 Clouds 20 1008 56 10000 2.75 167 10:45 23.05.2022
1966 Rain 18 1008 70 10000 2.72 167 09:47 23.05.2022
1967 Clouds 15 1009 84 10000 2.51 167 08:46 23.05.2022
1968 Clouds 13 1011 86 10000 1.38 210 06:49 23.05.2022
1969 Clouds 11 1011 86 10000 1.38 210 06:31 23.05.2022
1970 Clouds 12 1012 91 10000 2.5 200 02:55 23.05.2022
1971 Clouds 11 1014 92 10000 2.86 195 01:50 23.05.2022
1972 Clouds 12 1014 92 10000 3.17 188 01:26 23.05.2022
1973 Rain 13 1014 93 10000 2 253 22:49 22.05.2022
1974 Clouds 13 1014 92 10000 2.17 210 22:22 22.05.2022
1975 Clouds 13 1014 91 10000 2.17 210 21:51 22.05.2022
1976 Rain 14 1015 91 10000 1.73 212 20:43 22.05.2022
1977 Rain 15 1015 87 3548 1.3 147 20:20 22.05.2022
1978 Rain 18 1013 78 7726 2.44 289 19:19 22.05.2022
1979 Rain 16 1013 79 7726 2.44 289 18:46 22.05.2022
1980 Clouds 22 1011 43 10000 0.51 271 18:21 22.05.2022
1981 Clouds 20 1012 46 10000 1.28 268 16:51 22.05.2022
1982 Clouds 23 1013 40 10000 1.47 301 15:25 22.05.2022
1983 Clouds 24 1013 41 10000 1.47 301 14:47 22.05.2022
1984 Clouds 22 1014 66 10000 1.43 315 12:55 22.05.2022
1985 Clouds 22 1014 62 10000 1.43 315 12:33 22.05.2022
1986 Clouds 19 1015 72 10000 1.16 306 10:53 22.05.2022
1987 Clouds 17 1016 79 10000 1.39 317 09:31 22.05.2022
1988 Clouds 15 1017 63 10000 1.76 313 07:52 22.05.2022
1989 Clouds 11 1017 89 10000 1.61 297 07:20 22.05.2022
1990 Clouds 10 1018 89 10000 1.74 290 04:30 22.05.2022
1991 Clouds 12 1021 88 10000 1.73 299 01:19 22.05.2022
1992 Clouds 12 1021 87 10000 1.59 296 23:57 21.05.2022
1993 Clouds 13 1021 85 10000 1.59 296 23:32 21.05.2022
1994 Clouds 15 1021 80 10000 1.68 306 21:59 21.05.2022
1995 Clouds 16 1021 82 10000 1.68 306 21:39 21.05.2022
1996 Clouds 16 1021 83 10000 1.87 313 20:48 21.05.2022
1997 Clouds 19 1021 76 10000 2.25 330 19:59 21.05.2022
1998 Clouds 20 1020 68 10000 2.73 329 19:21 21.05.2022
1999 Clouds 17 1020 63 10000 2.91 331 17:35 21.05.2022
2000 Clouds 21 1020 55 10000 2.86 329 15:37 21.05.2022
2001 Clouds 17 1020 52 10000 2.73 330 14:36 21.05.2022
2002 Clouds 22 1021 54 10000 2.66 333 13:36 21.05.2022
2003 Clouds 21 1021 70 10000 2.53 333 12:40 21.05.2022
2004 Clouds 20 1022 75 10000 2.44 334 11:52 21.05.2022
2005 Clouds 17 1023 80 10000 2.54 336 10:22 21.05.2022
2006 Clouds 15 1023 87 10000 2.37 335 09:20 21.05.2022
2007 Clouds 14 1023 87 10000 2.37 335 08:47 21.05.2022
2008 Clouds 13 1024 85 10000 2.44 325 06:22 21.05.2022
2009 Clouds 14 1025 78 10000 1.83 303 02:24 21.05.2022
2010 Clouds 15 1025 77 10000 1.51 234 23:45 20.05.2022
2011 Clouds 16 1025 77 10000 1.87 180 22:41 20.05.2022
2012 Clouds 16 1025 76 10000 1.17 230 22:22 20.05.2022
2013 Clouds 17 1024 82 10000 2.05 194 21:27 20.05.2022
2014 Clouds 19 1024 82 10000 2.05 194 20:51 20.05.2022
2015 Rain 20 1023 73 10000 2.91 169 19:55 20.05.2022
2016 Clouds 21 1024 67 10000 2.3 176 18:58 20.05.2022
2017 Clouds 22 1023 59 10000 1.69 198 18:27 20.05.2022
2018 Clouds 23 1023 53 10000 2.19 178 16:49 20.05.2022
2019 Clouds 23 1023 47 10000 2.89 172 15:55 20.05.2022
2020 Clouds 23 1023 47 10000 2.89 172 15:32 20.05.2022
2021 Clouds 23 1024 45 10000 3.1 168 14:28 20.05.2022
2022 Clouds 22 1024 45 10000 2.79 170 13:31 20.05.2022
2023 Clouds 21 1026 54 10000 2.4 178 10:48 20.05.2022
2024 Clouds 19 1026 52 10000 2.38 178 09:50 20.05.2022
2025 Clouds 16 1027 71 10000 2.36 178 08:38 20.05.2022
2026 Clouds 11 1027 81 10000 1.86 183 06:45 20.05.2022
2027 Clouds 9 1027 81 10000 1.59 194 05:53 20.05.2022
2028 Clouds 11 1028 82 10000 1.8 197 02:53 20.05.2022
2029 Clouds 12 1029 83 10000 0.96 190 23:47 19.05.2022
2030 Clouds 12 1029 82 10000 1.56 202 22:44 19.05.2022
2031 Clouds 13 1028 82 10000 2.18 181 21:52 19.05.2022
2032 Clouds 13 1028 84 10000 2.15 188 21:24 19.05.2022
2033 Clouds 14 1028 84 10000 2.15 188 20:54 19.05.2022
2034 Clouds 14 1027 82 10000 2.2 181 20:20 19.05.2022
2035 Rain 15 1027 63 10000 1.55 215 19:25 19.05.2022
2036 Clouds 15 1027 82 10000 1.92 226 17:47 19.05.2022
2037 Clouds 18 1027 77 10000 2.32 202 16:22 19.05.2022
2038 Rain 16 1026 75 10000 1.9 173 14:50 19.05.2022
2039 Clouds 17 1026 73 10000 1.18 147 14:21 19.05.2022
2040 Clouds 20 1026 72 10000 1.29 177 12:20 19.05.2022
2041 Clouds 17 1026 77 10000 1.88 179 10:35 19.05.2022
2042 Clouds 12 1027 89 8827 2.55 177 08:57 19.05.2022
2043 Clouds 14 1027 85 10000 2.96 177 07:41 19.05.2022
2044 Clouds 13 1026 82 8434 3.19 177 04:38 19.05.2022
2045 Clouds 13 1026 80 10000 3.4 177 01:38 19.05.2022
2046 Clouds 14 1026 77 10000 3.27 177 23:49 18.05.2022
2047 Clouds 13 1026 94 9440 3.3 175 22:45 18.05.2022
2048 Clouds 14 1025 92 9127 3.16 177 21:47 18.05.2022
2049 Clouds 18 1024 89 10000 2.75 177 21:24 18.05.2022
2050 Clouds 18 1023 84 10000 1.68 168 20:23 18.05.2022
2051 Clouds 20 1023 86 10000 2.44 168 19:32 18.05.2022
2052 Clouds 21 1022 67 10000 1.21 166 18:20 18.05.2022
2053 Clouds 21 1022 67 10000 1.21 166 17:41 18.05.2022
2054 Clouds 21 1022 64 10000 0.93 159 17:22 18.05.2022
2055 Clouds 20 1022 60 10000 0.6 169 15:59 18.05.2022
2056 Clouds 20 1022 60 10000 0.6 169 15:38 18.05.2022
2057 Clouds 19 1022 58 10000 0.51 152 14:30 18.05.2022
2058 Clouds 19 1022 58 10000 0.51 152 14:30 18.05.2022
2059 Clouds 19 1023 60 10000 0.92 116 12:59 18.05.2022
2060 Clouds 19 1023 60 10000 0.92 116 12:39 18.05.2022
2061 Clouds 16 1023 63 10000 0.76 87 11:33 18.05.2022
2062 Clouds 15 1024 68 9897 0.81 57 10:49 18.05.2022
2063 Clouds 13 1025 88 10000 0.96 332 08:27 18.05.2022
2064 Clear 11 1024 90 10000 1.62 330 07:28 18.05.2022
2065 Clouds 11 1023 86 10000 1.93 325 04:33 18.05.2022
2066 Clouds 12 1023 83 10000 1.8 329 00:52 18.05.2022
2067 Clouds 12 1023 82 10000 1.64 330 00:18 18.05.2022
2068 Clouds 16 1022 89 10000 2.51 331 21:24 17.05.2022
2069 Clouds 16 1022 89 10000 2.51 331 20:57 17.05.2022
2070 Clouds 17 1021 83 10000 2.58 339 19:45 17.05.2022
2071 Clouds 18 1020 61 10000 2.84 341 19:25 17.05.2022
2072 Clouds 20 1020 56 10000 2.83 339 17:49 17.05.2022
2073 Clouds 19 1020 54 10000 2.63 339 16:58 17.05.2022
2074 Clouds 20 1020 50 10000 2.39 338 16:29 17.05.2022
2075 Clouds 18 1020 53 10000 2.31 341 15:24 17.05.2022
2076 Clouds 18 1020 53 10000 2.31 341 14:30 17.05.2022
2077 Clouds 18 1020 53 10000 2.31 341 14:30 17.05.2022
2078 Clouds 17 1021 54 10000 2.21 342 13:31 17.05.2022
2079 Clouds 16 1022 65 10000 2.21 345 11:21 17.05.2022
2080 Clouds 13 1023 77 10000 2 340 09:23 17.05.2022
2081 Clouds 10 1023 87 10000 1.6 331 07:59 17.05.2022
2082 Clouds 8 1023 92 10000 1.26 333 06:36 17.05.2022
2083 Clouds 9 1024 95 10000 1.58 326 02:27 17.05.2022
2084 Clouds 10 1024 93 10000 2.1 329 00:32 17.05.2022
2085 Rain 11 1024 92 10000 2.3 322 22:42 16.05.2022
2086 Rain 11 1024 91 10000 2.11 322 21:36 16.05.2022
2087 Rain 12 1023 89 10000 1.84 337 20:46 16.05.2022
2088 Rain 12 1022 87 10000 1.92 346 19:22 16.05.2022
2089 Clouds 14 1022 77 10000 1.3 12 17:58 16.05.2022
2090 Rain 13 1022 83 8012 1.75 288 15:49 16.05.2022
2091 Rain 16 1021 72 7521 1.28 16 13:49 16.05.2022
2092 Clouds 18 1021 70 6921 0.99 45 12:50 16.05.2022
2093 Clouds 17 1021 61 8760 0.38 39 10:52 16.05.2022
2094 Clouds 15 1020 70 10000 0.44 194 08:55 16.05.2022
2095 Clouds 11 1020 88 10000 0.97 141 06:33 16.05.2022
2096 Clouds 11 1020 90 10000 1.33 229 02:38 16.05.2022
2097 Rain 10 1021 90 7348 1.37 190 23:19 15.05.2022
2098 Rain 11 1021 88 7326 1.82 193 22:29 15.05.2022
2099 Rain 12 1021 86 7326 1.82 193 21:39 15.05.2022
2100 Rain 14 1020 73 10000 1.79 175 20:53 15.05.2022
2101 Rain 16 1018 83 7166 1.58 187 19:24 15.05.2022
2102 Clouds 20 1018 75 9916 1.57 176 17:48 15.05.2022
2103 Clouds 20 1017 65 10000 1.28 154 15:44 15.05.2022
2104 Clouds 21 1018 51 10000 1.39 166 13:50 15.05.2022
2105 Clouds 18 1019 65 10000 1.66 167 12:23 15.05.2022
2106 Clouds 17 1019 65 10000 1.66 167 11:38 15.05.2022
2107 Clouds 17 1019 65 10000 1.66 167 11:38 15.05.2022
2108 Clouds 17 1019 65 10000 1.66 167 11:38 15.05.2022
2109 Clouds 17 1019 75 10000 1.81 169 10:23 15.05.2022
2110 Clouds 11 1020 85 10000 1.68 178 07:46 15.05.2022
2111 Clouds 10 1020 85 10000 1.79 189 06:57 15.05.2022
2112 Clouds 9 1020 87 10000 1.86 191 04:44 15.05.2022
2113 Clouds 11 1021 83 10000 1.17 176 00:48 15.05.2022
2114 Clouds 10 1021 87 10000 0.73 164 23:38 14.05.2022
2115 Clouds 11 1021 88 10000 0.35 116 22:45 14.05.2022
2116 Clouds 14 1021 87 10000 0.92 4 21:27 14.05.2022
2117 Clouds 16 1021 65 10000 0.92 4 20:32 14.05.2022
2118 Clouds 18 1020 59 10000 1.86 353 19:21 14.05.2022
2119 Clouds 18 1020 59 10000 1.86 353 19:21 14.05.2022
2120 Clouds 17 1020 72 10000 1.86 353 18:59 14.05.2022
2121 Clouds 17 1019 69 10000 2.01 349 17:54 14.05.2022
2122 Clouds 17 1019 67 10000 2.11 344 16:32 14.05.2022
2123 Clouds 17 1020 65 10000 1.89 337 14:58 14.05.2022
2124 Clouds 16 1020 65 10000 1.89 337 14:30 14.05.2022
2125 Clouds 15 1020 62 10000 0.72 332 12:23 14.05.2022
2126 Clouds 14 1020 66 10000 0.58 351 10:53 14.05.2022
2127 Clouds 13 1021 76 10000 0.71 354 10:20 14.05.2022
2128 Clouds 15 1021 76 10000 0.71 354 09:51 14.05.2022
2129 Clouds 13 1021 80 10000 0.97 344 08:46 14.05.2022
2130 Clouds 9 1022 88 10000 0.93 315 05:43 14.05.2022
2131 Clouds 11 1022 93 10000 1.36 333 01:58 14.05.2022
2132 Clouds 12 1023 94 10000 1.1 320 23:32 13.05.2022
2133 Clouds 12 1023 96 10000 1.04 322 22:57 13.05.2022
2134 Clouds 12 1023 97 9771 1.23 331 22:23 13.05.2022
2135 Clouds 12 1023 97 9771 1.23 331 21:38 13.05.2022
2136 Clouds 12 1023 97 8301 1.69 333 20:44 13.05.2022
2137 Clouds 12 1022 97 4658 2.21 341 20:23 13.05.2022
2138 Clouds 14 1022 93 5116 2.29 342 19:21 13.05.2022
2139 Clouds 13 1021 88 8368 2.22 345 17:50 13.05.2022
2140 Clouds 14 1021 84 10000 1.92 342 17:27 13.05.2022
2141 Clouds 15 1021 83 10000 1.83 337 16:18 13.05.2022
2142 Clouds 15 1021 83 7278 1.66 337 14:54 13.05.2022
2143 Clouds 15 1022 85 10000 1.55 325 13:27 13.05.2022
2144 Clouds 15 1022 88 7172 1.84 331 12:25 13.05.2022
2145 Clouds 15 1022 90 4704 1.79 323 10:46 13.05.2022
2146 Clouds 12 1022 92 5166 1.04 320 09:31 13.05.2022
2147 Clouds 12 1023 98 2202 0.47 317 08:23 13.05.2022
2148 Clouds 11 1023 88 2202 0.47 317 07:42 13.05.2022
2149 Clouds 10 1023 96 9696 1.36 310 05:59 13.05.2022
2150 Rain 10 1023 95 7430 1.23 310 02:43 13.05.2022
2151 Clouds 12 1024 94 10000 1.38 227 23:46 12.05.2022
2152 Clouds 13 1025 95 4739 1.14 238 22:44 12.05.2022
2153 Clouds 14 1025 96 3374 1.15 243 21:54 12.05.2022
2154 Clouds 17 1023 98 153 1.11 262 20:25 12.05.2022
2155 Clouds 19 1023 97 231 1.31 288 18:41 12.05.2022
2156 Clouds 20 1022 94 363 1.39 292 16:58 12.05.2022
2157 Clouds 20 1022 93 229 1.08 278 15:50 12.05.2022
2158 Clouds 18 1022 93 320 0.64 247 14:20 12.05.2022
2159 Clouds 17 1023 96 35 0.67 216 13:24 12.05.2022
2160 Clouds 15 1023 97 26 0.59 231 10:43 12.05.2022
2161 Clouds 11 1023 98 52 0.56 255 09:19 12.05.2022
2162 Clouds 10 1023 98 52 0.56 255 08:41 12.05.2022
2163 Clouds 10 1023 81 10000 0.95 252 07:37 12.05.2022
2164 Clouds 6 1024 85 10000 1.06 235 05:32 12.05.2022
2165 Clouds 8 1024 91 10000 1.66 220 02:49 12.05.2022
2166 Clouds 9 1024 94 10000 2.21 198 00:32 12.05.2022
2167 Clouds 11 1024 98 8209 2.51 193 22:33 11.05.2022
2168 Clouds 13 1024 99 1674 2.43 195 21:33 11.05.2022
2169 Clouds 15 1023 99 531 2.43 196 20:53 11.05.2022
2170 Clouds 20 1022 98 36 2.28 193 18:24 11.05.2022
2171 Clouds 20 1021 96 37 2.35 188 16:50 11.05.2022
2172 Clouds 18 1021 96 37 2.28 181 14:51 11.05.2022
2173 Clouds 18 1022 96 47 2.22 181 14:26 11.05.2022
2174 Clouds 18 1022 96 48 2.18 182 13:51 11.05.2022
2175 Clouds 17 1022 96 29 2.09 190 11:51 11.05.2022
2176 Clouds 13 1022 97 23 2.15 188 10:27 11.05.2022
2177 Clouds 9 1023 98 92 2.08 192 08:33 11.05.2022
2178 Clouds 4 1024 84 10000 1.17 232 05:19 11.05.2022
2179 Clouds 9 1024 91 10000 0.84 255 00:42 11.05.2022
2180 Clouds 10 1025 91 10000 0.93 284 22:30 10.05.2022
2181 Clouds 11 1025 90 10000 0.95 280 21:55 10.05.2022
2182 Clouds 14 1025 92 10000 0.9 278 20:54 10.05.2022
2183 Clouds 16 1024 99 55 1.09 281 19:26 10.05.2022
2184 Clouds 17 1023 98 1633 1.11 290 17:49 10.05.2022
2185 Clouds 17 1023 96 47 1.01 290 16:56 10.05.2022
2186 Clouds 16 1023 96 1624 0.35 273 14:48 10.05.2022
2187 Clouds 13 1024 96 38 0.53 282 12:39 10.05.2022
2188 Clouds 12 1024 97 25 0.52 256 11:49 10.05.2022
2189 Clouds 12 1024 97 23 0.69 269 11:18 10.05.2022
2190 Clouds 9 1024 98 23 0.72 263 09:59 10.05.2022
2191 Clear 8 1024 98 89 0.72 241 09:25 10.05.2022
2192 Clear 6 1026 88 10000 0.96 246 06:46 10.05.2022
2193 Clear 5 1028 85 10000 1.29 239 03:29 10.05.2022
2194 Clouds 5 1028 85 10000 1.33 227 00:34 10.05.2022
2195 Clouds 8 1028 89 10000 1.2 234 22:44 09.05.2022
2196 Clouds 9 1028 94 10000 1.07 232 21:48 09.05.2022
2197 Clouds 13 1026 99 103 0.75 232 20:25 09.05.2022
2198 Clouds 14 1025 99 1711 0.63 243 18:43 09.05.2022
2199 Clouds 14 1025 98 465 0.69 247 17:40 09.05.2022
2200 Rain 13 1024 97 181 0.81 215 16:29 09.05.2022
2201 Rain 13 1024 97 181 0.81 215 15:49 09.05.2022
2202 Clouds 13 1025 98 83 0.93 202 14:47 09.05.2022
2203 Clouds 13 1025 98 75 1.12 193 14:22 09.05.2022
2204 Clouds 12 1025 98 75 1.12 193 13:36 09.05.2022
2205 Clouds 12 1025 98 75 1.12 193 13:36 09.05.2022
2206 Clouds 12 1025 98 99 1.67 180 11:57 09.05.2022
2207 Clouds 10 1025 98 135 1.86 183 10:51 09.05.2022
2208 Clouds 10 1025 98 135 1.86 183 10:31 09.05.2022
2209 Clouds 7 1024 98 10000 1.84 182 08:23 09.05.2022
2210 Clouds 7 1024 95 10000 1.84 182 07:44 09.05.2022
2211 Clouds 5 1026 93 7822 1.99 197 02:55 09.05.2022
2212 Clouds 7 1025 94 7213 1.14 184 23:29 08.05.2022
2213 Clouds 7 1025 93 7213 1.14 184 22:51 08.05.2022
2214 Rain 7 1025 94 4824 1.01 182 21:48 08.05.2022
2215 Rain 8 1024 98 4781 0.32 198 20:33 08.05.2022
2216 Rain 8 1022 99 3806 0.19 244 19:37 08.05.2022
2217 Clouds 8 1022 99 2764 0.19 263 18:49 08.05.2022
2218 Rain 10 1021 98 747 0.01 279 17:52 08.05.2022
2219 Rain 9 1021 97 349 0.08 137 16:33 08.05.2022
2220 Clouds 9 1021 97 60 0.21 130 15:25 08.05.2022
2221 Clouds 9 1020 97 40 0.52 119 14:27 08.05.2022
2222 Clouds 7 1020 96 27 0.77 102 11:53 08.05.2022
2223 Clouds 9 1020 91 31 0.76 104 10:27 08.05.2022
2224 Clouds 8 1020 93 31 0.76 104 09:55 08.05.2022
2225 Clouds 8 1020 96 1469 0.82 94 08:37 08.05.2022
2226 Clouds 6 1021 96 10000 0.65 27 06:31 08.05.2022
2227 Clouds 7 1021 95 7974 0.74 28 03:23 08.05.2022
2228 Clouds 7 1021 95 118 1.07 9 01:25 08.05.2022
2229 Clouds 7 1021 94 90 1 11 00:20 08.05.2022
2230 Clouds 7 1021 94 90 1 11 23:41 07.05.2022
2231 Clouds 8 1021 92 89 1.15 3 22:46 07.05.2022
2232 Clouds 8 1021 91 104 1.4 356 21:57 07.05.2022
2233 Clouds 8 1021 99 104 1.4 356 21:31 07.05.2022
2234 Clouds 8 1020 99 1645 1.72 359 20:27 07.05.2022
2235 Clouds 9 1020 99 1699 1.72 353 18:59 07.05.2022
2236 Clouds 9 1019 86 67 2.34 359 16:51 07.05.2022
2237 Clouds 9 1019 86 35 1.88 7 15:18 07.05.2022
2238 Clouds 7 1020 98 31 1.52 23 11:51 07.05.2022
2239 Clouds 8 1020 98 49 1.59 32 09:55 07.05.2022
2240 Clouds 7 1021 96 71 1.64 27 08:34 07.05.2022
2241 Clouds 7 1021 96 4029 1.43 16 07:30 07.05.2022
2242 Clouds 6 1021 96 6627 1.33 11 06:42 07.05.2022
2243 Clouds 7 1021 96 6174 1.04 11 04:19 07.05.2022
2244 Clouds 7 1022 95 10000 1.58 23 00:45 07.05.2022
2245 Clouds 7 1022 94 6443 1.58 21 22:40 06.05.2022
2246 Clouds 7 1023 98 3248 1.72 16 21:54 06.05.2022
2247 Clouds 7 1023 98 3248 1.72 16 21:30 06.05.2022
2248 Clouds 8 1022 99 1676 1.78 11 19:48 06.05.2022
2249 Clouds 9 1021 99 643 1.91 10 19:25 06.05.2022
2250 Clouds 9 1021 99 643 1.91 10 18:34 06.05.2022
2251 Clouds 9 1021 99 88 1.9 10 17:36 06.05.2022
2252 Clouds 8 1021 99 44 1.82 18 15:53 06.05.2022
2253 Clouds 7 1021 99 38 1.67 29 15:28 06.05.2022
2254 Clouds 6 1020 98 30 1.57 32 13:49 06.05.2022
2255 Clouds 6 1020 98 35 1.61 35 12:50 06.05.2022
2256 Clouds 6 1020 98 43 1.81 31 11:58 06.05.2022
2257 Clouds 6 1021 99 46 1.49 42 11:24 06.05.2022
2258 Clouds 7 1021 95 49 1.32 41 09:47 06.05.2022
2259 Clouds 6 1021 95 117 1.13 31 09:18 06.05.2022
2260 Clouds 5 1021 96 287 1.51 23 07:49 06.05.2022
2261 Clouds 5 1021 95 2848 1.5 8 06:26 06.05.2022
2262 Clouds 5 1021 94 61 1.44 357 02:58 06.05.2022
2263 Clouds 5 1022 94 56 1.58 356 01:58 06.05.2022
2264 Clouds 6 1022 99 74 1.31 339 22:58 05.05.2022
2265 Clouds 5 1022 99 109 1.11 342 21:49 05.05.2022
2266 Clouds 6 1022 99 81 1.2 347 20:36 05.05.2022
2267 Clouds 6 1020 100 33 1.17 349 18:54 05.05.2022
2268 Clouds 8 1020 100 30 0.07 217 16:40 05.05.2022
2269 Clouds 8 1020 100 40 0.88 140 14:59 05.05.2022
2270 Rain 6 1019 99 30 1.12 128 13:29 05.05.2022
2271 Rain 6 1019 99 30 1.12 128 12:56 05.05.2022
2272 Rain 8 1019 88 30 1.16 107 11:22 05.05.2022
2273 Rain 7 1019 90 37 0.91 111 09:40 05.05.2022
2274 Clouds 7 1020 99 355 1.1 138 08:34 05.05.2022
2275 Clouds 6 1021 93 10000 1.53 156 06:23 05.05.2022
2276 Clouds 6 1022 91 10000 1.98 175 02:23 05.05.2022
2277 Clouds 6 1021 94 10000 2.23 176 01:37 05.05.2022
2278 Clouds 7 1021 94 10000 1.99 178 23:57 04.05.2022
2279 Clouds 6 1021 96 10000 2.11 178 22:54 04.05.2022
2280 Clouds 6 1021 97 7374 1.93 172 21:59 04.05.2022
2281 Clouds 6 1021 97 7374 1.93 172 21:30 04.05.2022
2282 Rain 7 1020 98 351 1.74 169 20:42 04.05.2022
2283 Clouds 8 1019 99 4497 1.47 162 19:59 04.05.2022
2284 Clouds 8 1019 99 4497 1.47 162 19:35 04.05.2022
2285 Clouds 9 1018 99 2911 1.23 164 18:22 04.05.2022
2286 Clouds 10 1018 99 2911 1.23 164 17:59 04.05.2022
2287 Clouds 10 1018 99 117 1.96 154 15:57 04.05.2022
2288 Rain 11 1018 99 117 1.96 154 15:30 04.05.2022
2289 Clouds 12 1018 99 72 2.1 155 14:38 04.05.2022
2290 Clouds 11 1018 99 36 2.05 155 14:18 04.05.2022
2291 Clouds 11 1019 100 57 1.29 160 12:34 04.05.2022
2292 Clouds 8 1019 99 64 0.85 138 11:25 04.05.2022
2293 Clouds 7 1019 99 79 1.03 138 09:46 04.05.2022
2294 Clouds 7 1019 99 4886 1.04 144 08:56 04.05.2022
2295 Clouds 5 1019 91 10000 1.41 174 07:33 04.05.2022
2296 Clouds 2 1021 87 10000 1.29 203 03:50 04.05.2022
2297 Clouds 3 1019 90 10000 1.14 215 01:41 04.05.2022
2298 Clouds 7 1019 94 10000 1.63 190 22:54 03.05.2022
2299 Clouds 7 1019 96 10000 1.18 184 21:47 03.05.2022
2300 Clouds 6 1018 98 4480 1.37 175 21:21 03.05.2022
2301 Clouds 6 1018 98 4480 1.37 175 21:21 03.05.2022
2302 Clouds 7 1018 98 4480 1.37 175 20:38 03.05.2022
2303 Clouds 10 1016 98 113 1.56 171 18:55 03.05.2022
2304 Clouds 10 1016 98 113 1.56 171 18:37 03.05.2022
2305 Clouds 13 1016 97 82 1.55 166 17:20 03.05.2022
2306 Clouds 11 1016 97 797 1.75 172 15:48 03.05.2022
2307 Clouds 12 1016 93 1220 1.41 192 14:22 03.05.2022
2308 Clouds 8 1016 97 63 1.2 165 12:31 03.05.2022
2309 Rain 8 1017 99 167 0.82 136 11:23 03.05.2022
2310 Rain 7 1017 99 1718 0.46 166 10:25 03.05.2022
2311 Rain 6 1016 84 5077 1.08 184 08:18 03.05.2022
2312 Rain 5 1015 86 5974 1.37 210 06:45 03.05.2022
2313 Clouds 8 1017 93 10000 2.02 177 01:56 03.05.2022
2314 Clouds 7 1017 94 10000 0.89 160 22:47 02.05.2022
2315 Clouds 7 1017 94 10000 0.51 166 22:28 02.05.2022
2316 Clouds 7 1017 95 3704 0.27 195 21:26 02.05.2022
2317 Clouds 11 1014 84 9007 0.61 16 18:57 02.05.2022
2318 Clouds 11 1013 80 7143 0.77 27 18:25 02.05.2022
2319 Clouds 12 1013 80 7143 0.77 27 17:38 02.05.2022
2320 Clouds 13 1013 75 8614 0.87 32 16:37 02.05.2022
2321 Clouds 12 1014 71 10000 0.64 37 15:41 02.05.2022
2322 Clouds 11 1014 69 9923 0.14 49 14:20 02.05.2022
2323 Clouds 11 1014 70 10000 0.2 132 12:52 02.05.2022
2324 Clouds 9 1014 75 10000 0.33 99 11:41 02.05.2022
2325 Clear 4 1015 85 10000 0.45 25 09:32 02.05.2022
2326 Clouds 4 1017 88 10000 0.29 270 07:57 02.05.2022
2327 Clouds -1 1020 86 10000 0.82 230 05:59 02.05.2022
2328 Clouds 3 1022 91 10000 0.28 266 00:44 02.05.2022
2329 Clouds 3 1022 91 10000 0.43 309 00:21 02.05.2022
2330 Clouds 5 1021 91 10000 0.62 345 22:53 01.05.2022
2331 Clouds 6 1021 93 10000 1.01 1 21:41 01.05.2022
2332 Clouds 6 1019 93 10000 1.87 0 20:29 01.05.2022
2333 Clouds 9 1018 95 10000 2.07 356 19:20 01.05.2022
2334 Clouds 9 1018 95 10000 2.07 356 18:52 01.05.2022
2335 Clouds 9 1018 95 7330 2.2 355 17:47 01.05.2022
2336 Clouds 10 1018 93 2574 2.03 355 16:26 01.05.2022
2337 Clouds 9 1018 93 2574 2.03 355 15:45 01.05.2022
2338 Clouds 9 1018 93 4725 1.71 0 14:45 01.05.2022
2339 Clouds 7 1019 93 5793 1.02 18 12:22 01.05.2022
2340 Clear 5 1020 90 10000 1.32 25 09:34 01.05.2022
2341 Clear 4 1020 91 10000 1.31 7 08:49 01.05.2022
2342 Clouds -2 1023 93 10000 1.17 323 05:42 01.05.2022
2343 Clouds 3 1023 92 10000 1.56 344 01:32 01.05.2022
2344 Clouds 2 1024 96 6682 2.06 341 22:18 30.04.2022
2345 Clouds 2 1024 96 6682 2.06 341 21:32 30.04.2022
2346 Clouds 5 1020 96 10000 2.01 350 19:48 30.04.2022
2347 Clouds 6 1019 78 10000 2.18 352 18:52 30.04.2022
2348 Clouds 5 1019 94 4580 2.19 355 17:26 30.04.2022
2349 Rain 5 1020 94 898 1.88 7 15:51 30.04.2022
2350 Clouds 7 1020 80 681 1.57 13 14:58 30.04.2022
2351 Clouds 6 1021 98 228 1.5 15 13:41 30.04.2022
2352 Clouds 5 1022 90 49 1.11 356 11:41 30.04.2022
2353 Clouds 5 1022 91 32 0.82 351 10:56 30.04.2022
2354 Rain 4 1022 91 28 0.7 332 09:54 30.04.2022
2355 Rain 5 1022 92 25 0.71 297 07:36 30.04.2022
2356 Rain 7 1021 92 36 1.11 298 03:53 30.04.2022
2357 Clouds 8 1023 96 10000 0.87 208 23:55 29.04.2022
2358 Clouds 8 1023 95 10000 0.88 193 22:37 29.04.2022
2359 Clouds 8 1024 94 10000 0.46 217 21:55 29.04.2022
2360 Clouds 10 1023 92 10000 0.58 313 21:24 29.04.2022
2361 Clouds 10 1022 89 10000 1.15 346 19:55 29.04.2022
2362 Clouds 12 1021 61 10000 1.54 358 19:26 29.04.2022
2363 Clouds 13 1021 68 10000 1.74 357 17:34 29.04.2022
2364 Clouds 15 1021 62 10000 1.71 355 16:30 29.04.2022
2365 Clouds 14 1022 53 10000 1.02 339 14:34 29.04.2022
2366 Clouds 13 1023 54 10000 0.62 329 13:27 29.04.2022
2367 Clouds 11 1023 64 10000 0.65 284 12:34 29.04.2022
2368 Clear 10 1024 78 10000 0.93 220 10:29 29.04.2022
2369 Clear 5 1026 81 10000 1.5 224 07:52 29.04.2022
2370 Clear 3 1028 71 10000 1.87 222 07:25 29.04.2022
2371 Clear 2 1028 71 10000 2.07 213 06:29 29.04.2022
2372 Clouds 4 1029 81 10000 0.77 231 00:52 29.04.2022
2373 Clouds 5 1029 85 10000 0.48 244 23:52 28.04.2022
2374 Clouds 7 1029 85 10000 0.31 264 22:47 28.04.2022
2375 Clouds 9 1028 86 10000 0.44 318 22:19 28.04.2022
2376 Clouds 9 1028 86 10000 0.44 318 21:41 28.04.2022
2377 Clouds 10 1027 86 10000 0.81 328 20:43 28.04.2022
2378 Clouds 11 1025 87 10000 1.06 342 19:49 28.04.2022
2379 Clouds 12 1025 89 8122 1.48 352 19:24 28.04.2022
2380 Clouds 12 1025 89 8122 1.48 352 18:45 28.04.2022
2381 Clouds 12 1024 86 7292 1.85 357 17:32 28.04.2022
2382 Clouds 12 1024 85 7093 2.01 357 16:51 28.04.2022
2383 Clouds 12 1024 84 3069 2.1 357 16:20 28.04.2022
2384 Clouds 12 1024 84 3069 2.1 357 16:20 28.04.2022
2385 Clouds 11 1024 84 3069 2.1 357 15:43 28.04.2022
2386 Clouds 10 1025 85 2894 2.11 358 14:56 28.04.2022
2387 Clouds 12 1024 87 2850 2 359 13:33 28.04.2022
2388 Clouds 11 1024 92 1961 1.19 10 12:28 28.04.2022
2389 Clouds 7 1023 92 2005 0.98 19 10:59 28.04.2022
2390 Clear 9 1023 96 7840 0.57 2 10:26 28.04.2022
2391 Clear 8 1023 96 7840 0.57 2 09:47 28.04.2022
2392 Clear 3 1024 82 10000 0.59 293 07:40 28.04.2022
2393 Clear 2 1027 82 10000 0.92 258 06:42 28.04.2022
2394 Clear 1 1027 75 10000 1.09 249 05:52 28.04.2022
2395 Clear 1 1027 77 10000 1.26 238 04:42 28.04.2022
2396 Clouds 3 1026 76 10000 1.51 212 00:52 28.04.2022
2397 Clouds 4 1026 85 10000 1.26 209 23:18 27.04.2022
2398 Clouds 7 1025 89 10000 0.48 206 22:18 27.04.2022
2399 Clouds 7 1025 89 10000 0.48 206 21:34 27.04.2022
2400 Clouds 8 1024 91 10000 0.25 1 20:45 27.04.2022
2401 Clouds 9 1022 91 8396 0.89 355 19:54 27.04.2022
2402 Clouds 9 1022 90 8517 0.69 340 19:31 27.04.2022
2403 Clouds 10 1021 92 5082 1.07 339 18:38 27.04.2022
2404 Clouds 10 1021 92 1459 1.25 343 17:41 27.04.2022
2405 Clouds 10 1020 89 1338 1.45 1 15:56 27.04.2022
2406 Clouds 9 1019 90 1302 1.12 31 12:50 27.04.2022
2407 Clear 8 1020 91 10000 1.08 33 11:23 27.04.2022
2408 Clear 7 1020 85 10000 1.06 33 10:26 27.04.2022
2409 Clear 1 1022 88 10000 1 350 07:53 27.04.2022
2410 Clear -2 1024 80 10000 0.96 307 06:36 27.04.2022
2411 Clouds 1 1023 90 10000 1.52 313 02:25 27.04.2022
2412 Clouds 3 1022 89 10000 1.86 322 01:21 27.04.2022
2413 Clouds 3 1022 88 10000 1.91 330 00:27 27.04.2022
2414 Clouds 3 1022 91 10000 1.95 334 23:24 26.04.2022
2415 Clouds 3 1022 91 10000 1.95 334 22:44 26.04.2022
2416 Clouds 4 1022 90 10000 2.14 333 21:57 26.04.2022
2417 Clouds 4 1021 89 10000 2.26 332 20:58 26.04.2022
2418 Clouds 4 1021 89 10000 2.26 332 20:36 26.04.2022
2419 Clouds 5 1018 89 10000 2.05 326 19:35 26.04.2022
2420 Clouds 6 1017 92 10000 2.43 326 18:53 26.04.2022
2421 Clouds 7 1017 97 6691 2.87 330 18:20 26.04.2022
2422 Clouds 7 1017 97 6691 2.87 330 17:34 26.04.2022
2423 Clouds 5 1016 98 37 2.47 331 14:58 26.04.2022
2424 Rain 5 1015 74 85 2.55 333 13:34 26.04.2022
2425 Rain 4 1014 80 178 2.17 326 12:35 26.04.2022
2426 Clouds 4 1013 98 678 1.37 309 10:57 26.04.2022
2427 Clouds 6 1014 96 4746 1.1 301 10:29 26.04.2022
2428 Clouds 4 1015 93 10000 1.17 283 08:29 26.04.2022
2429 Clouds 1 1018 89 10000 1.3 265 04:38 26.04.2022
2430 Clouds 5 1017 90 10000 1.18 265 03:25 26.04.2022
2431 Clouds 3 1018 93 10000 1.03 264 00:39 26.04.2022
2432 Clouds 3 1016 93 10000 0.87 272 23:43 25.04.2022
2433 Clouds 4 1015 93 10000 1.2 319 21:44 25.04.2022
2434 Rain 4 1014 95 9888 1.47 325 20:49 25.04.2022
2435 Clouds 4 1012 99 4216 1.72 329 19:39 25.04.2022
2436 Clouds 4 1011 99 43 1.87 334 18:25 25.04.2022
2437 Rain 4 1011 99 43 1.87 334 17:39 25.04.2022
2438 Clouds 7 1010 82 28 1.85 341 15:51 25.04.2022
2439 Rain 5 1010 99 27 1.82 335 15:18 25.04.2022
2440 Rain 6 1010 99 25 1.3 329 13:59 25.04.2022
2441 Clouds 7 1008 85 25 1.44 331 12:22 25.04.2022
2442 Rain 4 1009 93 574 1.12 299 10:29 25.04.2022
2443 Rain 3 1009 94 3787 0.97 308 09:23 25.04.2022
2444 Snow 2 1009 94 5593 1.46 326 07:34 25.04.2022
2445 Rain 3 1008 95 1850 1.76 326 05:53 25.04.2022
2446 Rain 3 1009 93 3230 1.89 287 01:24 25.04.2022
2447 Rain 3 1008 93 6325 1.35 274 23:54 24.04.2022
2448 Rain 3 1008 91 709 1.7 280 22:53 24.04.2022
2449 Rain 3 1008 90 709 1.7 280 22:32 24.04.2022
2450 Rain 3 1008 90 709 1.7 280 22:32 24.04.2022
2451 Rain 3 1007 89 274 1.21 288 21:54 24.04.2022
2452 Rain 4 1007 87 221 1.24 297 21:20 24.04.2022
2453 Rain 4 1007 81 221 1.24 297 20:38 24.04.2022
2454 Rain 4 1005 99 110 0.95 304 19:50 24.04.2022
2455 Rain 3 1004 100 113 0.95 305 18:28 24.04.2022
2456 Rain 3 1004 100 113 0.95 305 17:40 24.04.2022
2457 Rain 3 1003 100 157 0.65 293 17:19 24.04.2022
2458 Clouds 3 1003 100 157 0.65 293 16:48 24.04.2022
2459 Clouds 3 1003 99 407 0.56 248 16:20 24.04.2022
2460 Clouds 4 1003 99 407 0.56 248 15:31 24.04.2022
2461 Clouds 6 1003 96 1699 1.08 212 14:30 24.04.2022
2462 Clouds 4 1003 95 4166 1.49 190 13:26 24.04.2022
2463 Clouds 4 1003 95 4166 1.49 190 13:26 24.04.2022
2464 Clouds 5 1003 95 4208 1.48 190 12:35 24.04.2022
2465 Clouds 5 1003 94 4968 1.71 180 11:39 24.04.2022
2466 Clouds 5 1003 93 10000 2.16 168 10:30 24.04.2022
2467 Clouds 4 1002 90 10000 2.19 168 09:29 24.04.2022
2468 Snow 1 1004 94 8057 2.88 166 07:31 24.04.2022
2469 Snow 1 1004 95 9848 3.59 160 04:44 24.04.2022
2470 Rain 3 1003 85 5130 4.28 168 01:39 24.04.2022
2471 Rain 4 1001 93 179 4.26 170 00:30 24.04.2022
2472 Rain 4 999 91 375 3.01 152 23:45 23.04.2022
2473 Rain 3 1001 96 1512 3.25 149 23:22 23.04.2022
2474 Rain 4 1002 96 6694 4.69 155 21:53 23.04.2022
2475 Rain 4 1002 96 6694 4.69 155 21:34 23.04.2022
2476 Rain 3 1003 96 4955 4.39 158 20:57 23.04.2022
2477 Rain 3 1002 97 811 4.8 151 19:48 23.04.2022
2478 Rain 4 1002 98 245 4.78 156 19:19 23.04.2022
2479 Rain 4 1002 98 245 4.78 156 18:52 23.04.2022
2480 Rain 4 1002 97 1228 4.52 150 17:51 23.04.2022
2481 Rain 4 1002 97 1228 4.52 150 17:30 23.04.2022
2482 Rain 5 1003 97 2187 4.13 151 16:42 23.04.2022
2483 Rain 4 1003 98 163 4.27 155 15:28 23.04.2022
2484 Rain 5 1003 98 58 4.39 156 12:44 23.04.2022
2485 Rain 6 1003 88 110 4.29 153 10:44 23.04.2022
2486 Rain 7 1003 86 53 3.71 156 09:38 23.04.2022
2487 Rain 6 1002 89 42 3.32 149 06:41 23.04.2022
2488 Clouds 6 1003 88 350 3 150 03:54 23.04.2022
2489 Clouds 7 1003 80 2235 2.51 165 01:20 23.04.2022
2490 Clouds 7 1002 76 4663 2.56 168 23:30 22.04.2022
2491 Clouds 8 1002 72 10000 2.13 166 22:20 22.04.2022
2492 Clouds 8 1002 72 10000 2.13 166 21:43 22.04.2022
2493 Clouds 9 1001 94 10000 1.26 170 20:47 22.04.2022
2494 Clouds 9 1000 93 10000 0.32 155 20:27 22.04.2022
2495 Clouds 10 999 88 10000 0.17 19 19:20 22.04.2022
2496 Clouds 10 999 88 10000 0.17 19 18:42 22.04.2022
2497 Clouds 11 999 81 10000 0.64 347 17:41 22.04.2022
2498 Clouds 10 998 77 9916 0.75 342 16:46 22.04.2022
2499 Clouds 10 998 75 10000 0.79 334 15:42 22.04.2022
2500 Clouds 12 998 75 10000 0.74 328 14:46 22.04.2022
2501 Clouds 11 998 75 10000 1.26 328 13:50 22.04.2022
2502 Clouds 11 998 78 10000 1.27 325 12:58 22.04.2022
2503 Clouds 10 998 81 10000 1.05 309 11:50 22.04.2022
2504 Clouds 9 998 82 10000 0.79 282 11:21 22.04.2022
2505 Clouds 9 998 82 10000 0.79 282 10:50 22.04.2022
2506 Clouds 9 998 66 10000 0.79 282 10:30 22.04.2022
2507 Clouds 7 999 73 10000 0.41 225 09:50 22.04.2022
2508 Clouds 5 999 81 10000 0.6 226 08:50 22.04.2022
2509 Clouds 2 1002 80 10000 1.46 208 06:58 22.04.2022
2510 Clouds 3 1005 76 10000 1.98 188 02:45 22.04.2022
2511 Clouds 3 1006 75 10000 2.5 174 00:51 22.04.2022
2512 Clouds 4 1006 74 10000 3.12 163 23:24 21.04.2022
2513 Clouds 4 1007 72 10000 3.17 163 22:27 21.04.2022
2514 Clouds 7 1006 59 10000 2.87 161 20:36 21.04.2022
2515 Clouds 7 1006 59 10000 2.87 161 20:36 21.04.2022
2516 Clouds 7 1005 86 10000 2.48 157 20:18 21.04.2022
2517 Clouds 8 1005 82 10000 2.28 161 18:35 21.04.2022
2518 Clouds 8 1005 81 10000 2.48 156 17:57 21.04.2022
2519 Clouds 10 1005 82 10000 2.23 157 16:35 21.04.2022
2520 Clouds 8 1006 84 10000 2.7 159 15:21 21.04.2022
2521 Clouds 9 1006 84 10000 2.7 159 14:47 21.04.2022
2522 Clouds 9 1007 89 10000 2.82 163 13:23 21.04.2022
2523 Clouds 10 1007 89 10000 2.82 163 12:53 21.04.2022
2524 Clouds 5 1007 90 10000 2.22 162 10:47 21.04.2022
2525 Clouds 6 1008 76 10000 2.35 168 08:55 21.04.2022
2526 Clouds 2 1009 85 10000 1.88 173 07:24 21.04.2022
2527 Clouds 3 1009 84 10000 1.95 178 05:42 21.04.2022
2528 Clouds 4 1011 84 10000 2.75 179 03:28 21.04.2022
2529 Clouds 4 1011 84 10000 2.75 179 02:47 21.04.2022
2530 Clouds 4 1011 84 10000 2.75 179 02:47 21.04.2022
2531 Clouds 4 1011 81 10000 2.92 181 00:45 21.04.2022
2532 Clouds 5 1011 80 9540 2.61 174 23:50 20.04.2022
2533 Clouds 6 1011 78 9423 2.47 168 23:22 20.04.2022
2534 Clouds 6 1011 77 9423 2.47 168 22:49 20.04.2022
2535 Clouds 7 1011 75 9423 2.47 168 22:30 20.04.2022
2536 Clouds 7 1010 94 9747 1.55 163 21:27 20.04.2022
2537 Clouds 8 1009 93 10000 0.97 154 20:23 20.04.2022
2538 Clouds 9 1009 92 10000 1.15 159 19:52 20.04.2022
2539 Clouds 9 1009 88 10000 0.63 169 19:20 20.04.2022
2540 Clouds 10 1008 86 10000 0.5 146 17:56 20.04.2022
2541 Clouds 10 1008 85 8055 0.61 172 16:48 20.04.2022
2542 Clouds 10 1008 85 8055 0.61 172 16:30 20.04.2022
2543 Clouds 9 1009 81 10000 2.12 177 13:51 20.04.2022
2544 Clouds 9 1009 84 10000 2.45 178 11:47 20.04.2022
2545 Clouds 8 1010 86 10000 2.27 173 11:21 20.04.2022
2546 Clouds 5 1010 87 10000 2.03 173 10:19 20.04.2022
2547 Clouds 7 1010 85 10000 1.82 176 09:25 20.04.2022
2548 Clouds 4 1010 78 10000 1.66 184 08:22 20.04.2022
2549 Clouds 4 1010 78 10000 1.66 184 08:22 20.04.2022
2550 Clouds 3 1010 76 10000 1.66 184 07:32 20.04.2022
2551 Clouds 3 1012 73 10000 0.45 19 03:38 20.04.2022
2552 Clouds 4 1012 90 10000 1.43 340 00:23 20.04.2022
2553 Clouds 5 1012 90 10000 1.43 340 23:41 19.04.2022
2554 Clouds 6 1012 88 10000 2.04 340 22:26 19.04.2022
2555 Clouds 6 1012 88 10000 2.04 340 21:57 19.04.2022
2556 Clouds 7 1012 86 10000 2.48 343 21:24 19.04.2022
2557 Clouds 10 1012 86 10000 2.48 343 20:45 19.04.2022
2558 Clouds 10 1010 83 10000 2.91 345 19:57 19.04.2022
2559 Clouds 11 1008 75 10000 3.13 345 18:49 19.04.2022
2560 Clouds 11 1008 66 10000 3.36 347 17:40 19.04.2022
2561 Clouds 13 1008 64 10000 3.37 347 16:43 19.04.2022
2562 Clouds 12 1008 64 10000 3.32 344 16:23 19.04.2022
2563 Clouds 12 1009 67 10000 3.26 342 14:50 19.04.2022
2564 Clear 10 1009 71 10000 3.29 342 13:54 19.04.2022
2565 Clear 11 1010 75 10000 3.28 342 12:50 19.04.2022
2566 Clear 9 1010 79 10000 3.24 342 12:20 19.04.2022
2567 Clear 8 1011 80 10000 3.21 338 10:46 19.04.2022
2568 Clear 6 1012 63 10000 2.72 331 09:22 19.04.2022
2569 Clear 0 1015 78 10000 1.64 309 05:56 19.04.2022
2570 Clear 1 1015 77 10000 1.36 307 03:37 19.04.2022
2571 Clear 3 1017 73 10000 1.52 314 00:55 19.04.2022
2572 Clear 1 1017 86 10000 1.6 310 23:31 18.04.2022
2573 Clear 4 1018 87 10000 1.79 315 21:30 18.04.2022
2574 Clear 5 1017 86 10000 2.09 324 20:56 18.04.2022
2575 Clear 5 1017 88 10000 2.21 324 20:32 18.04.2022
2576 Clear 7 1015 86 10000 2.8 336 19:51 18.04.2022
2577 Clear 10 1013 81 10000 3.13 338 18:57 18.04.2022
2578 Clear 10 1012 73 10000 3.39 338 17:58 18.04.2022
2579 Clear 10 1012 73 10000 3.39 338 17:34 18.04.2022
2580 Clear 10 1012 71 10000 3.36 340 16:59 18.04.2022
2581 Clear 9 1012 71 10000 3.36 340 16:32 18.04.2022
2582 Clear 11 1013 73 10000 3.07 342 14:59 18.04.2022
2583 Clear 11 1013 77 10000 2.96 343 13:39 18.04.2022
2584 Clear 10 1014 83 10000 2.74 342 12:32 18.04.2022
2585 Clear 7 1014 87 10000 2.48 339 11:35 18.04.2022
2586 Clear 8 1014 87 10000 2.13 337 10:32 18.04.2022
2587 Clear 6 1015 64 10000 1.82 337 09:31 18.04.2022
2588 Clear 1 1017 79 10000 0.9 298 07:54 18.04.2022
2589 Clear 1 1019 81 10000 1.4 217 05:41 18.04.2022
2590 Clouds 2 1021 79 10000 1.79 194 00:47 18.04.2022
2591 Clouds 4 1022 81 10000 0.43 187 22:41 17.04.2022
2592 Clouds 5 1022 84 10000 0.23 322 21:46 17.04.2022
2593 Clouds 4 1022 88 10000 0.66 308 21:24 17.04.2022
2594 Clouds 6 1022 88 10000 0.66 308 20:36 17.04.2022
2595 Clouds 7 1019 88 10000 1.42 352 19:38 17.04.2022
2596 Clouds 8 1018 82 10000 2.72 354 17:48 17.04.2022
2597 Clouds 7 1017 79 10000 2.85 355 15:40 17.04.2022
2598 Clouds 6 1017 77 10000 2.65 358 14:55 17.04.2022
2599 Clear 5 1018 76 10000 2.38 9 14:19 17.04.2022
2600 Clear 7 1018 76 10000 2.38 22 12:58 17.04.2022
2601 Clear 6 1019 75 10000 2.3 31 12:27 17.04.2022
2602 Clear 7 1019 61 10000 2.14 41 10:46 17.04.2022
2603 Clear 6 1019 65 10000 1.71 48 10:28 17.04.2022
2604 Clear 4 1019 73 10000 1.71 48 09:34 17.04.2022
2605 Clear 2 1021 77 10000 1.06 61 08:51 17.04.2022
2606 Clear -1 1022 83 10000 0.97 73 07:30 17.04.2022
2607 Clouds -1 1025 84 10000 0.88 94 04:29 17.04.2022
2608 Clouds 3 1027 67 10000 0.69 103 00:55 17.04.2022
2609 Clouds 3 1027 79 10000 0.52 76 23:52 16.04.2022
2610 Clouds 4 1027 89 10000 0.98 36 22:35 16.04.2022
2611 Clouds 5 1027 92 9447 1.91 22 21:38 16.04.2022
2612 Clouds 5 1027 93 9583 2.39 18 20:32 16.04.2022
2613 Clouds 7 1023 86 10000 3.37 2 18:59 16.04.2022
2614 Clouds 8 1023 83 10000 3.51 357 17:52 16.04.2022
2615 Clouds 9 1022 82 10000 3.58 355 16:40 16.04.2022
2616 Clouds 6 1022 82 10000 3.32 355 15:45 16.04.2022
2617 Clouds 7 1023 85 10000 3.53 353 14:56 16.04.2022
2618 Clouds 6 1022 88 10000 3.71 355 13:58 16.04.2022
2619 Clouds 6 1022 87 10000 3.71 0 13:37 16.04.2022
2620 Clouds 6 1022 92 7900 3.54 351 12:26 16.04.2022
2621 Clouds 6 1022 95 6998 3.15 350 10:50 16.04.2022
2622 Clouds 8 1022 96 8895 2.98 353 09:56 16.04.2022
2623 Clouds 7 1023 96 10000 2.72 355 08:57 16.04.2022
2624 Clouds 6 1023 93 10000 2.84 355 07:52 16.04.2022
2625 Clouds 6 1022 89 10000 2.95 354 06:58 16.04.2022
2626 Clouds 7 1023 87 10000 2.55 355 02:46 16.04.2022
2627 Clouds 7 1024 84 10000 2.07 353 00:30 16.04.2022
2628 Clouds 8 1024 82 10000 2.6 350 23:21 15.04.2022
2629 Clouds 10 1024 96 10000 2.6 350 22:32 15.04.2022
2630 Clouds 11 1024 96 10000 2.38 338 21:50 15.04.2022
2631 Clouds 11 1025 97 3411 2.25 337 21:18 15.04.2022
2632 Clouds 12 1024 96 3495 2.53 338 20:22 15.04.2022
2633 Clouds 12 1024 96 3495 2.53 338 19:40 15.04.2022
2634 Clouds 12 1023 95 5019 2.33 336 18:54 15.04.2022
2635 Clouds 12 1022 91 7074 2.47 339 18:25 15.04.2022
2636 Clouds 12 1022 91 7074 2.47 339 17:34 15.04.2022
2637 Clouds 13 1022 89 9749 2.64 339 16:37 15.04.2022
2638 Clouds 13 1022 89 10000 2.32 337 16:18 15.04.2022
2639 Clouds 13 1022 91 10000 2.21 339 14:51 15.04.2022
2640 Clouds 12 1023 95 3804 2.23 345 13:40 15.04.2022
2641 Clouds 11 1023 96 2936 2.22 351 12:40 15.04.2022
2642 Clouds 10 1023 97 2837 2.28 352 11:56 15.04.2022
2643 Clouds 8 1023 97 2837 2.28 352 11:30 15.04.2022
2644 Clouds 9 1023 98 110 2.17 348 10:40 15.04.2022
2645 Clouds 10 1023 98 587 2.15 342 09:44 15.04.2022
2646 Clouds 9 1023 98 156 1.79 332 09:19 15.04.2022
2647 Clouds 5 1024 84 10000 1.33 327 07:28 15.04.2022
2648 Clouds 6 1024 84 10000 1.35 318 06:28 15.04.2022
2649 Clouds 7 1023 81 10000 1.16 310 02:39 15.04.2022
2650 Clouds 8 1023 81 10000 0.59 306 23:31 14.04.2022
2651 Clouds 9 1023 79 10000 0.42 282 22:49 14.04.2022
2652 Clouds 9 1023 79 10000 0.57 250 22:29 14.04.2022
2653 Clouds 9 1023 79 10000 0.57 250 21:59 14.04.2022
2654 Clouds 13 1022 79 10000 0.49 216 20:37 14.04.2022
2655 Clouds 14 1020 80 10000 0.91 196 19:23 14.04.2022
2656 Clouds 16 1020 73 9976 1.26 188 18:22 14.04.2022
2657 Clouds 15 1020 73 9976 1.26 188 17:38 14.04.2022
2658 Clouds 16 1019 66 9828 1.46 190 16:36 14.04.2022
2659 Clouds 15 1019 63 9762 1.72 189 15:24 14.04.2022
2660 Clouds 12 1019 64 9745 1.54 188 13:46 14.04.2022
2661 Clouds 12 1019 65 9746 1.17 191 12:56 14.04.2022
2662 Clouds 11 1019 65 9746 1.17 191 12:31 14.04.2022
2663 Clouds 11 1020 79 9772 1.36 174 11:29 14.04.2022
2664 Clouds 11 1020 79 9772 1.36 174 10:52 14.04.2022
2665 Clouds 8 1020 81 10000 0.95 186 10:26 14.04.2022
2666 Clouds 9 1020 62 10000 0.74 236 08:54 14.04.2022
2667 Clouds 5 1021 67 10000 1.69 196 06:53 14.04.2022
2668 Clouds 6 1021 74 10000 2.23 190 03:32 14.04.2022
2669 Clouds 5 1022 87 10000 2.68 183 23:26 13.04.2022
2670 Clouds 7 1021 86 10000 2.72 179 22:20 13.04.2022
2671 Clouds 8 1021 86 10000 2.72 179 21:36 13.04.2022
2672 Clouds 12 1019 82 10000 2.89 168 20:23 13.04.2022
2673 Clouds 13 1019 81 10000 2.75 168 19:37 13.04.2022
2674 Clouds 15 1018 84 10000 2.9 162 18:36 13.04.2022
2675 Clouds 15 1017 74 9922 2.96 161 17:24 13.04.2022
2676 Clouds 15 1017 74 9922 2.96 161 16:37 13.04.2022
2677 Clouds 14 1017 74 9821 2.89 163 15:41 13.04.2022
2678 Clouds 13 1017 76 9789 2.79 165 14:51 13.04.2022
2679 Clouds 13 1017 79 9789 2.7 167 14:28 13.04.2022
2680 Clouds 12 1017 82 9765 2.34 170 13:29 13.04.2022
2681 Clouds 11 1018 85 10000 2.11 171 12:27 13.04.2022
2682 Clouds 10 1018 89 10000 2.19 175 10:55 13.04.2022
2683 Clouds 5 1017 91 10000 2.19 169 09:44 13.04.2022
2684 Clouds 8 1017 63 10000 2.01 170 08:43 13.04.2022
2685 Clouds 5 1018 72 10000 1.84 176 06:52 13.04.2022
2686 Clouds 5 1018 71 10000 1.91 181 06:26 13.04.2022
2687 Clouds 6 1018 71 10000 1.91 181 05:52 13.04.2022
2688 Clouds 5 1020 84 10000 2.84 174 00:23 13.04.2022
2689 Clouds 5 1020 84 10000 2.84 174 23:46 12.04.2022
2690 Clouds 7 1020 85 10000 2.94 174 22:19 12.04.2022
2691 Clouds 7 1019 84 10000 3.1 171 21:29 12.04.2022
2692 Clouds 8 1019 84 10000 3.1 171 20:41 12.04.2022
2693 Clouds 11 1017 84 10000 3.25 166 19:50 12.04.2022
2694 Clouds 12 1017 84 10000 3.25 166 19:31 12.04.2022
2695 Clouds 13 1017 88 10000 3.37 164 18:31 12.04.2022
2696 Clouds 13 1016 85 8685 3.52 168 17:28 12.04.2022
2697 Clouds 13 1016 85 7798 3.56 171 16:23 12.04.2022
2698 Clouds 13 1016 85 7798 3.56 171 15:33 12.04.2022
2699 Clouds 12 1017 89 3243 3.38 172 14:29 12.04.2022
2700 Clouds 13 1017 89 3232 3.31 174 13:37 12.04.2022
2701 Clouds 11 1017 92 2998 3.28 174 12:52 12.04.2022
2702 Clouds 9 1017 94 3453 3.16 173 11:47 12.04.2022
2703 Clouds 6 1017 95 7848 3.21 174 10:47 12.04.2022
2704 Clouds 0 1018 80 10000 3.03 176 09:24 12.04.2022
2705 Clouds 2 1020 71 10000 2.79 184 07:56 12.04.2022
2706 Clouds -2 1021 79 10000 2.77 188 06:32 12.04.2022
2707 Clouds -2 1021 79 10000 2.77 188 06:32 12.04.2022
2708 Clouds -1 1021 80 10000 2.85 184 05:34 12.04.2022
2709 Clouds 0 1024 87 10000 3.07 185 00:46 12.04.2022
2710 Clouds 3 1024 88 10000 3.36 183 22:47 11.04.2022
2711 Clouds 3 1023 87 10000 3.58 182 21:41 11.04.2022
2712 Clouds 5 1022 85 10000 3.63 177 20:57 11.04.2022
2713 Clouds 5 1020 85 10000 3.78 172 20:29 11.04.2022
2714 Clouds 5 1020 85 10000 3.73 172 19:55 11.04.2022
2715 Clouds 7 1018 86 10000 3.74 169 19:18 11.04.2022
2716 Clouds 7 1018 86 10000 3.74 169 18:47 11.04.2022
2717 Clouds 7 1018 93 6548 3.7 170 17:57 11.04.2022
2718 Clouds 9 1018 94 3169 3.65 173 16:54 11.04.2022
2719 Clouds 8 1018 93 2955 3.66 171 15:56 11.04.2022
2720 Clouds 9 1018 94 5803 3.49 170 14:24 11.04.2022
2721 Clouds 7 1019 93 8044 3.32 175 12:52 11.04.2022
2722 Clouds 7 1019 93 8044 3.32 175 12:32 11.04.2022
2723 Clouds 5 1019 92 10000 3.25 175 11:33 11.04.2022
2724 Clouds 4 1019 78 10000 3.28 176 10:28 11.04.2022
2725 Clouds 4 1020 70 10000 3.09 180 09:20 11.04.2022
2726 Clouds -4 1025 66 10000 2.6 197 06:24 11.04.2022
2727 Clouds -5 1026 64 10000 2.22 209 01:53 11.04.2022
2728 Clouds -4 1027 72 10000 1.52 217 22:37 10.04.2022
2729 Clouds -1 1027 81 10000 1.21 220 21:55 10.04.2022
2730 Clear -2 1026 84 10000 0.73 239 21:29 10.04.2022
2731 Clear 0 1026 84 10000 0.73 239 20:30 10.04.2022
2732 Clouds 3 1024 84 10000 0.38 327 19:43 10.04.2022
2733 Clouds 4 1020 81 10000 1.35 355 19:18 10.04.2022
2734 Clouds 4 1020 81 10000 1.35 355 18:41 10.04.2022
2735 Clouds 5 1020 73 10000 1.83 341 17:52 10.04.2022
2736 Clouds 5 1020 73 10000 1.83 341 17:32 10.04.2022
2737 Clouds 4 1020 76 10000 2.45 339 15:56 10.04.2022
2738 Clouds 3 1020 76 10000 2.46 337 14:59 10.04.2022
2739 Clouds 4 1021 76 10000 2.4 340 13:54 10.04.2022
2740 Clouds 3 1022 73 10000 2.41 341 12:33 10.04.2022
2741 Clouds 1 1022 71 10000 2.55 339 11:46 10.04.2022
2742 Clouds 1 1022 70 10000 2.77 347 11:28 10.04.2022
2743 Clouds 1 1022 72 10000 2.77 347 10:41 10.04.2022
2744 Clouds -1 1023 87 10000 2.82 347 09:49 10.04.2022
2745 Clouds -3 1024 90 10000 2.11 334 08:55 10.04.2022
2746 Clouds -5 1026 91 10000 1.62 319 08:20 10.04.2022
2747 Clouds -5 1027 94 10000 1.69 318 06:59 10.04.2022
2748 Clouds -5 1026 94 8925 2.19 315 04:42 10.04.2022
2749 Snow -4 1025 93 7427 2.72 305 02:20 10.04.2022
2750 Clouds -4 1025 93 7117 2.42 316 23:54 09.04.2022
2751 Clouds -4 1024 93 6244 2.68 321 23:25 09.04.2022
2752 Clouds -4 1024 93 6244 2.68 321 22:39 09.04.2022
2753 Clouds -3 1023 94 5728 2.88 327 21:31 09.04.2022
2754 Clouds -3 1023 95 5448 2.84 326 20:35 09.04.2022
2755 Clouds -3 1021 94 7523 3.31 333 19:59 09.04.2022
2756 Clouds -3 1020 94 8020 3.34 336 19:41 09.04.2022
2757 Snow -1 1015 62 7276 5.05 343 18:24 09.04.2022
2758 Snow 0 1015 81 7276 5.05 343 17:52 09.04.2022
2759 Snow -2 1014 81 6642 5.46 344 16:59 09.04.2022
2760 Snow -1 1014 81 6642 5.46 344 16:40 09.04.2022
2761 Snow 1 1013 80 7083 5.51 344 15:51 09.04.2022
2762 Snow -2 1013 80 7603 5.58 346 15:26 09.04.2022
2763 Snow 0 1013 82 6205 5.52 348 14:26 09.04.2022
2764 Snow 1 1012 75 10000 5.61 342 13:34 09.04.2022
2765 Snow 0 1012 70 9621 5.33 344 12:57 09.04.2022
2766 Snow 0 1012 73 7512 5.06 344 11:51 09.04.2022
2767 Snow -1 1012 74 8654 5.09 343 10:52 09.04.2022
2768 Snow -1 1012 72 8468 5.16 340 10:18 09.04.2022
2769 Snow -1 1012 74 7877 5.16 336 09:23 09.04.2022
2770 Snow -1 1010 80 5009 5.28 336 08:26 09.04.2022
2771 Snow 1 1005 95 4280 4.58 320 05:21 09.04.2022
2772 Clouds 3 1002 77 10000 3.24 225 00:35 09.04.2022
2773 Clouds 5 1002 85 10000 3.3 210 23:24 08.04.2022
2774 Clouds 6 1003 92 10000 3.31 221 21:53 08.04.2022
2775 Clouds 6 1001 76 7840 2.98 230 20:44 08.04.2022
2776 Clouds 4 1001 99 84 2.78 251 19:57 08.04.2022
2777 Clouds 4 999 100 39 1.9 205 18:59 08.04.2022
2778 Clouds 4 1000 100 34 1.43 237 18:24 08.04.2022
2779 Clouds 5 1001 99 32 2.19 253 17:29 08.04.2022
2780 Clouds 5 1001 99 32 2.19 253 16:58 08.04.2022
2781 Clouds 6 1001 99 32 2.19 253 16:31 08.04.2022
2782 Clouds 7 1000 98 31 2.7 239 15:37 08.04.2022
2783 Clouds 7 1000 98 30 2.61 211 14:52 08.04.2022
2784 Rain 7 1001 98 29 2.26 206 14:21 08.04.2022
2785 Rain 6 1000 97 32 2.31 213 13:36 08.04.2022
2786 Clouds 5 1001 97 25 2.01 206 13:18 08.04.2022
2787 Clouds 7 1002 87 28 1.28 218 11:41 08.04.2022
2788 Clouds 4 1003 88 6288 1.84 215 10:20 08.04.2022
2789 Clouds 4 1004 91 10000 1.73 231 09:20 08.04.2022
2790 Clouds 2 1006 94 10000 1.26 268 07:44 08.04.2022
2791 Clouds 3 1007 95 9711 1.88 303 06:46 08.04.2022
2792 Rain 4 1006 96 4369 2.74 306 03:35 08.04.2022
2793 Rain 3 1006 98 2162 2.41 273 00:31 08.04.2022
2794 Rain 3 1006 98 1564 2.52 255 23:52 07.04.2022
2795 Clouds 3 1005 94 216 2.24 242 22:55 07.04.2022
2796 Rain 3 1005 94 216 2.24 242 22:36 07.04.2022
2797 Rain 3 1005 94 176 2.27 234 22:18 07.04.2022
2798 Rain 3 1005 93 176 2.27 234 21:30 07.04.2022
2799 Rain 3 1005 93 154 2.09 209 20:56 07.04.2022
2800 Rain 4 1004 93 119 1.9 238 20:26 07.04.2022
2801 Rain 4 1004 87 150 1.62 206 17:45 07.04.2022
2802 Rain 4 1004 85 178 2.33 218 17:23 07.04.2022
2803 Rain 5 1004 79 178 2.33 218 16:42 07.04.2022
2804 Rain 5 1004 77 250 2.33 204 15:56 07.04.2022
2805 Rain 6 1004 70 122 2.39 229 14:28 07.04.2022
2806 Rain 5 1003 97 110 2.35 228 13:41 07.04.2022
2807 Rain 3 1003 96 2717 2.04 221 12:28 07.04.2022
2808 Clouds 6 1004 95 8101 1.9 209 10:56 07.04.2022
2809 Clouds 4 1005 90 10000 1.53 234 09:34 07.04.2022
2810 Clouds 2 1007 94 10000 1.34 277 08:27 07.04.2022
2811 Clouds 2 1007 92 6263 2.42 314 06:18 07.04.2022
2812 Clouds 3 1007 92 6826 2.55 318 02:38 07.04.2022
2813 Rain 3 1007 93 706 1.5 296 01:27 07.04.2022
2814 Clouds 3 1007 92 223 1.23 281 23:53 06.04.2022
2815 Clouds 4 1007 91 98 1.05 268 22:45 06.04.2022
2816 Clouds 4 1007 91 50 1.09 270 22:24 06.04.2022
2817 Rain 5 1007 87 60 0.8 265 21:18 06.04.2022
2818 Clouds 5 1006 98 63 0.75 264 20:27 06.04.2022
2819 Rain 5 1006 98 63 0.75 264 19:52 06.04.2022
2820 Clouds 6 1006 98 65 0.75 257 18:50 06.04.2022
2821 Rain 7 1006 98 68 0.93 227 17:51 06.04.2022
2822 Clouds 9 1006 97 68 1.17 209 17:21 06.04.2022
2823 Clouds 10 1006 97 68 1.17 209 16:34 06.04.2022
2824 Clouds 10 1006 97 58 1.49 192 15:46 06.04.2022
2825 Clouds 9 1007 98 57 1.71 171 14:20 06.04.2022
2826 Clouds 8 1008 98 3875 2.18 173 12:58 06.04.2022
2827 Clouds 8 1009 98 98 2.03 171 11:54 06.04.2022
2828 Clouds 5 1009 98 165 1.62 172 10:43 06.04.2022
2829 Clouds 6 1009 98 10000 1.73 177 10:19 06.04.2022
2830 Clouds 5 1010 78 10000 1.73 183 09:27 06.04.2022
2831 Clouds 1 1013 87 10000 1.47 209 08:26 06.04.2022
2832 Clouds 0 1013 90 10000 1.47 209 07:38 06.04.2022
2833 Clouds 0 1015 91 10000 0.83 272 02:57 06.04.2022
2834 Clouds 4 1015 88 10000 1.35 323 23:51 05.04.2022
2835 Clouds 4 1015 86 10000 1.48 324 22:28 05.04.2022
2836 Clouds 4 1015 83 10000 1.59 326 21:18 05.04.2022
2837 Clouds 6 1014 80 10000 1.66 328 20:25 05.04.2022
2838 Clouds 6 1012 93 10000 1.61 334 18:56 05.04.2022
2839 Clouds 8 1012 97 3325 1.69 334 17:31 05.04.2022
2840 Clouds 8 1012 98 1504 1.92 332 16:47 05.04.2022
2841 Clouds 6 1012 98 161 2.12 335 15:53 05.04.2022
2842 Clouds 6 1012 98 161 2.12 335 15:33 05.04.2022
2843 Clouds 7 1012 98 127 2.3 332 14:22 05.04.2022
2844 Clouds 4 1012 85 1091 2.28 333 12:56 05.04.2022
2845 Clouds 2 1013 92 2929 2.14 329 11:50 05.04.2022
2846 Snow 1 1013 91 2929 2.14 329 11:32 05.04.2022
2847 Clouds 1 1014 85 10000 2.61 328 09:49 05.04.2022
2848 Clouds 0 1015 82 10000 2.37 320 08:52 05.04.2022
2849 Snow -1 1019 62 10000 2 303 06:52 05.04.2022
2850 Clouds -3 1022 73 10000 1.68 284 00:41 05.04.2022
2851 Clouds -4 1022 92 10000 1.63 281 22:41 04.04.2022
2852 Clouds -3 1022 93 10000 1.81 291 22:19 04.04.2022
2853 Clouds -3 1021 93 10000 1.84 292 21:21 04.04.2022
2854 Clouds -2 1021 93 10000 1.84 292 20:49 04.04.2022
2855 Clouds 0 1019 91 10000 1.27 280 19:44 04.04.2022
2856 Clouds 3 1015 87 10000 0.92 294 19:25 04.04.2022
2857 Clouds 4 1015 78 10000 0.97 303 17:55 04.04.2022
2858 Clouds 3 1014 75 10000 0.84 284 16:36 04.04.2022
2859 Clouds 3 1014 75 10000 0.84 284 16:36 04.04.2022
2860 Clouds 4 1015 74 10000 0.86 262 15:43 04.04.2022
2861 Clouds 4 1015 73 10000 0.92 242 15:25 04.04.2022
2862 Clouds 3 1015 73 10000 0.92 242 14:45 04.04.2022
2863 Clouds 1 1017 72 10000 1.08 221 13:22 04.04.2022
2864 Clear 1 1018 72 10000 1.38 206 11:55 04.04.2022
2865 Clear 0 1018 73 10000 1.34 208 11:28 04.04.2022
2866 Clouds -5 1020 80 10000 1.39 215 08:36 04.04.2022
2867 Clouds -7 1025 94 10000 1.76 221 04:18 04.04.2022
2868 Clouds -5 1025 95 10000 1.64 201 00:44 04.04.2022
2869 Clouds -5 1024 96 4006 0.84 190 22:40 03.04.2022
2870 Clouds -4 1023 96 1911 0.12 169 21:45 03.04.2022
2871 Clouds -4 1021 96 2312 0.9 359 20:54 03.04.2022
2872 Snow -2 1019 76 1880 1.8 353 19:49 03.04.2022
2873 Snow -1 1017 72 3079 1.7 5 18:32 03.04.2022
2874 Snow -1 1016 70 4786 1.74 15 17:47 03.04.2022
2875 Snow 0 1015 71 7153 1.72 24 16:57 03.04.2022
2876 Snow 0 1015 68 7153 1.72 24 16:39 03.04.2022
2877 Snow 0 1015 74 8632 1.76 37 14:48 03.04.2022
2878 Clouds -1 1016 75 10000 1.81 37 13:53 03.04.2022
2879 Clouds -2 1017 71 10000 1.76 44 12:42 03.04.2022
2880 Clouds -3 1018 79 10000 2.09 41 10:58 03.04.2022
2881 Clouds -5 1019 85 10000 2.02 36 09:38 03.04.2022
2882 Clouds -6 1020 89 10000 1.57 32 08:36 03.04.2022
2883 Clouds -7 1022 95 8094 1.12 349 05:38 03.04.2022
2884 Clouds -6 1020 95 7142 1.95 341 01:54 03.04.2022
2885 Snow -6 1016 94 7028 3.5 340 23:21 02.04.2022
2886 Snow -6 1016 94 7136 3.59 338 22:18 02.04.2022
2887 Snow -5 1016 94 7136 3.59 338 21:47 02.04.2022
2888 Snow -6 1015 94 6947 3.69 338 21:18 02.04.2022
2889 Snow -5 1012 94 7948 3.9 338 19:54 02.04.2022
2890 Snow -3 1008 68 6999 4.35 341 18:23 02.04.2022
2891 Snow -3 1008 66 6999 4.35 341 17:53 02.04.2022
2892 Snow -2 1006 71 6039 4.45 340 16:29 02.04.2022
2893 Snow -2 1006 68 5810 4.36 341 15:22 02.04.2022
2894 Snow -1 1006 67 5810 4.36 341 14:51 02.04.2022
2895 Snow -1 1005 68 6805 4.45 343 13:51 02.04.2022
2896 Snow -2 1005 66 7419 4.39 345 13:19 02.04.2022
2897 Clouds -3 1005 82 7786 4.21 346 11:33 02.04.2022
2898 Snow -5 1005 86 8234 4.08 343 09:31 02.04.2022
2899 Clouds -7 1005 94 6255 3.8 342 06:56 02.04.2022
2900 Clouds -6 1004 95 7111 3.14 346 03:55 02.04.2022
2901 Snow -5 1003 94 5095 3.04 354 00:19 02.04.2022
2902 Snow -5 1003 94 5095 3.04 354 23:40 01.04.2022
2903 Snow -4 1003 81 375 3.16 335 21:52 01.04.2022
2904 Snow -4 1002 83 208 3.21 329 20:52 01.04.2022
2905 Snow -3 1002 80 208 3.21 329 20:30 01.04.2022
2906 Snow -2 1000 70 961 3.42 352 19:37 01.04.2022
2907 Snow -2 999 69 333 3.37 348 18:52 01.04.2022
2908 Snow -2 998 71 441 3.82 353 17:59 01.04.2022
2909 Snow -2 998 70 441 3.82 353 17:35 01.04.2022
2910 Snow 0 997 75 676 3.9 354 15:43 01.04.2022
2911 Snow 1 996 85 541 3.47 355 14:39 01.04.2022
2912 Snow 0 997 90 2388 3.41 353 13:35 01.04.2022
2913 Snow 0 997 90 2686 3.28 349 12:33 01.04.2022
2914 Snow 0 997 90 2686 3.28 349 12:33 01.04.2022
2915 Snow 1 997 92 2165 3.25 347 11:44 01.04.2022
2916 Snow 0 997 93 362 3.12 343 10:19 01.04.2022
2917 Snow 0 996 93 447 3.09 343 09:29 01.04.2022
2918 Snow -1 995 93 489 2.96 343 06:55 01.04.2022
2919 Snow 0 995 92 2500 3.08 343 04:53 01.04.2022
2920 Snow 0 995 93 2500 3.08 343 04:34 01.04.2022
2921 Snow 1 996 90 4765 2.96 340 01:58 01.04.2022
2922 Snow 1 996 90 2849 3.09 340 00:44 01.04.2022
2923 Clouds 2 995 87 4728 2.7 334 21:55 31.03.2022
2924 Clouds 2 995 85 4728 2.7 334 21:33 31.03.2022
2925 Clouds 2 995 95 4960 2.78 334 20:30 31.03.2022
2926 Clouds 3 994 95 7945 2.92 333 19:50 31.03.2022
2927 Clouds 3 993 93 8377 2.89 337 18:51 31.03.2022
2928 Clouds 4 993 93 3570 2.87 339 17:50 31.03.2022
2929 Rain 4 993 77 497 3.03 337 16:40 31.03.2022
2930 Rain 3 993 97 106 2.93 339 15:48 31.03.2022
2931 Clouds 4 993 97 141 2.71 343 15:20 31.03.2022
2932 Clouds 4 993 97 141 2.71 343 14:40 31.03.2022
2933 Clouds 4 993 96 1183 2.52 350 12:30 31.03.2022
2934 Clouds 4 993 96 1183 2.52 350 12:30 31.03.2022
2935 Clouds 3 994 94 8439 2.46 350 11:26 31.03.2022
2936 Clouds 3 995 90 9264 2.36 348 09:50 31.03.2022
2937 Clouds 3 998 89 10000 1.54 344 08:23 31.03.2022
2938 Clouds 2 998 87 7807 1.28 329 05:42 31.03.2022
2939 Clouds 3 1001 95 10000 0.34 225 00:32 31.03.2022
2940 Clouds 3 1001 97 3530 0.99 181 22:45 30.03.2022
2941 Clouds 4 1002 97 2363 1.33 171 21:39 30.03.2022
2942 Clouds 4 1002 97 3851 1.43 167 20:55 30.03.2022
2943 Clouds 4 1001 97 4688 1.34 157 20:20 30.03.2022
2944 Clouds 4 1001 97 4688 1.34 157 19:35 30.03.2022
2945 Clouds 5 1001 97 2007 1.03 154 18:29 30.03.2022
2946 Clouds 5 1001 97 2007 1.03 154 17:48 30.03.2022
2947 Clouds 6 1001 98 469 1.15 161 16:57 30.03.2022
2948 Clouds 5 1001 98 469 1.15 161 16:38 30.03.2022
2949 Clouds 5 1002 100 62 1.5 160 15:24 30.03.2022
2950 Clouds 6 1003 100 48 1.47 162 13:44 30.03.2022
2951 Clouds 5 1003 100 68 1.47 161 12:57 30.03.2022
2952 Clouds 5 1004 71 124 1.69 166 11:34 30.03.2022
2953 Clouds 5 1004 71 124 1.69 166 11:34 30.03.2022
2954 Clouds 3 1005 97 817 2.16 171 10:28 30.03.2022
2955 Clouds 4 1006 72 7324 2.31 175 09:24 30.03.2022
2956 Clouds 3 1008 94 9917 2.5 184 07:33 30.03.2022
2957 Clouds 3 1010 93 10000 2.24 187 05:41 30.03.2022
2958 Clouds 3 1011 90 10000 2.33 187 03:59 30.03.2022
2959 Clouds 4 1013 90 10000 2.73 180 00:42 30.03.2022
2960 Clouds 6 1012 90 10000 2.45 186 22:28 29.03.2022
2961 Clouds 6 1012 90 10000 2.45 186 21:45 29.03.2022
2962 Clouds 8 1012 89 10000 2.39 186 20:53 29.03.2022
2963 Clouds 6 1011 85 10000 2.28 186 20:18 29.03.2022
2964 Clouds 7 1010 83 10000 2.16 178 18:55 29.03.2022
2965 Clouds 8 1010 93 10000 1.78 175 18:19 29.03.2022
2966 Clouds 11 1011 93 8972 1.56 185 17:22 29.03.2022
2967 Clouds 11 1011 93 8972 1.56 185 16:56 29.03.2022
2968 Clouds 11 1012 92 3199 1.46 188 15:57 29.03.2022
2969 Clouds 10 1012 93 3096 1.8 177 14:52 29.03.2022
2970 Clouds 11 1013 93 4599 2.23 177 13:56 29.03.2022
2971 Clouds 9 1014 92 9438 2.32 177 12:51 29.03.2022
2972 Clouds 8 1014 91 10000 2.27 171 11:43 29.03.2022
2973 Clouds 6 1015 86 10000 2.4 174 10:30 29.03.2022
2974 Clouds 5 1016 65 10000 2.38 170 09:41 29.03.2022
2975 Clouds 2 1021 71 10000 1.83 205 06:58 29.03.2022
2976 Clouds 2 1022 70 10000 1.84 205 03:54 29.03.2022
2977 Clouds 2 1025 67 10000 2.01 210 00:33 29.03.2022
2978 Clouds 2 1027 65 10000 1.97 210 23:22 28.03.2022
2979 Clouds 3 1027 65 10000 1.97 210 22:51 28.03.2022
2980 Clouds 3 1027 63 10000 2 212 22:23 28.03.2022
2981 Clouds 5 1026 62 10000 1.75 204 20:54 28.03.2022
2982 Clouds 6 1025 66 10000 1.56 200 20:20 28.03.2022
2983 Clouds 9 1025 66 10000 1.57 202 19:41 28.03.2022
2984 Clouds 11 1022 73 10000 1.25 195 18:56 28.03.2022
2985 Clouds 11 1022 73 10000 1.25 195 18:36 28.03.2022
2986 Clouds 12 1023 89 10000 1.23 199 17:38 28.03.2022
2987 Clouds 13 1024 92 2241 1.47 205 16:19 28.03.2022
2988 Clouds 10 1025 92 1650 1.41 191 14:27 28.03.2022
2989 Clouds 10 1025 92 1651 1.21 195 13:47 28.03.2022
2990 Clear 9 1025 92 6662 1.32 186 11:58 28.03.2022
2991 Clear 7 1026 92 10000 1.4 187 11:23 28.03.2022
2992 Clear 6 1027 50 10000 1.23 198 09:41 28.03.2022
2993 Clear 4 1029 52 10000 1.27 224 09:19 28.03.2022
2994 Clear -3 1033 47 10000 1.39 233 08:22 28.03.2022
2995 Clear -2 1034 45 10000 1.54 231 07:27 28.03.2022
2996 Clear 0 1035 53 10000 1.97 216 03:27 28.03.2022
2997 Clear 1 1036 57 10000 2.18 209 23:24 27.03.2022
2998 Clear 3 1035 59 10000 2.05 207 22:23 27.03.2022
2999 Clear 4 1035 59 10000 2.05 207 21:41 27.03.2022
3000 Clear 8 1034 62 10000 2.02 205 20:54 27.03.2022
3001 Clouds 11 1033 66 10000 1.89 195 19:46 27.03.2022
3002 Clouds 12 1029 72 10000 1.7 181 18:54 27.03.2022
3003 Clouds 12 1029 87 10000 1.49 180 18:26 27.03.2022
3004 Clouds 12 1029 87 10000 1.49 180 17:38 27.03.2022
3005 Clouds 11 1029 92 3094 1.76 186 15:59 27.03.2022
3006 Clouds 11 1029 92 3094 1.76 186 15:59 27.03.2022
3007 Clouds 10 1029 92 1649 1.99 183 14:55 27.03.2022
3008 Clouds 9 1028 92 1668 2.32 178 13:54 27.03.2022
3009 Clouds 9 1028 92 1668 2.32 178 13:54 27.03.2022
3010 Clear 7 1029 91 10000 2.79 174 11:52 27.03.2022
3011 Clear 1 1030 72 10000 2.89 174 10:28 27.03.2022
3012 Clear 4 1032 67 10000 2.46 184 08:36 27.03.2022
3013 Clear -3 1035 57 10000 2.36 193 05:45 27.03.2022
3014 Clear -3 1035 53 10000 2.33 188 00:47 27.03.2022
3015 Clear 1 1036 54 10000 2.3 188 23:30 26.03.2022
3016 Clear 2 1035 54 10000 2.47 190 22:29 26.03.2022
3017 Clear 2 1035 54 10000 2.47 190 21:32 26.03.2022
3018 Clear 4 1034 56 10000 2.6 188 20:20 26.03.2022
3019 Clouds 10 1032 62 10000 2.6 179 18:59 26.03.2022
3020 Clouds 11 1028 68 10000 2.37 167 17:46 26.03.2022
3021 Clouds 13 1027 80 10000 2.12 159 17:28 26.03.2022
3022 Clouds 13 1027 91 7937 2.08 158 16:24 26.03.2022
3023 Clouds 14 1027 91 6661 2.14 161 14:51 26.03.2022
3024 Clouds 13 1028 91 6638 2.31 163 13:52 26.03.2022
3025 Clouds 13 1027 90 6576 2.38 161 12:44 26.03.2022
3026 Clear 7 1028 87 10000 2.67 161 11:28 26.03.2022
3027 Clear 5 1028 68 10000 2.56 163 09:23 26.03.2022
3028 Clear 4 1030 59 10000 2.11 175 08:28 26.03.2022
3029 Clear -4 1032 63 10000 1.85 189 05:54 26.03.2022
3030 Clear -1 1032 64 10000 1.8 189 03:58 26.03.2022
3031 Clear 1 1032 67 10000 1.29 191 23:21 25.03.2022
3032 Clear 4 1032 70 10000 1.07 199 21:28 25.03.2022
3033 Clear 5 1032 70 10000 1.07 199 20:45 25.03.2022
3034 Clouds 9 1029 76 10000 0.37 168 19:28 25.03.2022
3035 Clouds 10 1029 79 10000 0.15 152 18:46 25.03.2022
3036 Clouds 10 1029 79 10000 0.15 152 18:46 25.03.2022
3037 Clouds 11 1026 82 10000 0.68 61 17:35 25.03.2022
3038 Clouds 11 1026 82 10000 0.68 61 17:35 25.03.2022
3039 Clouds 11 1026 88 10000 0.82 48 16:41 25.03.2022
3040 Clouds 11 1026 92 6854 0.57 53 15:52 25.03.2022
3041 Clouds 9 1027 92 1675 0.26 117 13:51 25.03.2022
3042 Clouds 10 1026 92 3007 0.58 122 12:20 25.03.2022
3043 Clear 6 1026 91 10000 0.74 137 09:52 25.03.2022
3044 Clear 7 1026 51 10000 0.43 118 09:23 25.03.2022
3045 Clear 2 1028 62 10000 0.39 260 07:48 25.03.2022
3046 Clear 0 1031 56 10000 0.74 256 07:21 25.03.2022
3047 Clear -5 1032 53 10000 0.83 253 04:47 25.03.2022
3048 Clear 0 1033 54 10000 1.11 233 00:29 25.03.2022
3049 Clear 1 1033 52 10000 1.13 223 22:29 24.03.2022
3050 Clear 2 1033 52 10000 1.13 223 21:33 24.03.2022
3051 Clear 4 1032 58 10000 0.67 224 19:50 24.03.2022
3052 Clouds 10 1030 63 10000 0.18 266 18:49 24.03.2022
3053 Clouds 11 1027 72 10000 0.45 36 17:39 24.03.2022
3054 Clouds 11 1027 87 10000 0.23 43 16:44 24.03.2022
3055 Clouds 10 1028 92 6638 0.57 213 14:59 24.03.2022
3056 Clouds 10 1028 92 6638 0.57 213 14:41 24.03.2022
3057 Clouds 10 1028 92 6638 0.57 213 14:41 24.03.2022
3058 Clouds 9 1028 92 1708 0.89 192 13:41 24.03.2022
3059 Clouds 8 1027 92 3016 1 188 12:39 24.03.2022
3060 Clouds 5 1027 92 3053 1.22 178 11:31 24.03.2022
3061 Clear 7 1028 90 10000 1.47 174 09:36 24.03.2022
3062 Clear 5 1028 46 10000 1.23 179 08:39 24.03.2022
3063 Clear -5 1034 39 10000 1.4 226 06:19 24.03.2022
3064 Clear -2 1036 42 10000 1.84 209 01:28 24.03.2022
3065 Clear -1 1037 48 10000 1.78 205 22:29 23.03.2022
3066 Clear 1 1037 50 10000 1.78 202 21:25 23.03.2022
3067 Clear 2 1037 50 10000 1.78 202 20:47 23.03.2022
3068 Clear 4 1036 52 10000 1.84 196 19:40 23.03.2022
3069 Clouds 10 1030 67 10000 1.91 172 18:22 23.03.2022
3070 Clouds 10 1030 67 10000 1.91 172 17:36 23.03.2022
3071 Clouds 10 1029 91 10000 2.09 168 16:18 23.03.2022
3072 Clouds 10 1029 91 10000 2.09 168 16:18 23.03.2022
3073 Clouds 9 1030 91 6735 2.23 171 14:49 23.03.2022
3074 Clouds 8 1030 91 6661 2.42 169 13:51 23.03.2022
3075 Clear 9 1031 86 10000 2.42 169 11:51 23.03.2022
3076 Clear 6 1032 43 10000 2.5 177 09:21 23.03.2022
3077 Clear -5 1038 44 10000 2.32 198 06:29 23.03.2022
3078 Clear -4 1038 44 10000 2.43 194 03:57 23.03.2022
3079 Clear -3 1039 52 10000 2.64 190 00:29 23.03.2022
3080 Clear 0 1040 63 10000 2.66 187 22:25 22.03.2022
3081 Clear 0 1039 64 10000 2.7 186 21:29 22.03.2022
3082 Clear 1 1039 64 10000 2.7 186 20:39 22.03.2022
3083 Clear 4 1039 64 10000 2.69 186 19:31 22.03.2022
3084 Clear 7 1037 65 10000 2.91 179 18:57 22.03.2022
3085 Clear 9 1033 68 10000 2.76 171 17:46 22.03.2022
3086 Clear 9 1031 69 10000 2.57 166 17:23 22.03.2022
3087 Clear 9 1031 72 10000 2.72 167 15:52 22.03.2022
3088 Clear 9 1031 75 10000 2.8 167 15:22 22.03.2022
3089 Clear 7 1031 75 10000 2.8 167 14:46 22.03.2022
3090 Clear 8 1032 72 10000 2.92 168 14:25 22.03.2022
3091 Clear 6 1032 68 10000 2.76 168 12:46 22.03.2022
3092 Clear 7 1032 65 10000 2.75 168 11:36 22.03.2022
3093 Clear 2 1033 50 10000 2.97 171 10:23 22.03.2022
3094 Clear -2 1038 47 10000 2.66 184 07:48 22.03.2022
3095 Clear -5 1041 42 10000 2.62 194 05:19 22.03.2022
3096 Clear -7 1041 46 10000 2.7 195 03:38 22.03.2022
3097 Clear -3 1042 76 10000 2.56 193 23:41 21.03.2022
3098 Clear 0 1041 82 10000 2.69 188 21:51 21.03.2022
3099 Clear 0 1041 82 10000 2.69 188 21:51 21.03.2022
3100 Clear 2 1040 80 10000 2.75 188 20:45 21.03.2022
3101 Clear 2 1040 78 10000 2.84 186 20:26 21.03.2022
3102 Clear 3 1040 78 10000 2.84 186 19:53 21.03.2022
3103 Clear 4 1038 76 10000 3.01 175 19:23 21.03.2022
3104 Clear 8 1034 75 10000 2.74 164 17:45 21.03.2022
3105 Clear 6 1032 51 10000 2.5 161 17:18 21.03.2022
3106 Clear 6 1032 71 10000 2.5 161 16:37 21.03.2022
3107 Clear 6 1032 70 10000 2.55 162 15:47 21.03.2022
3108 Clear 6 1032 75 10000 2.51 166 14:51 21.03.2022
3109 Clear 4 1033 79 10000 2.54 169 13:43 21.03.2022
3110 Clouds 6 1033 78 10000 2.5 170 12:33 21.03.2022
3111 Clouds 7 1034 80 10000 2.52 168 11:44 21.03.2022
3112 Clouds 4 1035 79 10000 2.47 163 10:34 21.03.2022
3113 Clouds -4 1039 87 10000 2.12 181 08:29 21.03.2022
3114 Clouds -4 1042 88 10000 2.19 192 06:36 21.03.2022
3115 Clouds -3 1041 93 10000 3.44 185 02:40 21.03.2022
3116 Clouds -3 1041 91 10000 3.79 183 23:40 20.03.2022
3117 Clouds -5 1041 91 10000 3.65 183 22:43 20.03.2022
3118 Clouds -1 1041 91 10000 3.5 185 21:50 20.03.2022
3119 Clouds 0 1041 89 10000 3.32 188 21:20 20.03.2022
3120 Clouds 1 1041 89 10000 3.32 188 20:43 20.03.2022
3121 Clouds 2 1040 84 10000 3.18 185 19:57 20.03.2022
3122 Clear 2 1038 80 10000 3.21 177 19:26 20.03.2022
3123 Clear 7 1034 77 10000 3 170 17:52 20.03.2022
3124 Clear 8 1034 77 10000 3 170 17:30 20.03.2022
3125 Clear 8 1032 72 10000 2.74 168 16:57 20.03.2022
3126 Clear 9 1032 70 10000 2.76 171 15:28 20.03.2022
3127 Clear 4 1032 72 10000 2.89 170 14:23 20.03.2022
3128 Clouds 3 1033 74 10000 3.15 171 12:29 20.03.2022
3129 Clouds 2 1034 52 10000 3.46 172 10:55 20.03.2022
3130 Clouds 3 1036 82 10000 3.92 175 08:59 20.03.2022
3131 Clouds -3 1038 89 10000 4.15 174 07:26 20.03.2022
3132 Clouds -3 1036 90 10000 4.18 173 04:23 20.03.2022
3133 Snow -3 1034 94 8154 4.85 168 01:29 20.03.2022
3134 Clouds -2 1035 92 8828 4.69 171 00:39 20.03.2022
3135 Clouds -1 1034 89 10000 4.62 169 23:19 19.03.2022
3136 Clouds 0 1033 92 10000 4.54 168 21:27 19.03.2022
3137 Clouds 1 1033 92 10000 4.54 168 20:39 19.03.2022
3138 Clouds 3 1031 88 10000 3.35 174 18:58 19.03.2022
3139 Clouds 3 1028 85 10000 1.55 172 18:23 19.03.2022
3140 Clouds 6 1028 85 10000 1.55 172 17:35 19.03.2022
3141 Clouds 6 1028 85 10000 1.55 172 17:35 19.03.2022
3142 Clouds 5 1027 87 10000 0.71 209 15:44 19.03.2022
3143 Clouds 5 1027 89 10000 1.02 185 14:44 19.03.2022
3144 Clouds 3 1029 89 10000 1.1 176 13:19 19.03.2022
3145 Clouds 3 1029 88 10000 0.61 181 12:40 19.03.2022
3146 Clouds 3 1030 88 10000 1.01 180 11:54 19.03.2022
3147 Clouds 1 1031 86 10000 1.85 174 10:47 19.03.2022
3148 Clouds 1 1036 95 10000 2.65 177 06:51 19.03.2022
3149 Clouds 1 1034 95 10000 3.53 173 03:24 19.03.2022
3150 Clouds 1 1034 95 8700 3.58 170 02:29 19.03.2022
3151 Clouds 2 1034 96 2051 3.3 165 23:44 18.03.2022
3152 Clouds 2 1033 96 797 3.26 161 22:28 18.03.2022
3153 Clouds 2 1033 96 797 3.26 161 21:37 18.03.2022
3154 Clouds 2 1032 96 2253 2.75 151 19:51 18.03.2022
3155 Clouds 2 1031 96 2600 2.41 145 19:21 18.03.2022
3156 Clouds 2 1031 95 65 2.26 143 17:50 18.03.2022
3157 Clouds 3 1030 95 32 1.91 134 16:48 18.03.2022
3158 Clouds 3 1030 93 36 1.54 117 15:26 18.03.2022
3159 Clouds 4 1030 93 38 1.55 122 14:22 18.03.2022
3160 Clouds 3 1030 95 130 1.46 110 12:27 18.03.2022
3161 Clouds 3 1030 95 246 1.34 99 10:52 18.03.2022
3162 Clouds 3 1030 95 6293 1.14 105 09:29 18.03.2022
3163 Clouds 3 1030 95 6293 1.14 105 08:32 18.03.2022
3164 Clouds 3 1030 94 10000 1.08 103 06:35 18.03.2022
3165 Clouds 3 1029 91 10000 1.16 84 02:57 18.03.2022
3166 Clouds 4 1028 87 10000 0.99 92 00:23 18.03.2022
3167 Clouds 4 1028 85 10000 0.93 88 23:24 17.03.2022
3168 Clouds 4 1028 85 10000 1.07 70 22:24 17.03.2022
3169 Clouds 4 1028 85 10000 1.07 70 21:48 17.03.2022
3170 Clouds 4 1027 84 10000 1.18 54 21:23 17.03.2022
3171 Clouds 4 1027 83 10000 1.18 54 20:44 17.03.2022
3172 Clouds 6 1027 80 10000 1.39 46 19:48 17.03.2022
3173 Clouds 7 1026 74 10000 1.74 37 18:59 17.03.2022
3174 Clouds 7 1026 73 10000 1.45 51 18:39 17.03.2022
3175 Clouds 9 1025 96 10000 2.04 30 16:49 17.03.2022
3176 Clouds 9 1024 96 6389 2.11 23 15:44 17.03.2022
3177 Clouds 9 1024 96 1857 2.08 19 15:24 17.03.2022
3178 Clouds 9 1024 95 1650 1.84 12 14:28 17.03.2022
3179 Clouds 8 1025 96 1670 1.68 359 12:51 17.03.2022
3180 Clouds 8 1024 96 1624 1.47 360 12:22 17.03.2022
3181 Clouds 7 1024 95 1620 1.16 2 11:27 17.03.2022
3182 Clouds 6 1024 95 1878 1.34 347 10:29 17.03.2022
3183 Clouds 6 1024 71 10000 1.04 333 08:34 17.03.2022
3184 Clouds 4 1025 72 10000 0.58 299 07:33 17.03.2022
3185 Clouds -1 1026 68 10000 0.85 264 05:47 17.03.2022
3186 Clouds 4 1025 62 10000 2.43 187 01:23 17.03.2022
3187 Clouds 2 1025 64 10000 2.55 187 23:45 16.03.2022
3188 Clouds 2 1025 60 10000 2.24 188 22:45 16.03.2022
3189 Clouds 3 1025 57 10000 2.02 193 22:21 16.03.2022
3190 Clouds 3 1025 57 10000 2.02 193 21:37 16.03.2022
3191 Clouds 5 1024 59 10000 0.85 194 19:41 16.03.2022
3192 Clouds 5 1024 64 10000 0.47 182 19:20 16.03.2022
3193 Clouds 5 1023 65 10000 0.57 179 18:36 16.03.2022
3194 Clouds 8 1022 74 10000 0.3 170 17:41 16.03.2022
3195 Clouds 10 1022 93 10000 0.26 180 16:56 16.03.2022
3196 Clouds 10 1023 95 3465 0.44 186 15:55 16.03.2022
3197 Clouds 9 1024 95 1628 0.29 190 14:25 16.03.2022
3198 Clouds 8 1024 95 1622 0.08 139 13:27 16.03.2022
3199 Clouds 7 1023 95 1617 0.19 117 11:54 16.03.2022
3200 Clouds 7 1023 95 1634 0.23 75 11:20 16.03.2022
3201 Clouds 9 1023 95 8302 0.17 39 10:22 16.03.2022
3202 Clouds 5 1023 74 10000 0.45 345 08:51 16.03.2022
3203 Clouds 1 1027 83 10000 0.86 268 04:45 16.03.2022
3204 Clouds 2 1026 83 10000 0.42 271 01:35 16.03.2022
3205 Rain 3 1030 81 10000 1.84 189 22:38 15.03.2022
3206 Clouds 4 1030 78 5042 2.67 184 21:52 15.03.2022
3207 Clouds 4 1030 80 308 3.64 179 20:18 15.03.2022
3208 Rain 4 1030 97 131 3.95 177 18:54 15.03.2022
3209 Clouds 6 1029 99 319 4.11 175 16:55 15.03.2022
3210 Rain 6 1029 100 68 4.12 172 16:20 15.03.2022
3211 Rain 6 1029 100 71 4.32 173 14:57 15.03.2022
3212 Clouds 6 1029 100 71 4.32 173 14:34 15.03.2022
3213 Clouds 6 1031 100 247 4.58 167 13:28 15.03.2022
3214 Rain 4 1031 77 79 4.44 167 12:21 15.03.2022
3215 Rain 5 1031 78 5931 4.36 167 11:29 15.03.2022
3216 Rain 4 1032 81 4798 4.03 169 09:39 15.03.2022
3217 Rain 4 1032 84 2600 3.67 169 08:42 15.03.2022
3218 Rain 3 1032 86 4980 3.8 174 07:50 15.03.2022
3219 Rain 3 1033 86 5175 3.74 169 06:54 15.03.2022
3220 Clouds 3 1033 87 8797 3.6 166 02:59 15.03.2022
3221 Clouds 3 1034 94 10000 3.89 167 23:39 14.03.2022
3222 Clouds 1 1035 94 10000 3.95 166 23:21 14.03.2022
3223 Clouds 2 1035 94 10000 4.21 167 22:26 14.03.2022
3224 Clouds 2 1035 94 10000 4.03 163 21:26 14.03.2022
3225 Clouds 4 1035 94 10000 4.03 163 20:35 14.03.2022
3226 Clouds 5 1034 95 10000 3.87 163 19:59 14.03.2022
3227 Clouds 6 1034 93 10000 3.62 160 18:37 14.03.2022
3228 Clouds 7 1031 88 10000 3.65 158 17:44 14.03.2022
3229 Clouds 6 1030 85 10000 3.43 157 16:58 14.03.2022
3230 Clouds 8 1029 86 10000 3.26 158 15:37 14.03.2022
3231 Clouds 7 1029 89 10000 2.85 158 14:38 14.03.2022
3232 Clouds 5 1030 91 10000 2.2 154 12:21 14.03.2022
3233 Clouds 4 1030 56 10000 2.25 161 10:50 14.03.2022
3234 Clouds 3 1030 60 10000 2.65 163 09:41 14.03.2022
3235 Clouds 2 1031 62 10000 2.13 166 09:20 14.03.2022
3236 Clouds 2 1031 65 10000 2.13 166 08:55 14.03.2022
3237 Clouds -2 1035 91 10000 2.02 195 07:21 14.03.2022
3238 Clouds 0 1033 92 10000 2.28 199 05:44 14.03.2022
3239 Snow 2 1031 93 8253 3.56 171 01:52 14.03.2022
3240 Clouds 2 1030 93 10000 3.9 163 01:20 14.03.2022
3241 Clouds 4 1028 93 10000 4.64 167 22:42 13.03.2022
3242 Clouds 5 1027 93 10000 5.23 163 21:28 13.03.2022
3243 Clouds 5 1027 93 10000 5.23 163 20:55 13.03.2022
3244 Clouds 5 1026 93 9979 5.25 162 20:29 13.03.2022
3245 Clouds 5 1026 93 9979 5.25 162 19:48 13.03.2022
3246 Clouds 5 1026 90 10000 5.27 162 19:25 13.03.2022
3247 Clouds 6 1026 90 10000 5.27 162 18:50 13.03.2022
3248 Clouds 1 1026 87 10000 5.07 166 18:30 13.03.2022
3249 Clouds 6 1023 84 10000 5.08 164 17:40 13.03.2022
3250 Clouds 2 1021 79 10000 5.13 162 16:49 13.03.2022
3251 Clouds 2 1020 77 10000 5.26 163 16:27 13.03.2022
3252 Clouds 2 1020 77 10000 5.26 163 15:44 13.03.2022
3253 Clouds 2 1020 80 10000 5.2 162 14:50 13.03.2022
3254 Clouds 2 1020 80 10000 5.2 162 14:50 13.03.2022
3255 Clouds 9 1021 84 10000 5.2 163 13:33 13.03.2022
3256 Clouds 2 1021 87 10000 5.17 163 12:37 13.03.2022
3257 Clouds 2 1022 88 10000 5.16 164 11:51 13.03.2022
3258 Clouds 2 1022 88 10000 5.16 164 11:30 13.03.2022
3259 Clouds 2 1022 88 10000 5.04 163 10:46 13.03.2022
3260 Clouds 1 1023 89 10000 4.96 165 09:53 13.03.2022
3261 Clouds -2 1023 93 8218 4.88 166 09:29 13.03.2022
3262 Clouds 0 1023 64 8218 4.88 166 08:40 13.03.2022
3263 Clouds -2 1024 71 7416 4.72 168 07:37 13.03.2022
3264 Clouds -3 1025 73 7949 4.47 169 05:39 13.03.2022
3265 Clouds -3 1026 76 10000 4.69 170 01:48 13.03.2022
3266 Clouds -2 1027 75 9767 4.95 167 23:30 12.03.2022
3267 Clouds -2 1027 72 9977 5.1 166 21:49 12.03.2022
3268 Clouds 3 1026 92 10000 4.93 166 20:29 12.03.2022
3269 Clouds 3 1026 92 10000 4.93 166 19:47 12.03.2022
3270 Clouds 4 1025 91 10000 4.66 165 18:47 12.03.2022
3271 Clouds 1 1024 89 10000 4.54 164 18:20 12.03.2022
3272 Clouds 1 1023 87 10000 4.38 164 16:32 12.03.2022
3273 Clouds 1 1023 85 10000 4.47 164 15:55 12.03.2022
3274 Clouds 1 1023 85 10000 4.49 161 15:22 12.03.2022
3275 Clouds 1 1023 86 10000 4.61 162 13:54 12.03.2022
3276 Clouds 1 1023 87 10000 4.72 162 12:33 12.03.2022
3277 Clouds 2 1024 64 10000 4.76 163 11:55 12.03.2022
3278 Clouds 1 1024 87 10000 4.76 163 11:34 12.03.2022
3279 Clouds 0 1024 87 10000 4.74 164 10:32 12.03.2022
3280 Clouds 0 1024 87 10000 4.56 164 09:44 12.03.2022
3281 Clouds -1 1026 92 9943 4.23 163 08:24 12.03.2022
3282 Clouds 1 1026 93 10000 4.07 167 06:44 12.03.2022
3283 Clouds 3 1027 91 10000 4.13 170 00:55 12.03.2022
3284 Clouds 3 1028 90 10000 4.43 171 23:43 11.03.2022
3285 Clouds 3 1028 90 10000 4.57 169 22:32 11.03.2022
3286 Clouds 3 1027 91 10000 4.62 168 21:24 11.03.2022
3287 Clouds 3 1027 91 10000 4.62 168 21:24 11.03.2022
3288 Clouds 3 1027 91 10000 4.62 168 20:47 11.03.2022
3289 Clouds 3 1027 92 10000 4.61 170 20:26 11.03.2022
3290 Clouds 4 1027 92 10000 4.61 170 19:35 11.03.2022
3291 Clouds 1 1026 92 10000 4.48 167 18:33 11.03.2022
3292 Clouds 1 1023 85 10000 4.37 168 17:26 11.03.2022
3293 Clouds 2 1022 80 10000 4.56 164 16:25 11.03.2022
3294 Clouds 3 1022 53 10000 4.56 164 15:36 11.03.2022
3295 Clouds 2 1022 81 10000 4.84 163 13:42 11.03.2022
3296 Clouds 2 1022 83 10000 4.64 167 12:41 11.03.2022
3297 Clouds 2 1023 83 10000 4.58 168 12:19 11.03.2022
3298 Clouds 2 1023 84 10000 4.52 170 10:53 11.03.2022
3299 Clouds 1 1024 85 10000 4.5 171 09:35 11.03.2022
3300 Clouds -1 1026 95 2744 4.61 172 08:28 11.03.2022
3301 Clouds -1 1026 61 2744 4.61 172 07:48 11.03.2022
3302 Clouds -4 1027 96 2512 4.28 174 06:42 11.03.2022
3303 Clouds -4 1028 95 6862 4.13 173 04:37 11.03.2022
3304 Clouds -4 1028 91 10000 3.7 175 01:29 11.03.2022
3305 Clouds -5 1029 90 10000 3.54 177 22:32 10.03.2022
3306 Clouds -3 1029 87 10000 3.4 178 21:54 10.03.2022
3307 Clouds -3 1028 83 10000 3.18 178 21:25 10.03.2022
3308 Clouds -4 1028 83 10000 3.18 178 20:36 10.03.2022
3309 Clouds -1 1027 76 10000 3.04 173 19:20 10.03.2022
3310 Clouds 6 1024 77 10000 2.81 166 17:51 10.03.2022
3311 Clouds 6 1021 74 10000 2.33 162 16:52 10.03.2022
3312 Clouds 6 1021 76 10000 2.29 168 15:28 10.03.2022
3313 Clouds 4 1021 77 10000 2.2 170 13:42 10.03.2022
3314 Clear 3 1022 74 10000 2.14 168 12:38 10.03.2022
3315 Clear 4 1022 29 10000 1.76 163 11:28 10.03.2022
3316 Clear -1 1023 49 10000 1.62 164 09:42 10.03.2022
3317 Clear -5 1028 61 10000 0.67 233 07:48 10.03.2022
3318 Clear -7 1030 43 10000 0.97 270 05:30 10.03.2022
3319 Clear -5 1030 49 10000 0.88 249 01:59 10.03.2022
3320 Clear -5 1031 53 10000 0.92 264 23:32 09.03.2022
3321 Clear -5 1031 62 10000 0.98 279 22:22 09.03.2022
3322 Clear -5 1031 62 10000 0.98 279 21:43 09.03.2022
3323 Clear -3 1030 74 10000 1.04 287 20:36 09.03.2022
3324 Clear 1 1028 89 10000 0.85 317 18:41 09.03.2022
3325 Clear 4 1022 83 10000 1.7 357 17:28 09.03.2022
3326 Clear 5 1022 83 10000 1.7 357 16:36 09.03.2022
3327 Clear 4 1021 79 10000 1.73 356 15:32 09.03.2022
3328 Clear 3 1022 76 10000 1.53 354 13:58 09.03.2022
3329 Clouds 3 1022 30 10000 1.61 355 12:59 09.03.2022
3330 Clouds 3 1023 39 10000 1.63 10 12:20 09.03.2022
3331 Clouds 3 1023 34 10000 1.63 10 11:45 09.03.2022
3332 Clouds 3 1023 34 10000 1.66 2 10:49 09.03.2022
3333 Clouds -2 1024 45 10000 1.59 331 09:22 09.03.2022
3334 Clouds -2 1024 48 10000 1.59 331 08:42 09.03.2022
3335 Clouds -9 1029 49 10000 1.38 294 04:47 09.03.2022
3336 Clear -9 1029 35 10000 1.4 281 00:52 09.03.2022
3337 Clear -8 1028 41 10000 1.26 275 23:21 08.03.2022
3338 Clear -8 1028 41 10000 1.26 275 22:45 08.03.2022
3339 Clouds -7 1028 76 10000 1.13 256 21:26 08.03.2022
3340 Clouds -6 1028 76 10000 1.13 256 20:54 08.03.2022
3341 Clear -5 1027 88 10000 1.09 253 19:55 08.03.2022
3342 Clouds -2 1026 91 10000 1.02 242 18:45 08.03.2022
3343 Clouds 0 1022 91 10000 0.55 243 17:50 08.03.2022
3344 Clouds 0 1019 86 10000 0.3 301 16:33 08.03.2022
3345 Clouds -1 1018 76 10000 0.59 240 14:21 08.03.2022
3346 Clouds 0 1018 37 10000 1.27 202 12:44 08.03.2022
3347 Clouds 0 1019 36 10000 1.55 186 11:45 08.03.2022
3348 Clouds -1 1019 49 10000 1.38 184 10:55 08.03.2022
3349 Clouds -3 1019 50 10000 1.5 190 10:19 08.03.2022
3350 Clouds -9 1024 61 10000 1.95 205 07:34 08.03.2022
3351 Clear -10 1025 70 10000 2.29 213 05:44 08.03.2022
3352 Clouds -9 1026 61 10000 1.36 241 23:58 07.03.2022
3353 Clouds -7 1026 91 10000 0.85 270 22:23 07.03.2022
3354 Clouds -7 1026 91 10000 0.85 270 21:35 07.03.2022
3355 Clouds -7 1025 96 7091 1.17 281 20:52 07.03.2022
3356 Clouds -6 1025 96 8299 0.95 334 20:20 07.03.2022
3357 Clouds -6 1025 96 8299 0.95 334 19:34 07.03.2022
3358 Clouds -3 1024 95 10000 1.19 322 18:46 07.03.2022
3359 Clouds -1 1020 91 10000 1.57 358 17:54 07.03.2022
3360 Clouds 1 1017 81 10000 1.7 6 16:56 07.03.2022
3361 Clouds 1 1016 72 10000 2 13 16:20 07.03.2022
3362 Clear 1 1016 39 10000 1.54 24 14:18 07.03.2022
3363 Clear -1 1016 48 10000 0.89 48 12:33 07.03.2022
3364 Clear -4 1017 62 10000 0.92 96 10:39 07.03.2022
3365 Clear -5 1018 70 10000 0.67 114 09:47 07.03.2022
3366 Clouds -8 1025 67 10000 1.23 223 06:20 07.03.2022
3367 Clouds -7 1027 83 10000 0.75 232 00:23 07.03.2022
3368 Clouds -6 1027 83 10000 0.75 232 23:41 06.03.2022
3369 Clouds -5 1027 89 10000 0.63 239 22:57 06.03.2022
3370 Clouds -5 1027 93 10000 0.52 254 22:24 06.03.2022
3371 Clouds -3 1026 95 9870 0.48 277 20:51 06.03.2022
3372 Clouds -3 1025 95 8257 0.61 315 20:26 06.03.2022
3373 Clouds -3 1024 94 8278 0.93 342 19:23 06.03.2022
3374 Clouds -2 1021 92 10000 1.57 357 18:25 06.03.2022
3375 Clouds -1 1018 52 10000 2.28 359 17:21 06.03.2022
3376 Clouds -1 1018 82 10000 2.28 359 16:43 06.03.2022
3377 Clouds 0 1017 54 10000 2.4 1 16:18 06.03.2022
3378 Clouds -2 1017 68 10000 2.2 3 14:57 06.03.2022
3379 Clouds -2 1017 68 10000 2.2 3 14:38 06.03.2022
3380 Clouds -2 1017 65 10000 2.02 6 13:36 06.03.2022
3381 Clouds -1 1017 35 10000 1.22 20 12:35 06.03.2022
3382 Clouds -3 1018 53 10000 0.69 162 11:21 06.03.2022
3383 Clouds -4 1018 51 10000 1.29 159 10:29 06.03.2022
3384 Clouds -7 1020 65 10000 0.71 155 08:40 06.03.2022
3385 Clouds -10 1024 77 10000 0.94 215 08:20 06.03.2022
3386 Clouds -10 1026 74 10000 1.01 241 06:22 06.03.2022
3387 Clouds -9 1026 74 10000 1.68 216 00:55 06.03.2022
3388 Clouds -8 1026 76 10000 1.77 214 00:33 06.03.2022
3389 Clouds -8 1026 76 10000 1.77 214 00:33 06.03.2022
3390 Clouds -7 1026 78 10000 1.64 216 23:41 05.03.2022
3391 Clouds -8 1027 88 10000 1.31 219 23:18 05.03.2022
3392 Clouds -6 1026 93 9076 1.02 233 22:25 05.03.2022
3393 Clouds -6 1025 94 8365 0.82 267 21:24 05.03.2022
3394 Clouds -3 1024 94 9064 0.96 300 19:53 05.03.2022
3395 Clouds -2 1023 94 8656 1.1 315 18:56 05.03.2022
3396 Clouds -2 1023 94 8656 1.1 315 18:34 05.03.2022
3397 Clouds 0 1017 82 10000 2.25 354 16:52 05.03.2022
3398 Clouds 0 1016 70 10000 2.42 352 15:43 05.03.2022
3399 Clear 0 1016 65 10000 2.4 357 14:52 05.03.2022
3400 Clear 0 1016 65 10000 2.4 357 14:34 05.03.2022
3401 Clear 1 1015 38 10000 2.29 357 13:34 05.03.2022
3402 Clear -2 1016 49 10000 1.43 355 11:49 05.03.2022
3403 Clear -2 1017 49 10000 1.02 347 11:20 05.03.2022
3404 Clear -4 1018 53 10000 0.57 323 10:23 05.03.2022
3405 Clear -6 1020 55 10000 0.42 269 09:28 05.03.2022
3406 Clear -10 1025 52 10000 0.93 245 07:58 05.03.2022
3407 Clouds -9 1026 45 10000 1.16 243 05:43 05.03.2022
3408 Clouds -9 1026 49 10000 1.13 240 04:33 05.03.2022
3409 Clouds -7 1026 76 10000 1.07 237 23:38 04.03.2022
3410 Clouds -6 1026 88 10000 0.94 243 22:44 04.03.2022
3411 Clouds -5 1025 94 9435 0.78 268 22:23 04.03.2022
3412 Clouds -4 1024 95 7335 0.78 302 21:24 04.03.2022
3413 Clouds -1 1024 95 10000 1.12 320 20:28 04.03.2022
3414 Clouds -1 1024 95 10000 1.12 320 19:36 04.03.2022
3415 Clouds 0 1022 95 9006 1.53 333 18:46 04.03.2022
3416 Clouds 1 1019 93 10000 2.22 342 18:20 04.03.2022
3417 Clouds 2 1016 84 10000 3.01 343 17:28 04.03.2022
3418 Clouds 3 1015 46 10000 3.26 350 15:31 04.03.2022
3419 Clouds 3 1015 72 10000 3.37 351 14:36 04.03.2022
3420 Clouds 1 1015 73 10000 3.16 347 13:27 04.03.2022
3421 Clouds 1 1015 67 10000 2.92 350 11:56 04.03.2022
3422 Clouds 0 1016 78 10000 2.9 349 10:57 04.03.2022
3423 Clouds -1 1017 79 10000 2.77 343 10:18 04.03.2022
3424 Clouds -3 1018 84 4749 2.16 335 08:48 04.03.2022
3425 Clouds -6 1020 97 3077 1.43 322 07:41 04.03.2022
3426 Clouds -6 1020 93 5055 1.31 316 04:59 04.03.2022
3427 Clouds -5 1021 91 10000 1.72 320 00:41 04.03.2022
3428 Clouds -4 1020 91 10000 2.01 303 22:53 03.03.2022
3429 Clear -4 1021 89 10000 2 307 21:57 03.03.2022
3430 Clear -4 1021 89 10000 2 307 21:34 03.03.2022
3431 Clear -2 1020 82 10000 2.07 311 20:21 03.03.2022
3432 Clouds 2 1019 82 10000 2.05 309 18:57 03.03.2022
3433 Clouds 3 1017 83 10000 2.25 326 18:24 03.03.2022
3434 Clouds 5 1017 52 10000 2.25 326 17:31 03.03.2022
3435 Clouds 5 1013 75 10000 1.4 329 16:26 03.03.2022
3436 Clouds 6 1013 75 10000 1.4 329 15:41 03.03.2022
3437 Clouds 5 1013 78 10000 1.43 344 14:44 03.03.2022
3438 Clouds 5 1013 78 10000 1.28 342 14:25 03.03.2022
3439 Clear 4 1015 47 10000 0.73 164 12:28 03.03.2022
3440 Clear 3 1016 50 10000 0.35 127 10:56 03.03.2022
3441 Clear 1 1016 56 10000 0.35 23 09:56 03.03.2022
3442 Clear -5 1018 64 10000 0.75 335 08:34 03.03.2022
3443 Clouds -7 1023 61 10000 1.07 290 06:38 03.03.2022
3444 Clouds -6 1023 61 10000 1.08 288 04:47 03.03.2022
3445 Clouds -1 1021 65 10000 1.14 303 23:45 02.03.2022
3446 Clouds -2 1023 50 10000 1.2 314 22:53 02.03.2022
3447 Clouds -2 1023 50 10000 1.2 314 22:53 02.03.2022
3448 Snow -2 1023 50 10000 1.2 314 22:31 02.03.2022
3449 Clouds -1 1025 49 10000 1.55 315 20:59 02.03.2022
3450 Clouds -1 1024 55 10000 1.84 320 20:25 02.03.2022
3451 Clouds -1 1024 55 10000 1.84 320 19:37 02.03.2022
3452 Clouds 0 1024 61 10000 2.12 324 18:58 02.03.2022
3453 Clouds 2 1021 69 10000 2.33 328 18:26 02.03.2022
3454 Clouds 2 1021 69 10000 2.33 328 17:41 02.03.2022
3455 Clouds 3 1019 68 10000 2.18 335 16:52 02.03.2022
3456 Clouds 4 1018 61 10000 2.08 335 15:46 02.03.2022
3457 Clouds 4 1018 74 10000 1.71 331 13:52 02.03.2022
3458 Clouds 2 1018 77 10000 1.55 334 12:46 02.03.2022
3459 Clouds 2 1018 76 10000 1.51 331 12:46 02.03.2022
3460 Clouds 3 1019 32 10000 1.51 334 12:24 02.03.2022
3461 Clouds 2 1019 38 10000 1.48 331 11:26 02.03.2022
3462 Clouds 0 1019 41 10000 1.48 331 10:39 02.03.2022
3463 Clouds -2 1020 43 10000 1.29 322 09:36 02.03.2022
3464 Clouds -6 1022 56 10000 1.13 312 08:34 02.03.2022
3465 Clouds -7 1027 59 10000 1.08 275 07:23 02.03.2022
3466 Clouds -7 1029 62 10000 1.13 270 04:51 02.03.2022
3467 Clouds -7 1030 34 10000 1.15 254 00:40 02.03.2022
3468 Clouds -6 1032 31 10000 1.19 271 23:27 01.03.2022
3469 Clouds -6 1032 31 10000 1.19 271 22:38 01.03.2022
3470 Clouds -5 1032 30 10000 1.04 270 21:53 01.03.2022
3471 Clouds -6 1032 31 10000 1.08 286 20:41 01.03.2022
3472 Clouds -5 1032 33 10000 1.45 293 20:20 01.03.2022
3473 Clouds -3 1031 43 10000 1.64 300 18:58 01.03.2022
3474 Clouds -2 1029 63 10000 2.17 313 18:24 01.03.2022
3475 Clouds 0 1029 63 10000 2.17 313 17:54 01.03.2022
3476 Clouds 1 1026 68 10000 2.55 326 16:37 01.03.2022
3477 Clouds 2 1024 60 10000 2.23 324 15:48 01.03.2022
3478 Clouds 1 1024 58 10000 1.83 316 14:54 01.03.2022
3479 Clouds 2 1024 40 10000 1.83 316 14:31 01.03.2022
3480 Clouds 1 1025 39 10000 1.16 298 13:26 01.03.2022
3481 Clouds 1 1025 39 10000 1.16 296 12:37 01.03.2022
3482 Clouds 0 1026 45 10000 0.87 254 11:38 01.03.2022
3483 Clouds -4 1029 59 10000 1.64 207 09:52 01.03.2022
3484 Clouds -9 1032 74 10000 2.52 192 08:30 01.03.2022
3485 Clear -8 1036 74 10000 3.22 197 07:19 01.03.2022
3486 Clear -7 1034 61 10000 1.55 228 03:27 01.03.2022
3487 Clear -7 1033 62 10000 0.92 276 00:48 01.03.2022
3488 Clear -5 1033 62 10000 0.88 296 23:46 28.02.2022
3489 Clear -6 1032 62 10000 1.01 313 22:43 28.02.2022
3490 Clear -6 1033 63 10000 1.28 321 21:48 28.02.2022
3491 Clear -5 1033 66 10000 1.62 325 20:54 28.02.2022
3492 Clear -4 1033 71 10000 1.79 327 19:51 28.02.2022
3493 Clear -1 1032 80 10000 1.87 329 18:56 28.02.2022
3494 Clear 1 1030 84 10000 2.27 344 17:43 28.02.2022
3495 Clear 2 1027 45 10000 3.3 349 17:22 28.02.2022
3496 Clear 2 1026 71 10000 3.24 354 16:25 28.02.2022
3497 Clear 3 1026 36 10000 3.42 352 14:33 28.02.2022
3498 Clear 3 1025 37 10000 3.39 353 13:56 28.02.2022
3499 Clear 2 1025 34 10000 3.16 351 13:24 28.02.2022
3500 Clear 1 1026 46 10000 3.14 350 12:25 28.02.2022
3501 Clear 0 1026 37 10000 3.16 349 11:19 28.02.2022
3502 Clear -2 1027 49 10000 2.73 345 10:23 28.02.2022
3503 Clear -4 1027 49 10000 2.73 345 09:44 28.02.2022
3504 Clear -6 1030 53 10000 2.05 334 09:23 28.02.2022
3505 Clear -9 1034 63 10000 1.62 318 08:21 28.02.2022
3506 Clear -10 1035 52 10000 1.83 313 06:31 28.02.2022
3507 Clear -9 1036 47 10000 1.42 293 04:31 28.02.2022
3508 Clear -9 1037 79 10000 2.26 206 01:24 28.02.2022
3509 Clear -8 1038 78 10000 2.01 201 22:55 27.02.2022
3510 Clear -7 1038 78 10000 2.01 201 22:32 27.02.2022
3511 Clear -6 1037 76 10000 2.09 197 21:42 27.02.2022
3512 Clear -6 1036 74 10000 2.25 199 20:50 27.02.2022
3513 Clear -6 1036 72 10000 2.24 192 20:18 27.02.2022
3514 Clear -5 1036 72 10000 2.24 192 19:50 27.02.2022
3515 Clear -5 1035 70 10000 2.45 182 19:22 27.02.2022
3516 Clear -4 1035 70 10000 2.45 182 18:37 27.02.2022
3517 Clouds -1 1032 78 10000 2.44 172 17:52 27.02.2022
3518 Clouds 0 1028 38 10000 2.16 151 16:30 27.02.2022
3519 Clouds 0 1026 64 10000 2.37 147 15:24 27.02.2022
3520 Clear -1 1026 44 10000 1.56 155 12:43 27.02.2022
3521 Clear -2 1027 59 10000 1.34 150 12:25 27.02.2022
3522 Clear -4 1027 49 10000 1.33 150 10:37 27.02.2022
3523 Clear -4 1027 45 10000 1.13 174 09:58 27.02.2022
3524 Clear -9 1030 65 10000 1 188 09:24 27.02.2022
3525 Clear -9 1030 53 10000 1 188 08:51 27.02.2022
3526 Clear -10 1036 39 10000 1.38 230 06:42 27.02.2022
3527 Clear -9 1035 45 10000 1.64 222 04:19 27.02.2022
3528 Clouds -7 1036 34 10000 1.82 219 00:34 27.02.2022
3529 Clouds -5 1037 47 10000 1.33 206 22:50 26.02.2022
3530 Clouds -4 1038 64 10000 0.62 188 21:34 26.02.2022
3531 Clouds -3 1037 84 10000 0.35 208 20:43 26.02.2022
3532 Clouds -3 1036 93 10000 0.2 339 19:59 26.02.2022
3533 Clouds -2 1036 93 10000 0.2 339 19:34 26.02.2022
3534 Clouds -2 1035 91 10000 0.66 7 18:40 26.02.2022
3535 Clear -1 1033 88 10000 1.27 24 17:40 26.02.2022
3536 Clear -1 1029 62 10000 2.34 23 16:48 26.02.2022
3537 Clear -1 1028 64 10000 2.44 26 15:48 26.02.2022
3538 Clear 0 1028 60 10000 2.51 34 15:20 26.02.2022
3539 Clear 0 1028 60 10000 2.51 34 14:52 26.02.2022
3540 Clear 0 1028 64 10000 2.78 36 14:25 26.02.2022
3541 Clouds -1 1029 64 10000 2.85 42 13:18 26.02.2022
3542 Clouds -2 1030 71 10000 2.94 45 12:20 26.02.2022
3543 Clouds -2 1031 74 10000 2.84 38 11:28 26.02.2022
3544 Clouds -2 1031 80 10000 2.84 38 10:39 26.02.2022
3545 Clouds -5 1035 89 10000 1.81 39 08:48 26.02.2022
3546 Clouds -6 1039 96 8186 1.14 351 06:51 26.02.2022
3547 Snow -4 1033 85 3459 3.49 330 00:50 26.02.2022
3548 Snow -4 1032 91 2223 3.68 330 22:47 25.02.2022
3549 Snow -4 1032 89 2147 3.62 327 21:40 25.02.2022
3550 Snow -4 1032 88 2256 3.5 328 21:21 25.02.2022
3551 Snow -4 1032 94 2256 3.5 328 20:32 25.02.2022
3552 Snow -1 1034 94 4548 2.77 323 18:41 25.02.2022
3553 Clouds -2 1029 88 9345 4.05 336 17:23 25.02.2022
3554 Clouds 0 1028 78 10000 4.61 336 16:21 25.02.2022
3555 Clouds 0 1028 78 10000 4.61 336 15:43 25.02.2022
3556 Clouds 0 1027 76 10000 4.82 335 15:20 25.02.2022
3557 Clouds 0 1027 51 10000 4.82 335 14:42 25.02.2022
3558 Clouds -1 1026 51 10000 4.72 335 13:36 25.02.2022
3559 Clouds 0 1026 80 9513 4.43 336 12:55 25.02.2022
3560 Snow -2 1026 84 8207 4.7 338 11:28 25.02.2022
3561 Snow -3 1025 85 8128 4.57 339 10:29 25.02.2022
3562 Snow -3 1025 86 8128 4.57 339 09:57 25.02.2022
3563 Snow -3 1026 88 7593 4.14 337 09:18 25.02.2022
3564 Snow -4 1027 94 7117 3.89 334 07:41 25.02.2022
3565 Snow -5 1027 93 6891 3.69 334 05:49 25.02.2022
3566 Snow -3 1026 94 7802 3.71 333 04:32 25.02.2022
3567 Snow -1 1024 90 10000 1.93 304 23:47 24.02.2022
3568 Clouds -1 1024 92 10000 1.66 294 21:56 24.02.2022
3569 Clouds -1 1024 92 10000 1.66 294 21:38 24.02.2022
3570 Clouds 0 1025 92 10000 1.54 287 21:19 24.02.2022
3571 Clouds 1 1025 90 10000 1.5 273 19:38 24.02.2022
3572 Clouds 2 1024 90 10000 1.55 240 18:43 24.02.2022
3573 Clouds 2 1021 89 10000 1.81 199 18:19 24.02.2022
3574 Clouds 3 1021 89 10000 1.81 199 17:33 24.02.2022
3575 Clouds 5 1019 86 10000 2.02 176 16:49 24.02.2022
3576 Clouds 5 1019 83 10000 2.08 191 16:23 24.02.2022
3577 Clouds 4 1019 85 10000 2.44 182 14:54 24.02.2022
3578 Clouds 4 1019 85 10000 2.44 182 14:35 24.02.2022
3579 Clouds 4 1020 87 10000 2.88 178 13:39 24.02.2022
3580 Clouds 3 1020 88 10000 3.19 176 12:50 24.02.2022
3581 Clouds 2 1021 86 10000 3.47 175 10:41 24.02.2022
3582 Clouds -4 1024 85 10000 3.67 174 09:18 24.02.2022
3583 Clouds -2 1024 67 10000 3.67 174 08:40 24.02.2022
3584 Clouds -5 1027 82 10000 3.25 181 05:53 24.02.2022
3585 Clouds -4 1030 83 10000 3.01 188 01:56 24.02.2022
3586 Clouds -3 1031 88 10000 3.18 187 23:31 23.02.2022
3587 Clouds -1 1030 91 10000 3.41 182 21:43 23.02.2022
3588 Clouds -1 1030 90 10000 3.29 183 20:31 23.02.2022
3589 Clouds 0 1029 88 10000 3.37 179 19:48 23.02.2022
3590 Clouds 1 1029 87 10000 3.06 181 18:32 23.02.2022
3591 Clouds 3 1027 88 10000 2.76 179 17:44 23.02.2022
3592 Clouds 5 1024 65 10000 1.95 161 15:19 23.02.2022
3593 Clouds 4 1026 95 10000 0.95 113 13:28 23.02.2022
3594 Clouds 4 1027 78 9992 1.1 58 12:24 23.02.2022
3595 Clouds 3 1028 81 7349 1.74 34 10:44 23.02.2022
3596 Clouds -1 1030 87 6997 2.14 352 09:00 23.02.2022
3597 Clouds -2 1032 96 6938 2.17 335 08:23 23.02.2022
3598 Clouds -2 1032 92 7143 2.55 331 07:18 23.02.2022
3599 Clouds -1 1028 91 10000 3.34 325 01:21 23.02.2022
3600 Clouds -1 1029 90 10000 3.17 319 23:39 22.02.2022
3601 Clouds -1 1031 92 9332 3.21 312 22:51 22.02.2022
3602 Clouds -1 1032 87 10000 3.3 308 21:56 22.02.2022
3603 Clouds -1 1032 87 10000 3.3 308 21:37 22.02.2022
3604 Clouds 0 1031 80 10000 3.28 309 21:18 22.02.2022
3605 Snow 0 1031 80 10000 3.28 309 20:31 22.02.2022
3606 Clouds 0 1030 77 10000 3.39 309 19:51 22.02.2022
3607 Clouds 0 1030 77 10000 3.39 309 19:31 22.02.2022
3608 Clouds 1 1029 86 10000 3.05 314 18:23 22.02.2022
3609 Clouds 1 1027 82 10000 3.7 322 17:26 22.02.2022
3610 Clouds 1 1027 82 10000 3.7 322 16:41 22.02.2022
3611 Clouds 2 1025 78 10000 4.51 330 15:59 22.02.2022
3612 Clouds 2 1024 60 10000 4.22 329 14:48 22.02.2022
3613 Clouds 1 1025 71 10000 4.72 331 12:48 22.02.2022
3614 Clouds 0 1026 73 10000 4.27 332 10:53 22.02.2022
3615 Snow -2 1026 86 4209 4.7 319 08:53 22.02.2022
3616 Snow -3 1024 94 1991 4.96 321 07:27 22.02.2022
3617 Snow -3 1024 94 747 4.81 321 06:52 22.02.2022
3618 Snow -3 1023 95 1622 4.56 332 02:47 22.02.2022
3619 Snow -2 1017 91 405 7.69 338 23:18 21.02.2022
3620 Snow -1 1015 86 187 5.44 329 21:56 21.02.2022
3621 Snow -2 1015 93 215 5.46 331 20:37 21.02.2022
3622 Snow -2 1014 92 107 3.96 330 18:47 21.02.2022
3623 Snow -2 1013 91 155 3.66 332 17:41 21.02.2022
3624 Snow -2 1013 91 155 3.66 332 17:41 21.02.2022
3625 Snow -2 1013 86 5132 4.84 335 15:26 21.02.2022
3626 Snow -1 1013 85 6019 4.49 334 14:22 21.02.2022
3627 Snow -1 1013 79 6019 4.49 334 13:30 21.02.2022
3628 Snow -1 1014 79 6202 4.45 332 12:24 21.02.2022
3629 Snow -1 1015 76 8661 4.35 334 11:20 21.02.2022
3630 Snow -2 1014 83 230 5.42 332 10:23 21.02.2022
3631 Snow 0 1012 89 7778 2.52 277 05:35 21.02.2022
3632 Clouds -1 1020 72 10000 2.18 262 00:20 21.02.2022
3633 Clouds -2 1021 71 10000 2.26 237 22:28 20.02.2022
3634 Clouds -2 1021 71 10000 2.26 237 21:43 20.02.2022
3635 Clouds -1 1022 76 10000 1.98 247 21:19 20.02.2022
3636 Clouds -1 1022 76 10000 1.98 247 20:41 20.02.2022
3637 Clouds 0 1022 81 10000 1.91 255 19:42 20.02.2022
3638 Clouds 1 1022 86 10000 1.89 259 18:54 20.02.2022
3639 Clouds 1 1022 85 10000 1.91 267 18:34 20.02.2022
3640 Clouds 3 1021 88 10000 1.68 262 17:53 20.02.2022
3641 Clouds 5 1019 64 10000 2.09 312 16:18 20.02.2022
3642 Clouds 4 1019 65 10000 1.79 301 14:52 20.02.2022
3643 Clouds 4 1020 67 10000 1.69 302 13:53 20.02.2022
3644 Clouds 3 1021 66 10000 2.43 319 12:34 20.02.2022
3645 Clouds 1 1022 79 10000 2.58 315 10:47 20.02.2022
3646 Clouds 0 1022 80 10000 2.25 319 10:20 20.02.2022
3647 Clouds -3 1025 89 10000 2.06 302 08:56 20.02.2022
3648 Clouds -5 1030 85 10000 2.02 294 00:55 20.02.2022
3649 Clouds -4 1029 84 10000 1.97 290 00:30 20.02.2022
3650 Clouds -4 1029 87 10000 2.29 289 23:19 19.02.2022
3651 Clouds -3 1029 89 10000 2.18 292 22:23 19.02.2022
3652 Clouds -4 1029 89 10000 2.18 292 21:39 19.02.2022
3653 Clouds -1 1028 91 10000 1.74 283 19:58 19.02.2022
3654 Clouds -1 1028 91 10000 1.74 283 19:33 19.02.2022
3655 Clouds -1 1026 92 10000 1.57 286 18:38 19.02.2022
3656 Clouds 0 1024 91 10000 1.3 304 17:37 19.02.2022
3657 Clouds 0 1021 88 10000 1.94 335 16:34 19.02.2022
3658 Clouds 2 1020 80 10000 2.95 341 15:19 19.02.2022
3659 Clouds 1 1020 80 10000 2.95 341 14:52 19.02.2022
3660 Clouds 1 1020 81 10000 3.03 339 13:45 19.02.2022
3661 Clouds 0 1020 84 10000 3.18 336 11:39 19.02.2022
3662 Snow 0 1020 87 9999 3.3 334 10:30 19.02.2022
3663 Snow -1 1020 92 7356 3.18 329 07:56 19.02.2022
3664 Snow 0 1018 93 5245 3.53 331 04:32 19.02.2022
3665 Snow 1 1014 97 1877 2.14 317 23:38 18.02.2022
3666 Rain 3 1015 92 9831 1.61 263 21:54 18.02.2022
3667 Rain 3 1015 85 10000 2.14 245 20:57 18.02.2022
3668 Clouds 3 1014 83 10000 2.19 214 19:54 18.02.2022
3669 Clouds 4 1014 83 10000 2.15 204 18:50 18.02.2022
3670 Clouds 4 1013 86 10000 2.4 196 18:22 18.02.2022
3671 Clouds 3 1013 86 10000 2.4 196 17:55 18.02.2022
3672 Clouds 6 1012 98 1748 3.65 181 15:22 18.02.2022
3673 Clouds 4 1012 98 2674 3.56 186 13:55 18.02.2022
3674 Clouds 5 1012 97 10000 3.53 185 12:55 18.02.2022
3675 Clouds 4 1012 97 10000 3.53 185 12:36 18.02.2022
3676 Clouds 6 1013 59 10000 3.14 196 11:29 18.02.2022
3677 Clouds 4 1013 65 10000 2.65 200 10:23 18.02.2022
3678 Clouds 0 1018 83 10000 1.65 257 06:57 18.02.2022
3679 Clouds 0 1019 84 10000 1.75 266 05:41 18.02.2022
3680 Clouds 2 1022 91 10000 2.72 304 23:34 17.02.2022
3681 Clouds 4 1021 67 10000 3.12 312 21:46 17.02.2022
3682 Clouds 4 1020 93 10000 3.19 318 21:20 17.02.2022
3683 Clouds 4 1020 93 10000 3.19 318 20:38 17.02.2022
3684 Clouds 5 1020 95 6508 3.3 323 19:50 17.02.2022
3685 Clouds 5 1019 95 6384 3.06 322 18:44 17.02.2022
3686 Clouds 5 1018 94 6430 2.86 321 17:55 17.02.2022
3687 Clouds 6 1017 95 6500 2.66 314 16:42 17.02.2022
3688 Clouds 7 1016 98 210 2.45 309 15:38 17.02.2022
3689 Clouds 7 1016 99 103 3.11 317 14:26 17.02.2022
3690 Clouds 7 1016 99 52 2.27 307 12:43 17.02.2022
3691 Clouds 6 1015 100 49 3.2 304 11:27 17.02.2022
3692 Clouds 4 1014 89 59 2.86 311 08:53 17.02.2022
3693 Rain 3 1011 90 2737 2.57 290 04:20 17.02.2022
3694 Snow 1 1015 90 2407 2.02 276 23:21 16.02.2022
3695 Snow 1 1015 97 3506 2.02 294 21:44 16.02.2022
3696 Snow 0 1015 91 4329 2.65 302 19:57 16.02.2022
3697 Snow 0 1014 90 5207 2.89 305 18:39 16.02.2022
3698 Clouds 0 1013 88 5112 2.31 301 17:53 16.02.2022
3699 Clouds 1 1012 88 1833 1.52 261 15:39 16.02.2022
3700 Snow 1 1013 87 1929 1.51 256 15:19 16.02.2022
3701 Snow 1 1014 86 1802 1.75 228 13:28 16.02.2022
3702 Snow 0 1014 85 805 2.23 208 12:19 16.02.2022
3703 Snow -1 1015 81 2157 2.66 201 11:26 16.02.2022
3704 Snow -2 1015 75 2157 2.66 201 10:33 16.02.2022
3705 Snow -4 1017 85 10000 1.89 230 08:20 16.02.2022
3706 Clouds -4 1019 85 10000 1.3 255 06:26 16.02.2022
3707 Clouds -7 1028 71 10000 1.67 280 23:45 15.02.2022
3708 Clouds -5 1027 89 10000 1.59 281 22:30 15.02.2022
3709 Clouds -5 1027 93 10000 1.59 295 21:47 15.02.2022
3710 Clouds -4 1025 92 10000 2.51 315 21:27 15.02.2022
3711 Clouds -4 1025 92 10000 2.51 315 20:56 15.02.2022
3712 Clouds -3 1023 89 10000 3.08 324 19:57 15.02.2022
3713 Clouds -2 1021 91 7969 3.26 325 18:56 15.02.2022
3714 Snow -2 1021 93 5848 3.61 327 18:22 15.02.2022
3715 Snow -2 1021 93 5848 3.61 327 17:50 15.02.2022
3716 Snow -1 1019 90 7607 3.9 330 17:19 15.02.2022
3717 Snow 0 1017 69 8630 3.94 335 15:30 15.02.2022
3718 Snow 0 1017 82 8534 4.19 333 13:28 15.02.2022
3719 Clouds 0 1017 77 8678 3.91 330 12:37 15.02.2022
3720 Snow -1 1017 83 9555 4.11 331 11:40 15.02.2022
3721 Snow -1 1015 95 4380 4.21 337 09:31 15.02.2022
3722 Snow -2 1015 91 1744 3.03 336 06:58 15.02.2022
3723 Snow -2 1015 91 2039 2.55 331 05:32 15.02.2022
3724 Snow -1 1015 87 267 1.36 213 23:33 14.02.2022
3725 Snow -1 1015 88 402 1.8 193 21:47 14.02.2022
3726 Snow -1 1015 89 440 1.85 184 20:40 14.02.2022
3727 Snow -1 1015 95 264 2.25 184 19:36 14.02.2022
3728 Snow 0 1016 93 7591 3.16 170 18:44 14.02.2022
3729 Snow 0 1015 93 8817 3.25 165 18:22 14.02.2022
3730 Clouds 1 1014 91 10000 3.31 159 17:26 14.02.2022
3731 Clouds 2 1013 88 10000 3.92 161 16:24 14.02.2022
3732 Clouds 2 1014 84 10000 4.39 157 14:29 14.02.2022
3733 Clouds 1 1014 84 10000 4.39 157 13:31 14.02.2022
3734 Clouds 0 1015 85 10000 4.19 161 12:48 14.02.2022
3735 Clouds 1 1016 51 10000 4.22 160 11:54 14.02.2022
3736 Clouds -1 1017 54 10000 4.17 161 10:56 14.02.2022
3737 Clouds -7 1021 61 8324 3.72 170 08:45 14.02.2022
3738 Clouds -8 1024 92 7893 3.42 176 07:32 14.02.2022
3739 Clouds -7 1025 93 10000 4.34 174 02:27 14.02.2022
3740 Clouds -7 1026 92 10000 4.62 174 22:42 13.02.2022
3741 Clouds -7 1026 92 10000 4.78 173 22:24 13.02.2022
3742 Clouds -7 1026 92 10000 4.78 173 21:32 13.02.2022
3743 Clouds -6 1026 92 10000 4.8 171 20:36 13.02.2022
3744 Clouds -5 1026 93 10000 4.63 172 19:45 13.02.2022
3745 Clouds -5 1027 91 10000 4.3 173 18:49 13.02.2022
3746 Clear -3 1026 86 10000 4.16 172 18:28 13.02.2022
3747 Clear 0 1022 75 10000 3.87 166 16:34 13.02.2022
3748 Clear 2 1022 71 10000 3.68 169 15:24 13.02.2022
3749 Clear 1 1022 71 10000 3.68 169 14:36 13.02.2022
3750 Clear 0 1023 66 10000 3.63 170 12:51 13.02.2022
3751 Clouds 0 1024 35 10000 3.59 170 11:44 13.02.2022
3752 Clouds -2 1025 35 10000 3.47 171 10:34 13.02.2022
3753 Clouds -5 1027 45 10000 3.25 170 09:47 13.02.2022
3754 Clouds -9 1033 53 10000 2.33 191 07:51 13.02.2022
3755 Clouds -7 1033 77 10000 2.39 199 00:36 13.02.2022
3756 Clouds -7 1034 81 10000 2.61 197 23:53 12.02.2022
3757 Clouds -7 1035 85 10000 2.75 196 22:33 12.02.2022
3758 Clouds -6 1035 89 10000 3.05 192 21:31 12.02.2022
3759 Clouds -7 1035 92 10000 3.28 187 20:47 12.02.2022
3760 Clouds -6 1035 93 10000 3.31 186 19:35 12.02.2022
3761 Clouds -5 1035 93 10000 3.17 184 18:53 12.02.2022
3762 Clouds -5 1034 93 10000 3.22 185 18:35 12.02.2022
3763 Clouds -3 1031 86 10000 2.99 174 17:20 12.02.2022
3764 Clouds -3 1031 86 10000 2.99 174 16:43 12.02.2022
3765 Clouds -2 1029 79 10000 2.92 172 15:51 12.02.2022
3766 Clouds -1 1029 74 10000 3.07 176 14:44 12.02.2022
3767 Clouds -2 1029 72 10000 3.34 176 14:24 12.02.2022
3768 Clear -3 1032 36 10000 3.72 175 11:18 12.02.2022
3769 Clear -7 1033 43 10000 3.46 177 09:51 12.02.2022
3770 Clear -9 1036 46 10000 3.04 183 09:27 12.02.2022
3771 Clear -10 1036 53 10000 3.04 183 08:45 12.02.2022
3772 Clear -10 1037 17 10000 2.93 189 05:40 12.02.2022
3773 Clear -10 1037 17 10000 2.65 186 04:33 12.02.2022
3774 Clear -8 1040 33 10000 0.81 211 02:18 12.02.2022
3775 Clouds -7 1042 55 10000 0.49 338 22:55 11.02.2022
3776 Clouds -7 1042 60 10000 0.86 344 22:20 11.02.2022
3777 Clouds -6 1042 70 10000 1.19 338 20:43 11.02.2022
3778 Clouds -5 1041 87 10000 1.48 339 19:48 11.02.2022
3779 Clouds -5 1040 93 6741 1.73 335 19:27 11.02.2022
3780 Clouds -4 1038 95 9825 1.96 340 18:26 11.02.2022
3781 Clouds -2 1034 92 10000 3.18 346 17:26 11.02.2022
3782 Clouds -1 1031 83 10000 3.62 347 16:26 11.02.2022
3783 Clouds 0 1030 56 10000 4.14 345 14:57 11.02.2022
3784 Clouds 0 1030 63 10000 4.14 345 14:36 11.02.2022
3785 Clouds 1 1029 64 8162 4.43 345 14:18 11.02.2022
3786 Clouds 0 1029 63 8162 4.43 345 13:39 11.02.2022
3787 Snow 0 1029 66 7848 4.43 345 12:19 11.02.2022
3788 Snow -1 1027 74 3820 4.1 342 10:24 11.02.2022
3789 Snow -1 1027 76 510 3.73 340 09:19 11.02.2022
3790 Snow -1 1026 92 1962 3.41 336 08:28 11.02.2022
3791 Snow -1 1027 91 3004 3.6 330 07:34 11.02.2022
3792 Clouds -1 1028 83 10000 1.37 260 02:40 11.02.2022
3793 Clouds -1 1029 86 10000 1.39 259 02:20 11.02.2022
3794 Clear -2 1030 87 10000 1.38 277 23:36 10.02.2022
3795 Clear -2 1031 80 10000 1.58 287 21:53 10.02.2022
3796 Clear -2 1031 77 10000 1.62 285 21:24 10.02.2022
3797 Clear -1 1031 77 10000 1.62 285 20:48 10.02.2022
3798 Clouds -1 1030 77 10000 1.54 281 19:26 10.02.2022
3799 Clouds -1 1030 77 10000 1.54 281 18:47 10.02.2022
3800 Clouds 3 1029 75 10000 1.47 289 17:39 10.02.2022
3801 Clouds 3 1026 78 10000 1.64 313 17:19 10.02.2022
3802 Clouds 3 1024 79 10000 1.85 323 16:20 10.02.2022
3803 Clouds 3 1024 79 10000 1.85 323 15:33 10.02.2022
3804 Clouds 4 1024 82 10000 1.7 322 14:49 10.02.2022
3805 Clouds 5 1024 86 10000 1.41 316 14:29 10.02.2022
3806 Clouds 4 1024 86 10000 1.41 316 13:33 10.02.2022
3807 Clouds 5 1024 90 10000 0.99 304 12:51 10.02.2022
3808 Clear 4 1025 42 10000 1.14 317 11:38 10.02.2022
3809 Clear 2 1025 49 10000 0.95 309 11:20 10.02.2022
3810 Clear 1 1026 54 10000 1.04 303 10:18 10.02.2022
3811 Clouds -3 1029 58 10000 1.1 282 09:25 10.02.2022
3812 Clouds -8 1031 34 10000 1.27 281 07:40 10.02.2022
3813 Clouds -7 1030 28 10000 1.08 269 05:52 10.02.2022
3814 Clouds -7 1031 25 10000 1.41 231 01:57 10.02.2022
3815 Clouds -7 1031 24 10000 1.47 232 00:50 10.02.2022
3816 Clouds -7 1031 23 10000 1.46 231 00:50 10.02.2022
3817 Clouds -6 1031 22 10000 1.48 231 00:29 10.02.2022
3818 Clouds -7 1031 20 10000 1.52 227 23:26 09.02.2022
3819 Clouds -5 1031 20 10000 1.52 227 22:37 09.02.2022
3820 Clouds -5 1031 19 10000 1.33 228 21:52 09.02.2022
3821 Clouds -5 1031 19 10000 1.33 228 21:30 09.02.2022
3822 Clouds -2 1031 19 10000 1.18 235 20:51 09.02.2022
3823 Clouds -3 1031 19 10000 1.18 235 20:31 09.02.2022
3824 Clouds -4 1031 19 10000 1.16 241 19:56 09.02.2022
3825 Clouds -4 1031 19 10000 1.16 241 19:32 09.02.2022
3826 Clouds 2 1030 33 10000 1.05 268 17:38 09.02.2022
3827 Clouds 2 1027 52 10000 0.95 285 16:52 09.02.2022
3828 Clouds 2 1027 70 10000 0.94 279 15:51 09.02.2022
3829 Clouds 2 1027 89 9045 0.89 263 14:42 09.02.2022
3830 Clouds 2 1028 94 10000 0.91 233 12:28 09.02.2022
3831 Clouds 5 1028 46 10000 0.89 243 10:55 09.02.2022
3832 Clouds 5 1028 46 10000 0.89 243 10:55 09.02.2022
3833 Clouds 1 1028 47 10000 0.89 243 10:30 09.02.2022
3834 Clouds -8 1028 53 10000 0.96 246 09:40 09.02.2022
3835 Clouds -2 1031 58 10000 1.19 256 09:19 09.02.2022
3836 Clouds -3 1032 60 10000 1.27 262 07:55 09.02.2022
3837 Clear -3 1032 62 10000 1.35 267 05:30 09.02.2022
3838 Clear -4 1032 67 10000 1.25 261 03:50 09.02.2022
3839 Clear -4 1033 73 10000 1.14 269 00:53 09.02.2022
3840 Clear -4 1034 73 10000 1.06 273 23:33 08.02.2022
3841 Clear -4 1034 72 10000 1.13 280 22:47 08.02.2022
3842 Clear -4 1035 71 10000 1.09 282 22:21 08.02.2022
3843 Clear -4 1035 71 10000 1.09 282 21:42 08.02.2022
3844 Clear -4 1035 70 10000 1.23 291 21:21 08.02.2022
3845 Clear -4 1035 70 10000 1.23 291 20:44 08.02.2022
3846 Clear -3 1035 69 10000 1.24 291 19:46 08.02.2022
3847 Clear -2 1035 67 10000 1.39 302 18:38 08.02.2022
3848 Clear -1 1034 54 10000 1.52 310 17:42 08.02.2022
3849 Clear 2 1032 54 10000 1.82 326 16:30 08.02.2022
3850 Clear 3 1030 52 10000 2.04 334 15:30 08.02.2022
3851 Clear 4 1030 45 10000 2.25 337 14:38 08.02.2022
3852 Clear 2 1031 45 10000 2.3 338 13:24 08.02.2022
3853 Clear -1 1031 78 10000 2.55 336 11:38 08.02.2022
3854 Clear -1 1033 56 10000 2.7 331 10:23 08.02.2022
3855 Clear -1 1033 56 10000 2.7 331 10:23 08.02.2022
3856 Clear -3 1033 56 10000 2.7 331 09:45 08.02.2022
3857 Clear -7 1038 75 10000 2.31 318 07:55 08.02.2022
3858 Clear -6 1037 83 10000 2.52 318 05:41 08.02.2022
3859 Clear -7 1038 84 10000 2.5 317 04:39 08.02.2022
3860 Clear -7 1038 83 10000 2.3 313 04:21 08.02.2022
3861 Clear -8 1038 82 10000 2.3 313 03:36 08.02.2022
3862 Clear -8 1038 83 10000 2.45 316 03:18 08.02.2022
3863 Clear -7 1038 84 10000 2.45 316 02:59 08.02.2022
3864 Clear -7 1038 84 10000 2.45 316 02:36 08.02.2022
3865 Clear -8 1038 84 10000 2.57 318 02:18 08.02.2022
3866 Clear -8 1038 84 10000 2.57 318 02:18 08.02.2022
3867 Clear -7 1038 82 10000 2.57 318 01:44 08.02.2022
3868 Clouds -6 1038 32 10000 2.47 320 01:24 08.02.2022
3869 Clouds -6 1038 32 10000 2.47 320 00:54 08.02.2022
3870 Clear -7 1038 33 10000 2.56 320 23:57 07.02.2022
3871 Clear -7 1038 33 10000 2.56 320 23:39 07.02.2022
3872 Clouds -8 1039 36 10000 2.66 323 23:18 07.02.2022
3873 Clouds -7 1039 43 10000 2.59 324 22:20 07.02.2022
3874 Clouds -7 1039 43 10000 2.59 324 21:55 07.02.2022
3875 Clouds -7 1039 55 10000 2.8 323 21:29 07.02.2022
3876 Clouds -7 1039 55 10000 2.8 323 20:59 07.02.2022
3877 Clouds -7 1039 55 10000 2.8 323 20:40 07.02.2022
3878 Clouds -5 1039 72 10000 2.8 319 19:51 07.02.2022
3879 Clouds -5 1039 72 10000 2.8 319 19:32 07.02.2022
3880 Clouds -2 1036 95 7854 3.29 325 17:52 07.02.2022
3881 Clouds -1 1033 92 10000 4.16 331 16:53 07.02.2022
3882 Clouds -1 1030 83 10000 4.75 336 15:49 07.02.2022
3883 Clouds -1 1030 77 10000 4.7 332 14:55 07.02.2022
3884 Snow -2 1029 82 5577 4.91 320 13:28 07.02.2022
3885 Snow -2 1029 69 5577 4.91 320 12:52 07.02.2022
3886 Snow -2 1028 70 4928 5.3 325 11:58 07.02.2022
3887 Snow -2 1028 74 4928 5.3 325 11:35 07.02.2022
3888 Snow -3 1026 84 4571 5.86 331 10:50 07.02.2022
3889 Snow -4 1026 84 4571 5.86 331 10:30 07.02.2022
3890 Snow -4 1024 87 8842 6.3 333 09:53 07.02.2022
3891 Snow -4 1023 90 2696 6.67 332 09:18 07.02.2022
3892 Snow -3 1023 93 2696 6.67 332 08:36 07.02.2022
3893 Snow -2 1017 94 180 6.24 344 06:54 07.02.2022
3894 Snow -2 1017 94 180 6.24 344 06:34 07.02.2022
3895 Snow 1 1011 97 119 3.44 311 02:58 07.02.2022
3896 Snow 0 1013 92 142 2.96 277 00:45 07.02.2022
3897 Snow 0 1013 92 142 2.96 277 00:45 07.02.2022
3898 Snow 0 1014 89 142 2.74 272 23:47 06.02.2022
3899 Snow -1 1015 86 202 2.91 268 22:48 06.02.2022
3900 Snow -1 1017 88 555 3.08 257 21:54 06.02.2022
3901 Snow -1 1017 88 555 3.08 257 21:35 06.02.2022
3902 Snow -1 1018 87 2340 2.97 251 20:54 06.02.2022
3903 Snow -1 1018 86 2340 2.97 251 20:31 06.02.2022
3904 Snow 0 1019 86 1550 2.52 267 19:38 06.02.2022
3905 Snow -1 1018 84 2050 2.76 273 18:40 06.02.2022
3906 Snow -1 1019 87 3475 2.11 277 17:55 06.02.2022
3907 Clouds -1 1018 84 9261 2 271 17:18 06.02.2022
3908 Clouds 0 1018 84 9261 2 271 16:38 06.02.2022
3909 Clouds 0 1017 78 10000 1.71 263 15:48 06.02.2022
3910 Clouds 0 1018 68 10000 1.71 279 15:26 06.02.2022
3911 Clouds 1 1018 66 10000 1.71 279 14:36 06.02.2022
3912 Clouds 1 1018 56 10000 1.72 238 13:25 06.02.2022
3913 Clouds 0 1018 63 10000 1.58 247 12:51 06.02.2022
3914 Clouds -1 1020 46 10000 1.41 247 11:27 06.02.2022
3915 Clouds -3 1022 49 10000 1.62 283 10:30 06.02.2022
3916 Clouds -6 1025 80 10000 1.8 278 08:49 06.02.2022
3917 Clouds -7 1027 80 10000 1.94 273 07:51 06.02.2022
3918 Clouds -8 1028 82 10000 1.78 261 05:30 06.02.2022
3919 Clouds -8 1028 82 10000 1.78 261 05:30 06.02.2022
3920 Clouds -8 1028 82 10000 1.78 261 05:30 06.02.2022
3921 Clouds -8 1028 82 10000 1.78 261 05:30 06.02.2022
3922 Clear -7 1031 83 10000 1.64 263 02:26 06.02.2022
3923 Clear -7 1031 83 10000 1.64 263 01:47 06.02.2022
3924 Clear -7 1031 33 10000 1.65 273 00:26 06.02.2022
3925 Clear -6 1032 45 10000 1.6 276 22:20 05.02.2022
3926 Clear -6 1032 56 10000 1.59 284 20:59 05.02.2022
3927 Clear -5 1032 69 10000 1.55 290 20:24 05.02.2022
3928 Clear -5 1032 69 10000 1.55 290 19:45 05.02.2022
3929 Clouds -5 1031 88 10000 1.91 303 18:52 05.02.2022
3930 Clouds -2 1030 92 10000 1.96 306 17:38 05.02.2022
3931 Clouds -1 1027 91 10000 1.91 320 16:48 05.02.2022
3932 Clouds 1 1024 71 10000 2.44 335 15:33 05.02.2022
3933 Clouds 2 1024 66 10000 2.74 335 14:47 05.02.2022
3934 Clouds 0 1024 77 10000 3 340 12:47 05.02.2022
3935 Clouds -1 1024 86 10000 3.06 341 11:49 05.02.2022
3936 Clouds -2 1024 90 10000 3.09 341 10:46 05.02.2022
3937 Snow -2 1024 93 7925 3.49 346 09:52 05.02.2022
3938 Snow -2 1024 92 7051 3.61 341 09:25 05.02.2022
3939 Snow -2 1024 94 6811 3.74 337 07:38 05.02.2022
3940 Snow -2 1023 94 7104 3.57 332 06:56 05.02.2022
3941 Clouds -1 1023 94 7995 3.23 320 03:55 05.02.2022
3942 Clouds -1 1022 93 10000 2.95 315 01:19 05.02.2022
3943 Clouds -1 1022 92 9724 3.03 318 00:42 05.02.2022
3944 Clouds -1 1021 91 8687 3.3 322 23:38 04.02.2022
3945 Clouds -1 1021 91 6804 3.29 320 23:20 04.02.2022
3946 Clouds -1 1021 85 3805 3.25 315 21:37 04.02.2022
3947 Clouds -1 1021 84 6882 3.27 316 21:18 04.02.2022
3948 Clouds -1 1021 82 6882 3.27 316 20:50 04.02.2022
3949 Clouds -1 1021 95 6959 2.81 309 19:33 04.02.2022
3950 Clouds 1 1017 76 6119 1.68 301 17:27 04.02.2022
3951 Clouds 3 1015 63 8679 1.24 299 15:38 04.02.2022
3952 Clouds 3 1015 66 7897 1.28 291 14:52 04.02.2022
3953 Clear 2 1015 73 10000 0.68 268 12:43 04.02.2022
3954 Clear 1 1016 71 10000 0.72 280 11:47 04.02.2022
3955 Clear 2 1017 66 10000 1.04 298 11:22 04.02.2022
3956 Clear 0 1017 81 10000 1.04 298 10:30 04.02.2022
3957 Clear -5 1022 73 10000 1.31 281 08:34 04.02.2022
3958 Clouds -5 1023 59 10000 1.11 258 05:19 04.02.2022
3959 Clouds -5 1023 59 10000 1.12 251 02:39 04.02.2022
3960 Clouds -3 1023 76 10000 1.34 221 00:26 04.02.2022
3961 Clouds -1 1022 89 10000 1.82 217 22:55 03.02.2022
3962 Clouds -1 1021 89 10000 2.23 197 22:22 03.02.2022
3963 Clouds -1 1021 91 10000 2.23 197 21:41 03.02.2022
3964 Clouds -1 1022 92 10000 2.46 202 20:26 03.02.2022
3965 Clouds 0 1022 91 10000 2.46 202 19:57 03.02.2022
3966 Clouds 0 1021 92 10000 2.5 201 19:23 03.02.2022
3967 Clouds 0 1021 92 10000 2.09 205 18:24 03.02.2022
3968 Clouds 1 1020 91 10000 2.42 195 17:27 03.02.2022
3969 Clouds 3 1019 88 10000 2.49 191 15:44 03.02.2022
3970 Clouds 2 1018 87 10000 2.78 190 14:22 03.02.2022
3971 Clouds 2 1019 81 10000 2.48 196 12:32 03.02.2022
3972 Clouds -2 1023 91 10000 1.18 287 09:29 03.02.2022
3973 Clouds -3 1025 93 10000 1.34 303 08:19 03.02.2022
3974 Clouds -1 1026 95 10000 2.36 331 02:56 03.02.2022
3975 Clouds -1 1027 95 6594 3.19 327 00:29 03.02.2022
3976 Clouds -1 1027 94 6582 3.74 327 22:41 02.02.2022
3977 Snow -1 1026 94 6687 4.1 327 21:52 02.02.2022
3978 Snow -1 1026 94 6406 4.04 325 21:29 02.02.2022
3979 Snow 0 1025 92 2721 4.02 327 20:28 02.02.2022
3980 Snow 0 1025 88 2721 4.02 327 19:49 02.02.2022
3981 Snow 0 1025 88 1371 4.16 328 19:20 02.02.2022
3982 Snow 0 1025 90 1093 4.16 324 18:25 02.02.2022
3983 Snow 0 1024 91 793 4.37 322 17:23 02.02.2022
3984 Snow 0 1024 90 793 4.37 322 16:59 02.02.2022
3985 Snow 0 1023 91 431 4.55 324 15:49 02.02.2022
3986 Snow 0 1020 94 200 4.85 327 12:47 02.02.2022
3987 Snow 0 1020 94 189 4.76 327 11:51 02.02.2022
3988 Snow 0 1020 94 189 4.76 327 11:51 02.02.2022
3989 Snow 0 1020 94 189 4.76 327 11:30 02.02.2022
3990 Snow -1 1019 95 155 4.72 325 09:18 02.02.2022
3991 Snow 0 1019 94 233 5 322 05:29 02.02.2022
3992 Snow -3 1020 92 154 4.8 324 22:36 01.02.2022
3993 Snow -4 1021 93 133 4.13 319 20:58 01.02.2022
3994 Snow -5 1022 92 132 3.8 312 19:39 01.02.2022
3995 Snow -4 1023 91 325 3.57 317 17:37 01.02.2022
3996 Snow -4 1023 90 574 3.73 317 16:31 01.02.2022
3997 Clouds -3 1025 79 10000 4.8 325 13:27 01.02.2022
3998 Clouds -3 1026 84 9372 4.34 325 12:28 01.02.2022
3999 Snow -5 1027 91 3665 4.25 325 08:52 01.02.2022
4000 Snow -5 1021 89 338 4.83 323 02:24 01.02.2022
4001 Snow -5 1021 87 273 4.71 319 23:39 31.01.2022
4002 Snow -5 1021 89 462 4.97 322 22:42 31.01.2022
4003 Snow -5 1020 91 1938 5 327 21:36 31.01.2022
4004 Snow -4 1019 87 2068 5.51 331 20:35 31.01.2022
4005 Snow -4 1019 89 740 6.01 329 19:59 31.01.2022
4006 Snow -4 1018 84 1314 6.51 328 18:47 31.01.2022
4007 Snow -4 1018 85 588 6.52 329 17:57 31.01.2022
4008 Snow -4 1015 92 2178 6.62 329 17:24 31.01.2022
4009 Snow -3 1014 90 320 5.69 325 16:23 31.01.2022
4010 Snow -2 1013 90 3779 5.27 328 14:53 31.01.2022
4011 Snow -1 1013 88 2249 5.9 326 13:35 31.01.2022
4012 Snow -1 1013 84 6749 5.08 321 12:38 31.01.2022
4013 Snow -2 1017 85 10000 3.58 308 11:26 31.01.2022
4014 Snow -2 1017 85 10000 3.58 308 10:48 31.01.2022
4015 Clouds -3 1019 69 10000 3.99 316 09:37 31.01.2022
4016 Clouds -4 1021 87 10000 3.97 314 08:56 31.01.2022
4017 Clouds -4 1021 85 10000 4.35 316 08:20 31.01.2022
4018 Clouds -5 1021 83 10000 4.35 316 07:40 31.01.2022
4019 Clouds -4 1020 85 10000 3.22 305 05:25 31.01.2022
4020 Clear -4 1025 81 10000 1.97 285 00:36 31.01.2022
4021 Clouds -3 1028 31 10000 1.69 293 22:33 30.01.2022
4022 Clouds -2 1030 39 10000 1.66 296 21:46 30.01.2022
4023 Clear -2 1030 40 10000 1.81 310 21:26 30.01.2022
4024 Clear -2 1030 40 10000 1.81 310 20:54 30.01.2022
4025 Clear -2 1030 40 10000 1.81 310 20:31 30.01.2022
4026 Clouds -4 1031 52 10000 1.78 312 19:56 30.01.2022
4027 Clouds -2 1032 66 10000 1.72 318 18:52 30.01.2022
4028 Clouds -1 1032 81 10000 1.87 325 18:22 30.01.2022
4029 Clouds 0 1032 81 10000 1.87 325 17:31 30.01.2022
4030 Clouds 0 1032 81 10000 1.87 325 17:31 30.01.2022
4031 Clouds 0 1030 87 10000 2.78 337 16:43 30.01.2022
4032 Clouds 2 1028 78 10000 3.52 341 16:23 30.01.2022
4033 Clouds 2 1028 78 10000 3.52 341 16:23 30.01.2022
4034 Clouds 2 1028 86 10000 3.52 341 15:55 30.01.2022
4035 Clouds 2 1028 76 10000 3.52 341 15:33 30.01.2022
4036 Clouds 2 1027 81 10000 3.92 341 14:48 30.01.2022
4037 Clouds 2 1028 81 10000 4 337 13:49 30.01.2022
4038 Clouds 2 1028 77 10000 4.18 337 12:46 30.01.2022
4039 Clouds 0 1030 85 8427 4.95 337 11:23 30.01.2022
4040 Clouds -1 1030 86 8707 4.98 337 10:26 30.01.2022
4041 Clouds -1 1031 84 8805 4.76 333 09:23 30.01.2022
4042 Clouds -1 1031 81 5164 4.57 331 08:00 30.01.2022
4043 Clear -3 1033 80 10000 3.29 311 02:55 30.01.2022
4044 Clear -3 1034 76 10000 3.09 307 01:54 30.01.2022
4045 Clear -2 1034 66 10000 3.11 314 23:49 29.01.2022
4046 Clear -2 1035 61 10000 2.82 304 22:57 29.01.2022
4047 Clear -3 1036 54 10000 2.7 300 21:35 29.01.2022
4048 Clouds -5 1037 53 10000 2.72 303 20:59 29.01.2022
4049 Clouds -4 1037 62 10000 2.92 309 20:20 29.01.2022
4050 Clouds -4 1037 62 10000 2.92 309 19:33 29.01.2022
4051 Clouds -4 1038 66 10000 3.3 316 18:44 29.01.2022
4052 Clouds -3 1037 70 10000 3.51 315 17:55 29.01.2022
4053 Clouds -1 1034 51 10000 3.51 319 17:19 29.01.2022
4054 Clouds 2 1031 45 10000 3.23 323 15:35 29.01.2022
4055 Clouds 4 1031 40 10000 3.5 329 13:58 29.01.2022
4056 Clouds 3 1031 41 10000 3.41 328 13:28 29.01.2022
4057 Clouds 1 1031 44 10000 3.41 328 12:59 29.01.2022
4058 Clouds 0 1031 47 10000 3.38 329 11:39 29.01.2022
4059 Clouds 0 1031 47 10000 3.38 329 11:39 29.01.2022
4060 Clouds -1 1032 59 10000 2.98 325 10:34 29.01.2022
4061 Clouds -5 1036 75 10000 2.52 314 08:20 29.01.2022
4062 Clouds -5 1038 80 10000 2.4 322 02:48 29.01.2022
4063 Clouds -6 1040 42 10000 2.42 317 00:32 29.01.2022
4064 Clouds -5 1040 41 10000 2.22 311 23:31 28.01.2022
4065 Clouds -6 1041 42 10000 2.07 312 22:47 28.01.2022
4066 Clouds -5 1041 46 10000 2.49 321 22:19 28.01.2022
4067 Clouds -4 1041 50 10000 2.5 327 20:41 28.01.2022
4068 Clouds -4 1040 58 10000 2.59 326 19:57 28.01.2022
4069 Clouds -4 1041 67 10000 2.56 323 18:52 28.01.2022
4070 Clouds -4 1040 80 10000 2.6 322 17:53 28.01.2022
4071 Clouds -3 1036 81 10000 3.35 331 16:23 28.01.2022
4072 Clouds -2 1035 69 10000 3.73 331 14:54 28.01.2022
4073 Clouds 0 1035 45 10000 3.85 330 12:42 28.01.2022
4074 Clouds -1 1036 77 10000 3.92 328 11:49 28.01.2022
4075 Clouds -2 1035 61 10000 3.86 329 10:26 28.01.2022
4076 Clouds -2 1035 68 10000 3.86 329 09:46 28.01.2022
4077 Snow -5 1035 93 6581 4.27 329 07:41 28.01.2022
4078 Snow -4 1033 93 5738 4 322 05:31 28.01.2022
4079 Clouds -4 1034 65 8535 3.7 309 03:51 28.01.2022
4080 Snow -3 1033 66 10000 3.59 317 02:25 28.01.2022
4081 Snow -2 1033 58 10000 3.59 317 01:37 28.01.2022
4082 Clouds -3 1033 59 10000 3.66 320 00:39 28.01.2022
4083 Clouds -9 1035 41 10000 2.54 289 22:18 27.01.2022
4084 Clouds -10 1035 41 10000 2.54 289 21:34 27.01.2022
4085 Clouds -9 1035 39 10000 2.48 300 20:59 27.01.2022
4086 Clouds -8 1034 38 10000 2.48 298 19:37 27.01.2022
4087 Clouds -6 1033 43 10000 2.46 302 18:18 27.01.2022
4088 Clouds -4 1030 54 10000 2.66 310 16:45 27.01.2022
4089 Clouds 3 1025 46 10000 2.68 323 13:48 27.01.2022
4090 Clouds 4 1026 43 10000 2.32 315 12:48 27.01.2022
4091 Clouds 2 1027 49 10000 1.77 314 11:24 27.01.2022
4092 Clouds -2 1029 61 10000 1.49 300 09:47 27.01.2022
4093 Clouds -4 1032 64 10000 1.49 298 08:40 27.01.2022
4094 Clouds -6 1033 65 10000 1.74 301 07:23 27.01.2022
4095 Clouds -5 1033 66 10000 1.66 302 02:59 27.01.2022
4096 Clouds -5 1035 66 10000 1.57 294 00:23 27.01.2022
4097 Clouds -7 1036 42 10000 1.52 301 22:27 26.01.2022
4098 Clouds -8 1036 42 10000 1.52 301 21:42 26.01.2022
4099 Clouds -8 1036 45 10000 1.51 303 20:42 26.01.2022
4100 Clear -8 1036 47 10000 1.51 292 20:24 26.01.2022
4101 Clear -7 1036 47 10000 1.51 292 19:30 26.01.2022
4102 Clear -7 1036 56 10000 1.46 299 18:46 26.01.2022
4103 Clear -7 1035 63 10000 1.85 315 17:53 26.01.2022
4104 Clear -8 1035 63 10000 1.85 315 17:32 26.01.2022
4105 Clear -6 1033 72 10000 2.4 328 16:46 26.01.2022
4106 Clear 2 1030 53 10000 2.65 331 15:50 26.01.2022
4107 Clear 4 1028 54 10000 2.52 335 14:30 26.01.2022
4108 Clear 2 1029 54 10000 2.26 331 11:59 26.01.2022
4109 Clear 0 1029 69 10000 2.53 332 10:49 26.01.2022
4110 Clear -1 1031 66 10000 2.11 318 09:50 26.01.2022
4111 Clear -3 1034 72 10000 1.78 309 08:32 26.01.2022
4112 Clear -4 1035 71 10000 1.98 312 06:27 26.01.2022
4113 Clear -4 1035 71 10000 1.98 312 06:27 26.01.2022
4114 Clear -4 1035 71 10000 1.98 312 06:27 26.01.2022
4115 Clear -4 1035 71 10000 1.98 312 06:27 26.01.2022
4116 Clear -10 1035 55 10000 1.62 301 00:21 26.01.2022
4117 Clear -9 1035 55 10000 1.62 301 23:34 25.01.2022
4118 Clear -8 1035 55 10000 1.59 299 22:48 25.01.2022
4119 Clear -9 1036 54 10000 1.58 300 22:18 25.01.2022
4120 Clear -10 1036 54 10000 1.56 301 21:23 25.01.2022
4121 Clear -9 1036 54 10000 1.56 301 20:45 25.01.2022
4122 Clear -8 1036 53 10000 1.6 304 19:53 25.01.2022
4123 Clear -8 1035 52 10000 1.62 308 18:50 25.01.2022
4124 Clear -8 1035 57 10000 1.6 314 17:47 25.01.2022
4125 Clear -7 1033 64 10000 1.98 323 17:18 25.01.2022
4126 Clear -7 1033 64 10000 1.98 323 16:34 25.01.2022
4127 Clear -6 1030 71 10000 2.32 333 15:39 25.01.2022
4128 Clear 2 1029 78 10000 2.36 340 14:58 25.01.2022
4129 Clear 4 1029 53 10000 2.36 340 14:38 25.01.2022
4130 Clear 2 1029 61 10000 2.03 336 11:30 25.01.2022
4131 Clear -3 1034 68 10000 1.43 310 09:21 25.01.2022
4132 Clear -3 1035 69 10000 1.42 304 07:31 25.01.2022
4133 Clear -6 1034 47 10000 1.35 303 06:54 25.01.2022
4134 Clear -5 1034 47 10000 1.2 298 05:23 25.01.2022
4135 Clear -3 1035 68 10000 0.79 278 00:20 25.01.2022
4136 Clear -4 1035 51 10000 0.79 278 23:36 24.01.2022
4137 Clear -5 1034 51 10000 0.77 273 23:18 24.01.2022
4138 Clear -5 1034 51 10000 0.77 273 22:42 24.01.2022
4139 Clear -4 1034 50 10000 0.61 274 21:57 24.01.2022
4140 Clear -3 1034 70 10000 0.61 274 21:32 24.01.2022
4141 Clear -5 1034 51 10000 0.58 281 20:34 24.01.2022
4142 Clear -7 1034 51 10000 0.62 281 19:58 24.01.2022
4143 Clear -7 1034 51 10000 0.62 281 19:37 24.01.2022
4144 Clear -7 1033 55 10000 0.47 276 18:37 24.01.2022
4145 Clear 0 1030 64 10000 0.39 10 17:24 24.01.2022
4146 Clear -5 1030 67 10000 0.39 10 16:55 24.01.2022
4147 Clear 1 1027 61 10000 0.68 23 16:29 24.01.2022
4148 Clear 2 1026 52 10000 0.65 28 14:49 24.01.2022
4149 Clear 1 1026 56 10000 0.65 33 13:38 24.01.2022
4150 Clear 1 1026 56 9543 0.66 28 12:32 24.01.2022
4151 Clear -6 1027 79 10000 1.04 4 11:21 24.01.2022
4152 Clear -8 1028 60 10000 1.01 343 09:49 24.01.2022
4153 Clear -4 1030 68 10000 0.63 322 09:20 24.01.2022
4154 Clear -5 1031 67 10000 0.29 281 07:20 24.01.2022
4155 Clear -6 1032 75 10000 0.24 30 01:34 24.01.2022
4156 Clear -6 1032 75 10000 0.1 333 00:46 24.01.2022
4157 Clear -6 1033 75 10000 0.14 344 00:27 24.01.2022
4158 Clear -6 1033 77 10000 0.32 10 22:46 23.01.2022
4159 Clear -6 1033 78 10000 0.47 330 21:50 23.01.2022
4160 Clear -6 1033 77 10000 0.45 336 21:27 23.01.2022
4161 Clear -5 1033 79 10000 0.45 336 20:54 23.01.2022
4162 Clear -5 1034 78 10000 0.55 333 19:55 23.01.2022
4163 Clear -5 1033 61 10000 0.32 0 18:52 23.01.2022
4164 Clear -5 1033 69 10000 0.47 343 17:52 23.01.2022
4165 Clear -3 1031 78 10000 0.75 8 16:48 23.01.2022
4166 Clear 2 1028 60 10000 1.36 38 15:18 23.01.2022
4167 Clear 0 1028 64 10000 1.36 38 14:32 23.01.2022
4168 Clear 0 1028 70 10000 1.54 26 13:27 23.01.2022
4169 Clear -1 1028 72 10000 1.33 39 12:36 23.01.2022
4170 Clear -1 1029 73 10000 1.76 27 12:18 23.01.2022
4171 Clear -5 1029 70 10000 2.05 17 11:24 23.01.2022
4172 Clear -8 1029 70 10000 2.05 17 10:57 23.01.2022
4173 Clear -10 1031 75 10000 1.29 346 10:21 23.01.2022
4174 Clouds -7 1034 87 10000 1.05 341 09:22 23.01.2022
4175 Clouds -8 1034 89 10000 1.42 331 05:59 23.01.2022
4176 Clear -7 1034 88 10000 1.4 321 02:25 23.01.2022
4177 Clear -7 1034 88 10000 1.4 321 01:35 23.01.2022
4178 Clouds -7 1034 89 10000 1.26 331 00:41 23.01.2022
4179 Clouds -7 1035 88 10000 1.37 334 23:57 22.01.2022
4180 Clouds -7 1036 88 10000 1.36 331 22:47 22.01.2022
4181 Clouds -6 1036 89 10000 1.53 331 21:58 22.01.2022
4182 Clouds -6 1036 87 10000 1.87 333 20:26 22.01.2022
4183 Clouds -5 1036 86 10000 1.87 333 19:34 22.01.2022
4184 Clouds -5 1036 86 10000 1.85 334 18:36 22.01.2022
4185 Clouds -4 1035 88 10000 1.99 335 17:42 22.01.2022
4186 Clouds -3 1034 84 10000 2.47 344 16:57 22.01.2022
4187 Clouds -3 1031 83 10000 3.4 351 16:20 22.01.2022
4188 Clouds -3 1031 83 10000 3.4 351 15:42 22.01.2022
4189 Clear -3 1030 82 10000 3.68 352 13:59 22.01.2022
4190 Clear -4 1031 83 10000 3.81 351 12:58 22.01.2022
4191 Clear -4 1030 78 10000 3.92 351 12:30 22.01.2022
4192 Clear -4 1031 82 10000 3.84 349 11:58 22.01.2022
4193 Clear -5 1032 82 10000 3.64 348 10:39 22.01.2022
4194 Clear -6 1033 83 10000 3.34 345 10:19 22.01.2022
4195 Clear -7 1036 85 10000 2.67 335 08:54 22.01.2022
4196 Clear -8 1036 78 10000 2.67 335 08:31 22.01.2022
4197 Clear -10 1036 85 10000 2.43 332 05:20 22.01.2022
4198 Clear -8 1036 83 10000 2.25 342 01:58 22.01.2022
4199 Clouds -7 1036 62 10000 1.88 344 23:49 21.01.2022
4200 Clouds -7 1036 62 10000 1.88 344 23:49 21.01.2022
4201 Clouds -7 1037 65 10000 2 342 22:58 21.01.2022
4202 Clouds -8 1039 78 10000 2.07 344 20:46 21.01.2022
4203 Clouds -7 1039 90 10000 2.6 343 19:20 21.01.2022
4204 Clouds -5 1037 91 8084 2.81 341 17:48 21.01.2022
4205 Clouds -5 1032 70 10000 3.71 350 15:48 21.01.2022
4206 Clouds -4 1031 67 10000 3.76 354 14:37 21.01.2022
4207 Clouds -4 1030 78 10000 3.85 360 12:43 21.01.2022
4208 Clouds -5 1032 85 10000 3.41 2 11:29 21.01.2022
4209 Clouds -7 1034 89 10000 3.21 5 10:27 21.01.2022
4210 Clouds -7 1036 92 7337 2.56 353 08:50 21.01.2022
4211 Clouds -6 1036 95 7396 2.5 353 07:37 21.01.2022
4212 Snow -5 1032 93 6785 4.54 347 01:48 21.01.2022
4213 Clouds -5 1032 94 6725 4.12 345 22:46 20.01.2022
4214 Clouds -5 1032 94 6933 3.94 341 21:48 20.01.2022
4215 Clouds -5 1032 94 6971 4.07 342 21:24 20.01.2022
4216 Clouds -5 1031 94 6864 4.25 341 19:46 20.01.2022
4217 Clouds -5 1030 94 7029 4.35 341 19:18 20.01.2022
4218 Clouds -4 1029 94 6651 4.52 342 17:36 20.01.2022
4219 Clouds -3 1026 90 7425 4.48 342 15:59 20.01.2022
4220 Snow -2 1026 90 7803 4.53 340 15:29 20.01.2022
4221 Snow -3 1025 89 8249 4.5 338 14:18 20.01.2022
4222 Snow -3 1026 90 8356 4.46 335 12:48 20.01.2022
4223 Snow -3 1027 91 7394 4.23 336 12:27 20.01.2022
4224 Clouds -3 1027 89 7468 3.74 335 10:59 20.01.2022
4225 Clouds -4 1028 92 8313 3.33 323 09:44 20.01.2022
4226 Snow -4 1030 93 8405 3.31 324 08:37 20.01.2022
4227 Snow -4 1028 93 6856 3.71 329 06:19 20.01.2022
4228 Snow -5 1027 90 7834 2.9 329 00:30 20.01.2022
4229 Clouds -5 1027 81 5992 2.39 328 22:38 19.01.2022
4230 Clouds -5 1028 82 7287 2.27 323 21:33 19.01.2022
4231 Clouds -5 1028 81 10000 1.81 326 20:55 19.01.2022
4232 Clouds -4 1028 80 10000 1.81 326 20:30 19.01.2022
4233 Clouds -6 1029 94 10000 1.8 317 18:49 19.01.2022
4234 Clouds -5 1030 92 10000 1.54 310 17:50 19.01.2022
4235 Clear -4 1027 89 10000 0.73 258 17:18 19.01.2022
4236 Clear -4 1027 89 10000 0.73 258 17:18 19.01.2022
4237 Clear -4 1027 89 10000 0.73 258 17:18 19.01.2022
4238 Clear -4 1025 85 10000 0.84 197 15:31 19.01.2022
4239 Clear 0 1026 49 10000 1.63 181 13:20 19.01.2022
4240 Clear 2 1027 47 10000 1.55 188 11:58 19.01.2022
4241 Clear 1 1029 57 10000 1.69 192 11:22 19.01.2022
4242 Clear -4 1031 60 10000 1.81 199 09:35 19.01.2022
4243 Clear -4 1031 60 10000 1.81 199 09:35 19.01.2022
4244 Clear -10 1034 66 10000 1.78 205 08:33 19.01.2022
4245 Clear -7 1035 66 10000 1.76 212 05:19 19.01.2022
4246 Clear -6 1037 68 10000 2.48 203 00:18 19.01.2022
4247 Clear -4 1037 67 10000 2.45 198 23:18 18.01.2022
4248 Clear -4 1037 65 10000 2.44 198 21:44 18.01.2022
4249 Clear -4 1037 65 10000 2.23 197 20:22 18.01.2022
4250 Clear -5 1037 65 10000 2.23 197 19:45 18.01.2022
4251 Clear -5 1037 73 10000 2.23 194 19:25 18.01.2022
4252 Clear -4 1037 75 10000 2.22 193 18:18 18.01.2022
4253 Clear -2 1037 71 10000 2.22 193 17:31 18.01.2022
4254 Clear 0 1031 65 10000 2.41 169 16:18 18.01.2022
4255 Clear 0 1030 64 10000 2.22 163 15:25 18.01.2022
4256 Clear -1 1030 80 10000 2.2 156 14:22 18.01.2022
4257 Clear -5 1030 74 10000 2.1 154 11:31 18.01.2022
4258 Clouds -7 1032 68 10000 1.05 119 09:59 18.01.2022
4259 Clouds -7 1036 87 10000 0.49 45 08:29 18.01.2022
4260 Clouds -7 1036 86 10000 0.49 45 07:42 18.01.2022
4261 Clouds -3 1038 72 10000 1.56 351 00:38 18.01.2022
4262 Clouds -5 1039 74 10000 1.91 351 22:39 17.01.2022
4263 Clouds -4 1039 77 10000 1.98 341 21:41 17.01.2022
4264 Clouds -4 1039 85 10000 2.46 338 20:44 17.01.2022
4265 Clouds -5 1039 88 10000 2.96 336 18:46 17.01.2022
4266 Clouds -5 1038 88 10000 3.08 333 18:24 17.01.2022
4267 Clouds -3 1037 92 10000 3.24 332 17:19 17.01.2022
4268 Clouds 0 1034 77 10000 3.56 337 15:54 17.01.2022
4269 Clouds 1 1033 77 10000 4.13 340 14:58 17.01.2022
4270 Clouds 1 1033 71 10000 4.13 340 14:31 17.01.2022
4271 Clouds 0 1033 73 10000 3.87 339 13:18 17.01.2022
4272 Clouds -2 1034 80 10000 3.78 341 11:53 17.01.2022
4273 Clouds -3 1035 79 10000 3.18 336 10:52 17.01.2022
4274 Clouds -5 1036 78 10000 2.93 333 09:35 17.01.2022
4275 Clouds -5 1038 80 10000 3.15 336 08:43 17.01.2022
4276 Clouds -6 1039 87 10000 2.34 318 07:20 17.01.2022
4277 Clouds -7 1039 52 10000 2.18 308 00:59 17.01.2022
4278 Clouds -7 1039 76 10000 2.04 302 23:27 16.01.2022
4279 Clouds -8 1038 78 10000 2.18 310 20:50 16.01.2022
4280 Clouds -8 1038 76 10000 2.33 315 19:56 16.01.2022
4281 Clear -8 1036 78 10000 2.3 310 18:45 16.01.2022
4282 Clear -8 1035 80 10000 2.48 311 17:47 16.01.2022
4283 Clear -7 1033 83 10000 2.92 317 16:52 16.01.2022
4284 Clear -7 1029 83 10000 3.3 325 15:39 16.01.2022
4285 Clear 0 1026 56 10000 3.32 329 14:29 16.01.2022
4286 Clear 0 1026 56 10000 3.32 329 14:29 16.01.2022
4287 Clear 1 1026 57 10000 3.39 331 13:21 16.01.2022
4288 Clear 0 1025 65 10000 2.86 327 11:56 16.01.2022
4289 Clear -1 1026 63 10000 2.57 325 11:27 16.01.2022
4290 Clear -4 1027 67 10000 1.81 310 10:27 16.01.2022
4291 Clear -2 1027 65 10000 1.81 310 09:57 16.01.2022
4292 Clear -3 1029 65 10000 1.54 295 09:23 16.01.2022
4293 Clear -9 1029 52 10000 1.54 295 08:53 16.01.2022
4294 Clear -10 1028 49 10000 1.23 285 05:51 16.01.2022
4295 Clear -5 1028 47 10000 1.48 232 00:18 16.01.2022
4296 Clear -4 1028 47 10000 1.53 228 22:38 15.01.2022
4297 Clear -3 1028 48 10000 1.45 228 21:21 15.01.2022
4298 Clear -3 1028 48 10000 1.45 228 20:43 15.01.2022
4299 Clear -3 1028 48 10000 1.49 229 19:58 15.01.2022
4300 Clear -4 1028 49 10000 1.53 226 19:23 15.01.2022
4301 Clear -7 1027 52 10000 1.64 217 17:49 15.01.2022
4302 Clear -6 1025 58 10000 1.67 213 16:42 15.01.2022
4303 Clear 1 1022 81 10000 1.63 201 14:32 15.01.2022
4304 Clear 3 1023 51 10000 1.82 190 12:33 15.01.2022
4305 Clear 2 1024 73 10000 1.33 188 11:19 15.01.2022
4306 Clear -3 1027 68 10000 1.11 215 09:21 15.01.2022
4307 Clear -3 1031 71 10000 0.23 287 00:52 15.01.2022
4308 Clear -2 1033 68 10000 0.22 341 21:57 14.01.2022
4309 Clear -3 1033 71 10000 0.35 358 20:51 14.01.2022
4310 Clear -3 1033 72 10000 0.53 4 20:23 14.01.2022
4311 Clear -3 1033 73 10000 0.53 4 19:48 14.01.2022
4312 Clear -3 1033 69 10000 0.52 355 18:28 14.01.2022
4313 Clear 1 1032 68 10000 0.7 7 16:51 14.01.2022
4314 Clear 3 1032 66 10000 0.7 7 16:33 14.01.2022
4315 Clear 4 1029 54 10000 1.28 19 14:47 14.01.2022
4316 Clear 3 1030 55 10000 1.12 13 13:47 14.01.2022
4317 Clear 3 1030 55 10000 0.96 358 12:34 14.01.2022
4318 Clear -2 1031 67 10000 0.7 348 11:29 14.01.2022
4319 Clear -11 1033 51 10000 0.7 323 09:51 14.01.2022
4320 Clear -3 1035 69 10000 0.65 292 08:52 14.01.2022
4321 Clear -3 1035 70 10000 0.69 286 07:21 14.01.2022
4322 Clear -4 1038 70 10000 1.38 223 01:43 14.01.2022
4323 Clear -4 1038 71 10000 1.59 198 23:36 13.01.2022
4324 Clear -6 1038 38 10000 1.49 189 21:42 13.01.2022
4325 Clear -6 1038 39 10000 1.58 192 21:23 13.01.2022
4326 Clear -7 1038 40 10000 1.58 187 19:41 13.01.2022
4327 Clouds -5 1038 71 10000 1.42 185 19:22 13.01.2022
4328 Clouds -6 1038 49 10000 1.19 187 17:56 13.01.2022
4329 Clouds -2 1034 65 10000 1.25 152 16:22 13.01.2022
4330 Clouds -1 1034 60 10000 1.25 152 15:37 13.01.2022
4331 Clouds -1 1033 64 10000 1.17 138 14:49 13.01.2022
4332 Clear -3 1033 61 10000 1.38 119 12:46 13.01.2022
4333 Clear -9 1036 58 10000 0.63 47 10:25 13.01.2022
4334 Clear -8 1039 73 10000 0.26 32 09:20 13.01.2022
4335 Clear -8 1039 74 10000 0.34 7 08:27 13.01.2022
4336 Clear -8 1039 73 10000 0.46 13 07:24 13.01.2022
4337 Clear -8 1039 74 10000 0.5 6 06:38 13.01.2022
4338 Clear -8 1039 73 10000 0.73 0 05:19 13.01.2022
4339 Clear -9 1039 73 10000 0.83 348 02:33 13.01.2022
4340 Clear -8 1038 71 10000 0.78 353 00:56 13.01.2022
4341 Clear -8 1038 74 10000 0.96 9 23:49 12.01.2022
4342 Clear -8 1038 73 10000 0.87 359 23:24 12.01.2022
4343 Clear -8 1038 76 10000 0.9 348 21:58 12.01.2022
4344 Clear -8 1039 74 10000 1.43 355 21:23 12.01.2022
4345 Clear -8 1039 73 10000 1.43 355 20:57 12.01.2022
4346 Clear -7 1038 75 10000 1.44 351 19:55 12.01.2022
4347 Clouds -7 1039 75 10000 1.09 354 18:43 12.01.2022
4348 Clouds -7 1038 74 10000 1.04 354 17:50 12.01.2022
4349 Clouds -6 1037 71 10000 1.19 8 16:38 12.01.2022
4350 Clouds -3 1032 65 10000 2.27 13 14:49 12.01.2022
4351 Clouds -4 1031 61 10000 2.14 21 13:32 12.01.2022
4352 Clouds -5 1031 50 10000 2.29 19 12:34 12.01.2022
4353 Clear -10 1036 82 10000 1.43 1 08:45 12.01.2022
4354 Clear -10 1036 81 10000 1.44 354 07:52 12.01.2022
4355 Clear -10 1036 80 10000 1.44 354 07:32 12.01.2022
4356 Clear -9 1036 83 10000 1.6 343 01:26 12.01.2022
4357 Clear -9 1035 83 10000 1.6 344 23:25 11.01.2022
4358 Clear -9 1035 80 10000 1.38 343 22:24 11.01.2022
4359 Clear -8 1035 84 10000 1.19 348 21:25 11.01.2022
4360 Clear -7 1035 43 10000 1.19 348 20:33 11.01.2022
4361 Clouds -6 1035 72 10000 1.61 344 18:48 11.01.2022
4362 Clouds -6 1035 84 10000 1.57 347 17:42 11.01.2022
4363 Clouds -6 1033 88 10000 1.86 357 16:38 11.01.2022
4364 Clear -5 1030 79 10000 2.48 4 15:59 11.01.2022
4365 Clear -3 1027 74 10000 2.98 11 14:43 11.01.2022
4366 Clear -3 1026 72 10000 3.17 3 13:59 11.01.2022
4367 Clear -3 1026 72 10000 3.17 3 13:39 11.01.2022
4368 Clouds -4 1026 76 10000 2.76 8 13:21 11.01.2022
4369 Clouds -4 1027 62 10000 2.27 18 12:23 11.01.2022
4370 Clouds -7 1031 81 10000 1.21 12 10:25 11.01.2022
4371 Clouds -8 1035 94 9585 0.63 6 07:35 11.01.2022
4372 Clouds -6 1032 92 8602 1.88 0 01:47 11.01.2022
4373 Clouds -8 1031 87 8238 2.5 1 00:22 11.01.2022
4374 Clouds -8 1031 85 8238 2.5 1 23:37 10.01.2022
4375 Clouds -8 1031 86 7568 2.64 0 22:19 10.01.2022
4376 Clouds -7 1031 86 7568 2.64 0 21:55 10.01.2022
4377 Clouds -6 1031 94 7568 2.64 0 21:32 10.01.2022
4378 Clouds -6 1030 95 7357 2.73 357 20:58 10.01.2022
4379 Clouds -5 1029 95 7150 2.74 354 20:29 10.01.2022
4380 Clouds -5 1029 95 7150 2.74 354 19:47 10.01.2022
4381 Clouds -5 1029 94 7293 2.74 355 19:22 10.01.2022
4382 Clouds -5 1028 94 7263 2.79 358 18:54 10.01.2022
4383 Clouds -4 1028 94 7263 2.79 358 18:34 10.01.2022
4384 Clouds -4 1026 94 7374 3.08 359 16:43 10.01.2022
4385 Clouds -4 1023 90 8918 3.22 1 15:55 10.01.2022
4386 Clouds -3 1021 87 10000 3.39 2 14:41 10.01.2022
4387 Clouds -3 1019 88 10000 3.59 350 12:43 10.01.2022
4388 Clouds -4 1019 87 9387 3.54 348 11:40 10.01.2022
4389 Clouds -5 1019 89 7533 3.36 342 10:45 10.01.2022
4390 Snow -5 1020 94 6909 2.51 332 08:57 10.01.2022
4391 Snow -5 1015 92 2410 3.46 352 05:51 10.01.2022
4392 Snow -5 1014 94 3308 2.3 331 01:33 10.01.2022
4393 Snow -5 1013 91 4197 2.06 335 00:36 10.01.2022
4394 Snow -5 1013 93 5473 2.22 317 23:54 09.01.2022
4395 Snow -5 1013 94 5138 1.55 296 22:43 09.01.2022
4396 Clouds -5 1013 94 3904 1.35 302 21:47 09.01.2022
4397 Clouds -5 1014 94 6379 1.04 303 21:25 09.01.2022
4398 Clouds -5 1014 94 6379 1.04 303 21:25 09.01.2022
4399 Clouds -5 1014 94 6379 1.04 303 20:58 09.01.2022
4400 Clouds -5 1014 94 6379 1.04 303 20:39 09.01.2022
4401 Clouds -5 1013 95 9267 1.13 335 20:21 09.01.2022
4402 Clouds -5 1013 95 9267 1.13 335 19:38 09.01.2022
4403 Clouds -5 1012 94 9301 0.63 311 19:18 09.01.2022
4404 Clouds -4 1012 94 9301 0.63 311 18:37 09.01.2022
4405 Clouds -4 1012 95 10000 0.95 336 17:48 09.01.2022
4406 Clouds -4 1011 95 6913 1.66 343 17:29 09.01.2022
4407 Clouds -4 1011 95 6913 1.66 343 16:40 09.01.2022
4408 Snow -3 1009 92 7793 2.26 345 15:40 09.01.2022
4409 Snow -3 1008 87 8586 2.61 345 14:50 09.01.2022
4410 Snow -3 1008 86 8654 2.88 338 14:23 09.01.2022
4411 Snow -3 1008 89 8654 2.88 338 13:48 09.01.2022
4412 Snow -2 1008 71 5983 3.39 329 11:56 09.01.2022
4413 Clouds -3 1009 84 10000 3.23 335 11:26 09.01.2022
4414 Snow -3 1009 76 8059 4.07 329 09:55 09.01.2022
4415 Snow -3 1008 85 2888 4.65 324 08:59 09.01.2022
4416 Snow -3 1005 92 261 3.29 325 06:56 09.01.2022
4417 Snow -4 1008 84 508 4.21 169 01:29 09.01.2022
4418 Snow -4 1008 86 613 4.1 172 00:37 09.01.2022
4419 Snow -5 1009 87 2507 4.05 183 23:31 08.01.2022
4420 Snow -5 1010 87 10000 3.75 174 22:48 08.01.2022
4421 Clouds -5 1012 86 7907 1.72 219 21:28 08.01.2022
4422 Clouds -5 1012 87 7907 1.72 219 20:43 08.01.2022
4423 Snow -5 1014 87 7691 1.78 266 20:22 08.01.2022
4424 Clouds -5 1015 91 9072 1.49 273 19:22 08.01.2022
4425 Clouds -4 1015 88 10000 0.89 242 17:38 08.01.2022
4426 Snow -3 1016 88 4779 1.47 312 16:45 08.01.2022
4427 Snow -3 1016 87 5528 2.14 316 15:33 08.01.2022
4428 Clouds -2 1017 82 10000 2.56 300 13:58 08.01.2022
4429 Clouds -3 1019 71 10000 2.51 312 11:41 08.01.2022
4430 Clouds -4 1019 81 10000 2.65 318 10:40 08.01.2022
4431 Snow -4 1020 88 8286 3.5 321 10:21 08.01.2022
4432 Snow -5 1020 89 8286 3.5 321 09:34 08.01.2022
4433 Snow -6 1018 91 2353 2.91 301 06:18 08.01.2022
4434 Clouds -8 1022 84 10000 1.9 244 01:41 08.01.2022
4435 Clouds -7 1024 93 10000 1.62 261 23:36 07.01.2022
4436 Clouds -6 1022 91 7799 2.42 316 21:49 07.01.2022
4437 Snow -6 1022 88 5703 3.14 326 20:34 07.01.2022
4438 Snow -5 1022 79 2311 3.01 319 19:27 07.01.2022
4439 Snow -5 1021 73 4858 2.98 318 18:49 07.01.2022
4440 Snow -6 1022 87 3372 2.56 318 18:21 07.01.2022
4441 Clouds -5 1022 76 10000 3.14 317 17:24 07.01.2022
4442 Clouds -3 1018 58 10000 2.03 317 14:56 07.01.2022
4443 Clouds -3 1018 50 10000 1.79 315 13:52 07.01.2022
4444 Clouds -4 1019 55 10000 1.57 308 12:51 07.01.2022
4445 Clouds -5 1021 67 10000 1.13 270 11:28 07.01.2022
4446 Clouds -9 1027 57 10000 2 221 04:54 07.01.2022
4447 Clouds -9 1028 49 10000 2.27 214 02:53 07.01.2022
4448 Clouds -8 1028 46 10000 2.04 212 01:49 07.01.2022
4449 Clouds -8 1029 47 10000 1.81 217 01:26 07.01.2022
4450 Clouds -7 1029 51 10000 2.02 214 00:31 07.01.2022
4451 Clouds -7 1029 51 10000 2.02 214 00:31 07.01.2022
4452 Clouds -7 1030 58 10000 1.67 224 22:33 06.01.2022
4453 Clouds -7 1029 89 10000 0.83 227 20:51 06.01.2022
4454 Clouds -7 1028 94 10000 0.37 284 20:18 06.01.2022
4455 Clouds -7 1028 94 10000 0.37 284 19:38 06.01.2022
4456 Clouds -5 1026 95 7117 2.32 351 17:51 06.01.2022
4457 Clouds -5 1025 94 8516 2.64 353 17:27 06.01.2022
4458 Clouds -5 1025 94 8516 2.64 353 16:38 06.01.2022
4459 Clouds -4 1021 91 9752 2.72 359 15:44 06.01.2022
4460 Clouds -4 1020 80 10000 2.95 360 15:22 06.01.2022
4461 Clouds -3 1019 75 10000 3.09 1 14:20 06.01.2022
4462 Clouds -4 1019 78 10000 3.09 1 13:39 06.01.2022
4463 Clouds -5 1019 82 10000 3.29 355 12:21 06.01.2022
4464 Clouds -5 1019 82 10000 3.29 355 11:30 06.01.2022
4465 Clouds -6 1020 84 10000 2.99 353 10:50 06.01.2022
4466 Clouds -8 1024 95 7827 2.32 331 06:54 06.01.2022
4467 Clouds -7 1023 93 9204 2.53 334 00:34 06.01.2022
4468 Clouds -7 1023 93 7762 2.64 330 23:33 05.01.2022
4469 Clouds -8 1023 94 7131 3 328 22:48 05.01.2022
4470 Clouds -8 1023 96 7427 3.09 331 22:26 05.01.2022
4471 Clouds -7 1023 96 7427 3.09 331 21:43 05.01.2022
4472 Clouds -7 1022 97 8917 3.52 332 20:44 05.01.2022
4473 Clouds -7 1019 94 9033 4.3 341 19:42 05.01.2022
4474 Clouds -6 1018 96 5867 4.66 337 18:22 05.01.2022
4475 Clouds -4 1017 95 7249 4.47 336 16:57 05.01.2022
4476 Clouds -4 1014 93 7530 4.9 338 16:21 05.01.2022
4477 Snow -4 1012 65 7063 5.22 341 15:20 05.01.2022
4478 Snow -3 1010 72 7725 5.36 341 13:35 05.01.2022
4479 Snow -2 1010 73 7210 5.09 337 12:30 05.01.2022
4480 Snow -2 1006 94 4332 3.86 336 08:46 05.01.2022
4481 Snow -2 1006 93 576 3.13 320 07:19 05.01.2022
4482 Snow 0 1003 99 54 0.93 217 01:49 05.01.2022
4483 Clouds 3 1005 82 832 2.78 170 23:44 04.01.2022
4484 Clouds 3 1006 83 2253 3.31 180 23:26 04.01.2022
4485 Rain 3 1006 80 4851 3.65 175 22:19 04.01.2022
4486 Clouds 2 1006 80 7567 3.92 175 20:46 04.01.2022
4487 Clouds 3 1007 81 4859 3.91 177 18:44 04.01.2022
4488 Clouds 3 1007 96 7546 4.16 176 17:34 04.01.2022
4489 Clouds 5 1007 96 7642 4.17 173 16:39 04.01.2022
4490 Clouds 5 1006 96 10000 4.17 172 16:20 04.01.2022
4491 Clouds 6 1006 97 6430 4.04 173 14:42 04.01.2022
4492 Clouds 5 1007 97 4157 4.13 178 13:57 04.01.2022
4493 Clouds 2 1008 98 7343 4.01 181 12:24 04.01.2022
4494 Clouds 3 1009 92 10000 3.64 178 10:24 04.01.2022
4495 Clouds 3 1009 93 2440 3.14 173 08:59 04.01.2022
4496 Rain 2 1009 93 1083 2.1 202 06:46 04.01.2022
4497 Rain 2 1014 80 10000 2.47 224 00:44 04.01.2022
4498 Clouds 2 1015 81 10000 2.47 221 23:56 03.01.2022
4499 Clouds 2 1018 65 10000 1.81 237 22:28 03.01.2022
4500 Snow 1 1018 65 10000 1.81 237 21:41 03.01.2022
4501 Rain 2 1018 66 10000 1.51 246 20:42 03.01.2022
4502 Clouds 2 1018 69 10000 1.5 273 19:43 03.01.2022
4503 Clouds 2 1019 85 10000 1.93 286 18:31 03.01.2022
4504 Clouds 2 1019 83 10000 1.82 292 17:34 03.01.2022
4505 Clouds 3 1019 82 10000 1.94 299 16:56 03.01.2022
4506 Clouds 5 1019 73 10000 1.73 307 14:33 03.01.2022
4507 Clouds 5 1020 76 10000 2.18 326 13:25 03.01.2022
4508 Clouds 4 1021 77 10000 2.42 329 12:22 03.01.2022
4509 Clouds 3 1022 78 10000 2.82 335 11:22 03.01.2022
4510 Clouds 2 1023 77 10000 2.8 331 09:41 03.01.2022
4511 Clouds 1 1024 85 10000 3.02 321 07:55 03.01.2022
4512 Clouds 1 1025 78 10000 2.95 317 05:21 03.01.2022
4513 Clouds -1 1027 67 10000 2.33 293 23:44 02.01.2022
4514 Clouds -1 1027 65 10000 2.2 285 22:57 02.01.2022
4515 Clouds -1 1027 63 10000 2.14 286 22:22 02.01.2022
4516 Clouds 1 1027 61 10000 2.37 293 21:26 02.01.2022
4517 Clouds 0 1027 61 10000 2.37 293 20:30 02.01.2022
4518 Clouds 0 1027 57 10000 2.18 299 19:32 02.01.2022
4519 Clouds -1 1027 56 10000 2.07 300 18:56 02.01.2022
4520 Clouds 0 1027 57 10000 1.95 300 18:30 02.01.2022
4521 Clouds 1 1026 59 10000 2 300 17:42 02.01.2022
4522 Clouds 1 1025 64 10000 1.78 302 17:21 02.01.2022
4523 Clouds 4 1025 61 10000 1.78 302 16:30 02.01.2022
4524 Clouds 2 1023 72 10000 1.43 306 15:39 02.01.2022
4525 Clouds 3 1023 92 10000 2.36 325 13:57 02.01.2022
4526 Clouds 5 1023 57 10000 2.2 319 12:32 02.01.2022
4527 Clouds 5 1024 56 10000 1.36 294 11:55 02.01.2022
4528 Clouds 5 1024 59 10000 1.1 260 10:55 02.01.2022
4529 Clouds 5 1025 56 10000 1.32 240 10:18 02.01.2022
4530 Clouds 1 1027 43 10000 1.73 224 07:44 02.01.2022
4531 Clouds -1 1028 40 10000 1.57 234 02:57 02.01.2022
4532 Clouds 1 1029 61 10000 1.37 238 23:50 01.01.2022
4533 Clouds 1 1029 61 10000 1.29 243 23:27 01.01.2022
4534 Clouds 2 1029 61 10000 1.18 248 22:26 01.01.2022
4535 Clouds 2 1029 60 10000 1.18 248 21:54 01.01.2022
4536 Clouds 2 1029 61 10000 1.18 248 21:36 01.01.2022
4537 Clouds 2 1029 62 10000 1.09 273 20:27 01.01.2022
4538 Clouds 1 1029 61 10000 1.09 273 19:36 01.01.2022
4539 Clouds 1 1029 37 10000 1.06 275 18:52 01.01.2022
4540 Clouds 3 1029 64 10000 1.04 280 17:41 01.01.2022
4541 Clouds 4 1028 62 10000 0.9 292 16:35 01.01.2022
4542 Clouds 6 1027 58 10000 1.05 312 15:42 01.01.2022
4543 Clouds 7 1027 52 10000 1.07 318 14:39 01.01.2022
4544 Clouds 7 1027 53 10000 1.22 317 13:42 01.01.2022
4545 Clouds 5 1028 61 10000 1.33 313 12:25 01.01.2022
4546 Clouds 5 1028 64 10000 1.37 314 11:26 01.01.2022
4547 Clouds 4 1028 65 10000 1.37 314 10:58 01.01.2022
4548 Clouds 3 1029 67 10000 1.43 299 09:48 01.01.2022
4549 Clouds 0 1031 68 10000 1.48 291 08:39 01.01.2022
4550 Clouds -1 1031 68 10000 1.44 290 08:18 01.01.2022
4551 Clouds 0 1031 68 10000 1.44 290 07:38 01.01.2022
4552 Clear 0 1031 66 10000 1.52 294 06:44 01.01.2022
4553 Clear 0 1031 66 10000 1.26 288 05:24 01.01.2022
4554 Clear 0 1031 65 10000 1.26 288 04:35 01.01.2022
4555 Clear 1 1032 67 10000 1.52 282 00:23 01.01.2022
4556 Clear 0 1032 65 10000 1.68 284 22:30 31.12.2021
4557 Clear 0 1032 44 10000 1.88 296 21:47 31.12.2021
4558 Clear 0 1031 40 10000 2.12 303 19:48 31.12.2021
4559 Clear 2 1030 63 10000 1.71 280 19:28 31.12.2021
4560 Clear -2 1030 39 10000 1.97 297 18:18 31.12.2021
4561 Clear 3 1028 64 10000 1.75 295 17:28 31.12.2021
4562 Clear 4 1028 63 10000 1.75 295 16:52 31.12.2021
4563 Clear 6 1026 62 10000 2.42 314 16:18 31.12.2021
4564 Clear 6 1026 59 10000 2.42 314 15:50 31.12.2021
4565 Clear 7 1025 56 10000 1.72 305 15:26 31.12.2021
4566 Clear 8 1025 56 10000 1.72 305 14:39 31.12.2021
4567 Clear 7 1025 55 10000 1.41 287 13:55 31.12.2021
4568 Clouds 8 1026 61 10000 1.33 288 12:51 31.12.2021
4569 Clouds 7 1026 76 10000 1.56 296 12:21 31.12.2021
4570 Clouds 6 1026 62 10000 1.56 296 11:42 31.12.2021
4571 Clouds 5 1026 65 10000 1.24 280 10:55 31.12.2021
4572 Clouds 4 1026 64 10000 1.32 268 10:28 31.12.2021
4573 Clouds 1 1026 65 10000 1.32 268 09:34 31.12.2021
4574 Clouds 1 1027 69 10000 1.35 258 08:54 31.12.2021
4575 Clouds 0 1027 71 10000 1.36 261 07:59 31.12.2021
4576 Clear 0 1027 76 10000 1.38 268 04:55 31.12.2021
4577 Clouds 0 1027 89 10000 1.18 258 23:18 30.12.2021
4578 Clouds 1 1027 91 10000 1.18 258 22:32 30.12.2021
4579 Clouds 1 1028 91 10000 1.1 258 21:39 30.12.2021
4580 Clouds 1 1028 92 10000 1.11 267 21:19 30.12.2021
4581 Clouds 1 1028 93 10000 1.11 267 20:40 30.12.2021
4582 Clouds 2 1028 94 10000 1.12 274 19:56 30.12.2021
4583 Clouds 2 1028 95 10000 1.12 274 19:31 30.12.2021
4584 Clouds 4 1027 95 7487 1.23 309 18:28 30.12.2021
4585 Clouds 3 1026 94 7192 1.49 320 16:53 30.12.2021
4586 Clouds 4 1025 91 1346 1.6 320 15:54 30.12.2021
4587 Clouds 6 1024 92 869 1.48 318 15:21 30.12.2021
4588 Clouds 5 1024 93 869 1.48 318 14:36 30.12.2021
4589 Clouds 6 1023 93 219 1.52 313 13:25 30.12.2021
4590 Clouds 5 1024 93 1477 1.82 320 11:58 30.12.2021
4591 Clouds 4 1024 95 4008 2.38 323 10:40 30.12.2021
4592 Clouds 3 1024 95 4105 2.6 322 09:49 30.12.2021
4593 Clouds 4 1022 95 1757 3.7 327 06:59 30.12.2021
4594 Clouds 3 1020 100 782 4.29 328 05:27 30.12.2021
4595 Rain 3 1019 91 52 4.38 323 03:41 30.12.2021
4596 Clouds 3 1019 89 144 4.19 323 02:32 30.12.2021
4597 Clouds 2 1016 100 31 3.09 322 23:39 29.12.2021
4598 Rain 3 1016 96 33 3.63 321 22:55 29.12.2021
4599 Clouds 3 1015 97 34 4 309 22:18 29.12.2021
4600 Snow -1 1014 100 40 4.27 314 20:59 29.12.2021
4601 Snow -1 1014 100 40 4.27 314 20:30 29.12.2021
4602 Snow -1 1014 100 40 4.27 314 20:30 29.12.2021
4603 Snow -1 1014 100 55 3.08 318 19:38 29.12.2021
4604 Snow -1 1013 100 56 3.36 309 18:43 29.12.2021
4605 Snow -1 1013 100 66 3.37 317 17:51 29.12.2021
4606 Snow 0 1013 95 71 3.37 322 17:27 29.12.2021
4607 Snow 0 1013 95 79 2.73 316 16:22 29.12.2021
4608 Snow 0 1013 95 124 2.39 316 15:26 29.12.2021
4609 Snow 0 1014 94 170 2.07 317 13:42 29.12.2021
4610 Snow 0 1015 93 183 1.55 311 12:35 29.12.2021
4611 Snow 0 1017 93 284 1.3 291 11:25 29.12.2021
4612 Snow 1 1017 89 407 1.51 291 09:38 29.12.2021
4613 Snow 0 1016 95 1806 2.28 284 07:47 29.12.2021
4614 Clouds 0 1015 95 10000 2.31 294 06:37 29.12.2021
4615 Clouds 0 1015 95 10000 2.28 299 05:57 29.12.2021
4616 Clouds 0 1015 94 10000 2.28 299 05:30 29.12.2021
4617 Clouds 1 1013 92 10000 3 304 01:45 29.12.2021
4618 Snow 0 1011 94 9202 3.09 305 00:00 29.12.2021
4619 Snow 0 1011 94 9202 3.09 305 23:31 28.12.2021
4620 Snow 0 1008 95 858 1.95 321 22:29 28.12.2021
4621 Snow 0 1008 95 858 1.95 321 21:57 28.12.2021
4622 Snow 0 1008 94 858 1.95 321 21:36 28.12.2021
4623 Snow 0 1008 92 2165 2.27 307 20:35 28.12.2021
4624 Snow 1 1007 91 1186 1.48 259 18:59 28.12.2021
4625 Snow 1 1006 93 729 1.47 287 18:29 28.12.2021
4626 Snow 1 1006 93 729 1.47 287 17:57 28.12.2021
4627 Snow 2 1005 93 161 1.44 292 16:29 28.12.2021
4628 Rain 2 1005 94 161 1.44 292 15:45 28.12.2021
4629 Rain 2 1005 93 119 1.86 288 15:20 28.12.2021
4630 Snow 2 1005 93 119 1.86 288 14:46 28.12.2021
4631 Snow 2 1005 92 937 1.5 285 14:20 28.12.2021
4632 Snow 1 1005 91 937 1.5 285 13:42 28.12.2021
4633 Snow 1 1006 92 2347 2.06 244 13:24 28.12.2021
4634 Snow 1 1007 91 5917 1.35 253 12:39 28.12.2021
4635 Snow 0 1008 97 271 2.31 184 11:27 28.12.2021
4636 Snow -1 1008 90 10000 1.75 184 07:40 28.12.2021
4637 Snow -3 1009 95 579 2.69 204 06:41 28.12.2021
4638 Clouds -4 1012 90 10000 1.39 219 23:43 27.12.2021
4639 Clouds -2 1011 91 10000 1.48 228 22:58 27.12.2021
4640 Clouds -1 1010 90 10000 1.21 215 21:33 27.12.2021
4641 Snow -1 1009 90 8341 0.56 267 20:46 27.12.2021
4642 Snow 0 1009 90 2943 1.34 276 19:58 27.12.2021
4643 Snow 0 1009 89 2943 1.34 276 19:39 27.12.2021
4644 Snow -2 1008 94 4271 1.64 226 18:23 27.12.2021
4645 Snow -2 1008 94 4271 1.64 226 17:46 27.12.2021
4646 Snow -2 1008 93 10000 2.24 197 16:38 27.12.2021
4647 Snow -1 1006 91 10000 2.51 173 15:51 27.12.2021
4648 Clouds -1 1006 91 10000 2.72 171 14:32 27.12.2021
4649 Clouds -1 1006 91 10000 3.2 165 13:39 27.12.2021
4650 Clouds 0 1007 71 5557 3.99 169 11:53 27.12.2021
4651 Clouds -2 1009 74 9204 3.38 167 10:29 27.12.2021
4652 Clouds -3 1009 78 9204 3.38 167 09:39 27.12.2021
4653 Clouds -5 1011 89 10000 2.19 181 07:35 27.12.2021
4654 Clouds -5 1012 86 10000 1.85 199 06:56 27.12.2021
4655 Clouds -2 1011 83 10000 1.88 208 02:18 27.12.2021
4656 Clouds -2 1012 81 10000 1.58 227 23:58 26.12.2021
4657 Clouds -2 1012 82 10000 1.58 227 23:35 26.12.2021
4658 Clouds -2 1012 80 10000 1.64 217 21:59 26.12.2021
4659 Clouds -2 1010 83 10000 1.12 222 20:54 26.12.2021
4660 Clouds -1 1010 82 10000 1.22 222 19:47 26.12.2021
4661 Clouds 0 1009 83 10000 0.5 201 18:24 26.12.2021
4662 Clouds 1 1008 76 8974 0.56 315 16:20 26.12.2021
4663 Clouds 3 1006 70 10000 0.17 346 14:27 26.12.2021
4664 Clouds 2 1006 68 10000 0.17 346 13:40 26.12.2021
4665 Clouds 2 1006 68 10000 0.25 73 13:19 26.12.2021
4666 Clouds 1 1006 77 10000 0.62 2 12:32 26.12.2021
4667 Clouds 0 1007 77 10000 1.17 322 10:32 26.12.2021
4668 Snow -2 1010 83 10000 1.41 302 09:19 26.12.2021
4669 Snow -2 1010 83 10000 1.41 302 08:43 26.12.2021
4670 Snow -3 1011 79 10000 1.47 292 07:34 26.12.2021
4671 Clouds -2 1010 79 10000 0.98 242 01:24 26.12.2021
4672 Clouds -2 1009 81 10000 0.86 255 23:53 25.12.2021
4673 Clouds -2 1009 81 10000 0.85 256 23:27 25.12.2021
4674 Clouds -2 1009 81 10000 0.81 253 22:26 25.12.2021
4675 Clouds -2 1010 80 10000 0.84 261 20:57 25.12.2021
4676 Clouds -1 1009 79 10000 0.94 271 19:26 25.12.2021
4677 Clouds -1 1009 80 10000 0.94 271 18:55 25.12.2021
4678 Clouds -1 1009 79 10000 0.92 273 17:33 25.12.2021
4679 Clouds -1 1008 88 10000 1.06 298 16:36 25.12.2021
4680 Clouds 2 1005 64 10000 0.75 336 14:46 25.12.2021
4681 Clouds 1 1005 89 10000 0.66 351 13:30 25.12.2021
4682 Clouds 1 1006 65 10000 0.55 216 11:46 25.12.2021
4683 Clouds -1 1009 73 10000 0.82 238 09:51 25.12.2021
4684 Clouds -2 1010 75 10000 0.88 253 08:38 25.12.2021
4685 Clouds -2 1011 81 10000 0.94 239 02:59 25.12.2021
4686 Clouds -2 1012 81 10000 1.25 234 01:23 25.12.2021
4687 Clouds -2 1012 81 10000 1.12 251 23:40 24.12.2021
4688 Clouds -1 1011 78 10000 0.94 276 19:45 24.12.2021
4689 Clouds -1 1013 79 8208 1.64 280 19:23 24.12.2021
4690 Clouds 0 1011 76 9078 1.34 277 16:53 24.12.2021
4691 Clouds 0 1010 74 9523 0.83 267 16:21 24.12.2021
4692 Clouds 0 1010 73 9523 0.83 267 15:48 24.12.2021
4693 Clouds 2 1010 65 10000 0.74 270 14:47 24.12.2021
4694 Clouds 2 1010 67 10000 1.01 264 14:24 24.12.2021
4695 Clouds 1 1010 73 10000 1.01 264 13:39 24.12.2021
4696 Clouds 0 1010 73 10000 0.58 257 12:48 24.12.2021
4697 Rain 2 1011 70 10000 0.42 306 12:19 24.12.2021
4698 Clouds 1 1012 74 10000 0.54 300 11:29 24.12.2021
4699 Clouds 1 1012 71 10000 0.54 300 10:59 24.12.2021
4700 Clouds 0 1014 76 10000 1.24 289 10:28 24.12.2021
4701 Clouds -2 1016 78 10000 1.06 250 08:26 24.12.2021
4702 Clouds -2 1016 76 10000 1.06 250 07:50 24.12.2021
4703 Clear -5 1019 66 10000 1.35 254 03:21 24.12.2021
4704 Clouds -4 1021 44 10000 1.32 276 00:19 24.12.2021
4705 Clouds -4 1021 40 10000 1.4 275 23:23 23.12.2021
4706 Clouds -4 1021 40 10000 1.4 275 23:23 23.12.2021
4707 Clouds -4 1021 40 10000 1.4 275 22:40 23.12.2021
4708 Clouds -4 1021 37 10000 1.51 275 22:20 23.12.2021
4709 Clouds -6 1021 37 10000 1.51 275 21:34 23.12.2021
4710 Clouds -6 1021 33 10000 1.55 273 20:21 23.12.2021
4711 Clouds -5 1021 33 10000 1.61 276 19:27 23.12.2021
4712 Clouds -5 1021 33 10000 1.68 284 17:57 23.12.2021
4713 Clouds -5 1021 39 10000 1.68 285 16:58 23.12.2021
4714 Clouds -1 1018 57 10000 1.52 288 16:26 23.12.2021
4715 Clouds -2 1018 53 10000 1.52 288 15:32 23.12.2021
4716 Clouds 1 1016 51 10000 1.19 284 14:55 23.12.2021
4717 Clouds 2 1016 51 10000 1.19 284 14:37 23.12.2021
4718 Clouds 2 1017 42 10000 1.08 274 13:23 23.12.2021
4719 Clouds -2 1019 51 10000 1.19 276 10:54 23.12.2021
4720 Clouds -2 1019 51 10000 1.19 276 10:54 23.12.2021
4721 Clouds -3 1021 56 10000 1.3 262 09:52 23.12.2021
4722 Clouds -3 1021 55 10000 1.3 262 09:31 23.12.2021
4723 Clouds -5 1024 56 10000 1.41 253 08:25 23.12.2021
4724 Clouds -7 1024 34 10000 1.13 259 04:39 23.12.2021
4725 Clouds -10 1027 32 10000 1.99 213 23:43 22.12.2021
4726 Clear -10 1027 30 10000 2.15 212 22:49 22.12.2021
4727 Clear -10 1028 30 10000 1.98 213 21:57 22.12.2021
4728 Clear -9 1028 30 10000 1.98 213 21:30 22.12.2021
4729 Clear -9 1028 30 10000 1.93 215 20:52 22.12.2021
4730 Clear -9 1028 30 10000 1.93 215 20:33 22.12.2021
4731 Clear -9 1028 31 10000 1.8 216 19:37 22.12.2021
4732 Clouds -8 1028 43 10000 1.53 220 18:19 22.12.2021
4733 Clouds -8 1028 43 10000 1.53 220 17:37 22.12.2021
4734 Clouds -7 1025 63 10000 1.64 201 15:49 22.12.2021
4735 Clear -1 1021 44 10000 1.46 180 13:57 22.12.2021
4736 Clear -3 1021 57 10000 1.42 176 12:47 22.12.2021
4737 Clear -8 1021 49 10000 1.12 179 11:37 22.12.2021
4738 Clear -7 1024 58 10000 0.78 237 09:43 22.12.2021
4739 Clear -8 1027 62 10000 0.91 257 07:55 22.12.2021
4740 Clear -8 1027 27 10000 1.08 274 05:51 22.12.2021
4741 Clear -8 1027 27 10000 1.08 274 05:31 22.12.2021
4742 Clear -8 1027 28 10000 1.07 276 04:55 22.12.2021
4743 Clear -8 1027 28 10000 1.07 276 04:31 22.12.2021
4744 Clear -8 1027 29 10000 1.1 279 03:34 22.12.2021
4745 Clear -8 1027 31 10000 1.12 275 02:25 22.12.2021
4746 Clear -8 1028 36 10000 1.28 274 23:47 21.12.2021
4747 Clear -8 1028 37 10000 1.3 265 22:29 21.12.2021
4748 Clear -8 1028 37 10000 1.3 265 21:53 21.12.2021
4749 Clear -8 1027 38 10000 1.32 260 21:26 21.12.2021
4750 Clear -8 1027 41 10000 1.28 250 20:24 21.12.2021
4751 Clear -7 1027 41 10000 1.28 250 19:52 21.12.2021
4752 Clear -7 1027 41 10000 1.28 250 19:31 21.12.2021
4753 Clouds -7 1026 58 10000 1.38 240 18:23 21.12.2021
4754 Clouds -7 1026 58 10000 1.38 240 17:52 21.12.2021
4755 Clouds -7 1025 72 10000 1.55 225 16:47 21.12.2021
4756 Clouds -5 1022 82 10000 1.63 208 15:33 21.12.2021
4757 Clouds -2 1020 48 10000 1.6 197 13:51 21.12.2021
4758 Clouds -3 1020 51 10000 1.6 197 13:32 21.12.2021
4759 Clear -7 1020 66 10000 1.61 200 12:20 21.12.2021
4760 Clear -8 1021 61 10000 1.83 196 10:38 21.12.2021
4761 Clear -6 1023 55 10000 1.74 204 09:41 21.12.2021
4762 Clear -7 1025 35 10000 1.75 213 08:39 21.12.2021
4763 Clear -8 1026 27 10000 1.66 213 07:35 21.12.2021
4764 Clear -8 1025 27 10000 1.55 216 06:56 21.12.2021
4765 Clear -7 1025 25 10000 1.68 217 03:22 21.12.2021
4766 Clear -7 1025 25 10000 1.53 214 01:19 21.12.2021
4767 Clouds -7 1026 26 10000 1.38 221 23:54 20.12.2021
4768 Clouds -6 1026 70 10000 1.16 226 22:35 20.12.2021
4769 Clouds -6 1026 72 10000 0.98 235 21:48 20.12.2021
4770 Clouds -6 1025 71 10000 0.95 245 21:24 20.12.2021
4771 Clouds -7 1025 74 10000 0.95 245 20:50 20.12.2021
4772 Clouds -6 1025 78 10000 0.87 261 19:55 20.12.2021
4773 Clouds -6 1025 78 10000 0.87 261 19:55 20.12.2021
4774 Clouds -7 1025 77 10000 0.87 261 19:34 20.12.2021
4775 Clouds -6 1025 80 10000 0.79 288 18:55 20.12.2021
4776 Clouds -6 1024 77 10000 0.84 290 18:28 20.12.2021
4777 Clouds -5 1024 69 10000 0.84 290 17:49 20.12.2021
4778 Clouds -6 1023 50 10000 1.02 302 16:44 20.12.2021
4779 Clouds -2 1021 62 10000 1.32 330 15:52 20.12.2021
4780 Clouds -2 1019 58 10000 1.8 346 14:58 20.12.2021
4781 Clouds 2 1017 63 10000 2.07 344 13:31 20.12.2021
4782 Clouds 0 1018 68 10000 2.24 332 11:36 20.12.2021
4783 Clouds -8 1022 54 10000 1.99 317 09:56 20.12.2021
4784 Clouds -6 1022 73 10000 1.99 317 09:32 20.12.2021
4785 Clouds -7 1024 44 10000 2.03 313 08:43 20.12.2021
4786 Clouds -6 1024 68 10000 2.09 311 07:57 20.12.2021
4787 Clouds -6 1024 68 10000 2.09 311 07:31 20.12.2021
4788 Clear -5 1024 68 10000 2.05 314 05:25 20.12.2021
4789 Clear -3 1027 63 10000 1.54 345 00:19 20.12.2021
4790 Clear -3 1027 62 10000 1.39 350 22:55 19.12.2021
4791 Clear -3 1027 66 10000 1.28 357 21:55 19.12.2021
4792 Clear -3 1027 67 10000 1.28 357 21:31 19.12.2021
4793 Clear -5 1028 37 10000 1.31 6 20:34 19.12.2021
4794 Clear -3 1028 64 10000 1.28 12 19:52 19.12.2021
4795 Clear -4 1028 41 10000 1.28 12 19:32 19.12.2021
4796 Clear -8 1028 47 10000 1.1 2 18:30 19.12.2021
4797 Clear -7 1028 51 10000 0.96 1 17:53 19.12.2021
4798 Clear -8 1028 57 10000 1.11 13 17:21 19.12.2021
4799 Clear 0 1026 61 10000 1.5 14 16:27 19.12.2021
4800 Clear 0 1026 62 10000 1.5 14 15:43 19.12.2021
4801 Clear 1 1024 58 10000 1.89 18 15:21 19.12.2021
4802 Clear 2 1024 56 10000 1.89 18 14:42 19.12.2021
4803 Clear 3 1024 51 10000 1.88 19 13:24 19.12.2021
4804 Clear 1 1024 82 10000 1.88 19 12:46 19.12.2021
4805 Clear 4 1025 81 10000 1.82 17 12:23 19.12.2021
4806 Clear 1 1026 72 10000 1.69 8 11:21 19.12.2021
4807 Clear -3 1028 67 10000 1.16 349 10:26 19.12.2021
4808 Clear -4 1028 69 10000 1.16 349 09:48 19.12.2021
4809 Clear -5 1030 70 10000 1.03 341 08:43 19.12.2021
4810 Clear -4 1032 72 10000 1.48 321 04:45 19.12.2021
4811 Clear -4 1033 71 10000 1.76 312 01:33 19.12.2021
4812 Clear -4 1034 72 10000 1.57 310 00:52 19.12.2021
4813 Clear -3 1034 68 10000 1.35 299 22:37 18.12.2021
4814 Clear -3 1034 66 10000 1.26 295 21:58 18.12.2021
4815 Clear -3 1034 66 10000 1.26 295 21:36 18.12.2021
4816 Clear -5 1034 40 10000 1.1 290 20:44 18.12.2021
4817 Clear -3 1034 69 10000 0.97 278 20:19 18.12.2021
4818 Clear -3 1033 70 10000 0.94 245 19:25 18.12.2021
4819 Clear -6 1033 46 10000 0.88 215 18:22 18.12.2021
4820 Clear -5 1033 46 10000 0.88 215 17:48 18.12.2021
4821 Clear 0 1030 65 10000 0.85 171 16:26 18.12.2021
4822 Clear 2 1029 58 10000 1.15 153 15:27 18.12.2021
4823 Clear 2 1029 54 10000 1.15 153 14:48 18.12.2021
4824 Clear 2 1030 57 10000 1.9 152 13:21 18.12.2021
4825 Clear -6 1031 61 10000 1.75 154 11:22 18.12.2021
4826 Clear -4 1033 70 10000 1.49 156 09:40 18.12.2021
4827 Clear -5 1035 73 10000 0.88 145 08:47 18.12.2021
4828 Clear -5 1035 71 10000 0.57 125 08:23 18.12.2021
4829 Clear -4 1034 74 10000 0.81 6 03:58 18.12.2021
4830 Clear -4 1035 79 10000 1.36 333 00:29 18.12.2021
4831 Clear -4 1035 74 10000 1.36 333 23:44 17.12.2021
4832 Clear -4 1036 80 10000 1.66 326 21:57 17.12.2021
4833 Clear -5 1037 87 10000 1.61 330 21:19 17.12.2021
4834 Clear -5 1037 87 10000 1.61 330 20:40 17.12.2021
4835 Clear -3 1036 71 10000 1.59 326 19:24 17.12.2021
4836 Clear -3 1036 33 10000 1.49 325 18:38 17.12.2021
4837 Clear -1 1035 68 10000 1.62 326 17:31 17.12.2021
4838 Clear -4 1035 37 10000 1.64 317 16:46 17.12.2021
4839 Clear -1 1033 67 10000 1.81 336 16:22 17.12.2021
4840 Clear 2 1031 59 10000 1.76 337 15:25 17.12.2021
4841 Clear 2 1031 56 10000 1.76 337 14:40 17.12.2021
4842 Clear 1 1030 57 10000 1.61 331 13:21 17.12.2021
4843 Clear -4 1030 75 10000 1.34 336 11:46 17.12.2021
4844 Clear -6 1031 61 10000 1.08 311 10:37 17.12.2021
4845 Clear -6 1032 49 10000 0.89 282 09:33 17.12.2021
4846 Clear -3 1034 70 10000 1.45 244 08:30 17.12.2021
4847 Clear -3 1035 67 10000 1.67 190 06:22 17.12.2021
4848 Clear -4 1035 72 10000 1.89 175 02:53 17.12.2021
4849 Clear -4 1035 74 10000 1.35 164 23:40 16.12.2021
4850 Clear -5 1036 81 10000 0.53 127 22:24 16.12.2021
4851 Clear -5 1036 81 10000 0.53 127 22:24 16.12.2021
4852 Clear -5 1036 82 10000 0.53 127 21:50 16.12.2021
4853 Clear -4 1035 84 10000 0.56 39 21:25 16.12.2021
4854 Clear -5 1035 86 10000 0.56 39 20:30 16.12.2021
4855 Clear -5 1035 87 10000 0.78 355 19:44 16.12.2021
4856 Clear -5 1035 90 10000 0.81 346 18:39 16.12.2021
4857 Clear -5 1035 90 10000 1.18 339 17:56 16.12.2021
4858 Clear -5 1035 90 10000 1.18 339 17:31 16.12.2021
4859 Clear -3 1031 82 10000 2.44 337 16:22 16.12.2021
4860 Clear -5 1029 69 10000 2.54 334 14:50 16.12.2021
4861 Clear -5 1029 81 10000 2.27 326 13:29 16.12.2021
4862 Clear 5 1030 72 10000 1.95 330 11:20 16.12.2021
4863 Clear -6 1030 72 10000 1.95 330 10:59 16.12.2021
4864 Clear -7 1031 63 10000 1.79 327 10:20 16.12.2021
4865 Clear -3 1032 78 10000 1.56 323 07:48 16.12.2021
4866 Clouds -3 1032 78 10000 1.53 323 06:21 16.12.2021
4867 Clouds -3 1032 77 10000 1.08 323 00:54 16.12.2021
4868 Clouds -4 1032 53 10000 1 323 23:33 15.12.2021
4869 Clouds -4 1032 53 10000 0.89 322 22:43 15.12.2021
4870 Clouds -4 1032 53 10000 0.86 313 21:55 15.12.2021
4871 Clouds -4 1032 54 10000 0.7 294 21:26 15.12.2021
4872 Clouds -3 1032 56 10000 0.48 288 20:18 15.12.2021
4873 Clouds -3 1032 56 10000 0.48 288 19:50 15.12.2021
4874 Clouds -5 1031 58 10000 0.36 288 18:37 15.12.2021
4875 Clouds -3 1031 62 10000 0.41 306 17:53 15.12.2021
4876 Clouds -3 1031 62 10000 0.41 306 17:34 15.12.2021
4877 Clouds 0 1029 71 10000 0.88 8 16:28 15.12.2021
4878 Clouds -5 1029 75 10000 0.88 8 15:46 15.12.2021
4879 Clouds 4 1027 68 10000 1.05 9 15:27 15.12.2021
4880 Clouds 3 1027 62 10000 0.95 3 14:18 15.12.2021
4881 Clouds 3 1027 70 10000 1.15 348 12:37 15.12.2021
4882 Clouds 1 1030 75 10000 1.11 337 10:27 15.12.2021
4883 Clouds -2 1032 78 10000 1.21 325 08:55 15.12.2021
4884 Clouds -3 1031 77 10000 1.52 327 07:25 15.12.2021
4885 Clouds -3 1032 75 10000 1.06 300 01:20 15.12.2021
4886 Clouds -4 1032 43 10000 1.04 303 23:42 14.12.2021
4887 Clouds -7 1033 44 10000 1.29 300 22:49 14.12.2021
4888 Clouds -4 1033 45 10000 1.13 293 22:24 14.12.2021
4889 Clouds -2 1032 76 10000 1.5 297 20:29 14.12.2021
4890 Clouds -3 1032 47 10000 1.5 297 19:43 14.12.2021
4891 Clouds -4 1032 49 10000 1.62 297 19:19 14.12.2021
4892 Clouds -2 1031 71 10000 1.67 308 18:25 14.12.2021
4893 Clouds -1 1031 69 10000 1.67 308 17:30 14.12.2021
4894 Clouds -5 1030 51 10000 1.82 312 16:39 14.12.2021
4895 Clouds 3 1028 65 10000 2.22 322 15:36 14.12.2021
4896 Clouds 2 1025 65 10000 1.9 326 13:31 14.12.2021
4897 Clouds 2 1026 71 10000 1.34 326 11:59 14.12.2021
4898 Clouds 1 1027 63 10000 1.14 334 11:24 14.12.2021
4899 Clouds 1 1028 52 10000 1.2 334 10:23 14.12.2021
4900 Clouds 0 1028 52 10000 1.2 334 09:43 14.12.2021
4901 Clouds -4 1031 78 10000 1 307 08:27 14.12.2021
4902 Clouds -4 1031 80 10000 1 307 07:43 14.12.2021
4903 Clear -3 1030 88 10000 1.36 312 02:37 14.12.2021
4904 Clouds -3 1030 91 10000 1.07 296 22:56 13.12.2021
4905 Clouds -2 1030 91 10000 0.94 295 21:53 13.12.2021
4906 Clouds -2 1030 89 10000 0.94 295 21:32 13.12.2021
4907 Clouds -2 1030 91 10000 0.87 302 20:42 13.12.2021
4908 Clouds -2 1030 91 10000 0.9 311 19:52 13.12.2021
4909 Clouds -1 1029 91 10000 1.1 318 18:24 13.12.2021
4910 Clouds 0 1028 90 10000 1.06 334 17:26 13.12.2021
4911 Clouds 1 1026 86 10000 1.27 347 15:54 13.12.2021
4912 Clouds 2 1025 82 8925 1.27 353 15:25 13.12.2021
4913 Clouds 2 1025 80 5620 1.24 350 13:39 13.12.2021
4914 Clouds 3 1025 84 3151 1.23 352 12:49 13.12.2021
4915 Clouds -1 1025 100 10000 1.19 354 11:56 13.12.2021
4916 Clouds -1 1025 100 10000 1.19 354 11:35 13.12.2021
4917 Clouds 2 1026 98 10000 1.25 4 10:47 13.12.2021
4918 Clouds -1 1026 90 10000 1.24 4 09:32 13.12.2021
4919 Clouds -2 1029 92 10000 1.12 352 07:48 13.12.2021
4920 Clouds -7 1028 91 10000 1.22 358 05:36 13.12.2021
4921 Clouds -3 1029 86 10000 1.17 348 03:28 13.12.2021
4922 Clouds -5 1029 85 10000 1.2 353 23:22 12.12.2021
4923 Clouds -5 1030 85 10000 1.29 344 21:40 12.12.2021
4924 Clouds -4 1031 88 10000 1.6 339 19:57 12.12.2021
4925 Clouds -4 1031 88 10000 1.9 336 18:36 12.12.2021
4926 Clouds -4 1031 88 10000 1.9 336 18:36 12.12.2021
4927 Clouds -3 1031 89 10000 2.24 331 17:38 12.12.2021
4928 Clouds -3 1028 86 10000 2.95 334 16:28 12.12.2021
4929 Clouds -2 1028 83 10000 2.95 334 15:46 12.12.2021
4930 Clouds -3 1026 81 10000 3.38 335 15:25 12.12.2021
4931 Clouds -3 1026 83 10000 3.38 335 14:34 12.12.2021
4932 Clouds -5 1025 59 10000 3.31 338 13:26 12.12.2021
4933 Clouds -6 1025 60 10000 3.56 336 12:30 12.12.2021
4934 Clouds -6 1025 56 10000 3.57 333 11:44 12.12.2021
4935 Clouds -6 1027 54 10000 3.47 332 11:20 12.12.2021
4936 Clouds -7 1029 56 10000 2.88 326 10:22 12.12.2021
4937 Clouds -6 1032 85 10000 2.81 322 08:58 12.12.2021
4938 Clouds -7 1033 54 10000 2.79 322 07:57 12.12.2021
4939 Clouds -6 1033 63 10000 2.46 320 05:57 12.12.2021
4940 Clouds -6 1033 76 10000 2.42 322 04:56 12.12.2021
4941 Clouds -6 1030 88 10000 3.19 331 03:27 12.12.2021
4942 Clouds -4 1028 91 7679 3.81 335 23:39 11.12.2021
4943 Clouds -5 1027 95 7012 3.55 336 22:22 11.12.2021
4944 Clouds -5 1027 95 7012 3.55 336 21:51 11.12.2021
4945 Clouds -5 1026 95 6965 3.83 336 20:29 11.12.2021
4946 Snow -5 1025 94 6840 4.26 338 19:21 11.12.2021
4947 Snow -5 1025 94 6840 4.26 338 18:52 11.12.2021
4948 Snow -5 1024 94 6682 4.38 337 18:19 11.12.2021
4949 Snow -5 1022 94 6360 4.46 336 17:20 11.12.2021
4950 Snow -3 1020 74 6767 4.43 337 15:52 11.12.2021
4951 Snow -3 1019 77 5298 4.39 336 15:18 11.12.2021
4952 Snow -3 1017 90 4917 4.35 336 12:50 11.12.2021
4953 Snow -3 1017 90 4917 4.35 336 12:50 11.12.2021
4954 Snow -3 1017 89 4907 4.07 331 11:25 11.12.2021
4955 Snow -4 1017 92 4981 3.85 327 09:45 11.12.2021
4956 Snow -4 1018 93 5095 3.71 320 07:49 11.12.2021
4957 Clouds -4 1013 95 7446 3.14 314 02:20 11.12.2021
4958 Snow -4 1009 91 5675 3.9 324 23:58 10.12.2021
4959 Snow -4 1008 93 7749 3.75 324 23:20 10.12.2021
4960 Clouds -4 1006 92 6120 3.89 326 21:56 10.12.2021
4961 Snow -4 1004 92 4414 3.6 329 20:57 10.12.2021
4962 Snow -4 1001 92 2201 3.21 333 19:21 10.12.2021
4963 Snow -5 1000 92 179 2.6 322 17:59 10.12.2021
4964 Snow -5 1000 91 223 1.75 305 16:56 10.12.2021
4965 Snow -4 1000 89 171 1.47 233 16:19 10.12.2021
4966 Snow -4 1000 88 171 1.47 233 15:39 10.12.2021
4967 Snow -4 1000 87 188 1.99 194 15:20 10.12.2021
4968 Snow -4 1000 81 276 2.5 180 13:51 10.12.2021
4969 Snow -4 1001 72 609 2.94 178 13:26 10.12.2021
4970 Snow -5 1001 89 785 2.95 174 12:34 10.12.2021
4971 Snow -6 1003 88 1173 3.75 172 11:28 10.12.2021
4972 Snow -6 1003 88 1173 3.75 172 11:28 10.12.2021
4973 Clouds -5 1003 82 10000 4.3 174 09:54 10.12.2021
4974 Clouds -6 1004 84 10000 4.47 173 08:52 10.12.2021
4975 Clouds -8 1006 85 10000 3.77 173 06:22 10.12.2021
4976 Clouds -9 1010 85 10000 2.79 189 02:48 10.12.2021
4977 Clouds -8 1016 73 10000 1.37 225 23:54 09.12.2021
4978 Clouds -8 1017 84 10000 1.07 243 23:20 09.12.2021
4979 Clouds -8 1018 90 10000 1.04 265 22:24 09.12.2021
4980 Clouds -6 1018 90 10000 1.04 265 21:50 09.12.2021
4981 Clouds -6 1018 93 10000 1.13 285 20:44 09.12.2021
4982 Clouds -6 1018 94 10000 1.37 302 20:21 09.12.2021
4983 Clouds -6 1017 95 10000 1.77 311 19:21 09.12.2021
4984 Clouds -6 1017 95 10000 1.77 311 18:46 09.12.2021
4985 Clouds -6 1016 96 9038 2.25 318 17:51 09.12.2021
4986 Clouds -5 1014 95 7697 2.7 328 17:26 09.12.2021
4987 Clouds -5 1014 95 7697 2.7 328 16:54 09.12.2021
4988 Clouds -4 1012 94 7228 3.43 332 15:34 09.12.2021
4989 Clouds -4 1010 72 8944 3.78 335 14:46 09.12.2021
4990 Snow -3 1009 77 7133 4.48 337 13:20 09.12.2021
4991 Snow -3 1009 71 7133 4.48 337 12:37 09.12.2021
4992 Snow -3 1009 80 7725 4.54 332 11:21 09.12.2021
4993 Snow -4 1008 82 3487 4.27 333 09:21 09.12.2021
4994 Snow -4 1007 91 1854 4.08 341 06:44 09.12.2021
4995 Snow -4 1006 92 3335 4.03 336 03:40 09.12.2021
4996 Snow -4 1005 93 3666 3.36 335 23:43 08.12.2021
4997 Snow -4 1004 93 3456 3.35 336 23:21 08.12.2021
4998 Snow -4 1004 93 3456 3.35 336 22:47 08.12.2021
4999 Snow -5 1004 94 3428 3.13 337 21:40 08.12.2021
5000 Snow -5 1003 94 3383 3.09 334 20:59 08.12.2021
5001 Snow -4 1003 91 654 2.75 334 19:58 08.12.2021
5002 Snow -4 1003 91 654 2.75 334 19:58 08.12.2021
5003 Snow -4 1003 95 654 2.75 334 19:33 08.12.2021
5004 Snow -4 1001 96 120 2.71 332 18:40 08.12.2021
5005 Snow -3 1000 92 172 2.76 329 17:34 08.12.2021
5006 Snow -3 1000 91 122 0.71 299 15:49 08.12.2021
5007 Snow -3 999 91 133 0.97 283 15:28 08.12.2021
5008 Snow -3 999 89 133 0.97 283 14:30 08.12.2021
5009 Snow -4 1004 93 221 1 231 11:19 08.12.2021
5010 Snow -3 1004 92 221 1 231 10:31 08.12.2021
5011 Snow -3 1004 92 221 1 231 10:31 08.12.2021
5012 Snow -3 1006 91 155 2.87 180 08:55 08.12.2021
5013 Snow -4 1007 89 805 2.4 150 07:25 08.12.2021
5014 Clouds -5 1011 91 10000 3.01 168 04:24 08.12.2021
5015 Snow -5 1013 85 10000 4.62 175 23:33 07.12.2021
5016 Clouds -7 1013 86 10000 4.09 174 21:43 07.12.2021
5017 Clouds -7 1016 86 10000 3.82 177 21:23 07.12.2021
5018 Clouds -7 1016 87 10000 3.33 183 20:20 07.12.2021
5019 Clouds -6 1015 86 10000 2.8 186 18:43 07.12.2021
5020 Clouds -5 1015 58 10000 2.28 185 17:52 07.12.2021
5021 Clouds -5 1017 85 10000 1.88 201 17:19 07.12.2021
5022 Clouds -5 1017 82 10000 1.88 201 16:31 07.12.2021
5023 Clouds -3 1016 79 10000 1.42 211 15:33 07.12.2021
5024 Clear -1 1014 80 10000 0.2 268 14:18 07.12.2021
5025 Clouds -2 1016 82 10000 0.98 339 12:49 07.12.2021
5026 Clouds -3 1018 89 10000 2.39 325 11:27 07.12.2021
5027 Clouds -5 1018 91 10000 2.39 325 10:33 07.12.2021
5028 Snow -5 1017 92 411 3.99 321 08:26 07.12.2021
5029 Snow -6 1016 91 268 3.37 326 06:19 07.12.2021
5030 Snow -6 1016 91 268 3.37 326 05:33 07.12.2021
5031 Clouds -7 1017 85 10000 1.13 261 23:47 06.12.2021
5032 Clouds -7 1017 85 10000 1.13 261 23:47 06.12.2021
5033 Clouds -6 1017 84 10000 1.32 281 22:57 06.12.2021
5034 Clouds -6 1017 62 10000 1.32 281 22:35 06.12.2021
5035 Clouds -7 1020 61 10000 1.94 286 21:51 06.12.2021
5036 Clouds -7 1021 69 10000 1.32 275 20:33 06.12.2021
5037 Clouds -7 1023 83 10000 1.33 265 19:55 06.12.2021
5038 Clouds -7 1023 93 10000 1.23 267 19:20 06.12.2021
5039 Clouds -6 1023 96 10000 1.6 289 18:28 06.12.2021
5040 Clouds -6 1023 96 10000 1.6 289 17:40 06.12.2021
5041 Clouds -6 1023 96 10000 1.6 289 17:40 06.12.2021
5042 Clouds -7 1022 95 10000 1.87 309 16:48 06.12.2021
5043 Clouds -5 1019 93 10000 2.43 329 15:39 06.12.2021
5044 Clouds -3 1016 82 10000 3.2 333 13:46 06.12.2021
5045 Clouds -3 1016 85 10000 3.03 337 12:39 06.12.2021
5046 Clouds -3 1016 87 10000 2.99 338 11:36 06.12.2021
5047 Clouds -6 1018 95 6736 2.33 327 08:46 06.12.2021
5048 Snow -6 1017 94 4451 2.98 333 06:42 06.12.2021
5049 Clouds -7 1016 95 10000 1.37 309 23:38 05.12.2021
5050 Clouds -6 1015 95 10000 0.91 306 21:51 05.12.2021
5051 Clouds -6 1014 95 10000 0.86 322 21:19 05.12.2021
5052 Clouds -6 1013 95 9478 1.33 321 20:19 05.12.2021
5053 Clouds -5 1013 95 9478 1.33 321 19:33 05.12.2021
5054 Clouds -5 1012 95 7649 1.77 326 18:47 05.12.2021
5055 Clouds -5 1011 95 9304 1.61 323 18:19 05.12.2021
5056 Clouds -5 1011 95 9304 1.61 323 17:48 05.12.2021
5057 Clouds -5 1011 93 10000 1.54 327 16:47 05.12.2021
5058 Clouds -4 1008 90 10000 1.55 347 16:26 05.12.2021
5059 Clouds -4 1008 90 10000 1.55 347 15:48 05.12.2021
5060 Clouds -2 1006 79 10000 1.67 359 14:41 05.12.2021
5061 Clouds -2 1005 78 10000 1.9 353 14:23 05.12.2021
5062 Clouds -1 1005 80 10000 2.12 354 13:22 05.12.2021
5063 Clouds -2 1005 83 10000 2.53 347 12:40 05.12.2021
5064 Clouds -3 1006 84 10000 2.5 350 12:18 05.12.2021
5065 Clouds -3 1007 83 10000 2.45 356 11:29 05.12.2021
5066 Clouds -4 1008 89 8249 2.42 348 09:59 05.12.2021
5067 Clouds -6 1009 94 5829 2.22 337 08:24 05.12.2021
5068 Clouds -4 1008 94 6507 2.61 338 03:27 05.12.2021
5069 Snow -2 1008 94 2630 3.65 327 23:45 04.12.2021
5070 Snow -2 1007 92 3215 4.21 323 21:55 04.12.2021
5071 Snow -2 1005 93 5854 2.02 301 20:57 04.12.2021
5072 Snow -1 1004 93 5144 0.64 266 20:20 04.12.2021
5073 Snow 0 1004 94 5144 0.64 266 19:32 04.12.2021
5074 Snow 0 1003 94 90 1.58 330 18:21 04.12.2021
5075 Snow 0 1003 94 90 1.58 330 17:39 04.12.2021
5076 Snow 0 1003 94 152 1.03 254 16:51 04.12.2021
5077 Snow 0 1003 94 152 1.03 254 16:31 04.12.2021
5078 Snow 0 1003 93 678 2.06 186 15:40 04.12.2021
5079 Snow -1 1006 91 2546 2.28 192 11:51 04.12.2021
5080 Snow -1 1006 90 2546 2.28 192 11:32 04.12.2021
5081 Snow -2 1006 90 2267 2.6 183 10:53 04.12.2021
5082 Snow -3 1007 92 1598 2.34 200 08:48 04.12.2021
5083 Snow -4 1012 92 609 2.73 194 06:28 04.12.2021
5084 Snow -4 1013 91 614 3.12 184 04:42 04.12.2021
5085 Clouds -6 1015 79 10000 3.02 187 00:24 04.12.2021
5086 Clouds -7 1015 79 10000 2.39 199 23:26 03.12.2021
5087 Clouds -7 1015 79 10000 2.39 199 23:26 03.12.2021
5088 Clouds -6 1015 80 10000 2.39 199 22:46 03.12.2021
5089 Clouds -6 1018 80 10000 1.68 233 21:26 03.12.2021
5090 Clouds -6 1018 80 10000 1.68 233 20:52 03.12.2021
5091 Clouds -7 1018 82 10000 1.38 267 19:53 03.12.2021
5092 Clouds -7 1019 80 10000 1.58 272 18:34 03.12.2021
5093 Clouds -6 1018 78 10000 1.44 278 17:59 03.12.2021
5094 Clouds -6 1019 71 10000 1.18 269 15:47 03.12.2021
5095 Clouds -4 1016 68 10000 2.13 325 12:54 03.12.2021
5096 Clouds -6 1017 71 10000 2.08 323 12:19 03.12.2021
5097 Clouds -6 1018 72 10000 1.8 324 10:55 03.12.2021
5098 Clouds -9 1024 86 10000 1.64 315 08:27 03.12.2021
5099 Clouds -9 1024 86 10000 1.64 315 07:43 03.12.2021
5100 Clouds -7 1020 94 10000 1.91 326 04:44 03.12.2021
5101 Clouds -7 1016 95 7075 2.9 325 00:48 03.12.2021
5102 Clouds -6 1015 96 7388 3.12 331 23:47 02.12.2021
5103 Clouds -6 1013 94 8036 3.74 334 22:36 02.12.2021
5104 Snow -6 1011 94 7069 4.21 333 21:41 02.12.2021
5105 Snow -6 1010 93 4045 4.58 333 20:44 02.12.2021
5106 Snow -6 1009 94 3921 4.57 333 20:20 02.12.2021
5107 Snow -5 1008 93 6565 4.03 337 18:35 02.12.2021
5108 Snow -3 1003 90 3594 4.76 341 16:33 02.12.2021
5109 Snow -2 1002 91 3570 3.35 341 15:37 02.12.2021
5110 Snow -1 1001 90 7837 3.15 344 14:51 02.12.2021
5111 Snow -1 1002 87 10000 3.2 335 13:26 02.12.2021
5112 Clouds -1 1002 89 10000 2.84 328 12:19 02.12.2021
5113 Snow -2 1003 85 10000 2.73 331 10:42 02.12.2021
5114 Clouds -3 1006 89 8272 2.5 323 09:25 02.12.2021
5115 Snow -4 1005 95 8142 2.73 325 06:46 02.12.2021
5116 Snow -1 1003 92 133 2.1 338 00:57 02.12.2021
5117 Snow -1 1004 91 120 1.83 338 23:34 01.12.2021
5118 Snow -1 1005 92 132 1.4 333 22:25 01.12.2021
5119 Snow -1 1005 93 132 1.4 333 21:43 01.12.2021
5120 Snow -1 1006 92 118 1.86 239 20:18 01.12.2021
5121 Snow -1 1006 90 118 1.86 239 19:37 01.12.2021
5122 Snow -1 1006 97 232 2.27 202 18:42 01.12.2021
5123 Snow -1 1005 97 243 2.73 181 16:59 01.12.2021
5124 Clouds -2 1005 94 1305 2.86 186 15:47 01.12.2021
5125 Clouds 1 1005 93 8508 3.4 172 14:30 01.12.2021
5126 Clouds 0 1006 94 5142 3.65 176 13:36 01.12.2021
5127 Clouds -1 1008 88 10000 3.11 187 10:44 01.12.2021
5128 Clouds -2 1009 89 10000 2.86 196 10:20 01.12.2021
5129 Clouds -3 1012 92 10000 2.67 203 08:51 01.12.2021
5130 Clouds -4 1013 93 10000 2.39 214 07:56 01.12.2021
5131 Clouds -4 1014 93 10000 1.78 232 07:27 01.12.2021
5132 Clouds -3 1017 93 10000 1.42 273 03:55 01.12.2021
5133 Clouds -3 1018 93 10000 1.51 277 03:20 01.12.2021
5134 Clouds -3 1020 94 10000 2.31 300 00:20 01.12.2021
5135 Clouds -3 1020 94 10000 2.31 300 00:20 01.12.2021
5136 Snow -4 1019 94 9069 2.95 313 23:29 30.11.2021
5137 Snow -4 1019 94 9069 2.95 313 22:31 30.11.2021
5138 Snow -4 1019 93 6615 3.4 317 20:47 30.11.2021
5139 Snow -5 1019 94 6525 3.37 312 20:24 30.11.2021
5140 Snow -4 1019 94 6525 3.37 312 19:39 30.11.2021
5141 Snow -6 1019 94 5192 3.49 315 18:53 30.11.2021
5142 Snow -6 1019 94 4176 3.49 312 17:45 30.11.2021
5143 Snow -5 1018 95 3153 3.37 314 15:57 30.11.2021
5144 Snow -5 1018 94 3434 3.19 309 14:34 30.11.2021
5145 Snow -5 1018 92 4522 3.28 312 13:41 30.11.2021
5146 Snow -6 1018 91 4360 3.28 309 12:54 30.11.2021
5147 Snow -5 1020 90 5309 3.28 304 11:59 30.11.2021
5148 Snow -5 1022 87 6670 3.01 295 11:25 30.11.2021
5149 Snow -6 1022 85 6670 3.01 295 10:36 30.11.2021
5150 Snow -7 1023 90 10000 2.77 304 08:57 30.11.2021
5151 Snow -8 1023 90 10000 2.77 304 08:32 30.11.2021
5152 Clouds -8 1025 89 10000 2.69 303 07:56 30.11.2021
5153 Clouds -9 1027 86 10000 2.55 302 06:38 30.11.2021
5154 Clouds -7 1027 93 10000 2.47 311 01:50 30.11.2021
5155 Clouds -7 1026 94 10000 2.92 314 01:28 30.11.2021
5156 Clouds -7 1025 92 9080 3.27 316 23:40 29.11.2021
5157 Clouds -7 1024 93 6846 3.55 319 23:19 29.11.2021
5158 Clouds -7 1024 93 6846 3.55 319 22:38 29.11.2021
5159 Clouds -7 1022 93 6061 3.52 319 21:56 29.11.2021
5160 Clouds -7 1022 93 5064 3.56 320 21:20 29.11.2021
5161 Clouds -7 1022 93 5064 3.56 320 20:48 29.11.2021
5162 Clouds -7 1021 94 5569 3.61 324 19:59 29.11.2021
5163 Clouds -7 1021 94 5569 3.61 324 19:41 29.11.2021
5164 Snow -7 1019 93 4710 3.76 329 18:59 29.11.2021
5165 Snow -10 1019 93 4710 3.76 329 18:41 29.11.2021
5166 Snow -10 1017 94 7109 3.86 334 17:22 29.11.2021
5167 Snow -10 1017 94 7109 3.86 334 16:45 29.11.2021
5168 Snow -8 1014 92 5555 4.2 338 16:24 29.11.2021
5169 Snow -6 1012 86 8053 4.34 339 14:46 29.11.2021
5170 Snow -6 1010 85 5579 4.56 337 13:52 29.11.2021
5171 Snow -5 1009 84 5727 4.34 337 12:58 29.11.2021
5172 Snow -6 1009 84 5584 4.24 335 12:19 29.11.2021
5173 Snow -6 1009 86 6020 4.2 335 11:28 29.11.2021
5174 Snow -6 1008 90 4984 3.96 335 09:59 29.11.2021
5175 Snow -7 1006 93 4005 4.03 333 07:26 29.11.2021
5176 Snow -6 1005 94 3496 4.09 337 05:51 29.11.2021
5177 Snow -6 1001 95 3032 3.55 329 01:24 29.11.2021
5178 Snow -6 1002 95 3109 3.4 332 23:54 28.11.2021
5179 Snow -6 1002 95 3109 3.4 332 23:36 28.11.2021
5180 Snow -6 1001 95 3271 3.19 335 22:18 28.11.2021
5181 Snow -6 1001 95 3271 3.19 335 21:39 28.11.2021
5182 Snow -6 1001 95 2226 3.12 335 20:40 28.11.2021
5183 Snow -6 1000 95 2411 3.11 337 19:51 28.11.2021
5184 Snow -6 999 95 620 3.05 337 18:40 28.11.2021
5185 Snow -6 998 95 1758 2.85 342 18:18 28.11.2021
5186 Snow -5 998 95 1758 2.85 342 17:34 28.11.2021
5187 Snow -5 999 95 2098 2.89 346 16:47 28.11.2021
5188 Snow -4 998 92 6377 2.63 352 16:28 28.11.2021
5189 Snow -3 998 92 6377 2.63 352 15:50 28.11.2021
5190 Clouds -3 997 86 9494 2.63 345 14:55 28.11.2021
5191 Clouds -3 997 77 10000 2.98 339 14:28 28.11.2021
5192 Clouds -4 997 77 10000 3.06 337 12:54 28.11.2021
5193 Clouds -4 997 80 10000 2.89 337 11:39 28.11.2021
5194 Clouds -5 998 84 10000 2.71 340 10:34 28.11.2021
5195 Clouds -6 998 90 8466 2.47 341 09:51 28.11.2021
5196 Clouds -6 998 90 8466 2.47 341 09:30 28.11.2021
5197 Snow -5 997 95 165 2.93 357 00:52 28.11.2021
5198 Snow -5 996 96 115 2.06 359 22:58 27.11.2021
5199 Snow -5 997 96 115 1.1 8 19:51 27.11.2021
5200 Snow -4 997 97 231 0.79 290 18:26 27.11.2021
5201 Snow -4 994 90 9555 0.51 78 16:19 27.11.2021
5202 Snow -3 993 85 2497 1.2 181 14:51 27.11.2021
5203 Clouds -3 993 77 7441 1.51 175 13:40 27.11.2021
5204 Clouds -4 993 68 10000 1.92 208 12:19 27.11.2021
5205 Clouds -6 993 69 10000 1.31 203 10:27 27.11.2021
5206 Clouds -6 995 76 10000 1.1 264 09:18 27.11.2021
5207 Clouds -8 994 75 10000 1.22 267 06:59 27.11.2021
5208 Clouds -8 994 75 10000 1.35 235 04:53 27.11.2021
5209 Clouds -7 996 86 10000 1.04 260 00:26 27.11.2021
5210 Clouds -6 997 88 10000 0.83 273 22:51 26.11.2021
5211 Clouds -6 998 90 10000 1.08 297 22:24 26.11.2021
5212 Clouds -6 998 90 10000 1.08 297 21:33 26.11.2021
5213 Clouds -5 999 93 10000 1.67 311 20:42 26.11.2021
5214 Clouds -5 999 93 10000 1.91 319 19:56 26.11.2021
5215 Clouds -5 999 93 10000 2.23 324 19:18 26.11.2021
5216 Clouds -5 999 93 6922 2.71 330 17:46 26.11.2021
5217 Snow -5 999 93 7978 3.01 334 17:21 26.11.2021
5218 Clouds -5 998 87 9087 2.94 336 15:29 26.11.2021
5219 Clouds -2 998 95 10000 2.86 333 13:35 26.11.2021
5220 Clouds -2 999 96 10000 2.91 333 11:30 26.11.2021
5221 Snow -2 1000 96 8096 3.06 333 10:35 26.11.2021
5222 Clouds -3 1002 95 10000 2.71 328 08:56 26.11.2021
5223 Snow -3 1003 95 7879 2.5 327 08:21 26.11.2021
5224 Clouds -2 1003 95 6997 2.51 326 07:24 26.11.2021
5225 Clouds -2 1004 95 8860 2.27 327 06:25 26.11.2021
5226 Snow -2 1005 97 6588 2.37 330 03:54 26.11.2021
5227 Snow -1 1005 95 1482 0.65 222 01:27 26.11.2021
5228 Snow -1 1006 92 104 0.16 321 22:46 25.11.2021
5229 Snow 0 1007 89 116 0.55 328 21:24 25.11.2021
5230 Rain 1 1008 84 217 0.85 343 19:55 25.11.2021
5231 Rain 1 1008 82 480 0.54 220 18:45 25.11.2021
5232 Snow 1 1007 80 388 0.69 175 17:41 25.11.2021
5233 Rain 2 1007 77 284 1.42 178 17:18 25.11.2021
5234 Clouds 1 1007 97 284 1.42 178 16:30 25.11.2021
5235 Clouds -1 1007 87 8666 1.92 171 14:59 25.11.2021
5236 Snow -3 1009 83 10000 2.22 176 13:25 25.11.2021
5237 Clouds 3 1009 78 10000 3.07 172 12:23 25.11.2021
5238 Clouds 3 1009 77 10000 3.07 172 11:48 25.11.2021
5239 Clouds 0 1012 78 10000 2.92 167 09:25 25.11.2021
5240 Clouds -1 1015 72 10000 3.09 172 05:27 25.11.2021
5241 Clouds -1 1016 72 10000 3.3 171 02:48 25.11.2021
5242 Clouds -2 1018 74 10000 3.13 176 22:45 24.11.2021
5243 Clouds -2 1019 74 10000 3.11 178 22:23 24.11.2021
5244 Clouds -2 1019 75 10000 3.09 178 21:28 24.11.2021
5245 Clouds -1 1019 76 10000 3.09 178 20:46 24.11.2021
5246 Clouds -1 1019 76 10000 3.09 178 20:46 24.11.2021
5247 Clouds -2 1019 77 10000 2.86 178 20:18 24.11.2021
5248 Clear -1 1019 75 10000 2.44 184 18:30 24.11.2021
5249 Clear 0 1019 74 10000 2.81 178 17:24 24.11.2021
5250 Clear 3 1017 69 10000 2.99 172 15:23 24.11.2021
5251 Clear 2 1017 65 10000 2.99 172 14:47 24.11.2021
5252 Clear 4 1017 68 10000 3.13 172 14:19 24.11.2021
5253 Clear 4 1017 68 10000 3.17 171 14:19 24.11.2021
5254 Clear 1 1018 70 10000 3.11 173 11:51 24.11.2021
5255 Clear -1 1020 72 10000 3.06 174 11:20 24.11.2021
5256 Clear -1 1020 72 10000 3.06 174 10:47 24.11.2021
5257 Clear -1 1021 84 10000 2.74 177 10:21 24.11.2021
5258 Clear -2 1024 87 10000 2.26 190 07:52 24.11.2021
5259 Clouds -2 1024 87 10000 2.08 192 06:54 24.11.2021
5260 Clouds -2 1024 91 10000 2.44 190 03:50 24.11.2021
5261 Clouds -2 1026 94 10000 2.91 180 00:43 24.11.2021
5262 Clouds -1 1026 94 10000 3.16 171 22:40 23.11.2021
5263 Clouds -1 1026 95 10000 2.99 168 22:18 23.11.2021
5264 Clouds -1 1026 95 10000 2.99 168 21:44 23.11.2021
5265 Clouds -1 1025 94 10000 2.4 168 19:37 23.11.2021
5266 Clouds -1 1025 94 10000 2.4 168 19:37 23.11.2021
5267 Clouds -1 1024 94 10000 2.12 166 18:41 23.11.2021
5268 Clouds 0 1024 94 10000 1.94 154 18:20 23.11.2021
5269 Clouds 0 1023 94 10000 1.85 154 16:58 23.11.2021
5270 Clouds 1 1022 94 10000 1.52 149 15:59 23.11.2021
5271 Clouds 1 1021 94 10000 1.47 158 15:22 23.11.2021
5272 Clouds 1 1021 91 10000 1.93 165 13:50 23.11.2021
5273 Clouds 1 1022 93 10000 2.21 166 11:42 23.11.2021
5274 Clouds -1 1022 88 10000 1.92 162 09:59 23.11.2021
5275 Clouds -1 1023 95 10000 1.75 173 08:46 23.11.2021
5276 Clouds -1 1023 96 10000 1.5 172 06:39 23.11.2021
5277 Clouds -1 1021 96 10000 0.97 158 03:51 23.11.2021
5278 Snow -1 1021 96 10000 0.75 70 00:57 23.11.2021
5279 Clouds -1 1020 96 10000 1.09 44 23:21 22.11.2021
5280 Clouds -1 1020 96 10000 1.09 44 22:33 22.11.2021
5281 Clouds -1 1020 96 10000 1.42 39 21:49 22.11.2021
5282 Clouds -1 1020 96 10000 1.42 39 21:31 22.11.2021
5283 Clouds -1 1019 96 10000 1.79 35 20:50 22.11.2021
5284 Clouds -1 1018 95 10000 1.96 38 19:47 22.11.2021
5285 Clouds -1 1017 95 9869 2.08 37 19:18 22.11.2021
5286 Clouds -1 1017 95 9081 2.04 39 18:37 22.11.2021
5287 Clouds 0 1016 94 9557 2.1 38 17:18 22.11.2021
5288 Clouds 0 1015 95 10000 2.03 36 15:47 22.11.2021
5289 Clouds 0 1013 94 10000 1.53 47 13:58 22.11.2021
5290 Clouds -1 1013 95 10000 1.54 62 11:50 22.11.2021
5291 Clouds 0 1014 95 10000 1.56 61 10:39 22.11.2021
5292 Clouds -1 1014 95 8828 1.42 39 09:26 22.11.2021
5293 Clouds -1 1014 95 8828 1.42 39 08:39 22.11.2021
5294 Snow 0 1012 93 8162 1.33 36 04:33 22.11.2021
5295 Clouds 0 1012 86 9900 0.24 160 23:24 21.11.2021
5296 Clouds 1 1012 82 9900 0.24 160 22:48 21.11.2021
5297 Clouds 0 1012 81 10000 0.65 152 21:51 21.11.2021
5298 Clouds 0 1012 79 10000 0.91 152 20:42 21.11.2021
5299 Clouds 0 1012 79 10000 0.63 154 19:46 21.11.2021
5300 Clouds 1 1012 73 10000 0.45 183 18:18 21.11.2021
5301 Clouds 2 1012 70 10000 0.45 183 17:38 21.11.2021
5302 Clouds 4 1009 65 10000 0.66 165 15:28 21.11.2021
5303 Clouds 6 1009 59 10000 0.66 165 14:45 21.11.2021
5304 Clear 6 1009 60 10000 0.63 167 13:40 21.11.2021
5305 Clear 6 1009 64 10000 0.33 196 12:35 21.11.2021
5306 Clear 5 1010 64 10000 0.56 213 11:42 21.11.2021
5307 Clear 4 1011 65 10000 0.71 235 11:23 21.11.2021
5308 Clear 3 1012 61 10000 0.68 257 10:18 21.11.2021
5309 Clear 1 1014 70 10000 1.01 292 08:42 21.11.2021
5310 Clear 0 1014 70 10000 1.15 283 08:22 21.11.2021
5311 Clear 0 1014 70 10000 1.15 283 07:43 21.11.2021
5312 Clear 1 1015 69 10000 1.17 284 05:49 21.11.2021
5313 Clear 0 1016 70 10000 1.34 274 05:19 21.11.2021
5314 Clear 1 1017 69 10000 1.37 265 03:18 21.11.2021
5315 Clear 2 1017 69 10000 1.37 265 02:50 21.11.2021
5316 Clear 2 1018 69 10000 1.42 262 00:56 21.11.2021
5317 Clear 2 1019 68 10000 1.39 251 23:43 20.11.2021
5318 Clear 2 1020 70 10000 1.55 245 21:40 20.11.2021
5319 Clear 2 1020 71 10000 1.42 243 20:54 20.11.2021
5320 Clouds 1 1021 55 10000 1.12 244 18:46 20.11.2021
5321 Clouds 1 1021 55 10000 1.12 244 18:46 20.11.2021
5322 Clouds 3 1021 68 10000 1.17 253 18:26 20.11.2021
5323 Clouds 5 1021 67 10000 1.22 257 17:26 20.11.2021
5324 Clouds 5 1021 67 10000 1.22 257 16:46 20.11.2021
5325 Clouds 9 1021 59 10000 0.91 265 14:46 20.11.2021
5326 Clouds 9 1021 61 10000 0.83 273 14:23 20.11.2021
5327 Clouds 6 1023 56 10000 1.07 245 11:57 20.11.2021
5328 Clouds -3 1023 66 10000 1.03 227 10:35 20.11.2021
5329 Clouds 5 1024 68 10000 0.93 221 09:39 20.11.2021
5330 Clouds 1 1027 71 10000 0.68 247 07:28 20.11.2021
5331 Clouds 1 1027 72 10000 0.65 260 05:27 20.11.2021
5332 Clouds 1 1027 72 10000 0.65 260 04:50 20.11.2021
5333 Clouds 1 1029 73 10000 0.68 306 01:55 20.11.2021
5334 Clouds 1 1029 72 10000 0.66 289 00:40 20.11.2021
5335 Clouds 2 1030 71 10000 0.78 312 22:58 19.11.2021
5336 Clouds 2 1030 70 10000 0.93 316 21:58 19.11.2021
5337 Clouds 2 1030 67 10000 0.98 312 20:58 19.11.2021
5338 Clouds 1 1030 67 10000 0.98 312 20:36 19.11.2021
5339 Clouds 1 1030 67 10000 0.92 313 19:50 19.11.2021
5340 Clouds 0 1030 65 10000 0.86 317 18:54 19.11.2021
5341 Clouds 0 1030 69 10000 1.04 325 18:22 19.11.2021
5342 Clouds 1 1030 69 10000 1.04 325 17:31 19.11.2021
5343 Clouds 5 1028 55 10000 1.3 353 15:51 19.11.2021
5344 Clouds 8 1028 61 10000 1.64 350 13:28 19.11.2021
5345 Clouds -2 1029 58 10000 1.47 352 10:27 19.11.2021
5346 Clouds -2 1029 58 10000 1.47 352 10:27 19.11.2021
5347 Clouds 1 1029 70 10000 1.47 352 09:37 19.11.2021
5348 Clouds 0 1032 72 10000 1.2 329 08:20 19.11.2021
5349 Clouds -2 1031 76 10000 1.58 330 04:51 19.11.2021
5350 Clouds -2 1032 80 10000 1.35 316 02:27 19.11.2021
5351 Clouds 0 1032 84 10000 1.33 319 23:51 18.11.2021
5352 Clouds 0 1032 88 10000 1.11 296 21:55 18.11.2021
5353 Clouds 0 1032 90 10000 0.8 302 20:49 18.11.2021
5354 Clouds 0 1032 91 10000 0.8 302 20:30 18.11.2021
5355 Clouds 0 1032 90 10000 0.93 313 19:49 18.11.2021
5356 Clouds 0 1032 92 10000 1.11 315 19:29 18.11.2021
5357 Clouds 1 1031 91 10000 1.39 321 18:29 18.11.2021
5358 Clouds 1 1031 91 10000 1.39 321 17:51 18.11.2021
5359 Clouds 1 1031 91 10000 1.39 321 17:51 18.11.2021
5360 Clouds 2 1030 91 10000 1.22 330 16:44 18.11.2021
5361 Clouds 2 1028 87 10000 1.38 358 15:46 18.11.2021
5362 Clouds 3 1026 86 10000 1.56 358 13:31 18.11.2021
5363 Clouds 2 1027 88 10000 0.74 345 12:34 18.11.2021
5364 Clouds 1 1027 90 10000 1.9 16 11:43 18.11.2021
5365 Clouds 1 1028 91 10000 1.77 359 11:24 18.11.2021
5366 Clouds 0 1028 90 10000 1.91 354 09:44 18.11.2021
5367 Clouds -1 1030 91 10000 1.41 329 07:35 18.11.2021
5368 Clouds -1 1029 91 10000 1.09 338 05:55 18.11.2021
5369 Clouds -1 1029 91 10000 1.09 338 05:36 18.11.2021
5370 Clouds 0 1027 94 10000 1.78 347 01:24 18.11.2021
5371 Clouds 0 1027 94 10000 1.78 347 01:24 18.11.2021
5372 Clouds 0 1027 96 7862 1.64 340 23:18 17.11.2021
5373 Clouds 0 1025 96 9487 1.11 344 22:21 17.11.2021
5374 Clouds 0 1025 96 9487 1.11 344 21:53 17.11.2021
5375 Clouds 0 1025 96 9487 1.11 344 21:34 17.11.2021
5376 Clouds 1 1023 96 8152 1.67 354 18:47 17.11.2021
5377 Clouds 1 1021 96 10000 1.77 345 17:28 17.11.2021
5378 Clouds 2 1019 96 8058 1.15 337 14:52 17.11.2021
5379 Clouds 2 1019 96 9117 0.92 328 12:42 17.11.2021
5380 Clouds 1 1020 96 8050 0.89 319 11:52 17.11.2021
5381 Clouds 2 1020 97 10000 0.56 307 10:49 17.11.2021
5382 Clouds 0 1019 96 10000 0.42 229 09:27 17.11.2021
5383 Clouds 0 1019 95 10000 0.81 240 07:45 17.11.2021
5384 Clouds 0 1018 95 10000 1.31 189 06:20 17.11.2021
5385 Rain 2 1019 91 3323 1.06 214 02:42 17.11.2021
5386 Snow 1 1019 93 5692 1.32 166 23:27 16.11.2021
5387 Clouds 2 1019 90 6462 1.17 185 21:51 16.11.2021
5388 Clouds 1 1018 91 10000 1.34 209 20:19 16.11.2021
5389 Clouds 2 1018 86 10000 1.56 198 18:56 16.11.2021
5390 Clouds 2 1018 86 10000 1.56 198 18:36 16.11.2021
5391 Clouds 2 1018 85 10000 1.54 196 17:44 16.11.2021
5392 Clouds 3 1018 85 10000 1.43 196 16:58 16.11.2021
5393 Clouds 3 1018 84 5189 1.26 188 16:18 16.11.2021
5394 Clouds 4 1018 83 5189 1.26 188 15:41 16.11.2021
5395 Clouds 3 1018 95 7443 0.78 171 12:43 16.11.2021
5396 Clouds 2 1019 83 10000 1.04 180 10:21 16.11.2021
5397 Clouds 1 1019 86 10000 1.04 180 09:38 16.11.2021
5398 Clouds 0 1022 89 10000 1.27 211 07:34 16.11.2021
5399 Clouds 1 1022 91 10000 1.97 216 05:27 16.11.2021
5400 Clouds 3 1021 90 6056 3.45 177 23:24 15.11.2021
5401 Clouds 3 1021 91 6056 3.45 177 22:40 15.11.2021
5402 Clouds 3 1022 91 5230 3.58 178 21:56 15.11.2021
5403 Clouds 3 1022 91 5230 3.58 178 21:30 15.11.2021
5404 Clouds 3 1022 91 4924 3.59 176 20:32 15.11.2021
5405 Clouds 4 1021 91 6959 3.64 179 18:53 15.11.2021
5406 Clouds 4 1020 91 1189 3.6 172 16:59 15.11.2021
5407 Clouds 3 1020 99 119 3.38 169 15:48 15.11.2021
5408 Clouds 2 1020 99 119 3.38 169 15:30 15.11.2021
5409 Clouds 2 1019 98 62 3.64 168 13:53 15.11.2021
5410 Clouds 4 1019 84 1192 3.42 173 12:21 15.11.2021
5411 Clouds 1 1019 91 10000 3.3 169 09:31 15.11.2021
5412 Clouds 1 1020 93 10000 2.97 167 08:57 15.11.2021
5413 Clouds 1 1021 93 10000 2.24 183 06:32 15.11.2021
5414 Clouds 1 1020 94 4778 2.84 182 00:34 15.11.2021
5415 Clouds 1 1021 95 5247 3.11 171 22:41 14.11.2021
5416 Rain 1 1020 95 10000 2.48 163 21:18 14.11.2021
5417 Snow 1 1020 95 8306 2.15 150 19:18 14.11.2021
5418 Snow 1 1020 95 8306 2.15 150 18:54 14.11.2021
5419 Snow 1 1020 95 8306 2.15 150 18:36 14.11.2021
5420 Rain 1 1019 95 7628 1.69 153 18:18 14.11.2021
5421 Rain 2 1019 94 7628 1.69 153 17:57 14.11.2021
5422 Rain 1 1019 94 7628 1.69 153 17:39 14.11.2021
5423 Rain 2 1017 94 10000 1.31 139 17:21 14.11.2021
5424 Rain 2 1017 94 10000 1.31 139 16:55 14.11.2021
5425 Rain 2 1017 94 10000 1.31 139 16:37 14.11.2021
5426 Clouds 2 1016 94 6104 0.66 128 16:18 14.11.2021
5427 Clouds 2 1016 94 2139 1.36 101 15:19 14.11.2021
5428 Rain 2 1016 95 2139 1.36 101 14:37 14.11.2021
5429 Rain 2 1015 95 10000 1.34 96 14:18 14.11.2021
5430 Rain 2 1015 95 10000 1.34 96 13:40 14.11.2021
5431 Rain 2 1016 95 10000 1.47 93 12:52 14.11.2021
5432 Snow 2 1016 95 7887 1.51 79 12:21 14.11.2021
5433 Snow 1 1016 96 1806 1.38 58 10:54 14.11.2021
5434 Snow 1 1016 96 1806 1.38 58 10:30 14.11.2021
5435 Snow 0 1017 96 220 1.38 31 09:18 14.11.2021
5436 Snow 1 1017 96 220 1.38 31 08:43 14.11.2021
5437 Clouds 1 1016 96 3315 1.86 359 04:46 14.11.2021
5438 Rain 2 1017 95 3967 2.02 341 22:28 13.11.2021
5439 Clouds 2 1017 95 3967 2.02 341 21:59 13.11.2021
5440 Snow 2 1017 95 3967 2.02 341 21:30 13.11.2021
5441 Snow 2 1016 94 156 1.65 334 20:26 13.11.2021
5442 Clouds 2 1016 94 61 1.35 326 18:54 13.11.2021
5443 Clouds 2 1015 94 50 1.38 328 18:28 13.11.2021
5444 Clouds 2 1015 94 50 1.38 328 17:32 13.11.2021
5445 Rain 3 1015 93 48 0.92 314 15:42 13.11.2021
5446 Rain 4 1015 92 42 0.64 309 14:39 13.11.2021
5447 Rain 4 1015 89 47 0.41 293 13:46 13.11.2021
5448 Rain 4 1015 85 1130 0.56 231 12:41 13.11.2021
5449 Rain 5 1015 79 6718 0.61 228 11:46 13.11.2021
5450 Clouds 5 1016 79 10000 0.71 235 10:57 13.11.2021
5451 Clouds 4 1016 79 10000 1.01 260 10:29 13.11.2021
5452 Clouds 4 1016 79 10000 1.01 260 09:42 13.11.2021
5453 Clouds 4 1018 81 10000 1.01 261 09:22 13.11.2021
5454 Clouds 3 1018 82 10000 1.01 261 08:41 13.11.2021
5455 Clouds 2 1020 80 10000 1.66 302 07:25 13.11.2021
5456 Clouds 3 1018 80 10000 1.86 218 04:36 13.11.2021
5457 Clouds 3 1019 80 10000 1.88 227 02:27 13.11.2021
5458 Clouds 4 1020 76 5121 2.17 207 23:33 12.11.2021
5459 Clouds 4 1020 76 4870 2.42 201 21:52 12.11.2021
5460 Clouds -2 1020 94 4869 2.39 196 20:35 12.11.2021
5461 Clouds -2 1020 94 4992 2.48 193 19:31 12.11.2021
5462 Clouds -2 1019 89 10000 2.44 199 18:54 12.11.2021
5463 Clouds -1 1019 92 10000 2.41 199 17:36 12.11.2021
5464 Clouds 1 1018 94 8622 2.43 192 15:51 12.11.2021
5465 Clear 6 1017 84 10000 2.49 181 13:26 12.11.2021
5466 Clear 9 1018 67 10000 2.48 179 11:23 12.11.2021
5467 Clear 5 1018 79 10000 2.39 181 09:54 12.11.2021
5468 Clear 6 1019 81 10000 1.98 185 08:45 12.11.2021
5469 Clouds 3 1020 83 10000 1.72 194 06:34 12.11.2021
5470 Clouds 2 1023 81 10000 2.32 186 23:43 11.11.2021
5471 Clouds 2 1024 80 10000 2.24 181 22:46 11.11.2021
5472 Clouds 2 1024 80 10000 1.92 183 21:43 11.11.2021
5473 Clouds 2 1025 80 10000 1.51 190 20:51 11.11.2021
5474 Clouds 1 1025 68 10000 1.13 211 19:36 11.11.2021
5475 Clouds 0 1025 82 10000 1.21 224 18:25 11.11.2021
5476 Clouds 0 1025 82 10000 1.21 224 17:40 11.11.2021
5477 Clouds 3 1023 97 3048 1.6 195 15:21 11.11.2021
5478 Clouds 4 1023 97 3048 1.6 195 14:38 11.11.2021
5479 Clouds 7 1023 97 3496 1.96 190 14:19 11.11.2021
5480 Clouds 6 1023 97 3496 1.96 190 13:35 11.11.2021
5481 Clouds 3 1024 98 222 1.35 197 12:23 11.11.2021
5482 Clouds 4 1024 85 1696 2.12 184 09:54 11.11.2021
5483 Clouds 5 1025 87 2174 2.57 181 08:47 11.11.2021
5484 Clouds 5 1025 86 10000 2.96 169 06:45 11.11.2021
5485 Clouds 3 1026 81 4268 3.49 176 00:38 11.11.2021
5486 Clouds 3 1026 83 90 3.59 176 22:41 10.11.2021
5487 Clouds 3 1027 82 123 3.5 174 21:53 10.11.2021
5488 Clouds 3 1027 84 223 3.39 173 20:55 10.11.2021
5489 Clouds 3 1027 86 255 3.28 176 19:55 10.11.2021
5490 Clouds 4 1027 85 255 3.28 176 19:35 10.11.2021
5491 Clouds 4 1025 85 104 3.05 174 17:19 10.11.2021
5492 Clouds 5 1025 87 616 3.18 178 15:46 10.11.2021
5493 Clouds 5 1025 85 86 3.38 183 14:24 10.11.2021
5494 Clouds 7 1025 86 86 3.38 183 13:36 10.11.2021
5495 Clouds 7 1026 89 49 3.92 181 12:23 10.11.2021
5496 Clouds 5 1027 90 3828 4.2 164 09:18 10.11.2021
5497 Clouds 4 1027 89 3828 4.2 164 08:41 10.11.2021
5498 Clouds 3 1026 84 10000 3.49 167 06:45 10.11.2021
5499 Clouds 4 1026 84 10000 3.4 169 05:58 10.11.2021
5500 Clouds 1 1029 83 10000 2.97 180 01:56 10.11.2021
5501 Clouds -4 1029 86 10000 2.57 180 22:29 09.11.2021
5502 Clouds -4 1030 86 10000 3.22 192 20:42 09.11.2021
5503 Clouds -3 1030 83 10000 3.32 185 19:33 09.11.2021
5504 Clouds -2 1029 83 10000 3.53 184 18:49 09.11.2021
5505 Clouds 0 1028 83 10000 4.49 176 16:53 09.11.2021
5506 Clear 1 1024 83 10000 4.26 172 15:20 09.11.2021
5507 Clear 4 1023 84 10000 4.05 170 13:31 09.11.2021
5508 Clear 4 1023 64 10000 3.61 173 12:47 09.11.2021
5509 Clear 2 1024 58 10000 3.66 166 10:58 09.11.2021
5510 Clear -2 1023 60 10000 3.4 168 09:59 09.11.2021
5511 Clear -3 1025 51 10000 2.83 171 08:54 09.11.2021
5512 Clear -3 1026 74 10000 2.15 174 07:52 09.11.2021
5513 Clear -3 1026 83 10000 1.94 182 02:37 09.11.2021
5514 Clear -3 1026 83 10000 1.67 187 01:51 09.11.2021
5515 Clouds -2 1026 83 10000 1.38 181 00:39 09.11.2021
5516 Clouds -1 1026 46 10000 0.61 204 23:30 08.11.2021
5517 Clouds -1 1027 53 10000 0.47 255 22:45 08.11.2021
5518 Clouds -1 1027 64 10000 0.37 252 21:45 08.11.2021
5519 Clouds -1 1027 80 10000 0.2 229 20:34 08.11.2021
5520 Clouds 0 1026 94 7947 0.65 1 19:27 08.11.2021
5521 Clouds 1 1025 95 10000 1.6 3 17:41 08.11.2021
5522 Clouds 2 1020 68 10000 1.95 22 15:49 08.11.2021
5523 Clouds 3 1019 66 10000 2.16 13 14:56 08.11.2021
5524 Clouds 3 1019 73 10000 2.08 9 14:25 08.11.2021
5525 Clouds 2 1019 75 10000 1.65 24 12:59 08.11.2021
5526 Clouds 1 1020 74 10000 2.04 25 11:54 08.11.2021
5527 Clouds 1 1021 84 10000 2.29 21 10:49 08.11.2021
5528 Clouds -2 1022 89 10000 2.75 12 08:58 08.11.2021
5529 Clouds -3 1022 81 9548 2.84 356 08:19 08.11.2021
5530 Clouds -3 1022 78 8426 3.51 351 06:56 08.11.2021
5531 Clouds -3 1023 79 10000 3.11 333 03:35 08.11.2021
5532 Clouds -2 1023 76 10000 2.46 330 01:24 08.11.2021
5533 Clouds -2 1022 77 10000 1.52 310 22:58 07.11.2021
5534 Clouds -2 1024 75 10000 1.58 307 21:25 07.11.2021
5535 Clouds -1 1024 76 10000 1.74 312 20:25 07.11.2021
5536 Clouds 0 1024 77 10000 1.97 316 18:35 07.11.2021
5537 Clouds -1 1024 63 10000 1.69 313 17:43 07.11.2021
5538 Clouds 3 1020 72 10000 2.57 332 16:26 07.11.2021
5539 Clouds 5 1018 66 10000 1.96 328 15:25 07.11.2021
5540 Clouds 4 1018 67 10000 1.34 323 14:27 07.11.2021
5541 Clouds 4 1019 79 10000 1.71 319 12:50 07.11.2021
5542 Clouds 1 1020 81 10000 1.31 314 11:41 07.11.2021
5543 Clouds -8 1024 47 10000 1.42 262 08:59 07.11.2021
5544 Clear -6 1031 77 10000 1.45 257 02:58 07.11.2021
5545 Clear -6 1031 76 10000 1.56 236 02:22 07.11.2021
5546 Clear -5 1032 79 10000 1.65 227 22:56 06.11.2021
5547 Clear -5 1032 41 10000 1.74 216 21:59 06.11.2021
5548 Clear -5 1033 46 10000 1.71 222 21:22 06.11.2021
5549 Clear -4 1033 55 10000 1.44 227 20:29 06.11.2021
5550 Clear -1 1032 78 10000 0.71 245 17:32 06.11.2021
5551 Clear 0 1030 77 10000 0.09 284 16:35 06.11.2021
5552 Clear 2 1025 78 10000 0.54 10 13:45 06.11.2021
5553 Clear 2 1026 69 10000 0.32 164 12:58 06.11.2021
5554 Clear 1 1027 49 10000 1.09 143 11:24 06.11.2021
5555 Clear -6 1031 84 10000 0.22 254 08:49 06.11.2021
5556 Clouds -5 1033 86 10000 0.39 258 04:50 06.11.2021
5557 Clouds -4 1033 86 10000 0.49 359 00:36 06.11.2021
5558 Clouds -4 1031 87 10000 1.19 14 23:29 05.11.2021
5559 Clouds -3 1031 88 10000 1.19 14 22:33 05.11.2021
5560 Clouds -2 1030 91 10000 1.8 8 20:41 05.11.2021
5561 Clouds -1 1029 90 10000 2.02 360 19:51 05.11.2021
5562 Clouds -1 1029 89 10000 2.04 359 18:51 05.11.2021
5563 Clouds 0 1028 93 9709 2.1 352 18:29 05.11.2021
5564 Clouds 1 1027 91 10000 2.52 351 16:45 05.11.2021
5565 Clouds 3 1022 65 10000 2.1 10 14:22 05.11.2021
5566 Clouds 1 1022 81 10000 2.23 12 12:27 05.11.2021
5567 Clouds -1 1023 80 10000 2.03 0 09:47 05.11.2021
5568 Clouds -5 1024 87 10000 1.61 342 08:31 05.11.2021
5569 Clouds -4 1026 90 10000 1.1 293 06:22 05.11.2021
5570 Clouds -3 1024 85 10000 1.32 297 02:38 05.11.2021
5571 Clouds -3 1024 86 10000 1.34 294 02:19 05.11.2021
5572 Clouds -3 1023 91 10000 1.2 286 23:57 04.11.2021
5573 Clouds -4 1023 88 10000 1.25 287 22:36 04.11.2021
5574 Clouds -4 1022 88 10000 1.1 289 22:18 04.11.2021
5575 Clouds -3 1021 88 10000 1.32 300 21:27 04.11.2021
5576 Clouds -3 1020 87 10000 1.68 313 20:29 04.11.2021
5577 Clouds -2 1020 87 10000 1.68 313 19:49 04.11.2021
5578 Clouds -2 1019 88 8799 1.9 312 19:27 04.11.2021
5579 Clouds -1 1018 96 8853 1.84 313 18:29 04.11.2021
5580 Clouds 0 1016 95 10000 1.9 337 17:26 04.11.2021
5581 Clouds 1 1013 89 10000 2.21 339 15:46 04.11.2021
5582 Clouds 1 1010 89 10000 2.43 331 13:45 04.11.2021
5583 Snow 0 1010 92 5707 2.75 322 10:35 04.11.2021
5584 Snow -1 1008 94 2726 3.25 323 08:41 04.11.2021
5585 Snow -1 1007 94 5009 3.62 325 07:49 04.11.2021
5586 Snow -1 1007 93 5009 3.62 325 07:31 04.11.2021
5587 Snow -1 1003 95 120 2.76 350 23:18 03.11.2021
5588 Snow -1 1003 95 133 2.91 357 22:25 03.11.2021
5589 Snow 0 1003 95 133 2.91 357 21:37 03.11.2021
5590 Snow 0 1003 95 133 2.91 357 21:37 03.11.2021
5591 Snow 0 1003 95 102 2.45 3 20:44 03.11.2021
5592 Snow 0 1002 95 157 2.08 339 20:25 03.11.2021
5593 Snow 0 1002 95 157 2.08 339 19:33 03.11.2021
5594 Snow 1 1001 95 88 1.05 16 18:27 03.11.2021
5595 Snow 1 1001 95 88 1.05 16 18:27 03.11.2021
5596 Snow 1 1001 95 88 1.05 16 17:42 03.11.2021
5597 Snow 1 1000 94 85 0.92 21 16:48 03.11.2021
5598 Snow 1 1000 94 76 0.61 77 15:49 03.11.2021
5599 Snow 1 1000 94 76 0.61 77 15:30 03.11.2021
5600 Rain 2 1000 92 62 0.86 110 13:41 03.11.2021
5601 Rain 3 1002 92 71 1.4 152 11:35 03.11.2021
5602 Rain 3 1001 92 82 2.33 171 10:50 03.11.2021
5603 Rain 2 1001 94 214 2.61 167 09:46 03.11.2021
5604 Snow 1 1001 94 240 3.33 155 08:53 03.11.2021
5605 Snow 1 1002 94 520 3.3 155 07:55 03.11.2021
5606 Snow 1 1002 94 520 3.3 155 07:32 03.11.2021
5607 Snow 0 1005 91 7668 3.89 162 04:23 03.11.2021
5608 Clouds -1 1006 93 9133 4.15 164 00:58 03.11.2021
5609 Snow 0 1007 93 9170 3.85 158 23:24 02.11.2021
5610 Clouds 0 1007 92 8598 3.48 163 21:57 02.11.2021
5611 Clouds 1 1007 92 10000 2.93 167 20:43 02.11.2021
5612 Clouds 1 1007 90 10000 2.28 168 19:58 02.11.2021
5613 Clouds 1 1008 90 10000 1.19 178 19:27 02.11.2021
5614 Clouds 1 1008 91 10000 1.53 173 18:35 02.11.2021
5615 Clouds 2 1008 91 10000 0.76 164 17:44 02.11.2021
5616 Clouds 3 1006 91 10000 0.4 357 17:21 02.11.2021
5617 Clouds 5 1005 90 10000 0.97 358 15:58 02.11.2021
5618 Clouds 5 1004 83 10000 1.41 340 14:57 02.11.2021
5619 Clouds 5 1004 84 10000 1.74 343 13:30 02.11.2021
5620 Clouds 5 1004 83 7948 2 340 12:52 02.11.2021
5621 Clouds 4 1005 87 7548 1.95 326 11:39 02.11.2021
5622 Clouds 4 1005 89 8809 1.9 336 10:59 02.11.2021
5623 Clouds 3 1005 88 8809 1.9 336 10:32 02.11.2021
5624 Clouds 2 1005 93 10000 2.21 318 09:45 02.11.2021
5625 Clouds 0 1006 96 10000 0.86 360 07:46 02.11.2021
5626 Clouds -1 1007 94 10000 0.89 2 05:42 02.11.2021
5627 Clouds 1 1006 95 10000 1.75 337 03:24 02.11.2021
5628 Clouds 1 1007 95 9430 2.9 333 23:58 01.11.2021
5629 Clouds 2 1006 95 2277 3.23 341 21:49 01.11.2021
5630 Clouds 2 1006 95 5769 3.34 338 20:44 01.11.2021
5631 Rain 2 1006 95 6429 2.87 340 20:18 01.11.2021
5632 Clouds 2 1006 95 6429 2.87 340 19:41 01.11.2021
5633 Clouds 2 1005 94 64 2.67 342 18:25 01.11.2021
5634 Clouds 2 1005 94 64 2.67 342 17:43 01.11.2021
5635 Clouds 3 1005 94 40 2.33 343 16:57 01.11.2021
5636 Clouds 3 1004 93 37 2.07 336 16:23 01.11.2021
5637 Clouds 3 1004 92 32 2.05 348 15:29 01.11.2021
5638 Rain 3 1004 91 32 2.05 348 14:47 01.11.2021
5639 Rain 4 1004 92 33 0.88 359 14:26 01.11.2021
5640 Rain 4 1004 93 33 0.88 359 13:50 01.11.2021
5641 Rain 4 1005 100 28 0.15 56 12:36 01.11.2021
5642 Rain 4 1007 100 29 0.26 236 11:34 01.11.2021
5643 Rain 5 1008 100 29 0.82 225 10:20 01.11.2021
5644 Rain 6 1007 84 46 2.01 155 08:18 01.11.2021
5645 Rain 6 1007 82 46 2.01 155 07:46 01.11.2021
5646 Clouds 6 1008 80 375 3.88 165 03:51 01.11.2021
5647 Clouds 4 1010 80 4645 4.08 164 01:44 01.11.2021
5648 Clouds 6 1012 81 1684 4.24 170 22:48 31.10.2021
5649 Clouds 5 1012 80 429 4.13 167 20:50 31.10.2021
5650 Clouds 5 1013 79 707 4.13 164 19:22 31.10.2021
5651 Clouds 4 1013 97 707 4.13 164 18:41 31.10.2021
5652 Clouds 6 1013 97 1304 3.94 167 17:54 31.10.2021
5653 Clouds 8 1013 97 80 3.82 167 16:25 31.10.2021
5654 Clouds 9 1013 95 137 4.09 167 14:39 31.10.2021
5655 Clouds 9 1013 96 660 4.42 165 12:50 31.10.2021
5656 Clouds 8 1014 95 185 4.46 165 11:42 31.10.2021
5657 Clouds 6 1014 95 87 4.29 164 10:47 31.10.2021
5658 Clouds 4 1016 96 119 3.99 166 09:22 31.10.2021
5659 Clouds 3 1016 96 119 3.99 166 08:37 31.10.2021
5660 Clouds 5 1018 78 2510 3.33 163 01:57 31.10.2021
5661 Clouds 5 1019 76 120 3.74 164 23:41 30.10.2021
5662 Clouds 5 1019 77 221 3.91 162 21:36 30.10.2021
5663 Clouds 4 1019 77 2306 4.09 166 20:52 30.10.2021
5664 Clouds 3 1018 94 5627 4.16 161 19:19 30.10.2021
5665 Clouds 5 1016 88 9738 4.95 162 17:27 30.10.2021
5666 Clouds 6 1016 84 8504 5.33 166 15:26 30.10.2021
5667 Rain 6 1016 83 7927 5.91 162 13:40 30.10.2021
5668 Rain 6 1015 78 10000 6.18 160 13:21 30.10.2021
5669 Rain 6 1015 78 10000 6.18 160 12:57 30.10.2021
5670 Clouds 7 1015 75 10000 6.04 162 11:46 30.10.2021
5671 Clouds 6 1015 76 10000 6.09 163 10:32 30.10.2021
5672 Clouds -1 1016 82 10000 5.78 163 08:53 30.10.2021
5673 Clouds -1 1016 82 10000 5.25 160 07:29 30.10.2021
5674 Clouds -2 1017 80 10000 4.94 166 05:39 30.10.2021
5675 Clouds 2 1018 68 10000 4.45 164 01:37 30.10.2021
5676 Clouds 1 1019 75 10000 4.07 170 22:54 29.10.2021
5677 Clouds 1 1019 75 10000 4.07 170 22:32 29.10.2021
5678 Clouds 1 1018 76 10000 4.04 165 20:46 29.10.2021
5679 Clouds 2 1018 75 10000 4.3 165 20:24 29.10.2021
5680 Clouds 3 1017 73 10000 3.97 166 18:38 29.10.2021
5681 Clouds 8 1015 58 10000 4.2 165 16:54 29.10.2021
5682 Clouds 9 1014 48 10000 4.72 162 15:21 29.10.2021
5683 Clouds 8 1016 43 10000 4.28 164 12:26 29.10.2021
5684 Clouds 8 1016 47 10000 3.94 168 10:46 29.10.2021
5685 Clouds 5 1018 62 10000 3.98 172 08:47 29.10.2021
5686 Clouds 3 1020 51 10000 3.78 169 00:37 29.10.2021
5687 Clouds 3 1020 49 10000 3.89 170 23:40 28.10.2021
5688 Clear 2 1021 45 10000 3.52 169 22:19 28.10.2021
5689 Clear 0 1021 65 10000 3.63 171 20:54 28.10.2021
5690 Clouds 2 1021 70 10000 3.57 170 19:51 28.10.2021
5691 Clouds 3 1020 72 10000 3.53 168 18:30 28.10.2021
5692 Clouds 7 1019 56 10000 3.07 162 17:19 28.10.2021
5693 Clouds 7 1019 46 10000 3.14 163 16:20 28.10.2021
5694 Clouds 8 1019 43 10000 3.05 162 14:39 28.10.2021
5695 Clouds 10 1020 38 10000 2.81 165 13:29 28.10.2021
5696 Clouds 10 1020 48 10000 2.81 165 12:44 28.10.2021
5697 Clouds 8 1021 57 10000 2.42 167 10:58 28.10.2021
5698 Clear 5 1022 42 10000 2.26 171 09:40 28.10.2021
5699 Clear 4 1022 59 10000 2.22 174 09:22 28.10.2021
5700 Clear 4 1022 58 10000 2.22 174 08:35 28.10.2021
5701 Clear 4 1023 58 10000 2.28 177 07:40 28.10.2021
5702 Clear 2 1025 59 10000 2.9 175 00:40 28.10.2021
5703 Clear 3 1026 66 10000 2.85 172 22:36 27.10.2021
5704 Clear 3 1026 67 10000 2.76 173 21:34 27.10.2021
5705 Clear 3 1025 65 10000 2.64 172 20:58 27.10.2021
5706 Clear 4 1025 65 10000 2.64 172 20:39 27.10.2021
5707 Clear 5 1025 64 10000 2.5 175 19:44 27.10.2021
5708 Clear 3 1024 80 10000 2.49 171 18:55 27.10.2021
5709 Clear 5 1023 58 10000 2.61 161 16:49 27.10.2021
5710 Clear 7 1023 50 10000 2.51 166 16:24 27.10.2021
5711 Clear 10 1023 47 10000 2.57 163 15:23 27.10.2021
5712 Clouds 10 1023 57 10000 2.78 160 13:42 27.10.2021
5713 Clouds 6 1024 41 10000 2.25 163 10:59 27.10.2021
5714 Clouds 6 1024 41 10000 2.25 163 10:36 27.10.2021
5715 Clouds 3 1026 49 10000 1.89 156 08:58 27.10.2021
5716 Clouds 1 1025 83 10000 1.6 161 07:39 27.10.2021
5717 Clouds 1 1025 85 10000 1.35 149 05:37 27.10.2021
5718 Clouds 2 1027 87 10000 0.72 29 01:21 27.10.2021
5719 Clouds 2 1027 87 10000 0.72 29 00:39 27.10.2021
5720 Clouds 3 1027 86 10000 1.29 23 23:52 26.10.2021
5721 Clouds 3 1027 85 10000 1.03 29 22:43 26.10.2021
5722 Clouds 4 1027 85 10000 0.83 10 22:20 26.10.2021
5723 Clouds 4 1027 85 10000 0.83 10 21:32 26.10.2021
5724 Clouds 5 1026 82 10000 1.98 355 19:34 26.10.2021
5725 Clouds 6 1025 81 10000 2.38 354 18:54 26.10.2021
5726 Clouds 7 1024 72 10000 2.51 355 17:36 26.10.2021
5727 Clouds 8 1023 72 10000 2.48 351 15:46 26.10.2021
5728 Clouds 7 1023 71 10000 2.88 348 12:33 26.10.2021
5729 Clouds 5 1023 75 10000 2.77 344 10:48 26.10.2021
5730 Clouds 2 1024 79 10000 2.55 338 08:24 26.10.2021
5731 Clouds 2 1024 80 10000 2.54 337 07:21 26.10.2021
5732 Clouds 2 1022 74 10000 1.2 332 00:19 26.10.2021
5733 Clouds 1 1022 71 10000 1.08 327 23:28 25.10.2021
5734 Clouds 2 1021 71 10000 0.85 317 22:28 25.10.2021
5735 Clouds 2 1021 72 10000 0.85 317 21:42 25.10.2021
5736 Clouds 3 1021 69 10000 0.5 238 20:26 25.10.2021
5737 Clouds 4 1021 67 10000 0.5 238 19:43 25.10.2021
5738 Clouds 5 1021 65 10000 0.58 215 19:22 25.10.2021
5739 Clouds 5 1021 71 10000 0.58 215 18:35 25.10.2021
5740 Clouds 8 1019 49 10000 0.46 187 16:43 25.10.2021
5741 Clouds 8 1019 29 10000 1.19 175 14:47 25.10.2021
5742 Clouds 9 1020 24 10000 1.47 182 12:31 25.10.2021
5743 Clouds 8 1021 37 10000 1.64 182 10:46 25.10.2021
5744 Clouds 8 1021 37 10000 1.64 182 10:46 25.10.2021
5745 Clouds 4 1022 46 10000 1.96 178 08:57 25.10.2021
5746 Clouds 3 1022 45 10000 1.73 186 06:27 25.10.2021
5747 Clouds -3 1024 34 10000 2.47 183 03:18 25.10.2021
5748 Clouds -2 1024 37 10000 2.32 180 00:49 25.10.2021
5749 Clouds -2 1024 37 10000 2.32 180 00:31 25.10.2021
5750 Clouds 2 1024 54 10000 2.55 181 23:33 24.10.2021
5751 Clouds 1 1024 51 10000 2.54 178 22:37 24.10.2021
5752 Clouds 3 1025 54 10000 2.53 179 22:19 24.10.2021
5753 Clear 3 1025 51 10000 2.61 177 20:54 24.10.2021
5754 Clear 3 1026 52 10000 2.71 177 20:28 24.10.2021
5755 Clear 5 1025 51 10000 2.63 174 19:29 24.10.2021
5756 Clear 6 1024 44 10000 2.73 171 18:28 24.10.2021
5757 Clear 4 1024 69 10000 2.73 171 17:35 24.10.2021
5758 Clear 8 1023 43 10000 1.68 165 15:55 24.10.2021
5759 Clear 9 1024 40 10000 2.34 170 14:25 24.10.2021
5760 Clear 9 1024 41 10000 2.52 167 12:58 24.10.2021
5761 Clear 10 1025 43 10000 2.41 173 11:44 24.10.2021
5762 Clear 7 1025 52 10000 2.38 176 10:56 24.10.2021
5763 Clear 6 1026 37 10000 2.55 178 10:00 24.10.2021
5764 Clear 0 1027 64 10000 2.79 182 07:47 24.10.2021
5765 Clear 0 1027 77 10000 3.1 170 01:21 24.10.2021
5766 Clear 0 1027 84 10000 2.92 168 23:47 23.10.2021
5767 Clear 1 1026 83 10000 2.23 157 22:18 23.10.2021
5768 Clear 3 1025 81 10000 1.72 144 20:36 23.10.2021
5769 Clear 4 1024 72 10000 1.05 118 18:59 23.10.2021
5770 Clear 4 1024 72 10000 1.05 118 18:59 23.10.2021
5771 Clear 4 1023 70 10000 0.77 89 18:29 23.10.2021
5772 Clear 6 1023 63 10000 0.77 89 17:43 23.10.2021
5773 Clear 8 1021 61 10000 0.72 111 16:23 23.10.2021
5774 Clear 8 1021 64 10000 0.8 107 14:32 23.10.2021
5775 Clouds 1 1025 78 10000 2.09 355 03:34 23.10.2021
5776 Clouds 2 1025 90 10000 2.23 350 00:19 23.10.2021
5777 Clouds 3 1025 90 10000 2.05 353 22:53 22.10.2021
5778 Clouds 4 1024 87 10000 2.71 345 20:37 22.10.2021
5779 Clouds 4 1022 77 10000 3.05 339 18:44 22.10.2021
5780 Clouds 6 1020 71 10000 2.88 339 17:43 22.10.2021
5781 Clouds 5 1018 71 10000 2.54 334 15:26 22.10.2021
5782 Clouds 4 1018 71 10000 2.63 334 13:52 22.10.2021
5783 Clouds 6 1019 84 10000 2.39 337 11:24 22.10.2021
5784 Clouds 4 1019 85 10000 2.39 337 10:41 22.10.2021
5785 Clouds 4 1019 76 10000 2.18 335 09:56 22.10.2021
5786 Clouds 2 1018 80 10000 1.99 329 08:36 22.10.2021
5787 Clouds 2 1019 87 10000 1.84 327 07:23 22.10.2021
5788 Clouds 2 1019 88 10000 2.43 327 02:57 22.10.2021
5789 Clouds 3 1017 87 10000 2.64 325 23:57 21.10.2021
5790 Clouds 3 1017 88 10000 2.64 325 23:38 21.10.2021
5791 Clouds 4 1017 87 10000 2.53 322 21:52 21.10.2021
5792 Clouds 5 1017 85 10000 2.19 319 20:42 21.10.2021
5793 Clouds 5 1016 83 10000 2.26 324 20:19 21.10.2021
5794 Clouds 6 1015 81 10000 2.11 322 19:29 21.10.2021
5795 Clouds 7 1015 69 10000 2.11 322 18:46 21.10.2021
5796 Clouds 8 1014 83 10000 2.18 324 18:18 21.10.2021
5797 Clouds 8 1014 83 10000 2.18 324 17:37 21.10.2021
5798 Clouds 10 1013 83 10000 2.23 327 15:54 21.10.2021
5799 Clouds 9 1013 88 6487 2.08 324 15:20 21.10.2021
5800 Clouds 9 1013 88 6487 2.08 324 14:38 21.10.2021
5801 Clouds 8 1014 93 6515 1.21 311 13:19 21.10.2021
5802 Clouds 6 1013 97 302 1.2 260 11:24 21.10.2021
5803 Clouds 7 1013 89 328 2.07 218 08:55 21.10.2021
5804 Rain 7 1012 81 2057 3.71 161 07:29 21.10.2021
5805 Clouds 7 1013 96 3972 4.39 174 03:31 21.10.2021
5806 Clouds 6 1016 75 7482 4.94 168 23:31 20.10.2021
5807 Clouds 5 1018 74 10000 4.62 171 22:18 20.10.2021
5808 Clouds 6 1018 73 10000 4.62 171 21:38 20.10.2021
5809 Clouds 7 1018 69 10000 4.65 171 20:54 20.10.2021
5810 Clouds 8 1018 67 10000 4.65 171 20:33 20.10.2021
5811 Clouds 8 1019 64 10000 4.42 170 19:57 20.10.2021
5812 Clouds 9 1019 91 10000 4.37 167 18:54 20.10.2021
5813 Clouds 11 1019 85 10000 4.14 168 17:50 20.10.2021
5814 Clouds 12 1019 66 10000 3.94 170 15:39 20.10.2021
5815 Clouds 10 1022 61 10000 3.78 174 10:43 20.10.2021
5816 Clouds 6 1024 69 10000 3.76 175 08:53 20.10.2021
5817 Clouds -1 1024 80 10000 3.55 174 04:50 20.10.2021
5818 Clouds 1 1025 82 10000 2.71 180 00:47 20.10.2021
5819 Clouds 1 1026 82 10000 2.49 182 00:18 20.10.2021
5820 Clouds 2 1026 82 10000 2.03 182 21:44 19.10.2021
5821 Clouds 4 1026 82 10000 1.73 180 20:54 19.10.2021
5822 Clouds 5 1026 82 10000 1.45 177 20:25 19.10.2021
5823 Clouds 6 1026 80 10000 1.22 172 19:41 19.10.2021
5824 Clouds 7 1025 80 10000 0.56 192 19:19 19.10.2021
5825 Clouds 12 1025 67 10000 0.92 169 17:59 19.10.2021
5826 Clouds 13 1025 51 10000 0.12 176 15:48 19.10.2021
5827 Clouds 13 1026 54 10000 0.47 163 15:20 19.10.2021
5828 Clouds 13 1026 57 10000 0.62 205 14:27 19.10.2021
5829 Clouds 9 1027 61 10000 0.82 224 13:35 19.10.2021
5830 Clouds 9 1028 67 10000 0.5 221 11:37 19.10.2021
5831 Clouds 10 1027 73 10000 0.13 295 10:36 19.10.2021
5832 Clouds 7 1027 73 10000 1.01 295 08:58 19.10.2021
5833 Clouds 4 1026 69 10000 0.75 270 07:20 19.10.2021
5834 Clouds 3 1027 67 10000 1.63 208 00:26 19.10.2021
5835 Clouds 0 1027 57 10000 1.63 208 23:50 18.10.2021
5836 Clouds 1 1027 56 10000 1.61 209 23:20 18.10.2021
5837 Clouds 4 1027 66 10000 1.61 209 22:53 18.10.2021
5838 Clouds 6 1026 67 10000 1.44 192 21:44 18.10.2021
5839 Clouds 6 1026 65 10000 0.78 205 20:42 18.10.2021
5840 Clouds 7 1026 62 10000 0.49 140 20:19 18.10.2021
5841 Clouds 6 1026 63 10000 0.49 140 19:30 18.10.2021
5842 Clouds 6 1025 67 10000 0.21 35 18:57 18.10.2021
5843 Clear 10 1023 43 10000 1.31 357 15:56 18.10.2021
5844 Clear 11 1024 41 10000 1.84 359 14:28 18.10.2021
5845 Clear 9 1024 64 10000 1.96 348 10:55 18.10.2021
5846 Clear 4 1024 74 10000 2.14 339 09:37 18.10.2021
5847 Clouds 3 1024 76 10000 2.24 325 05:32 18.10.2021
5848 Clouds 3 1023 77 10000 1.65 309 23:45 17.10.2021
5849 Clouds 2 1023 75 10000 1.5 309 21:58 17.10.2021
5850 Clouds 2 1023 74 10000 1.5 309 21:40 17.10.2021
5851 Clouds 3 1022 73 10000 1.4 307 20:42 17.10.2021
5852 Clear 3 1021 74 10000 1.16 307 19:43 17.10.2021
5853 Clear 4 1020 76 10000 0.83 294 19:25 17.10.2021
5854 Clear 7 1019 71 10000 0.71 313 17:47 17.10.2021
5855 Clear 9 1018 43 10000 0.57 325 15:54 17.10.2021
5856 Clear 12 1018 60 10000 0.52 311 14:32 17.10.2021
5857 Clouds 11 1018 54 10000 0.41 282 13:56 17.10.2021
5858 Clouds 10 1019 58 10000 0.48 264 12:38 17.10.2021
5859 Clouds 6 1019 37 10000 0.63 261 10:45 17.10.2021
5860 Clouds 4 1019 45 10000 0.59 266 09:48 17.10.2021
5861 Clouds 2 1019 83 10000 0.6 305 07:42 17.10.2021
5862 Clear 0 1020 86 10000 1.19 214 01:44 17.10.2021
5863 Clear 1 1020 87 10000 1.31 200 00:27 17.10.2021
5864 Clouds 2 1020 86 10000 0.77 195 22:35 16.10.2021
5865 Clouds 3 1020 83 10000 0.35 291 20:36 16.10.2021
5866 Clear 4 1020 81 10000 0.56 325 19:56 16.10.2021
5867 Clear 3 1020 93 10000 0.56 325 19:37 16.10.2021
5868 Clear 5 1019 79 10000 0.8 325 19:18 16.10.2021
5869 Clear 4 1019 93 10000 0.8 325 18:42 16.10.2021
5870 Clear 7 1018 70 10000 0.81 339 18:20 16.10.2021
5871 Clear 7 1017 74 10000 0.66 350 17:29 16.10.2021
5872 Clear 9 1016 61 10000 0.48 354 15:39 16.10.2021
5873 Clear 9 1017 69 10000 0.25 148 12:45 16.10.2021
5874 Clear 5 1018 80 10000 0.81 358 10:57 16.10.2021
5875 Clear 0 1020 87 10000 0.79 323 08:56 16.10.2021
5876 Clouds 2 1019 83 10000 1.21 346 01:36 16.10.2021
5877 Clouds 3 1020 81 10000 1.71 351 00:29 16.10.2021
5878 Clouds 4 1020 81 10000 1.87 347 23:25 15.10.2021
5879 Clouds 4 1020 81 10000 2.13 343 22:20 15.10.2021
5880 Clouds 4 1020 78 10000 2.13 343 21:37 15.10.2021
5881 Clouds 4 1020 79 10000 2.27 340 20:52 15.10.2021
5882 Clouds 5 1019 77 10000 2.32 340 20:22 15.10.2021
5883 Clouds 6 1019 72 10000 2.53 340 19:19 15.10.2021
5884 Clouds 7 1017 66 10000 2.88 344 18:21 15.10.2021
5885 Clouds 8 1016 59 10000 3.23 344 15:46 15.10.2021
5886 Clouds 8 1017 52 10000 2.89 340 13:49 15.10.2021
5887 Clouds 8 1018 58 10000 2.2 333 11:52 15.10.2021
5888 Clouds 7 1018 72 10000 1.81 326 10:58 15.10.2021
5889 Clouds 6 1019 70 10000 1.59 316 10:22 15.10.2021
5890 Clouds -2 1021 79 10000 1.16 288 07:33 15.10.2021
5891 Clear -2 1021 81 10000 0.88 238 04:26 15.10.2021
5892 Clouds 1 1023 82 10000 0.64 246 00:22 15.10.2021
5893 Clear 1 1024 82 10000 0.6 268 22:54 14.10.2021
5894 Clear 1 1025 81 10000 0.57 267 21:46 14.10.2021
5895 Clear 1 1025 81 10000 0.36 280 21:19 14.10.2021
5896 Clear 2 1025 80 10000 0.23 334 20:20 14.10.2021
5897 Clear 2 1025 79 10000 0.23 334 19:43 14.10.2021
5898 Clear 5 1023 76 10000 1.27 17 18:26 14.10.2021
5899 Clear 8 1022 64 10000 1.79 7 16:57 14.10.2021
5900 Clear 7 1022 60 10000 1.95 7 16:21 14.10.2021
5901 Clear 8 1022 56 10000 1.95 8 14:44 14.10.2021
5902 Clear 8 1022 61 10000 1.81 11 14:26 14.10.2021
5903 Clear 7 1023 70 10000 1.87 20 12:35 14.10.2021
5904 Clear 4 1024 79 10000 1.93 11 10:46 14.10.2021
5905 Clouds -1 1028 85 10000 1.13 326 07:45 14.10.2021
5906 Clouds 0 1029 64 10000 0.83 332 04:23 14.10.2021
5907 Clouds -1 1030 75 10000 0.8 339 00:34 14.10.2021
5908 Clouds 0 1031 86 10000 0.97 346 22:39 13.10.2021
5909 Clouds 0 1031 88 10000 1.27 345 21:36 13.10.2021
5910 Clouds 1 1030 90 10000 1.88 349 20:41 13.10.2021
5911 Clouds 2 1027 87 10000 2.76 357 19:20 13.10.2021
5912 Clouds 3 1027 87 10000 2.76 357 18:37 13.10.2021
5913 Clouds 4 1024 81 10000 3.56 350 16:35 13.10.2021
5914 Clouds 4 1023 82 10000 3.7 343 14:46 13.10.2021
5915 Clouds 3 1022 86 9167 3.45 346 14:23 13.10.2021
5916 Clouds 4 1022 91 8619 3.64 345 12:24 13.10.2021
5917 Clouds 3 1022 93 8619 3.64 345 11:36 13.10.2021
5918 Clouds 2 1022 95 8371 3.48 338 09:37 13.10.2021
5919 Rain 1 1021 95 6550 3.72 333 07:50 13.10.2021
5920 Rain 2 1020 93 4722 3.36 327 02:58 13.10.2021
5921 Clouds 2 1020 94 4975 3.37 330 02:19 13.10.2021
5922 Clouds 2 1020 93 4504 3.25 331 23:33 12.10.2021
5923 Clouds 2 1020 94 3902 3.25 333 22:50 12.10.2021
5924 Clouds 2 1020 93 2765 3.29 336 22:23 12.10.2021
5925 Clouds 3 1020 92 1998 3.32 341 20:50 12.10.2021
5926 Clouds 3 1019 92 1680 3.43 341 20:24 12.10.2021
5927 Clouds 3 1019 90 3336 3.48 342 18:58 12.10.2021
5928 Clouds 3 1018 89 7209 3.59 340 18:23 12.10.2021
5929 Clouds 4 1017 83 7657 3.89 337 17:19 12.10.2021
5930 Clouds 5 1017 80 10000 3.94 336 16:19 12.10.2021
5931 Clouds 5 1017 79 10000 3.97 336 15:29 12.10.2021
5932 Clouds 5 1017 75 10000 3.93 334 13:45 12.10.2021
5933 Clouds 5 1018 73 10000 3.85 336 12:44 12.10.2021
5934 Clouds 3 1019 74 10000 3.5 336 10:45 12.10.2021
5935 Clouds 1 1021 85 10000 3.17 333 09:20 12.10.2021
5936 Clouds 0 1021 86 10000 3.32 334 08:19 12.10.2021
5937 Clouds 0 1021 85 10000 2.31 326 06:43 12.10.2021
5938 Clouds 0 1022 84 10000 2.92 337 04:35 12.10.2021
5939 Clouds 1 1023 83 10000 2.45 337 01:31 12.10.2021
5940 Clouds 2 1024 80 10000 2.64 337 23:42 11.10.2021
5941 Clouds 2 1025 80 10000 2.24 334 23:19 11.10.2021
5942 Clouds 2 1025 78 10000 2.24 334 22:30 11.10.2021
5943 Clouds 2 1025 76 10000 2.64 336 21:20 11.10.2021
5944 Clouds 4 1025 71 10000 2.69 337 19:46 11.10.2021
5945 Clouds 5 1024 69 10000 3.19 339 19:22 11.10.2021
5946 Clouds 6 1022 61 10000 3.37 341 18:20 11.10.2021
5947 Clouds 9 1021 49 10000 3.51 339 16:40 11.10.2021
5948 Clouds 10 1021 44 10000 3.6 341 16:19 11.10.2021
5949 Clouds 10 1021 44 10000 3.6 341 15:40 11.10.2021
5950 Clouds 10 1020 44 10000 3.55 344 14:53 11.10.2021
5951 Clouds 9 1020 46 10000 3.26 345 13:51 11.10.2021
5952 Clouds 7 1021 37 10000 3.07 343 12:20 11.10.2021
5953 Clouds 4 1022 32 10000 3.1 345 10:49 11.10.2021
5954 Clouds 3 1023 37 10000 3.01 341 09:45 11.10.2021
5955 Clear -1 1024 32 10000 3.38 336 07:56 11.10.2021
5956 Clear 0 1024 89 10000 2.91 338 01:43 11.10.2021
5957 Clear 1 1025 88 10000 2.71 341 00:55 11.10.2021
5958 Clear 0 1025 88 10000 2.71 341 00:33 11.10.2021
5959 Clear 2 1026 91 10000 2.47 341 22:25 10.10.2021
5960 Clear 2 1026 74 10000 2.47 341 21:36 10.10.2021
5961 Clouds 3 1026 86 10000 2.57 337 20:56 10.10.2021
5962 Clouds 3 1026 87 10000 2.59 337 20:36 10.10.2021
5963 Clear 3 1025 87 10000 2.99 340 20:18 10.10.2021
5964 Clear 4 1025 84 10000 2.99 340 19:40 10.10.2021
5965 Clear 5 1024 88 10000 3.37 342 18:41 10.10.2021
5966 Clear 7 1022 73 10000 3.57 345 17:50 10.10.2021
5967 Clear 8 1020 54 10000 3.93 344 15:47 10.10.2021
5968 Clear 8 1020 51 10000 3.63 345 14:44 10.10.2021
5969 Clear 9 1020 66 10000 3.65 343 13:34 10.10.2021
5970 Clear 8 1020 83 10000 3.48 345 12:41 10.10.2021
5971 Clear 6 1021 89 10000 2.89 352 11:29 10.10.2021
5972 Clear 6 1021 89 10000 2.89 352 11:29 10.10.2021
5973 Clear 2 1021 56 10000 2.57 348 09:51 10.10.2021
5974 Clear 2 1023 65 10000 2.13 336 08:54 10.10.2021
5975 Clear 2 1023 89 10000 2.57 332 07:57 10.10.2021
5976 Clouds 3 1023 87 10000 0.94 333 03:47 10.10.2021
5977 Clouds 3 1023 87 10000 0.94 333 03:47 10.10.2021
5978 Clouds 4 1023 92 10000 1.17 189 01:43 10.10.2021
5979 Clouds 4 1023 91 10000 1.51 178 00:41 10.10.2021
5980 Clouds 4 1023 91 10000 1.35 149 23:23 09.10.2021
5981 Clouds 4 1023 91 10000 0.5 113 21:53 09.10.2021
5982 Clouds 5 1023 88 10000 0.47 27 21:29 09.10.2021
5983 Clouds 5 1022 89 10000 1.3 7 19:50 09.10.2021
5984 Clouds 6 1022 89 10000 1.3 7 19:31 09.10.2021
5985 Clouds 6 1022 86 10000 1.19 15 18:40 09.10.2021
5986 Clouds 6 1021 88 9486 1.17 23 17:51 09.10.2021
5987 Clouds 6 1021 79 10000 0.84 40 16:19 09.10.2021
5988 Clouds 7 1021 76 10000 0.79 112 13:48 09.10.2021
5989 Clouds 6 1021 73 10000 0.81 110 13:25 09.10.2021
5990 Clouds 8 1021 78 10000 1.02 125 11:58 09.10.2021
5991 Clouds 6 1021 83 10000 1.04 159 10:43 09.10.2021
5992 Clouds 5 1022 85 10000 1.53 167 10:18 09.10.2021
5993 Clouds 5 1023 91 10000 1.7 178 08:33 09.10.2021
5994 Clouds 4 1022 90 10000 1.41 187 07:50 09.10.2021
5995 Clouds 5 1022 87 10000 1.9 185 06:22 09.10.2021
5996 Clouds 6 1022 85 10000 2.09 184 04:31 09.10.2021
5997 Clouds 6 1022 94 10000 2.35 179 02:43 09.10.2021
5998 Clouds 6 1023 93 10000 1.99 172 23:58 08.10.2021
5999 Clouds 5 1023 96 10000 1.99 172 23:31 08.10.2021
6000 Clouds 5 1023 95 10000 1.64 169 22:42 08.10.2021
6001 Clouds 6 1022 91 10000 1.13 164 21:43 08.10.2021
6002 Clouds 6 1022 96 10000 0.73 116 19:47 08.10.2021
6003 Clouds 8 1020 78 10000 1.1 61 18:19 08.10.2021
6004 Clouds 9 1020 71 10000 1.44 55 16:54 08.10.2021
6005 Clouds 7 1019 69 10000 1.6 51 16:24 08.10.2021
6006 Clear 9 1019 74 10000 1.39 53 14:20 08.10.2021
6007 Clear 9 1019 77 10000 1.39 53 13:41 08.10.2021
6008 Clear 7 1020 80 10000 1.45 79 11:41 08.10.2021
6009 Clear 6 1020 87 10000 1.33 64 10:42 08.10.2021
6010 Clouds 4 1021 88 10000 1.3 43 09:46 08.10.2021
6011 Clouds 2 1023 92 10000 1.36 22 03:36 08.10.2021
6012 Clouds 4 1025 91 10000 1.49 30 23:24 07.10.2021
6013 Clouds 5 1025 90 10000 2.09 14 21:48 07.10.2021
6014 Clouds 5 1025 89 10000 2.38 5 21:28 07.10.2021
6015 Clouds 5 1024 89 9782 2.7 5 20:29 07.10.2021
6016 Clouds 5 1024 89 9782 2.7 5 19:32 07.10.2021
6017 Clouds 6 1024 86 8064 3.07 3 18:40 07.10.2021
6018 Clouds 6 1023 89 6432 3.64 359 17:27 07.10.2021
6019 Clouds 8 1023 87 6546 3.66 3 15:58 07.10.2021
6020 Clouds 5 1023 85 6966 3.54 1 14:48 07.10.2021
6021 Clouds 6 1023 81 9918 3.5 359 13:43 07.10.2021
6022 Clouds 5 1023 82 9362 3.54 4 12:49 07.10.2021
6023 Clouds 4 1024 90 8202 3.8 356 10:57 07.10.2021
6024 Clouds 3 1024 91 8951 3.93 351 10:22 07.10.2021
6025 Clouds 3 1024 93 8951 3.93 351 09:34 07.10.2021
6026 Clouds 3 1025 92 8856 4.06 348 08:53 07.10.2021
6027 Clouds 2 1025 93 9114 3.91 347 07:57 07.10.2021
6028 Clouds 2 1025 93 9114 3.91 347 07:37 07.10.2021
6029 Clouds 3 1025 93 7273 4 342 04:24 07.10.2021
6030 Clouds 3 1026 94 7445 3.82 338 00:29 07.10.2021
6031 Clouds 3 1026 92 7119 3.75 340 22:59 06.10.2021
6032 Clouds 3 1026 91 9424 3.91 340 22:24 06.10.2021
6033 Clouds 3 1025 92 8824 3.92 339 20:51 06.10.2021
6034 Clouds 3 1025 92 7879 3.84 342 20:26 06.10.2021
6035 Clouds 4 1024 86 10000 4.11 342 18:43 06.10.2021
6036 Clouds 5 1022 87 10000 4.58 340 17:19 06.10.2021
6037 Clouds 5 1021 82 10000 4.68 336 15:34 06.10.2021
6038 Clouds 5 1021 72 10000 4.44 340 14:34 06.10.2021
6039 Clouds 5 1022 88 9108 4.2 347 13:24 06.10.2021
6040 Clouds 5 1022 88 9108 4.2 347 12:45 06.10.2021
6041 Clouds 5 1022 91 7364 4.12 348 12:23 06.10.2021
6042 Clouds 4 1021 93 6722 4.36 343 10:36 06.10.2021
6043 Clouds 4 1021 94 6801 4.35 338 09:39 06.10.2021
6044 Clouds 3 1020 94 5448 4.4 337 08:57 06.10.2021
6045 Clouds 3 1020 94 2880 3.83 334 07:54 06.10.2021
6046 Rain 4 1019 92 1696 3.55 334 05:37 06.10.2021
6047 Clouds 5 1016 100 49 2.57 340 01:37 06.10.2021
6048 Clouds 6 1015 99 959 1.57 334 00:20 06.10.2021
6049 Clouds 6 1015 99 959 1.57 334 23:50 05.10.2021
6050 Clouds 6 1015 99 1118 1 294 23:29 05.10.2021
6051 Clouds 7 1015 95 1118 1 294 22:30 05.10.2021
6052 Rain 7 1014 98 1951 0.78 284 21:51 05.10.2021
6053 Clouds 7 1014 95 1502 1.02 266 20:51 05.10.2021
6054 Rain 7 1013 95 1392 1.01 237 20:25 05.10.2021
6055 Clouds 8 1013 95 1392 1.01 237 19:50 05.10.2021
6056 Rain 8 1012 94 1917 1.05 210 19:21 05.10.2021
6057 Clouds 8 1012 95 4221 1.86 194 17:23 05.10.2021
6058 Clouds 8 1012 95 3512 2.2 179 15:27 05.10.2021
6059 Rain 8 1012 96 7596 2.82 169 13:44 05.10.2021
6060 Rain 8 1012 95 8180 2.84 175 12:57 05.10.2021
6061 Rain 7 1012 95 8180 2.84 175 12:32 05.10.2021
6062 Rain 7 1012 96 3551 3.21 167 11:22 05.10.2021
6063 Clouds 7 1012 96 4015 3.06 160 10:21 05.10.2021
6064 Rain 6 1013 98 4290 2.31 170 05:56 05.10.2021
6065 Rain 6 1017 98 956 2.21 143 00:58 05.10.2021
6066 Rain 6 1016 98 1044 1.4 181 22:51 04.10.2021
6067 Rain 6 1015 98 2733 2.38 203 20:51 04.10.2021
6068 Clouds 8 1016 96 5487 1.97 128 18:47 04.10.2021
6069 Clouds 8 1017 95 3593 2.4 124 16:55 04.10.2021
6070 Clouds 8 1017 95 848 2.5 139 15:32 04.10.2021
6071 Clouds 8 1017 96 1448 2.18 140 14:44 04.10.2021
6072 Rain 8 1017 96 734 2.24 133 13:58 04.10.2021
6073 Rain 8 1017 96 734 2.24 133 13:31 04.10.2021
6074 Rain 7 1017 96 171 2.23 141 12:31 04.10.2021
6075 Rain 7 1017 96 218 2.03 141 11:32 04.10.2021
6076 Rain 7 1016 96 453 2.56 148 10:41 04.10.2021
6077 Rain 8 1016 96 333 2.82 145 09:26 04.10.2021
6078 Rain 8 1015 96 943 2.9 144 07:52 04.10.2021
6079 Rain 8 1015 96 427 3.01 142 03:44 04.10.2021
6080 Rain 10 1016 91 3583 3.79 156 22:48 03.10.2021
6081 Rain 11 1016 88 3254 4.04 155 21:52 03.10.2021
6082 Clouds 11 1016 87 5559 3.87 153 21:29 03.10.2021
6083 Rain 11 1016 85 5559 3.87 153 20:43 03.10.2021
6084 Rain 12 1016 76 3783 4.23 157 19:33 03.10.2021
6085 Rain 13 1015 73 3244 5.06 159 18:28 03.10.2021
6086 Clouds 13 1015 74 3244 5.06 159 17:31 03.10.2021
6087 Clouds 14 1015 94 3930 5.17 158 14:49 03.10.2021
6088 Rain 14 1016 79 4773 5.13 160 14:28 03.10.2021
6089 Clouds 14 1016 93 410 4.95 162 13:35 03.10.2021
6090 Clouds 14 1016 96 39 5.06 159 12:43 03.10.2021
6091 Clouds 10 1015 92 4183 5.26 160 10:57 03.10.2021
6092 Clouds 10 1015 81 279 5.12 163 09:34 03.10.2021
6093 Clouds 9 1015 83 8950 5.06 161 03:36 03.10.2021
6094 Clouds 8 1018 95 7434 4.75 162 22:49 02.10.2021
6095 Clouds 9 1018 93 10000 4.83 161 21:35 02.10.2021
6096 Clouds 10 1018 91 10000 4.16 166 20:18 02.10.2021
6097 Clouds 12 1017 89 10000 3.71 166 18:56 02.10.2021
6098 Clouds 13 1017 83 10000 3.74 162 18:18 02.10.2021
6099 Clouds 13 1017 83 10000 3.74 162 18:18 02.10.2021
6100 Clouds 13 1017 83 10000 3.74 162 17:36 02.10.2021
6101 Clouds 14 1017 76 10000 3.96 159 16:22 02.10.2021
6102 Clouds 7 1020 91 10000 2.33 168 06:39 02.10.2021
6103 Clouds 12 1023 72 10000 0.23 60 15:37 30.09.2021
6104 Clouds 12 1024 76 10000 0.72 153 13:51 30.09.2021
6105 Clouds 9 1025 78 10000 0.4 132 11:42 30.09.2021
6106 Clouds 8 1026 88 10000 0.66 10 10:46 30.09.2021
6107 Clouds 6 1027 91 10000 1.11 358 09:44 30.09.2021
6108 Clouds 5 1028 93 10000 1.6 4 08:30 30.09.2021
6109 Clouds 5 1028 92 10000 1.85 349 07:34 30.09.2021
6110 Clouds 5 1028 91 10000 2.67 340 05:18 30.09.2021
6111 Clouds 6 1027 91 10000 3.07 342 01:20 30.09.2021
6112 Clouds 6 1026 90 10000 3.14 339 00:18 30.09.2021
6113 Clouds 7 1026 91 8213 3.19 341 22:37 29.09.2021
6114 Clouds 8 1025 91 10000 3.09 336 21:24 29.09.2021
6115 Clouds 9 1024 90 10000 3.09 336 20:27 29.09.2021
6116 Clouds 9 1024 89 10000 3.09 336 19:51 29.09.2021
6117 Clouds 10 1023 81 10000 3.16 336 18:45 29.09.2021
6118 Clouds 11 1023 80 10000 3.16 339 17:38 29.09.2021
6119 Clouds 11 1022 77 10000 3.26 342 16:47 29.09.2021
6120 Clouds 11 1022 72 10000 3.21 340 15:55 29.09.2021
6121 Clouds 11 1021 69 10000 2.63 336 14:39 29.09.2021
6122 Clouds 12 1021 73 10000 2.39 335 13:42 29.09.2021
6123 Clouds 12 1021 77 10000 2.24 336 12:58 29.09.2021
6124 Clouds 11 1022 93 10000 2.12 339 11:55 29.09.2021
6125 Clouds 10 1022 95 10000 2.1 341 10:47 29.09.2021
6126 Clouds 8 1021 95 9478 2.05 341 09:50 29.09.2021
6127 Clouds 8 1021 95 6122 2.07 334 09:18 29.09.2021
6128 Clouds 9 1020 93 8280 2.24 338 07:31 29.09.2021
6129 Clouds 9 1020 92 10000 1.16 281 03:58 29.09.2021
6130 Clouds 10 1021 81 10000 2.05 179 23:26 28.09.2021
6131 Clouds 10 1021 92 10000 2.37 171 22:23 28.09.2021
6132 Clouds 10 1021 92 10000 2.37 171 21:37 28.09.2021
6133 Clouds 11 1021 75 10000 2.47 171 20:36 28.09.2021
6134 Clouds 11 1020 90 10000 2.32 176 19:43 28.09.2021
6135 Clouds 11 1020 86 10000 2.17 173 18:46 28.09.2021
6136 Clouds 13 1019 74 10000 2.12 171 17:54 28.09.2021
6137 Clouds 15 1019 48 10000 2.64 162 15:56 28.09.2021
6138 Clouds 15 1020 76 10000 2.46 160 13:44 28.09.2021
6139 Clouds 14 1020 77 10000 2.2 158 12:47 28.09.2021
6140 Clouds 13 1021 77 10000 2.17 151 12:19 28.09.2021
6141 Clouds 12 1021 82 10000 2.17 151 11:45 28.09.2021
6142 Clouds 10 1022 85 10000 1.81 140 10:57 28.09.2021
6143 Clouds 10 1023 86 10000 1.27 112 09:53 28.09.2021
6144 Clouds 10 1023 92 10000 1.13 65 08:58 28.09.2021
6145 Clouds 9 1023 92 10000 1.13 65 08:38 28.09.2021
6146 Clouds 9 1023 92 10000 1.29 44 07:31 28.09.2021
6147 Clouds 9 1024 89 10000 2.25 2 05:28 28.09.2021
6148 Clouds 10 1024 90 10000 1.79 343 01:23 28.09.2021
6149 Clouds 10 1024 89 10000 1.97 341 00:25 28.09.2021
6150 Clouds 10 1024 89 10000 1.97 341 23:41 27.09.2021
6151 Clouds 10 1024 88 10000 2.26 347 22:55 27.09.2021
6152 Clouds 11 1023 88 10000 2.32 349 21:54 27.09.2021
6153 Clouds 12 1023 86 10000 2.42 349 20:44 27.09.2021
6154 Clouds 12 1022 83 10000 2.45 340 19:55 27.09.2021
6155 Clouds 13 1021 81 10000 2.7 343 19:27 27.09.2021
6156 Clouds 14 1021 77 10000 2.7 343 18:50 27.09.2021
6157 Clouds 15 1020 74 10000 2.61 344 17:29 27.09.2021
6158 Clouds 15 1020 70 10000 2.61 344 16:50 27.09.2021
6159 Clouds 16 1019 63 10000 2.68 343 15:45 27.09.2021
6160 Clouds 16 1019 67 10000 2.49 343 15:18 27.09.2021
6161 Clouds 15 1018 69 10000 1.78 335 13:32 27.09.2021
6162 Clouds 14 1019 75 10000 1.19 337 11:40 27.09.2021
6163 Clouds 12 1019 84 10000 0.79 346 10:37 27.09.2021
6164 Clouds 9 1020 94 10000 0.3 345 08:59 27.09.2021
6165 Clouds 8 1021 94 10000 1.65 6 05:22 27.09.2021
6166 Clouds 9 1021 94 10000 1.63 4 03:21 27.09.2021
6167 Rain 10 1021 94 10000 1.35 352 22:38 26.09.2021
6168 Rain 10 1021 93 10000 1.54 343 21:53 26.09.2021
6169 Clouds 10 1021 93 10000 1.43 351 21:25 26.09.2021
6170 Clouds 11 1020 91 10000 1.47 336 20:22 26.09.2021
6171 Clouds 11 1020 91 10000 1.47 336 19:52 26.09.2021
6172 Clouds 12 1020 94 10000 0.65 348 18:47 26.09.2021
6173 Clouds 13 1020 91 10000 0.26 110 17:57 26.09.2021
6174 Clouds 13 1020 92 10000 0.77 152 17:24 26.09.2021
6175 Clouds 13 1020 92 10000 0.77 152 16:58 26.09.2021
6176 Clouds 13 1020 91 10000 1.16 151 16:20 26.09.2021
6177 Clouds 15 1020 87 9417 1.06 202 15:22 26.09.2021
6178 Clouds 13 1020 93 10000 0.95 193 13:57 26.09.2021
6179 Rain 13 1021 91 10000 1.71 169 13:29 26.09.2021
6180 Rain 12 1021 93 8181 2.1 168 12:25 26.09.2021
6181 Clouds 12 1021 90 8181 2.1 168 11:51 26.09.2021
6182 Clouds 12 1021 89 4157 2.47 163 10:37 26.09.2021
6183 Clouds 11 1021 85 10000 3.02 162 09:21 26.09.2021
6184 Clouds 9 1021 85 10000 3.14 163 07:57 26.09.2021
6185 Clouds 12 1023 85 10000 2.97 170 00:28 26.09.2021
6186 Clouds 12 1023 84 10000 2.97 170 23:40 25.09.2021
6187 Clouds 13 1023 80 10000 3.09 170 22:38 25.09.2021
6188 Clouds 13 1023 78 10000 3 168 22:18 25.09.2021
6189 Clouds 13 1023 78 10000 3 168 21:33 25.09.2021
6190 Clouds 13 1023 78 10000 3 168 21:33 25.09.2021
6191 Clouds 13 1023 92 10000 2.8 167 20:51 25.09.2021
6192 Clouds 14 1022 89 10000 2.56 165 19:32 25.09.2021
6193 Clouds 15 1020 77 10000 2.72 160 18:26 25.09.2021
6194 Rain 16 1019 65 10000 3.07 149 16:51 25.09.2021
6195 Clouds 19 1020 58 10000 2.81 155 14:24 25.09.2021
6196 Clouds 16 1020 54 10000 2.81 155 13:46 25.09.2021
6197 Clouds 16 1020 54 10000 2.46 159 12:29 25.09.2021
6198 Clouds 14 1020 68 10000 2.39 165 10:36 25.09.2021
6199 Clouds 14 1021 71 10000 2.13 169 09:56 25.09.2021
6200 Clouds 9 1021 70 10000 2.07 173 08:45 25.09.2021
6201 Clear 6 1021 80 10000 1.85 182 07:27 25.09.2021
6202 Clear 8 1021 79 10000 0.84 193 00:49 25.09.2021
6203 Clear 10 1021 80 10000 0.5 240 21:57 24.09.2021
6204 Clear 10 1021 80 10000 0.21 261 21:25 24.09.2021
6205 Clear 11 1020 75 10000 0.37 322 20:19 24.09.2021
6206 Clear 14 1019 79 10000 0.69 347 18:36 24.09.2021
6207 Clear 17 1018 61 10000 0.89 350 17:56 24.09.2021
6208 Clear 15 1018 59 10000 0.89 350 17:37 24.09.2021
6209 Clear 16 1018 44 10000 1.14 350 17:19 24.09.2021
6210 Clear 18 1018 61 10000 1.39 343 14:48 24.09.2021
6211 Clear 16 1019 63 10000 1.47 350 13:20 24.09.2021
6212 Clear 16 1019 62 10000 1.47 350 12:41 24.09.2021
6213 Clear 16 1019 65 10000 1.43 348 12:23 24.09.2021
6214 Clear 13 1020 77 10000 1.6 335 10:28 24.09.2021
6215 Clear 9 1020 48 10000 1.65 332 08:57 24.09.2021
6216 Clear 7 1021 86 10000 1.57 315 07:55 24.09.2021
6217 Clear 6 1021 85 10000 1.48 318 06:51 24.09.2021
6218 Clear 6 1021 86 10000 1.93 327 05:22 24.09.2021
6219 Clear 8 1023 80 10000 1.73 318 00:48 24.09.2021
6220 Clear 8 1023 77 10000 1.91 316 22:36 23.09.2021
6221 Clear 10 1023 76 10000 2.03 317 21:57 23.09.2021
6222 Clear 11 1023 70 10000 1.83 317 20:37 23.09.2021
6223 Clouds 11 1022 69 10000 1.48 309 20:19 23.09.2021
6224 Clouds 14 1020 63 10000 1.51 330 18:25 23.09.2021
6225 Clouds 18 1020 59 10000 1.2 329 15:37 23.09.2021
6226 Clouds 18 1020 54 10000 1.03 328 15:18 23.09.2021
6227 Clouds 17 1020 57 10000 0.98 316 13:57 23.09.2021
6228 Clouds 17 1021 56 10000 0.84 296 13:23 23.09.2021
6229 Clouds 17 1021 49 10000 0.84 296 12:53 23.09.2021
6230 Clouds 16 1021 52 10000 0.72 260 12:23 23.09.2021
6231 Clouds 15 1021 50 10000 0.72 259 11:55 23.09.2021
6232 Clouds 9 1022 70 10000 1.98 190 10:27 23.09.2021
6233 Clouds 8 1022 73 10000 1.98 190 09:53 23.09.2021
6234 Clouds 8 1023 72 10000 2.16 185 08:38 23.09.2021
6235 Clouds 5 1023 87 10000 2.5 188 05:27 23.09.2021
6236 Clouds 7 1024 89 10000 1.87 164 23:48 22.09.2021
6237 Clouds 8 1024 89 10000 1.3 140 22:44 22.09.2021
6238 Clouds 9 1024 87 10000 0.9 86 21:57 22.09.2021
6239 Clouds 9 1024 87 10000 0.9 86 21:34 22.09.2021
6240 Clouds 9 1023 84 10000 1.26 49 20:57 22.09.2021
6241 Clouds 11 1023 78 10000 1.74 29 19:34 22.09.2021
6242 Clouds 12 1022 67 10000 2.03 29 18:46 22.09.2021
6243 Clouds 12 1022 61 10000 2.31 23 18:22 22.09.2021
6244 Clouds 16 1022 54 10000 2.59 20 16:41 22.09.2021
6245 Clouds 15 1022 50 10000 2.75 21 15:38 22.09.2021
6246 Clouds 14 1022 58 10000 3.13 17 14:25 22.09.2021
6247 Clouds 12 1024 72 10000 2.86 15 12:19 22.09.2021
6248 Clouds 10 1024 43 10000 2.74 13 10:57 22.09.2021
6249 Clouds 8 1025 87 10000 1.99 1 09:28 22.09.2021
6250 Clouds 5 1025 89 10000 1.99 1 08:31 22.09.2021
6251 Clouds 5 1025 90 10000 2.31 351 07:25 22.09.2021
6252 Clouds 5 1024 91 10000 1.49 335 06:18 22.09.2021
6253 Clouds 5 1024 91 10000 1.49 335 05:38 22.09.2021
6254 Clear 6 1025 89 10000 1.06 329 03:52 22.09.2021
6255 Clouds 7 1027 90 10000 1.24 338 00:37 22.09.2021
6256 Clouds 8 1028 92 10000 0.7 340 23:30 21.09.2021
6257 Clouds 8 1028 89 10000 1.48 9 21:38 21.09.2021
6258 Clouds 9 1026 86 10000 1.55 9 20:27 21.09.2021
6259 Clouds 10 1024 78 10000 1.13 357 19:23 21.09.2021
6260 Clouds 14 1024 57 10000 1.48 6 17:49 21.09.2021
6261 Clouds 12 1024 62 10000 1.92 6 16:40 21.09.2021
6262 Clouds 15 1023 62 10000 1.16 9 15:55 21.09.2021
6263 Clouds 15 1023 66 10000 1.05 19 14:58 21.09.2021
6264 Clear 14 1023 70 10000 1.2 26 13:57 21.09.2021
6265 Clear 13 1023 67 10000 1.2 26 13:39 21.09.2021
6266 Clear 13 1024 74 10000 1.34 31 12:40 21.09.2021
6267 Clear 7 1024 66 10000 1.83 21 10:39 21.09.2021
6268 Clouds 6 1024 81 10000 0.87 34 08:41 21.09.2021
6269 Clouds 5 1023 87 10000 1.33 28 07:20 21.09.2021
6270 Clouds 6 1022 89 10000 1.24 24 01:52 21.09.2021
6271 Clouds 6 1021 94 8291 1.66 18 22:42 20.09.2021
6272 Clouds 6 1021 95 4564 1.94 6 21:42 20.09.2021
6273 Clouds 6 1020 96 4516 1.84 359 20:58 20.09.2021
6274 Clouds 8 1019 93 4745 1.92 354 19:40 20.09.2021
6275 Clouds 9 1018 85 5454 1.79 355 17:54 20.09.2021
6276 Clouds 10 1017 87 7130 1.8 3 16:57 20.09.2021
6277 Rain 10 1017 83 10000 1.68 13 15:57 20.09.2021
6278 Rain 10 1017 83 10000 1.68 13 15:33 20.09.2021
6279 Rain 10 1017 88 5931 1.21 48 14:25 20.09.2021
6280 Rain 9 1017 84 4479 1.4 32 12:44 20.09.2021
6281 Rain 8 1017 95 2833 1.64 22 12:21 20.09.2021
6282 Rain 7 1017 95 2783 1.62 23 12:21 20.09.2021
6283 Clouds 7 1017 88 2150 1.84 12 10:36 20.09.2021
6284 Clouds 7 1017 91 3202 2.1 4 09:44 20.09.2021
6285 Clouds 6 1017 93 3685 2.28 353 09:25 20.09.2021
6286 Clouds 6 1017 96 3685 2.28 353 08:34 20.09.2021
6287 Clouds 5 1017 95 1832 2.81 333 02:29 20.09.2021
6288 Clouds 5 1017 95 2021 3.16 334 22:47 19.09.2021
6289 Clouds 5 1018 95 2242 3.02 337 21:48 19.09.2021
6290 Clouds 5 1018 95 1703 3.34 329 20:59 19.09.2021
6291 Clouds 5 1017 94 360 3.12 331 19:54 19.09.2021
6292 Clouds 5 1017 99 87 3.29 330 18:42 19.09.2021
6293 Rain 5 1016 100 137 3.48 328 17:33 19.09.2021
6294 Rain 5 1016 94 64 2.76 331 16:33 19.09.2021
6295 Rain 4 1016 93 82 2.72 320 15:31 19.09.2021
6296 Rain 5 1015 90 709 3.1 326 14:48 19.09.2021
6297 Rain 6 1015 86 332 3.28 319 13:52 19.09.2021
6298 Rain 7 1013 83 553 3.18 325 12:55 19.09.2021
6299 Rain 7 1012 83 1476 2.91 332 11:46 19.09.2021
6300 Rain 8 1012 91 4334 1.74 335 11:22 19.09.2021
6301 Rain 8 1011 91 10000 1.51 40 09:51 19.09.2021
6302 Rain 9 1012 94 9825 1.24 101 09:23 19.09.2021
6303 Clouds 11 1012 90 10000 1.65 153 06:48 19.09.2021
6304 Clouds 11 1012 90 10000 1.65 153 06:48 19.09.2021
6305 Clouds 10 1014 89 10000 1.82 161 00:40 19.09.2021
6306 Clouds 10 1014 88 10000 0.67 138 22:58 18.09.2021
6307 Clouds 11 1015 86 10000 0.51 131 21:56 18.09.2021
6308 Clouds 11 1015 83 10000 0.77 82 20:46 18.09.2021
6309 Clouds 12 1014 91 10000 0.59 31 19:42 18.09.2021
6310 Clouds 13 1013 76 10000 0.85 357 19:22 18.09.2021
6311 Clouds 14 1013 85 10000 0.85 357 18:53 18.09.2021
6312 Clouds 15 1013 71 10000 1.04 355 18:29 18.09.2021
6313 Clouds 15 1012 61 10000 1.05 9 16:35 18.09.2021
6314 Clear 16 1013 71 10000 0.85 24 13:53 18.09.2021
6315 Clear 16 1013 76 10000 0.85 24 13:31 18.09.2021
6316 Clear 16 1013 73 10000 0.75 19 12:52 18.09.2021
6317 Clear 15 1014 75 10000 0.73 16 11:59 18.09.2021
6318 Clear 14 1014 76 10000 0.88 5 11:29 18.09.2021
6319 Clear 13 1015 83 10000 1.05 344 10:22 18.09.2021
6320 Clear 11 1015 83 10000 1.11 334 09:23 18.09.2021
6321 Clear 9 1016 94 10000 1.14 325 08:24 18.09.2021
6322 Clouds 11 1016 94 10000 0.97 308 00:52 18.09.2021
6323 Clouds 11 1016 91 10000 0.81 320 23:55 17.09.2021
6324 Clouds 11 1016 91 10000 0.97 333 22:45 17.09.2021
6325 Clouds 11 1016 91 10000 0.8 344 22:22 17.09.2021
6326 Clouds 12 1016 91 10000 0.8 344 21:31 17.09.2021
6327 Clouds 13 1015 82 10000 1.52 1 19:30 17.09.2021
6328 Clouds 15 1013 71 10000 1.98 357 17:57 17.09.2021
6329 Clouds 17 1013 66 10000 1.93 356 16:34 17.09.2021
6330 Clear 16 1013 71 10000 1.8 352 14:34 17.09.2021
6331 Clouds 14 1015 86 10000 1.68 356 11:43 17.09.2021
6332 Clouds 11 1015 94 10000 2.03 349 09:40 17.09.2021
6333 Clouds 10 1016 95 10000 2.68 341 07:36 17.09.2021
6334 Clouds 10 1016 91 6942 2.81 339 05:27 17.09.2021
6335 Clouds 11 1017 96 10000 2.31 337 00:29 17.09.2021
6336 Clouds 11 1018 96 10000 1.49 334 22:41 16.09.2021
6337 Clouds 12 1018 95 8253 1.65 355 22:23 16.09.2021
6338 Clouds 12 1018 95 8253 1.65 355 21:31 16.09.2021
6339 Rain 12 1017 94 3477 1.46 6 20:29 16.09.2021
6340 Rain 13 1016 91 2529 1.48 346 18:38 16.09.2021
6341 Rain 13 1016 88 3256 1.73 345 17:59 16.09.2021
6342 Clouds 14 1017 91 8156 1.66 0 15:31 16.09.2021
6343 Clouds 15 1017 87 10000 1.62 1 14:35 16.09.2021
6344 Clouds 15 1017 92 9881 1.36 6 13:23 16.09.2021
6345 Clouds 15 1017 92 9881 1.36 6 12:40 16.09.2021
6346 Clouds 13 1017 94 5383 1.26 353 11:46 16.09.2021
6347 Clouds 14 1017 82 5787 1.25 357 10:50 16.09.2021
6348 Clouds 13 1017 97 3268 0.87 313 10:21 16.09.2021
6349 Clouds 12 1017 95 5164 0.67 305 08:45 16.09.2021
6350 Clouds 11 1017 94 10000 0.1 177 07:47 16.09.2021
6351 Clouds 12 1017 94 10000 0.37 179 06:56 16.09.2021
6352 Clouds 12 1017 93 10000 0.37 179 06:32 16.09.2021
6353 Rain 12 1018 94 10000 0.64 186 02:58 16.09.2021
6354 Clouds 12 1019 94 10000 0.96 173 00:46 16.09.2021
6355 Clouds 13 1019 94 10000 1.58 162 22:59 15.09.2021
6356 Clouds 13 1018 94 10000 1.51 158 22:20 15.09.2021
6357 Rain 13 1018 94 10000 1.51 158 21:30 15.09.2021
6358 Rain 14 1018 94 5258 1.54 151 20:26 15.09.2021
6359 Clouds 14 1018 93 3029 1.54 172 19:29 15.09.2021
6360 Clouds 15 1018 91 3029 1.54 172 18:37 15.09.2021
6361 Clouds 16 1017 92 3640 1.79 166 17:33 15.09.2021
6362 Clouds 15 1017 91 3325 1.87 146 16:28 15.09.2021
6363 Rain 16 1017 89 3562 1.49 174 14:53 15.09.2021
6364 Rain 16 1017 89 3562 1.49 174 14:33 15.09.2021
6365 Clouds 16 1017 94 7324 2.6 150 13:42 15.09.2021
6366 Clouds 16 1018 95 7521 2.43 171 13:23 15.09.2021
6367 Clouds 16 1018 91 7575 2.39 156 12:23 15.09.2021
6368 Clouds 15 1018 91 7575 2.39 156 11:49 15.09.2021
6369 Rain 14 1018 82 7643 2.63 154 10:57 15.09.2021
6370 Clouds 14 1018 86 10000 3.29 154 09:44 15.09.2021
6371 Rain 13 1019 86 10000 3.16 157 08:41 15.09.2021
6372 Clouds 12 1019 80 10000 2.38 160 06:28 15.09.2021
6373 Clouds 13 1021 78 10000 2.22 180 00:37 15.09.2021
6374 Clouds 14 1020 78 10000 2.6 169 21:59 14.09.2021
6375 Clouds 15 1020 76 10000 2.68 162 20:56 14.09.2021
6376 Clouds 15 1020 72 10000 2.51 162 19:54 14.09.2021
6377 Clouds 17 1019 79 10000 2.62 161 18:40 14.09.2021
6378 Clouds 18 1018 70 10000 2.32 160 17:29 14.09.2021
6379 Clouds 19 1018 56 10000 2.19 167 15:58 14.09.2021
6380 Clouds 18 1019 64 10000 1.96 171 14:32 14.09.2021
6381 Clouds 20 1018 51 10000 2.28 168 13:26 14.09.2021
6382 Clouds 18 1019 61 10000 2.37 168 10:57 14.09.2021
6383 Clouds 15 1019 74 10000 2.23 168 09:51 14.09.2021
6384 Clouds 13 1020 77 10000 2.17 176 09:18 14.09.2021
6385 Clouds 9 1020 85 10000 1.96 179 07:25 14.09.2021
6386 Clouds 11 1021 87 10000 2.02 183 00:53 14.09.2021
6387 Clouds 13 1021 84 10000 1.78 176 22:58 13.09.2021
6388 Clouds 13 1020 83 10000 1.63 188 22:26 13.09.2021
6389 Clouds 13 1020 81 10000 1.63 188 21:53 13.09.2021
6390 Clouds 14 1020 78 10000 1.32 175 20:58 13.09.2021
6391 Clouds 16 1018 84 10000 0.64 177 19:29 13.09.2021
6392 Clouds 16 1018 84 10000 0.64 177 18:43 13.09.2021
6393 Clouds 18 1018 72 10000 0.57 178 16:58 13.09.2021
6394 Clouds 17 1018 68 10000 0.64 202 15:39 13.09.2021
6395 Clouds 18 1018 55 10000 0.49 179 13:36 13.09.2021
6396 Clear 17 1019 64 10000 1.31 177 11:20 13.09.2021
6397 Clouds 13 1019 81 10000 1.24 189 09:42 13.09.2021
6398 Clouds 9 1019 91 10000 1.12 201 07:28 13.09.2021
6399 Clouds 12 1020 85 10000 1.32 185 23:44 12.09.2021
6400 Clouds 13 1020 88 10000 0.9 181 22:26 12.09.2021
6401 Clouds 12 1020 88 10000 0.87 182 21:43 12.09.2021
6402 Clouds 13 1019 89 10000 0.56 187 20:40 12.09.2021
6403 Clouds 14 1018 87 10000 0.15 317 19:54 12.09.2021
6404 Clouds 15 1018 78 10000 0.1 237 19:28 12.09.2021
6405 Clouds 15 1018 83 10000 0.1 237 18:31 12.09.2021
6406 Clouds 16 1017 71 10000 0.35 193 16:33 12.09.2021
6407 Clouds 15 1018 66 10000 0.46 196 14:59 12.09.2021
6408 Clouds 17 1017 62 10000 0.47 208 13:51 12.09.2021
6409 Clouds 17 1018 70 10000 0.85 173 11:47 12.09.2021
6410 Clear 14 1019 84 10000 1.05 168 09:41 12.09.2021
6411 Clear 11 1019 92 10000 1.09 176 08:38 12.09.2021
6412 Clear 10 1020 92 10000 0.83 168 02:39 12.09.2021
6413 Clouds 12 1021 92 10000 0.16 70 23:52 11.09.2021
6414 Clouds 13 1021 92 10000 1.01 4 22:25 11.09.2021
6415 Clouds 13 1021 92 10000 1.01 4 21:36 11.09.2021
6416 Clouds 15 1019 73 10000 1.16 2 19:25 11.09.2021
6417 Clouds 14 1019 80 10000 1.25 10 17:52 11.09.2021
6418 Clouds 16 1019 74 10000 1.11 358 15:52 11.09.2021
6419 Clouds 16 1018 59 10000 1.03 348 13:52 11.09.2021
6420 Clouds 16 1019 59 10000 1.18 2 13:18 11.09.2021
6421 Clouds 15 1020 85 10000 1.42 17 11:20 11.09.2021
6422 Clouds 12 1020 92 10000 1.4 11 09:40 11.09.2021
6423 Clouds 10 1021 94 10000 1.2 343 07:45 11.09.2021
6424 Clouds 9 1021 89 10000 1.26 337 06:52 11.09.2021
6425 Rain 10 1021 92 10000 1.02 285 23:38 10.09.2021
6426 Clouds 11 1021 85 10000 0.98 223 22:25 10.09.2021
6427 Clouds 11 1021 83 10000 0.98 223 21:54 10.09.2021
6428 Clouds 12 1019 78 10000 1.24 174 20:24 10.09.2021
6429 Clouds 14 1018 67 10000 1.35 171 18:28 10.09.2021
6430 Clouds 15 1018 74 10000 1.41 178 16:54 10.09.2021
6431 Clouds 14 1019 75 10000 1.5 182 14:49 10.09.2021
6432 Clouds 14 1019 72 10000 1.48 182 12:22 10.09.2021
6433 Clouds 11 1019 87 10000 1.98 175 08:48 10.09.2021
6434 Clouds 10 1019 88 10000 1.99 176 07:50 10.09.2021
6435 Clouds 10 1019 87 10000 2.09 178 02:31 10.09.2021
6436 Clouds 11 1020 88 10000 2.16 174 22:32 09.09.2021
6437 Clouds 11 1020 88 10000 2.22 171 21:45 09.09.2021
6438 Clouds 12 1019 89 10000 2.18 172 20:46 09.09.2021
6439 Clouds 13 1018 87 10000 2.13 178 19:58 09.09.2021
6440 Clouds 14 1017 83 10000 1.89 175 18:32 09.09.2021
6441 Clouds 15 1017 81 10000 1.86 170 16:40 09.09.2021
6442 Clouds 15 1017 86 10000 1.78 175 15:43 09.09.2021
6443 Clouds 14 1018 87 10000 1.98 150 12:53 09.09.2021
6444 Rain 13 1018 90 10000 2.11 154 11:45 09.09.2021
6445 Rain 13 1019 93 10000 2.42 169 09:50 09.09.2021
6446 Clouds 11 1019 93 10000 2.39 174 08:49 09.09.2021
6447 Clouds 12 1020 87 10000 2.4 179 06:26 09.09.2021
6448 Clouds 11 1021 81 10000 2.76 183 02:36 09.09.2021
6449 Clouds 11 1021 81 10000 2.76 183 02:36 09.09.2021
6450 Clouds 12 1021 78 10000 3.31 174 22:42 08.09.2021
6451 Clouds 13 1021 73 10000 3.28 171 21:31 08.09.2021
6452 Clouds 15 1020 67 10000 3.1 166 19:56 08.09.2021
6453 Clouds 16 1020 59 10000 3.21 163 19:22 08.09.2021
6454 Clouds 17 1019 67 10000 3.23 164 18:29 08.09.2021
6455 Clouds 17 1019 67 10000 3.23 164 17:56 08.09.2021
6456 Clouds 18 1019 51 10000 3.21 165 16:32 08.09.2021
6457 Clouds 18 1019 53 10000 3.26 169 14:26 08.09.2021
6458 Clouds 18 1020 52 10000 3.14 169 12:47 08.09.2021
6459 Clouds 18 1020 57 10000 3.09 173 12:27 08.09.2021
6460 Clouds 16 1020 65 10000 3.09 173 11:30 08.09.2021
6461 Clouds 15 1021 64 10000 3.18 176 10:33 08.09.2021
6462 Clouds 14 1021 75 10000 3.3 177 09:59 08.09.2021
6463 Clouds 11 1022 87 10000 3.4 174 08:31 08.09.2021
6464 Clouds 8 1022 88 10000 3.09 176 07:32 08.09.2021
6465 Clouds 9 1022 86 10000 3.02 178 05:28 08.09.2021
6466 Clouds 12 1023 80 10000 2.19 177 22:43 07.09.2021
6467 Clouds 12 1023 78 10000 1.89 170 21:52 07.09.2021
6468 Clouds 16 1023 90 10000 0.68 141 19:52 07.09.2021
6469 Clouds 17 1022 80 10000 0.28 25 18:45 07.09.2021
6470 Clouds 19 1022 68 10000 0.54 344 17:49 07.09.2021
6471 Clouds 19 1021 49 10000 0.62 322 16:38 07.09.2021
6472 Clouds 18 1021 45 10000 0.54 338 15:36 07.09.2021
6473 Clouds 17 1022 53 10000 0.69 336 14:42 07.09.2021
6474 Clouds 18 1023 63 10000 0.32 11 12:41 07.09.2021
6475 Clouds 17 1024 64 10000 0.05 38 11:37 07.09.2021
6476 Clouds 16 1024 65 10000 0.16 201 10:41 07.09.2021
6477 Clouds 10 1025 88 10000 0.89 205 08:25 07.09.2021
6478 Clouds 8 1025 88 10000 1.19 199 07:23 07.09.2021
6479 Clouds 8 1025 86 10000 1.02 199 05:40 07.09.2021
6480 Clouds 11 1026 87 10000 1.71 189 02:34 07.09.2021
6481 Clouds 11 1026 92 10000 1.68 177 00:43 07.09.2021
6482 Clouds 11 1026 92 10000 1.5 176 23:34 06.09.2021
6483 Clouds 12 1026 83 10000 1.15 173 22:53 06.09.2021
6484 Clouds 12 1026 82 10000 1.15 173 22:32 06.09.2021
6485 Clouds 13 1026 91 10000 0.26 182 20:55 06.09.2021
6486 Clouds 16 1024 61 10000 0.49 355 19:23 06.09.2021
6487 Clouds 17 1024 81 10000 0.49 355 18:48 06.09.2021
6488 Clouds 18 1023 72 10000 0.98 351 18:23 06.09.2021
6489 Clouds 19 1023 72 10000 0.98 351 17:36 06.09.2021
6490 Clouds 19 1023 52 10000 1.01 344 15:49 06.09.2021
6491 Clouds 16 1023 62 10000 0.81 340 13:47 06.09.2021
6492 Clouds 17 1023 61 10000 0.64 342 12:47 06.09.2021
6493 Clear 16 1024 61 10000 0.08 299 10:44 06.09.2021
6494 Clouds 9 1024 86 10000 0.53 201 07:59 06.09.2021
6495 Clouds 9 1024 84 10000 0.92 202 04:45 06.09.2021
6496 Clouds 11 1024 83 10000 0.72 189 23:34 05.09.2021
6497 Clouds 12 1024 80 10000 0.19 222 22:47 05.09.2021
6498 Clouds 12 1024 87 10000 0.52 325 21:57 05.09.2021
6499 Clouds 12 1023 87 10000 0.93 338 21:30 05.09.2021
6500 Clouds 16 1022 88 10000 1.54 336 19:56 05.09.2021
6501 Clouds 18 1021 78 10000 1.35 342 18:41 05.09.2021
6502 Clouds 19 1020 65 10000 1.56 336 17:30 05.09.2021
6503 Clouds 18 1019 45 10000 1.6 356 15:27 05.09.2021
6504 Clear 17 1020 44 10000 1.34 355 14:19 05.09.2021
6505 Clear 16 1020 49 10000 0.88 0 12:26 05.09.2021
6506 Clear 16 1020 65 10000 0.81 7 10:48 05.09.2021
6507 Clear 15 1020 66 10000 0.77 2 10:23 05.09.2021
6508 Clear 15 1020 66 10000 0.77 2 10:23 05.09.2021
6509 Clear 12 1020 80 10000 0.52 335 09:21 05.09.2021
6510 Clear 9 1021 88 10000 0.8 324 07:43 05.09.2021
6511 Clear 11 1020 88 10000 0.66 248 00:48 05.09.2021
6512 Clear 11 1020 86 10000 0.59 219 00:22 05.09.2021
6513 Clear 11 1020 90 10000 0.59 219 23:32 04.09.2021
6514 Clear 11 1020 90 10000 0.45 197 22:35 04.09.2021
6515 Clear 12 1020 90 10000 0.14 257 21:55 04.09.2021
6516 Clouds 14 1018 86 10000 1.19 351 19:41 04.09.2021
6517 Clouds 18 1017 63 10000 1.33 344 18:19 04.09.2021
6518 Clouds 19 1017 64 10000 1.44 331 15:54 04.09.2021
6519 Clouds 17 1017 61 10000 1.06 354 12:48 04.09.2021
6520 Clouds 13 1018 67 10000 0.86 14 11:19 04.09.2021
6521 Clouds 12 1018 81 10000 0.48 9 08:58 04.09.2021
6522 Clouds 10 1019 86 10000 0.39 186 02:32 04.09.2021
6523 Clouds 11 1020 85 10000 0.68 165 00:23 04.09.2021
6524 Clouds 12 1020 84 10000 0.82 159 23:23 03.09.2021
6525 Clouds 12 1020 91 10000 0.73 139 21:53 03.09.2021
6526 Clouds 12 1020 91 10000 0.73 139 21:33 03.09.2021
6527 Clouds 14 1020 91 10000 0.49 81 20:41 03.09.2021
6528 Clouds 15 1019 90 10000 0.08 68 19:46 03.09.2021
6529 Clouds 17 1019 83 10000 0.39 341 18:55 03.09.2021
6530 Clouds 17 1019 75 10000 0.79 330 17:40 03.09.2021
6531 Clouds 17 1019 70 9880 0.7 341 16:23 03.09.2021
6532 Clouds 16 1020 69 10000 0.51 332 14:47 03.09.2021
6533 Clouds 16 1020 56 10000 0.39 109 11:57 03.09.2021
6534 Clouds 13 1022 72 10000 1.07 190 10:26 03.09.2021
6535 Clouds 11 1022 89 10000 1.75 192 08:39 03.09.2021
6536 Clouds 9 1023 84 10000 2.21 192 07:39 03.09.2021
6537 Clouds 11 1025 86 10000 2.19 176 00:44 03.09.2021
6538 Clouds 12 1025 84 10000 2.08 170 22:55 02.09.2021
6539 Clouds 12 1024 81 10000 2.07 161 21:25 02.09.2021
6540 Clouds 16 1023 71 10000 1.42 152 19:27 02.09.2021
6541 Clouds 18 1022 56 10000 1.05 137 17:31 02.09.2021
6542 Clouds 18 1022 56 10000 1.05 137 17:31 02.09.2021
6543 Clouds 17 1022 63 10000 0.95 149 15:49 02.09.2021
6544 Clouds 18 1023 58 10000 0.86 149 13:57 02.09.2021
6545 Clouds 15 1023 59 10000 0.89 156 12:36 02.09.2021
6546 Clouds 14 1024 64 10000 1.3 169 11:33 02.09.2021
6547 Clouds 13 1025 77 10000 2.11 180 09:39 02.09.2021
6548 Clouds 8 1025 90 10000 2.44 191 07:45 02.09.2021
6549 Clear 6 1025 89 10000 2.51 190 06:58 02.09.2021
6550 Clear 9 1025 89 10000 2 185 02:51 02.09.2021
6551 Clear 9 1025 89 10000 1.96 182 01:55 02.09.2021
6552 Clear 8 1025 89 10000 1.77 179 01:19 02.09.2021
6553 Clear 10 1025 88 10000 1.56 176 23:35 01.09.2021
6554 Clear 10 1025 87 10000 1.23 165 22:34 01.09.2021
6555 Clear 10 1025 84 10000 0.94 162 21:34 01.09.2021
6556 Clouds 13 1023 76 10000 0.35 62 19:59 01.09.2021
6557 Clouds 16 1022 63 10000 0.78 24 18:29 01.09.2021
6558 Clouds 16 1022 60 10000 0.78 24 17:35 01.09.2021
6559 Clouds 17 1021 58 10000 1.08 28 16:46 01.09.2021
6560 Clear 18 1021 64 10000 1.36 32 15:25 01.09.2021
6561 Clear 14 1022 70 10000 1 58 11:50 01.09.2021
6562 Clear 13 1022 78 10000 0.7 75 10:55 01.09.2021
6563 Clear 10 1023 94 10000 0.61 106 08:46 01.09.2021
6564 Clear 9 1023 95 10000 0.51 137 07:50 01.09.2021
6565 Clouds 7 1024 90 10000 1.59 36 00:50 01.09.2021
6566 Clouds 9 1023 91 10000 1.8 23 22:30 31.08.2021
6567 Clouds 10 1023 86 10000 2.25 5 20:57 31.08.2021
6568 Clouds 11 1022 85 10000 2.53 2 19:44 31.08.2021
6569 Clouds 12 1020 72 10000 2.57 355 18:23 31.08.2021
6570 Clouds 13 1020 77 10000 2.57 355 17:33 31.08.2021
6571 Clouds 13 1020 72 10000 2.55 353 16:49 31.08.2021
6572 Clouds 13 1020 70 10000 2.78 359 15:59 31.08.2021
6573 Clouds 13 1019 84 10000 1.96 18 12:55 31.08.2021
6574 Clouds 11 1020 86 10000 2.31 13 11:25 31.08.2021
6575 Clouds 10 1020 87 10000 2.31 13 10:45 31.08.2021
6576 Clouds 10 1019 85 10000 2.14 12 09:43 31.08.2021
6577 Clouds 7 1020 80 10000 1.75 17 08:36 31.08.2021
6578 Clouds 7 1019 92 10000 1.87 358 05:58 31.08.2021
6579 Clouds 9 1019 94 10000 1.94 344 00:23 31.08.2021
6580 Clouds 9 1019 93 10000 2.07 345 23:25 30.08.2021
6581 Clouds 9 1019 91 10000 2.31 345 21:42 30.08.2021
6582 Clouds 9 1018 90 10000 2.5 345 20:42 30.08.2021
6583 Clouds 10 1017 88 10000 2.53 341 19:55 30.08.2021
6584 Clouds 11 1017 85 10000 2.62 344 19:28 30.08.2021
6585 Clouds 12 1016 69 10000 2.78 343 18:18 30.08.2021
6586 Clouds 12 1016 79 10000 2.89 343 16:49 30.08.2021
6587 Clouds 13 1016 80 10000 3 345 15:50 30.08.2021
6588 Clouds 14 1015 62 10000 3.02 343 14:37 30.08.2021
6589 Clouds 14 1015 64 10000 2.74 345 13:22 30.08.2021
6590 Clouds 13 1015 72 10000 2.62 345 11:48 30.08.2021
6591 Clouds 7 1017 94 10000 1.84 346 08:22 30.08.2021
6592 Clouds 8 1017 94 7521 2.71 335 22:18 29.08.2021
6593 Clouds 8 1017 92 8224 2.84 334 21:19 29.08.2021
6594 Clouds 10 1016 79 10000 2.98 338 19:31 29.08.2021
6595 Clouds 10 1016 74 10000 2.99 339 18:28 29.08.2021
6596 Clouds 10 1016 85 7277 3.28 345 16:25 29.08.2021
6597 Clouds 10 1016 85 7277 3.28 345 16:25 29.08.2021
6598 Clouds 10 1015 92 9569 3.68 343 14:29 29.08.2021
6599 Clouds 10 1015 93 9569 3.68 343 13:55 29.08.2021
6600 Clouds 10 1015 60 10000 3.72 339 12:58 29.08.2021
6601 Clouds 10 1015 60 10000 3.47 338 12:18 29.08.2021
6602 Clouds 10 1015 60 10000 3.47 338 12:18 29.08.2021
6603 Clouds 10 1015 91 10000 3.47 338 11:40 29.08.2021
6604 Clouds 9 1015 92 10000 3.19 338 10:48 29.08.2021
6605 Clouds 8 1016 93 10000 3.01 339 10:29 29.08.2021
6606 Clouds 8 1016 95 10000 3.01 339 09:32 29.08.2021
6607 Clouds 6 1018 95 10000 2.47 337 04:21 29.08.2021
6608 Clouds 7 1019 92 1987 2.87 335 22:57 28.08.2021
6609 Clouds 7 1018 92 6469 3.28 340 20:33 28.08.2021
6610 Rain 8 1016 84 10000 3.68 338 19:29 28.08.2021
6611 Rain 9 1016 85 10000 3.82 339 18:24 28.08.2021
6612 Rain 9 1016 78 10000 3.82 339 17:46 28.08.2021
6613 Clouds 11 1015 62 10000 3.85 339 16:32 28.08.2021
6614 Clouds 13 1015 61 10000 3.84 337 14:52 28.08.2021
6615 Clouds 12 1015 63 10000 3.38 335 13:58 28.08.2021
6616 Clouds 12 1015 62 10000 3.59 336 13:39 28.08.2021
6617 Clouds 12 1015 70 10000 3.42 340 12:30 28.08.2021
6618 Clouds 10 1015 83 10000 3.27 344 10:47 28.08.2021
6619 Clouds 9 1016 88 10000 3.26 345 09:34 28.08.2021
6620 Clouds 7 1017 92 10000 2.79 346 07:34 28.08.2021
6621 Clouds 8 1017 91 10000 2.41 348 23:45 27.08.2021
6622 Clouds 9 1016 81 10000 2.68 352 21:26 27.08.2021
6623 Clouds 9 1016 84 10000 2.68 352 20:36 27.08.2021
6624 Clouds 11 1015 65 10000 2.76 350 19:30 27.08.2021
6625 Clouds 11 1015 62 10000 3.07 350 18:38 27.08.2021
6626 Clouds 12 1015 62 10000 3.44 350 17:45 27.08.2021
6627 Clouds 12 1014 62 10000 3.5 350 16:31 27.08.2021
6628 Clouds 15 1014 53 10000 3.18 344 14:44 27.08.2021
6629 Clouds 12 1014 67 10000 2.73 341 12:56 27.08.2021
6630 Clouds 11 1014 75 10000 2.88 342 11:43 27.08.2021
6631 Clouds 10 1014 83 10000 3.07 345 10:49 27.08.2021
6632 Clouds 9 1014 86 10000 3.05 341 09:58 27.08.2021
6633 Clouds 8 1014 88 10000 2.89 342 08:55 27.08.2021
6634 Clouds 8 1014 88 10000 2.89 342 08:55 27.08.2021
6635 Clouds 8 1014 87 10000 2.89 342 08:35 27.08.2021
6636 Clouds 8 1014 90 10000 3.13 338 05:35 27.08.2021
6637 Clouds 10 1014 71 10000 3.69 332 00:39 27.08.2021
6638 Clouds 10 1014 71 9050 3.8 332 23:52 26.08.2021
6639 Clouds 10 1014 94 6372 3.79 328 22:23 26.08.2021
6640 Clouds 12 1014 72 6372 3.79 328 21:32 26.08.2021
6641 Clouds 13 1013 64 9710 3.84 336 19:30 26.08.2021
6642 Clouds 16 1012 64 10000 4.25 330 17:47 26.08.2021
6643 Clouds 17 1012 60 10000 4.13 331 17:24 26.08.2021
6644 Clouds 18 1012 58 10000 4.14 331 16:26 26.08.2021
6645 Clear 17 1012 54 10000 3.6 328 13:59 26.08.2021
6646 Clear 16 1013 52 10000 3.48 329 13:20 26.08.2021
6647 Clear 17 1013 73 10000 3.48 329 12:32 26.08.2021
6648 Clear 15 1013 80 10000 2.81 327 11:22 26.08.2021
6649 Clear 10 1014 89 10000 2.52 320 08:35 26.08.2021
6650 Clouds 9 1015 91 10000 2.1 310 07:52 26.08.2021
6651 Clouds 10 1018 94 10000 1.04 300 22:56 25.08.2021
6652 Clouds 11 1018 94 10000 1.04 300 22:36 25.08.2021